<?xml version='1.0' encoding='UTF-8'?><gpx version="1.1" creator="JPX - https://github.com/jenetics/jpx" xmlns="http://www.topografix.com/GPX/1/1"><trk><trkseg><trkpt lat="43.7147737290188" lon="13.220376781562017"><ele>5.0</ele><time>2026-04-29T08:57:44Z</time></trkpt><trkpt lat="43.714749990470324" lon="13.220458813110024"><ele>5.0</ele><time>2026-04-29T08:57:48Z</time></trkpt><trkpt lat="43.714730926199415" lon="13.220567111847554"><ele>5.0</ele><time>2026-04-29T08:57:52Z</time></trkpt><trkpt lat="43.71472918083549" lon="13.220659774935683"><ele>5.0</ele><time>2026-04-29T08:57:55Z</time></trkpt><trkpt lat="43.714720300743835" lon="13.220757183825963"><ele>5.0</ele><time>2026-04-29T08:57:57Z</time></trkpt><trkpt lat="43.7146957198754" lon="13.220883062214012"><ele>5.0</ele><time>2026-04-29T08:57:59Z</time></trkpt><trkpt lat="43.71465031964667" lon="13.221037073018769"><ele>5.166666666666667</ele><time>2026-04-29T08:58:01Z</time></trkpt><trkpt lat="43.71462639350082" lon="13.221118376425087"><ele>5.333333333333334</ele><time>2026-04-29T08:58:02Z</time></trkpt><trkpt lat="43.71453606643776" lon="13.221235658606213"><ele>5.5</ele><time>2026-04-29T08:58:04Z</time></trkpt><trkpt lat="43.714450669157266" lon="13.221346531385217"><ele>5.666666666666667</ele><time>2026-04-29T08:58:06Z</time></trkpt><trkpt lat="43.71440552126994" lon="13.221409034977606"><ele>5.833333333333333</ele><time>2026-04-29T08:58:07Z</time></trkpt><trkpt lat="43.71434862483117" lon="13.221456593103213"><ele>6.0</ele><time>2026-04-29T08:58:08Z</time></trkpt><trkpt lat="43.714273878058066" lon="13.221557020635908"><ele>6.199999999999999</ele><time>2026-04-29T08:58:10Z</time></trkpt><trkpt lat="43.71422924787711" lon="13.221625840814115"><ele>6.3999999999999995</ele><time>2026-04-29T08:58:12Z</time></trkpt><trkpt lat="43.71417615887907" lon="13.221708589882294"><ele>6.6</ele><time>2026-04-29T08:58:15Z</time></trkpt><trkpt lat="43.714142372136685" lon="13.221797191000503"><ele>6.8</ele><time>2026-04-29T08:58:27Z</time></trkpt><trkpt lat="43.71403235839292" lon="13.2217282904911"><ele>7.0</ele><time>2026-04-29T08:58:30Z</time></trkpt><trkpt lat="43.7139782630567" lon="13.221587082634528"><ele>7.000000000000001</ele><time>2026-04-29T08:58:32Z</time></trkpt><trkpt lat="43.713933825495886" lon="13.22148348461821"><ele>7.0</ele><time>2026-04-29T08:58:34Z</time></trkpt><trkpt lat="43.713886020358316" lon="13.221410667436661"><ele>7.0</ele><time>2026-04-29T08:58:36Z</time></trkpt><trkpt lat="43.713829253778144" lon="13.22131536256344"><ele>7.0</ele><time>2026-04-29T08:58:38Z</time></trkpt><trkpt lat="43.71377549677097" lon="13.221215788522413"><ele>7.000000000000001</ele><time>2026-04-29T08:58:40Z</time></trkpt><trkpt lat="43.71373021905397" lon="13.22110694469118"><ele>7.0</ele><time>2026-04-29T08:58:42Z</time></trkpt><trkpt lat="43.71368816469572" lon="13.220979720231156"><ele>6.75</ele><time>2026-04-29T08:58:44Z</time></trkpt><trkpt lat="43.71362999936678" lon="13.220842355487685"><ele>6.5</ele><time>2026-04-29T08:58:46Z</time></trkpt><trkpt lat="43.71357583515777" lon="13.220716014537283"><ele>6.25</ele><time>2026-04-29T08:58:48Z</time></trkpt><trkpt lat="43.71351466009403" lon="13.220569445936007"><ele>6.0</ele><time>2026-04-29T08:58:50Z</time></trkpt><trkpt lat="43.7134500844182" lon="13.220428248204694"><ele>5.833333333333333</ele><time>2026-04-29T08:58:52Z</time></trkpt><trkpt lat="43.7134070575726" lon="13.220353422242773"><ele>5.666666666666667</ele><time>2026-04-29T08:58:53Z</time></trkpt><trkpt lat="43.71333848155099" lon="13.220228107881603"><ele>5.5</ele><time>2026-04-29T08:58:55Z</time></trkpt><trkpt lat="43.71328699658761" lon="13.220124732153248"><ele>5.333333333333334</ele><time>2026-04-29T08:58:57Z</time></trkpt><trkpt lat="43.713235501046995" lon="13.220047895337357"><ele>5.166666666666667</ele><time>2026-04-29T08:58:59Z</time></trkpt><trkpt lat="43.71318560582059" lon="13.219967441366192"><ele>5.0</ele><time>2026-04-29T08:59:01Z</time></trkpt><trkpt lat="43.71313643817868" lon="13.219900636238206"><ele>5.0</ele><time>2026-04-29T08:59:03Z</time></trkpt><trkpt lat="43.71309008028358" lon="13.2198225214135"><ele>5.0</ele><time>2026-04-29T08:59:05Z</time></trkpt><trkpt lat="43.71302927420345" lon="13.219750907022425"><ele>5.0</ele><time>2026-04-29T08:59:07Z</time></trkpt><trkpt lat="43.71294633050617" lon="13.21966311581988"><ele>5.0</ele><time>2026-04-29T08:59:09Z</time></trkpt><trkpt lat="43.71290349840937" lon="13.219591818787926"><ele>5.0</ele><time>2026-04-29T08:59:10Z</time></trkpt><trkpt lat="43.7128419165769" lon="13.219518600297604"><ele>5.0</ele><time>2026-04-29T08:59:11Z</time></trkpt><trkpt lat="43.71278133895584" lon="13.219471768653353"><ele>5.142857142857142</ele><time>2026-04-29T08:59:12Z</time></trkpt><trkpt lat="43.71272950332786" lon="13.219401562634381"><ele>5.285714285714286</ele><time>2026-04-29T08:59:13Z</time></trkpt><trkpt lat="43.71267798055019" lon="13.219340562786888"><ele>5.428571428571429</ele><time>2026-04-29T08:59:14Z</time></trkpt><trkpt lat="43.71263222357228" lon="13.21927662529969"><ele>5.571428571428571</ele><time>2026-04-29T08:59:15Z</time></trkpt><trkpt lat="43.71258104156725" lon="13.219213594328018"><ele>5.714285714285714</ele><time>2026-04-29T08:59:16Z</time></trkpt><trkpt lat="43.71252263158115" lon="13.21913781340517"><ele>5.857142857142857</ele><time>2026-04-29T08:59:17Z</time></trkpt><trkpt lat="43.71245315378918" lon="13.219075570851233"><ele>6.0</ele><time>2026-04-29T08:59:18Z</time></trkpt><trkpt lat="43.712382724869784" lon="13.218990882644237"><ele>6.4</ele><time>2026-04-29T08:59:19Z</time></trkpt><trkpt lat="43.71230864409396" lon="13.218908422952087"><ele>6.8</ele><time>2026-04-29T08:59:20Z</time></trkpt><trkpt lat="43.712233445774096" lon="13.218816567506105"><ele>7.200000000000001</ele><time>2026-04-29T08:59:21Z</time></trkpt><trkpt lat="43.71215635999514" lon="13.218715407600733"><ele>7.6000000000000005</ele><time>2026-04-29T08:59:22Z</time></trkpt><trkpt lat="43.712084856482846" lon="13.218608815072988"><ele>8.0</ele><time>2026-04-29T08:59:23Z</time></trkpt><trkpt lat="43.71202167913942" lon="13.21848978136909"><ele>8.0</ele><time>2026-04-29T08:59:23.999Z</time></trkpt><trkpt lat="43.71195483397842" lon="13.218371796377834"><ele>8.0</ele><time>2026-04-29T08:59:24.999Z</time></trkpt><trkpt lat="43.7118928014604" lon="13.218253555681713"><ele>8.0</ele><time>2026-04-29T08:59:25.999Z</time></trkpt><trkpt lat="43.71184058761446" lon="13.218138872218038"><ele>8.0</ele><time>2026-04-29T08:59:26.999Z</time></trkpt><trkpt lat="43.71179475525743" lon="13.218026429461691"><ele>8.0</ele><time>2026-04-29T08:59:27.999Z</time></trkpt><trkpt lat="43.711765323556335" lon="13.21791600489363"><ele>8.166666666666666</ele><time>2026-04-29T08:59:28.999Z</time></trkpt><trkpt lat="43.711747017271556" lon="13.21781409669545"><ele>8.333333333333332</ele><time>2026-04-29T08:59:29.999Z</time></trkpt><trkpt lat="43.711734235805416" lon="13.21770782614224"><ele>8.5</ele><time>2026-04-29T08:59:30.999Z</time></trkpt><trkpt lat="43.71171837389788" lon="13.217592778724459"><ele>8.666666666666666</ele><time>2026-04-29T08:59:31.999Z</time></trkpt><trkpt lat="43.71169160926575" lon="13.217478276112242"><ele>8.833333333333334</ele><time>2026-04-29T08:59:33Z</time></trkpt><trkpt lat="43.71165732033307" lon="13.217374715691573"><ele>9.0</ele><time>2026-04-29T08:59:34Z</time></trkpt><trkpt lat="43.71161562034411" lon="13.217271234672149"><ele>9.0</ele><time>2026-04-29T08:59:35Z</time></trkpt><trkpt lat="43.7115651327822" lon="13.21716972973219"><ele>9.0</ele><time>2026-04-29T08:59:36Z</time></trkpt><trkpt lat="43.71150059938547" lon="13.217076694162534"><ele>9.0</ele><time>2026-04-29T08:59:37Z</time></trkpt><trkpt lat="43.711438044677024" lon="13.216986984312046"><ele>9.0</ele><time>2026-04-29T08:59:38Z</time></trkpt><trkpt lat="43.71138102676545" lon="13.216907567677678"><ele>9.0</ele><time>2026-04-29T08:59:39Z</time></trkpt><trkpt lat="43.71132611904304" lon="13.216827508379595"><ele>9.0</ele><time>2026-04-29T08:59:40Z</time></trkpt><trkpt lat="43.71126585963837" lon="13.21674014646408"><ele>9.0</ele><time>2026-04-29T08:59:41Z</time></trkpt><trkpt lat="43.711204825355786" lon="13.216657085206462"><ele>9.0</ele><time>2026-04-29T08:59:42Z</time></trkpt><trkpt lat="43.71114677526551" lon="13.216574594392469"><ele>9.0</ele><time>2026-04-29T08:59:43Z</time></trkpt><trkpt lat="43.711087177673654" lon="13.21648929981375"><ele>9.0</ele><time>2026-04-29T08:59:44Z</time></trkpt><trkpt lat="43.71102344380141" lon="13.2164014367351"><ele>9.0</ele><time>2026-04-29T08:59:45Z</time></trkpt><trkpt lat="43.71097189129825" lon="13.216310381434749"><ele>9.0</ele><time>2026-04-29T08:59:46Z</time></trkpt><trkpt lat="43.71091517625817" lon="13.21623310647924"><ele>8.0</ele><time>2026-04-29T08:59:47Z</time></trkpt><trkpt lat="43.71086812690153" lon="13.216163675452941"><ele>7.0</ele><time>2026-04-29T08:59:48Z</time></trkpt><trkpt lat="43.71078429087202" lon="13.216047614536517"><ele>6.0</ele><time>2026-04-29T08:59:50Z</time></trkpt><trkpt lat="43.71071285061986" lon="13.215944564730766"><ele>5.0</ele><time>2026-04-29T08:59:52Z</time></trkpt><trkpt lat="43.710627915503515" lon="13.21584039814068"><ele>4.0</ele><time>2026-04-29T08:59:54Z</time></trkpt><trkpt lat="43.71057324833985" lon="13.215698740068476"><ele>3.6</ele><time>2026-04-29T08:59:56Z</time></trkpt><trkpt lat="43.710534195442584" lon="13.215590599350827"><ele>3.2</ele><time>2026-04-29T08:59:58Z</time></trkpt><trkpt lat="43.71049372628522" lon="13.21550378795795"><ele>2.8000000000000003</ele><time>2026-04-29T09:00:00Z</time></trkpt><trkpt lat="43.71044159874319" lon="13.215383020335203"><ele>2.4000000000000004</ele><time>2026-04-29T09:00:02Z</time></trkpt><trkpt lat="43.710391972925926" lon="13.215245324204968"><ele>2.0</ele><time>2026-04-29T09:00:04Z</time></trkpt><trkpt lat="43.71034066389957" lon="13.215078580833316"><ele>2.0</ele><time>2026-04-29T09:00:06Z</time></trkpt><trkpt lat="43.71029689323355" lon="13.214975438916579"><ele>2.0</ele><time>2026-04-29T09:00:07Z</time></trkpt><trkpt lat="43.71025349958075" lon="13.214863261336982"><ele>2.0</ele><time>2026-04-29T09:00:08Z</time></trkpt><trkpt lat="43.710199752609384" lon="13.214744193048835"><ele>2.0</ele><time>2026-04-29T09:00:09Z</time></trkpt><trkpt lat="43.71013659125945" lon="13.214625062891777"><ele>2.0</ele><time>2026-04-29T09:00:10Z</time></trkpt><trkpt lat="43.710069532706385" lon="13.21451018317116"><ele>2.5</ele><time>2026-04-29T09:00:11Z</time></trkpt><trkpt lat="43.709995334550115" lon="13.214396641096824"><ele>3.0</ele><time>2026-04-29T09:00:12Z</time></trkpt><trkpt lat="43.70991159054643" lon="13.214287384401938"><ele>3.5</ele><time>2026-04-29T09:00:13Z</time></trkpt><trkpt lat="43.70981886080928" lon="13.214184929571964"><ele>4.0</ele><time>2026-04-29T09:00:14Z</time></trkpt><trkpt lat="43.70972375527624" lon="13.214093530502062"><ele>4.0</ele><time>2026-04-29T09:00:15Z</time></trkpt><trkpt lat="43.709629522293895" lon="13.214012421289782"><ele>4.0</ele><time>2026-04-29T09:00:16Z</time></trkpt><trkpt lat="43.709530984110366" lon="13.213942407392006"><ele>4.0</ele><time>2026-04-29T09:00:17Z</time></trkpt><trkpt lat="43.70943725346429" lon="13.213879031343385"><ele>4.0</ele><time>2026-04-29T09:00:18Z</time></trkpt><trkpt lat="43.70933805384516" lon="13.213818301446754"><ele>4.0</ele><time>2026-04-29T09:00:19Z</time></trkpt><trkpt lat="43.70923711951127" lon="13.213750408019195"><ele>4.0</ele><time>2026-04-29T09:00:20Z</time></trkpt><trkpt lat="43.70914030279594" lon="13.213683317804819"><ele>4.0</ele><time>2026-04-29T09:00:21Z</time></trkpt><trkpt lat="43.7090386324455" lon="13.213614503897594"><ele>4.0</ele><time>2026-04-29T09:00:22Z</time></trkpt><trkpt lat="43.70892212665743" lon="13.213534996195083"><ele>4.0</ele><time>2026-04-29T09:00:23Z</time></trkpt><trkpt lat="43.70879744778869" lon="13.213452627878377"><ele>4.0</ele><time>2026-04-29T09:00:24Z</time></trkpt><trkpt lat="43.70867227748409" lon="13.21336268815187"><ele>4.0</ele><time>2026-04-29T09:00:25Z</time></trkpt><trkpt lat="43.70854678556525" lon="13.213285730993377"><ele>4.0</ele><time>2026-04-29T09:00:26Z</time></trkpt><trkpt lat="43.708437315209416" lon="13.213202778254686"><ele>4.0</ele><time>2026-04-29T09:00:27Z</time></trkpt><trkpt lat="43.708347324013424" lon="13.21310786673715"><ele>4.2</ele><time>2026-04-29T09:00:28Z</time></trkpt><trkpt lat="43.708274430322916" lon="13.213026559432546"><ele>4.4</ele><time>2026-04-29T09:00:29Z</time></trkpt><trkpt lat="43.70820268408669" lon="13.212904213533461"><ele>4.6</ele><time>2026-04-29T09:00:30Z</time></trkpt><trkpt lat="43.70813326970994" lon="13.21280205370377"><ele>4.8</ele><time>2026-04-29T09:00:31Z</time></trkpt><trkpt lat="43.70806319545614" lon="13.21269872052501"><ele>5.0</ele><time>2026-04-29T09:00:32Z</time></trkpt><trkpt lat="43.70800153912548" lon="13.212603406525425"><ele>5.0</ele><time>2026-04-29T09:00:33Z</time></trkpt><trkpt lat="43.707936032365154" lon="13.212503293368982"><ele>5.0</ele><time>2026-04-29T09:00:34Z</time></trkpt><trkpt lat="43.7078758739545" lon="13.212410153866362"><ele>5.0</ele><time>2026-04-29T09:00:35Z</time></trkpt><trkpt lat="43.70783013814499" lon="13.212336119686993"><ele>5.0</ele><time>2026-04-29T09:00:36Z</time></trkpt><trkpt lat="43.70776194304408" lon="13.212222985225251"><ele>5.0</ele><time>2026-04-29T09:00:38Z</time></trkpt><trkpt lat="43.70770821628332" lon="13.212113599940782"><ele>4.833333333333334</ele><time>2026-04-29T09:00:40Z</time></trkpt><trkpt lat="43.70767718678507" lon="13.2120342012593"><ele>4.666666666666667</ele><time>2026-04-29T09:00:41Z</time></trkpt><trkpt lat="43.70764276710863" lon="13.211958698730117"><ele>4.5</ele><time>2026-04-29T09:00:42Z</time></trkpt><trkpt lat="43.7075946606945" lon="13.211871094146717"><ele>4.333333333333333</ele><time>2026-04-29T09:00:43Z</time></trkpt><trkpt lat="43.70752368880061" lon="13.211754409257884"><ele>4.166666666666666</ele><time>2026-04-29T09:00:44Z</time></trkpt><trkpt lat="43.70745183928636" lon="13.21164954822238"><ele>4.0</ele><time>2026-04-29T09:00:45Z</time></trkpt><trkpt lat="43.70737528963695" lon="13.211548558934032"><ele>4.2</ele><time>2026-04-29T09:00:46Z</time></trkpt><trkpt lat="43.70730424070573" lon="13.211458311394953"><ele>4.4</ele><time>2026-04-29T09:00:47Z</time></trkpt><trkpt lat="43.70722865126648" lon="13.211368473662237"><ele>4.6</ele><time>2026-04-29T09:00:48Z</time></trkpt><trkpt lat="43.7071457625226" lon="13.211297629273249"><ele>4.8</ele><time>2026-04-29T09:00:49Z</time></trkpt><trkpt lat="43.70705776716193" lon="13.211231578786142"><ele>5.0</ele><time>2026-04-29T09:00:50Z</time></trkpt><trkpt lat="43.706969437876" lon="13.211169307160013"><ele>5.0</ele><time>2026-04-29T09:00:51Z</time></trkpt><trkpt lat="43.706887266476045" lon="13.211106929289189"><ele>5.0</ele><time>2026-04-29T09:00:52Z</time></trkpt><trkpt lat="43.70678170571071" lon="13.211086945113001"><ele>5.0</ele><time>2026-04-29T09:00:53Z</time></trkpt><trkpt lat="43.70669716670352" lon="13.211036796321913"><ele>5.0</ele><time>2026-04-29T09:00:54Z</time></trkpt><trkpt lat="43.706622173025345" lon="13.210971995466615"><ele>5.0</ele><time>2026-04-29T09:00:55Z</time></trkpt><trkpt lat="43.70655466550892" lon="13.210887469177722"><ele>5.0</ele><time>2026-04-29T09:00:56Z</time></trkpt><trkpt lat="43.70648469655786" lon="13.21078600769078"><ele>5.0</ele><time>2026-04-29T09:00:57Z</time></trkpt><trkpt lat="43.70641049286944" lon="13.21069495175866"><ele>5.0</ele><time>2026-04-29T09:00:58Z</time></trkpt><trkpt lat="43.70634737232316" lon="13.210607630292042"><ele>5.0</ele><time>2026-04-29T09:00:59Z</time></trkpt><trkpt lat="43.70628373833577" lon="13.210533912098706"><ele>5.0</ele><time>2026-04-29T09:01:00Z</time></trkpt><trkpt lat="43.706220670655014" lon="13.21044927280743"><ele>5.166666666666667</ele><time>2026-04-29T09:01:01Z</time></trkpt><trkpt lat="43.70616032483776" lon="13.210355396498013"><ele>5.333333333333334</ele><time>2026-04-29T09:01:02Z</time></trkpt><trkpt lat="43.706097520406374" lon="13.210268526381837"><ele>5.5</ele><time>2026-04-29T09:01:03Z</time></trkpt><trkpt lat="43.70603568482679" lon="13.21019096203397"><ele>5.666666666666667</ele><time>2026-04-29T09:01:04Z</time></trkpt><trkpt lat="43.70597879036989" lon="13.210124142557774"><ele>5.833333333333333</ele><time>2026-04-29T09:01:05Z</time></trkpt><trkpt lat="43.70591362895649" lon="13.210031828208255"><ele>6.0</ele><time>2026-04-29T09:01:07Z</time></trkpt><trkpt lat="43.70586772888942" lon="13.20995461067993"><ele>6.0</ele><time>2026-04-29T09:01:12Z</time></trkpt><trkpt lat="43.70580433323501" lon="13.209859783201944"><ele>6.0</ele><time>2026-04-29T09:01:14Z</time></trkpt><trkpt lat="43.70573503183359" lon="13.209756331767586"><ele>6.0</ele><time>2026-04-29T09:01:16Z</time></trkpt><trkpt lat="43.70564682546282" lon="13.209670427325694"><ele>6.0</ele><time>2026-04-29T09:01:18Z</time></trkpt><trkpt lat="43.70557960813757" lon="13.209626122358426"><ele>6.0</ele><time>2026-04-29T09:01:19Z</time></trkpt><trkpt lat="43.70550370655135" lon="13.209613827874769"><ele>5.8</ele><time>2026-04-29T09:01:20Z</time></trkpt><trkpt lat="43.70543600184703" lon="13.209513461444205"><ele>5.6</ele><time>2026-04-29T09:01:21Z</time></trkpt><trkpt lat="43.70537950748188" lon="13.209426019153728"><ele>5.4</ele><time>2026-04-29T09:01:22Z</time></trkpt><trkpt lat="43.70533226769853" lon="13.209340824445825"><ele>5.2</ele><time>2026-04-29T09:01:23Z</time></trkpt><trkpt lat="43.70527672514728" lon="13.20925001692013"><ele>5.0</ele><time>2026-04-29T09:01:24Z</time></trkpt><trkpt lat="43.70519092215158" lon="13.209158236802617"><ele>5.0</ele><time>2026-04-29T09:01:25Z</time></trkpt><trkpt lat="43.705117155313836" lon="13.209082657036735"><ele>5.0</ele><time>2026-04-29T09:01:26Z</time></trkpt><trkpt lat="43.70503279854734" lon="13.209011744725979"><ele>5.0</ele><time>2026-04-29T09:01:27Z</time></trkpt><trkpt lat="43.70493081429655" lon="13.208943708680517"><ele>5.0</ele><time>2026-04-29T09:01:28Z</time></trkpt><trkpt lat="43.70483909601304" lon="13.208875354739142"><ele>5.0</ele><time>2026-04-29T09:01:29Z</time></trkpt><trkpt lat="43.70474315837631" lon="13.208800491069487"><ele>5.0</ele><time>2026-04-29T09:01:29.999Z</time></trkpt><trkpt lat="43.7046540106642" lon="13.208727588676467"><ele>5.0</ele><time>2026-04-29T09:01:30.999Z</time></trkpt><trkpt lat="43.70456933152585" lon="13.208649332322363"><ele>5.0</ele><time>2026-04-29T09:01:31.999Z</time></trkpt><trkpt lat="43.70448863717798" lon="13.20856959476393"><ele>5.0</ele><time>2026-04-29T09:01:32.999Z</time></trkpt><trkpt lat="43.70442023361013" lon="13.208503935647157"><ele>5.0</ele><time>2026-04-29T09:01:33.999Z</time></trkpt><trkpt lat="43.70434362859973" lon="13.208428629651099"><ele>5.0</ele><time>2026-04-29T09:01:34.999Z</time></trkpt><trkpt lat="43.70426868627147" lon="13.208340137696366"><ele>5.0</ele><time>2026-04-29T09:01:35.999Z</time></trkpt><trkpt lat="43.70417560908404" lon="13.208251541384316"><ele>5.0</ele><time>2026-04-29T09:01:36.999Z</time></trkpt><trkpt lat="43.70410408292701" lon="13.208177208146457"><ele>5.0</ele><time>2026-04-29T09:01:37.999Z</time></trkpt><trkpt lat="43.7040612669783" lon="13.208045147598863"><ele>5.0</ele><time>2026-04-29T09:01:38.999Z</time></trkpt><trkpt lat="43.70401733904291" lon="13.20797763708152"><ele>5.0</ele><time>2026-04-29T09:01:39.999Z</time></trkpt><trkpt lat="43.703964510331346" lon="13.207925529071789"><ele>5.0</ele><time>2026-04-29T09:01:40.999Z</time></trkpt><trkpt lat="43.70386994912558" lon="13.207801783256734"><ele>5.0</ele><time>2026-04-29T09:01:42.999Z</time></trkpt><trkpt lat="43.70382036628101" lon="13.2076218560174"><ele>5.0</ele><time>2026-04-29T09:01:44.999Z</time></trkpt><trkpt lat="43.7037859579387" lon="13.207533290448623"><ele>5.0</ele><time>2026-04-29T09:01:45.999Z</time></trkpt><trkpt lat="43.70374455740689" lon="13.20743407701692"><ele>5.0</ele><time>2026-04-29T09:01:46.999Z</time></trkpt><trkpt lat="43.703680709699256" lon="13.207327515565883"><ele>5.0</ele><time>2026-04-29T09:01:47.999Z</time></trkpt><trkpt lat="43.703610722340734" lon="13.207232070934857"><ele>5.0</ele><time>2026-04-29T09:01:48.999Z</time></trkpt><trkpt lat="43.70351257450805" lon="13.207122166344158"><ele>5.0</ele><time>2026-04-29T09:01:49.999Z</time></trkpt><trkpt lat="43.70340757472182" lon="13.20699702921364"><ele>5.4</ele><time>2026-04-29T09:01:50.999Z</time></trkpt><trkpt lat="43.703304458689914" lon="13.206880891837919"><ele>5.8</ele><time>2026-04-29T09:01:51.999Z</time></trkpt><trkpt lat="43.70320583962875" lon="13.206777512070344"><ele>6.199999999999999</ele><time>2026-04-29T09:01:53Z</time></trkpt><trkpt lat="43.703122322000596" lon="13.206682753141337"><ele>6.6</ele><time>2026-04-29T09:01:54Z</time></trkpt><trkpt lat="43.70305298536894" lon="13.206618820679283"><ele>7.0</ele><time>2026-04-29T09:01:55Z</time></trkpt><trkpt lat="43.70295640161025" lon="13.206562636357082"><ele>7.0</ele><time>2026-04-29T09:01:56Z</time></trkpt><trkpt lat="43.702845503592506" lon="13.206502847760802"><ele>7.0</ele><time>2026-04-29T09:01:57Z</time></trkpt><trkpt lat="43.70274852866709" lon="13.20642003013551"><ele>7.0</ele><time>2026-04-29T09:01:58Z</time></trkpt><trkpt lat="43.702654729284916" lon="13.20632207751968"><ele>7.0</ele><time>2026-04-29T09:01:59Z</time></trkpt><trkpt lat="43.702567197559844" lon="13.206218341228052"><ele>6.75</ele><time>2026-04-29T09:02:00Z</time></trkpt><trkpt lat="43.70247604194233" lon="13.206106202963117"><ele>6.5</ele><time>2026-04-29T09:02:01Z</time></trkpt><trkpt lat="43.702388225349566" lon="13.205999490268141"><ele>6.25</ele><time>2026-04-29T09:02:02Z</time></trkpt><trkpt lat="43.70230083053306" lon="13.205895975704628"><ele>6.0</ele><time>2026-04-29T09:02:03Z</time></trkpt><trkpt lat="43.70221843382422" lon="13.205795512037215"><ele>6.0</ele><time>2026-04-29T09:02:04Z</time></trkpt><trkpt lat="43.702143565233754" lon="13.205708311630524"><ele>6.0</ele><time>2026-04-29T09:02:05Z</time></trkpt><trkpt lat="43.7020687367582" lon="13.205622658421058"><ele>6.0</ele><time>2026-04-29T09:02:06Z</time></trkpt><trkpt lat="43.70199851009535" lon="13.205545159836062"><ele>6.0</ele><time>2026-04-29T09:02:07Z</time></trkpt><trkpt lat="43.70193175503992" lon="13.205459944342149"><ele>6.0</ele><time>2026-04-29T09:02:08Z</time></trkpt><trkpt lat="43.70185737947254" lon="13.20537346948527"><ele>6.0</ele><time>2026-04-29T09:02:09Z</time></trkpt><trkpt lat="43.70178463903343" lon="13.205293233606358"><ele>6.0</ele><time>2026-04-29T09:02:10Z</time></trkpt><trkpt lat="43.701739256228855" lon="13.20523213298947"><ele>6.0</ele><time>2026-04-29T09:02:11Z</time></trkpt><trkpt lat="43.701693897285686" lon="13.20516569419612"><ele>6.0</ele><time>2026-04-29T09:02:14Z</time></trkpt><trkpt lat="43.70162087882165" lon="13.205074403112707"><ele>6.0</ele><time>2026-04-29T09:02:17Z</time></trkpt><trkpt lat="43.70155403204495" lon="13.204985966868458"><ele>6.0</ele><time>2026-04-29T09:02:19Z</time></trkpt><trkpt lat="43.70147342366737" lon="13.204881683959629"><ele>6.0</ele><time>2026-04-29T09:02:21Z</time></trkpt><trkpt lat="43.701371024468266" lon="13.204749679667202"><ele>6.0</ele><time>2026-04-29T09:02:23Z</time></trkpt><trkpt lat="43.70131752362053" lon="13.204674699086828"><ele>6.0</ele><time>2026-04-29T09:02:24Z</time></trkpt><trkpt lat="43.70126662723462" lon="13.204599805962431"><ele>6.0</ele><time>2026-04-29T09:02:25Z</time></trkpt><trkpt lat="43.701208486142995" lon="13.20452453129476"><ele>6.0</ele><time>2026-04-29T09:02:26Z</time></trkpt><trkpt lat="43.70115263088326" lon="13.204450461365544"><ele>6.0</ele><time>2026-04-29T09:02:27Z</time></trkpt><trkpt lat="43.70110072633458" lon="13.204360128948176"><ele>6.199999999999999</ele><time>2026-04-29T09:02:28Z</time></trkpt><trkpt lat="43.70104921192282" lon="13.204280501479621"><ele>6.3999999999999995</ele><time>2026-04-29T09:02:29Z</time></trkpt><trkpt lat="43.70099702778635" lon="13.204183456907126"><ele>6.6</ele><time>2026-04-29T09:02:30Z</time></trkpt><trkpt lat="43.70093835595051" lon="13.20407218142664"><ele>6.8</ele><time>2026-04-29T09:02:31Z</time></trkpt><trkpt lat="43.70088669303946" lon="13.203965378985583"><ele>7.0</ele><time>2026-04-29T09:02:32Z</time></trkpt><trkpt lat="43.7008366509099" lon="13.203837209300325"><ele>6.714285714285714</ele><time>2026-04-29T09:02:33Z</time></trkpt><trkpt lat="43.70079565912737" lon="13.203727239100578"><ele>6.428571428571429</ele><time>2026-04-29T09:02:34Z</time></trkpt><trkpt lat="43.7007734969498" lon="13.203639076060337"><ele>6.142857142857142</ele><time>2026-04-29T09:02:35Z</time></trkpt><trkpt lat="43.70075094061306" lon="13.203544364834162"><ele>5.857142857142858</ele><time>2026-04-29T09:02:36Z</time></trkpt><trkpt lat="43.70072839896343" lon="13.203458531268495"><ele>5.571428571428571</ele><time>2026-04-29T09:02:37Z</time></trkpt><trkpt lat="43.700718853017435" lon="13.203368633446466"><ele>5.285714285714286</ele><time>2026-04-29T09:02:38Z</time></trkpt><trkpt lat="43.700713433245376" lon="13.20326358792659"><ele>5.0</ele><time>2026-04-29T09:02:39Z</time></trkpt><trkpt lat="43.70071422336208" lon="13.203154764396034"><ele>5.0</ele><time>2026-04-29T09:02:40Z</time></trkpt><trkpt lat="43.70071291485879" lon="13.20302222313245"><ele>5.0</ele><time>2026-04-29T09:02:41Z</time></trkpt><trkpt lat="43.70071779056608" lon="13.202869572968305"><ele>5.0</ele><time>2026-04-29T09:02:42Z</time></trkpt><trkpt lat="43.70072730746167" lon="13.202694190093085"><ele>5.0</ele><time>2026-04-29T09:02:43Z</time></trkpt><trkpt lat="43.70074693064211" lon="13.202523860077042"><ele>5.0</ele><time>2026-04-29T09:02:44Z</time></trkpt><trkpt lat="43.7007723670344" lon="13.202342172762425"><ele>5.0</ele><time>2026-04-29T09:02:45Z</time></trkpt><trkpt lat="43.700800929345625" lon="13.202174280570189"><ele>5.0</ele><time>2026-04-29T09:02:46Z</time></trkpt><trkpt lat="43.70083199112789" lon="13.202000559049674"><ele>5.0</ele><time>2026-04-29T09:02:47Z</time></trkpt><trkpt lat="43.70086156341699" lon="13.201833663572648"><ele>5.0</ele><time>2026-04-29T09:02:48Z</time></trkpt><trkpt lat="43.70089485394509" lon="13.201660983017943"><ele>5.0</ele><time>2026-04-29T09:02:49Z</time></trkpt><trkpt lat="43.700931749502956" lon="13.201482528032013"><ele>5.0</ele><time>2026-04-29T09:02:50Z</time></trkpt><trkpt lat="43.70096835554964" lon="13.201304620435776"><ele>5.0</ele><time>2026-04-29T09:02:51Z</time></trkpt><trkpt lat="43.7010053500258" lon="13.201123464462666"><ele>5.0</ele><time>2026-04-29T09:02:52Z</time></trkpt><trkpt lat="43.70104387030305" lon="13.200942831582108"><ele>5.0</ele><time>2026-04-29T09:02:53Z</time></trkpt><trkpt lat="43.701082250744356" lon="13.200755240337235"><ele>5.0</ele><time>2026-04-29T09:02:54Z</time></trkpt><trkpt lat="43.70112386690669" lon="13.200557522743633"><ele>5.0</ele><time>2026-04-29T09:02:55Z</time></trkpt><trkpt lat="43.70116896263707" lon="13.200349910751612"><ele>5.0</ele><time>2026-04-29T09:02:56Z</time></trkpt><trkpt lat="43.70121188528821" lon="13.20013887091407"><ele>5.0</ele><time>2026-04-29T09:02:57Z</time></trkpt><trkpt lat="43.70125548013876" lon="13.199917406535588"><ele>5.0</ele><time>2026-04-29T09:02:58Z</time></trkpt><trkpt lat="43.701298857604726" lon="13.199689461611483"><ele>5.333333333333334</ele><time>2026-04-29T09:02:59Z</time></trkpt><trkpt lat="43.70134571143652" lon="13.19946325540458"><ele>5.666666666666667</ele><time>2026-04-29T09:03:00Z</time></trkpt><trkpt lat="43.701393858475825" lon="13.199235466353088"><ele>6.0</ele><time>2026-04-29T09:03:01Z</time></trkpt><trkpt lat="43.70143861585997" lon="13.19900733639811"><ele>6.0</ele><time>2026-04-29T09:03:02Z</time></trkpt><trkpt lat="43.701488253285596" lon="13.1987756596263"><ele>6.0</ele><time>2026-04-29T09:03:03Z</time></trkpt><trkpt lat="43.7015383062044" lon="13.198540740829035"><ele>6.0</ele><time>2026-04-29T09:03:04Z</time></trkpt><trkpt lat="43.70158800526986" lon="13.198308035439737"><ele>6.333333333333334</ele><time>2026-04-29T09:03:05Z</time></trkpt><trkpt lat="43.70164231974873" lon="13.198051345249075"><ele>6.666666666666667</ele><time>2026-04-29T09:03:06Z</time></trkpt><trkpt lat="43.701689498075126" lon="13.197806717409481"><ele>7.0</ele><time>2026-04-29T09:03:07Z</time></trkpt><trkpt lat="43.70173911189055" lon="13.197563437349263"><ele>7.333333333333334</ele><time>2026-04-29T09:03:08Z</time></trkpt><trkpt lat="43.70178755636118" lon="13.197317573448876"><ele>7.666666666666666</ele><time>2026-04-29T09:03:09Z</time></trkpt><trkpt lat="43.701836243778196" lon="13.197077173958284"><ele>8.0</ele><time>2026-04-29T09:03:10Z</time></trkpt><trkpt lat="43.70188302845143" lon="13.196848634641045"><ele>8.666666666666666</ele><time>2026-04-29T09:03:11Z</time></trkpt><trkpt lat="43.701933968914105" lon="13.196625273060901"><ele>9.333333333333334</ele><time>2026-04-29T09:03:12Z</time></trkpt><trkpt lat="43.701981008812346" lon="13.196402598644841"><ele>10.0</ele><time>2026-04-29T09:03:13Z</time></trkpt><trkpt lat="43.70203181758419" lon="13.196175945022151"><ele>10.0</ele><time>2026-04-29T09:03:14Z</time></trkpt><trkpt lat="43.70207857761911" lon="13.195945269326803"><ele>10.0</ele><time>2026-04-29T09:03:15Z</time></trkpt><trkpt lat="43.70212601648621" lon="13.195715550384465"><ele>10.0</ele><time>2026-04-29T09:03:16Z</time></trkpt><trkpt lat="43.70216429750026" lon="13.19548852147361"><ele>10.333333333333334</ele><time>2026-04-29T09:03:17Z</time></trkpt><trkpt lat="43.70218795113443" lon="13.19525890290009"><ele>10.666666666666666</ele><time>2026-04-29T09:03:18Z</time></trkpt><trkpt lat="43.70219852298033" lon="13.195035219213555"><ele>11.0</ele><time>2026-04-29T09:03:19Z</time></trkpt><trkpt lat="43.70219384760683" lon="13.19481114236043"><ele>11.333333333333332</ele><time>2026-04-29T09:03:20Z</time></trkpt><trkpt lat="43.70218235336475" lon="13.19459583694309"><ele>11.666666666666666</ele><time>2026-04-29T09:03:21Z</time></trkpt><trkpt lat="43.70216402469182" lon="13.194378696007448"><ele>12.0</ele><time>2026-04-29T09:03:22Z</time></trkpt><trkpt lat="43.70212741928631" lon="13.194177198618434"><ele>12.666666666666668</ele><time>2026-04-29T09:03:23Z</time></trkpt><trkpt lat="43.702081835193525" lon="13.193977209056627"><ele>13.333333333333334</ele><time>2026-04-29T09:03:24Z</time></trkpt><trkpt lat="43.702028973583865" lon="13.193783134101505"><ele>14.0</ele><time>2026-04-29T09:03:25Z</time></trkpt><trkpt lat="43.701971825127195" lon="13.193590840589465"><ele>14.0</ele><time>2026-04-29T09:03:26Z</time></trkpt><trkpt lat="43.70190174598507" lon="13.193405812144954"><ele>14.0</ele><time>2026-04-29T09:03:27Z</time></trkpt><trkpt lat="43.70182021464148" lon="13.193236383967236"><ele>14.0</ele><time>2026-04-29T09:03:28Z</time></trkpt><trkpt lat="43.70173044468255" lon="13.193064549651199"><ele>14.0</ele><time>2026-04-29T09:03:29Z</time></trkpt><trkpt lat="43.70163058607449" lon="13.19289973750742"><ele>14.0</ele><time>2026-04-29T09:03:30Z</time></trkpt><trkpt lat="43.70152102322069" lon="13.19274998947245"><ele>14.0</ele><time>2026-04-29T09:03:31Z</time></trkpt><trkpt lat="43.701395869264545" lon="13.192613745617255"><ele>14.0</ele><time>2026-04-29T09:03:32Z</time></trkpt><trkpt lat="43.701269207573375" lon="13.192479092595935"><ele>14.0</ele><time>2026-04-29T09:03:33Z</time></trkpt><trkpt lat="43.70113361628146" lon="13.192372553567594"><ele>14.0</ele><time>2026-04-29T09:03:34Z</time></trkpt><trkpt lat="43.70099550198606" lon="13.192277788513344"><ele>14.0</ele><time>2026-04-29T09:03:34.999Z</time></trkpt><trkpt lat="43.70087188410444" lon="13.192193743261555"><ele>14.0</ele><time>2026-04-29T09:03:35.999Z</time></trkpt><trkpt lat="43.7007553636922" lon="13.19211526856954"><ele>14.0</ele><time>2026-04-29T09:03:36.999Z</time></trkpt><trkpt lat="43.700653697696" lon="13.192051055267072"><ele>14.0</ele><time>2026-04-29T09:03:37.999Z</time></trkpt><trkpt lat="43.70057589439996" lon="13.192001327736133"><ele>14.0</ele><time>2026-04-29T09:03:38.999Z</time></trkpt><trkpt lat="43.70051132835851" lon="13.19195715363227"><ele>13.999999999999998</ele><time>2026-04-29T09:03:39.999Z</time></trkpt><trkpt lat="43.70041559984832" lon="13.191891348352767"><ele>13.999999999999998</ele><time>2026-04-29T09:03:41.999Z</time></trkpt><trkpt lat="43.7003227792785" lon="13.191842262600874"><ele>14.0</ele><time>2026-04-29T09:04:08Z</time></trkpt><trkpt lat="43.700213407814175" lon="13.191770515417751"><ele>14.0</ele><time>2026-04-29T09:04:10Z</time></trkpt><trkpt lat="43.70014415279006" lon="13.191731444479034"><ele>14.2</ele><time>2026-04-29T09:04:11Z</time></trkpt><trkpt lat="43.70007298791502" lon="13.191686100906804"><ele>14.399999999999999</ele><time>2026-04-29T09:04:12Z</time></trkpt><trkpt lat="43.70000010903315" lon="13.19163880824792"><ele>14.6</ele><time>2026-04-29T09:04:13Z</time></trkpt><trkpt lat="43.69991287788861" lon="13.191584726596536"><ele>14.8</ele><time>2026-04-29T09:04:14Z</time></trkpt><trkpt lat="43.69981768888593" lon="13.191518458024373"><ele>15.0</ele><time>2026-04-29T09:04:15Z</time></trkpt><trkpt lat="43.69971296878759" lon="13.191454221954201"><ele>15.25</ele><time>2026-04-29T09:04:16Z</time></trkpt><trkpt lat="43.699600736392874" lon="13.191385856154747"><ele>15.5</ele><time>2026-04-29T09:04:17Z</time></trkpt><trkpt lat="43.69947781255514" lon="13.191307429109006"><ele>15.75</ele><time>2026-04-29T09:04:18Z</time></trkpt><trkpt lat="43.699341239103035" lon="13.191221591013583"><ele>16.0</ele><time>2026-04-29T09:04:19Z</time></trkpt><trkpt lat="43.69920226318914" lon="13.191135136803696"><ele>16.666666666666664</ele><time>2026-04-29T09:04:20Z</time></trkpt><trkpt lat="43.69905251943962" lon="13.191047510263411"><ele>17.333333333333332</ele><time>2026-04-29T09:04:21Z</time></trkpt><trkpt lat="43.698902769871296" lon="13.19094928221061"><ele>18.0</ele><time>2026-04-29T09:04:22Z</time></trkpt><trkpt lat="43.69874750062976" lon="13.190851644450186"><ele>18.0</ele><time>2026-04-29T09:04:23Z</time></trkpt><trkpt lat="43.69858675641066" lon="13.190752579343004"><ele>18.0</ele><time>2026-04-29T09:04:24Z</time></trkpt><trkpt lat="43.698424132027625" lon="13.190649451683205"><ele>18.0</ele><time>2026-04-29T09:04:25Z</time></trkpt><trkpt lat="43.69826266624753" lon="13.190534782245116"><ele>18.0</ele><time>2026-04-29T09:04:26Z</time></trkpt><trkpt lat="43.698098644793404" lon="13.190412964995296"><ele>18.0</ele><time>2026-04-29T09:04:27Z</time></trkpt><trkpt lat="43.697936533485866" lon="13.190294273120477"><ele>18.0</ele><time>2026-04-29T09:04:28Z</time></trkpt><trkpt lat="43.69777751877418" lon="13.190171312362354"><ele>18.0</ele><time>2026-04-29T09:04:29Z</time></trkpt><trkpt lat="43.69762197220405" lon="13.190039306248481"><ele>18.0</ele><time>2026-04-29T09:04:30Z</time></trkpt><trkpt lat="43.69747204406683" lon="13.189895627850658"><ele>18.0</ele><time>2026-04-29T09:04:31Z</time></trkpt><trkpt lat="43.69732350961301" lon="13.189742436785938"><ele>18.666666666666668</ele><time>2026-04-29T09:04:32Z</time></trkpt><trkpt lat="43.69717886399466" lon="13.18958367580646"><ele>19.333333333333336</ele><time>2026-04-29T09:04:33Z</time></trkpt><trkpt lat="43.69703872207407" lon="13.18942662956124"><ele>20.0</ele><time>2026-04-29T09:04:34Z</time></trkpt><trkpt lat="43.69690129168471" lon="13.189265446926536"><ele>20.333333333333336</ele><time>2026-04-29T09:04:35Z</time></trkpt><trkpt lat="43.69676748446025" lon="13.189105152399879"><ele>20.666666666666668</ele><time>2026-04-29T09:04:36Z</time></trkpt><trkpt lat="43.69663901192763" lon="13.188943594117333"><ele>21.0</ele><time>2026-04-29T09:04:37Z</time></trkpt><trkpt lat="43.69650927257019" lon="13.188788274796302"><ele>21.333333333333332</ele><time>2026-04-29T09:04:38Z</time></trkpt><trkpt lat="43.69638672068856" lon="13.188627771216428"><ele>21.666666666666664</ele><time>2026-04-29T09:04:39Z</time></trkpt><trkpt lat="43.6962613870285" lon="13.18847065373466"><ele>22.0</ele><time>2026-04-29T09:04:40Z</time></trkpt><trkpt lat="43.696136767575254" lon="13.188310652194202"><ele>22.333333333333332</ele><time>2026-04-29T09:04:41Z</time></trkpt><trkpt lat="43.69601119932514" lon="13.188148575037069"><ele>22.666666666666668</ele><time>2026-04-29T09:04:42Z</time></trkpt><trkpt lat="43.69589144802064" lon="13.18798430370553"><ele>23.0</ele><time>2026-04-29T09:04:43Z</time></trkpt><trkpt lat="43.695777055151474" lon="13.187816630650959"><ele>23.0</ele><time>2026-04-29T09:04:44Z</time></trkpt><trkpt lat="43.695662363832966" lon="13.187648486775489"><ele>23.0</ele><time>2026-04-29T09:04:45Z</time></trkpt><trkpt lat="43.695551418652" lon="13.187477533046712"><ele>23.0</ele><time>2026-04-29T09:04:46Z</time></trkpt><trkpt lat="43.69544235377666" lon="13.187307848095605"><ele>23.333333333333336</ele><time>2026-04-29T09:04:47Z</time></trkpt><trkpt lat="43.6953347377203" lon="13.187128231622943"><ele>23.666666666666668</ele><time>2026-04-29T09:04:48Z</time></trkpt><trkpt lat="43.69523158826024" lon="13.186943007416478"><ele>24.0</ele><time>2026-04-29T09:04:49Z</time></trkpt><trkpt lat="43.69512966866992" lon="13.186754153343633"><ele>24.0</ele><time>2026-04-29T09:04:50Z</time></trkpt><trkpt lat="43.69502946444258" lon="13.186555264710789"><ele>24.0</ele><time>2026-04-29T09:04:51Z</time></trkpt><trkpt lat="43.69492600778966" lon="13.18635164613938"><ele>24.0</ele><time>2026-04-29T09:04:52Z</time></trkpt><trkpt lat="43.69482158611246" lon="13.186141459700501"><ele>24.0</ele><time>2026-04-29T09:04:53Z</time></trkpt><trkpt lat="43.69471747117417" lon="13.185927462026845"><ele>24.0</ele><time>2026-04-29T09:04:54Z</time></trkpt><trkpt lat="43.69460938221086" lon="13.185707960594353"><ele>24.0</ele><time>2026-04-29T09:04:55Z</time></trkpt><trkpt lat="43.69450146876675" lon="13.185487487929263"><ele>23.666666666666668</ele><time>2026-04-29T09:04:56Z</time></trkpt><trkpt lat="43.694393180872346" lon="13.185263724621999"><ele>23.333333333333336</ele><time>2026-04-29T09:04:57Z</time></trkpt><trkpt lat="43.69428651861027" lon="13.18504517760377"><ele>23.0</ele><time>2026-04-29T09:04:58Z</time></trkpt><trkpt lat="43.69417901340098" lon="13.184827724025412"><ele>23.666666666666668</ele><time>2026-04-29T09:04:59Z</time></trkpt><trkpt lat="43.694069538234736" lon="13.184614238304905"><ele>24.333333333333336</ele><time>2026-04-29T09:05:00Z</time></trkpt><trkpt lat="43.69396512872616" lon="13.184404384346422"><ele>25.0</ele><time>2026-04-29T09:05:01Z</time></trkpt><trkpt lat="43.693857965942634" lon="13.184196573928524"><ele>25.666666666666668</ele><time>2026-04-29T09:05:02Z</time></trkpt><trkpt lat="43.69374916999353" lon="13.183995767063802"><ele>26.333333333333336</ele><time>2026-04-29T09:05:03Z</time></trkpt><trkpt lat="43.69363954202737" lon="13.183804355386847"><ele>27.0</ele><time>2026-04-29T09:05:04Z</time></trkpt><trkpt lat="43.69352636176578" lon="13.183617217994655"><ele>27.0</ele><time>2026-04-29T09:05:05Z</time></trkpt><trkpt lat="43.69341817699145" lon="13.183434954111586"><ele>27.0</ele><time>2026-04-29T09:05:06Z</time></trkpt><trkpt lat="43.69330995534843" lon="13.183256394659473"><ele>27.0</ele><time>2026-04-29T09:05:07Z</time></trkpt><trkpt lat="43.69319964452861" lon="13.18308155508265"><ele>27.666666666666664</ele><time>2026-04-29T09:05:08Z</time></trkpt><trkpt lat="43.69308717100157" lon="13.182910328730857"><ele>28.333333333333332</ele><time>2026-04-29T09:05:09Z</time></trkpt><trkpt lat="43.69297689454054" lon="13.1827484464398"><ele>29.0</ele><time>2026-04-29T09:05:10Z</time></trkpt><trkpt lat="43.69286341891164" lon="13.18258698028274"><ele>29.0</ele><time>2026-04-29T09:05:11Z</time></trkpt><trkpt lat="43.69274860669531" lon="13.182428292654112"><ele>29.0</ele><time>2026-04-29T09:05:12Z</time></trkpt><trkpt lat="43.692630912943464" lon="13.182269746708434"><ele>29.0</ele><time>2026-04-29T09:05:13Z</time></trkpt><trkpt lat="43.69250955559609" lon="13.18210999889481"><ele>29.0</ele><time>2026-04-29T09:05:14Z</time></trkpt><trkpt lat="43.69238139164004" lon="13.181949302212008"><ele>29.0</ele><time>2026-04-29T09:05:15Z</time></trkpt><trkpt lat="43.692254769652976" lon="13.181789282959413"><ele>29.0</ele><time>2026-04-29T09:05:16Z</time></trkpt><trkpt lat="43.692127495444744" lon="13.181624780562847"><ele>28.666666666666664</ele><time>2026-04-29T09:05:17Z</time></trkpt><trkpt lat="43.69200045203141" lon="13.181472425863712"><ele>28.333333333333336</ele><time>2026-04-29T09:05:18Z</time></trkpt><trkpt lat="43.69187291093765" lon="13.181320492400395"><ele>28.0</ele><time>2026-04-29T09:05:19Z</time></trkpt><trkpt lat="43.691742659559544" lon="13.181167358617754"><ele>28.0</ele><time>2026-04-29T09:05:20Z</time></trkpt><trkpt lat="43.69161493283201" lon="13.181012704487845"><ele>28.0</ele><time>2026-04-29T09:05:21Z</time></trkpt><trkpt lat="43.691486272448216" lon="13.180855025097172"><ele>28.0</ele><time>2026-04-29T09:05:22Z</time></trkpt><trkpt lat="43.69135505274342" lon="13.180698725128304"><ele>27.666666666666668</ele><time>2026-04-29T09:05:23Z</time></trkpt><trkpt lat="43.69122141245593" lon="13.180539928024583"><ele>27.333333333333336</ele><time>2026-04-29T09:05:24Z</time></trkpt><trkpt lat="43.691087453706494" lon="13.18037982433808"><ele>27.0</ele><time>2026-04-29T09:05:25Z</time></trkpt><trkpt lat="43.69095216145015" lon="13.18021955444797"><ele>27.666666666666664</ele><time>2026-04-29T09:05:26Z</time></trkpt><trkpt lat="43.690820162654475" lon="13.180054025413872"><ele>28.333333333333332</ele><time>2026-04-29T09:05:27Z</time></trkpt><trkpt lat="43.690686535444506" lon="13.179885434231029"><ele>29.0</ele><time>2026-04-29T09:05:28Z</time></trkpt><trkpt lat="43.690554735607584" lon="13.179725785181258"><ele>27.333333333333332</ele><time>2026-04-29T09:05:29Z</time></trkpt><trkpt lat="43.69041964127501" lon="13.179560733797452"><ele>25.666666666666664</ele><time>2026-04-29T09:05:30Z</time></trkpt><trkpt lat="43.69028305256468" lon="13.179391789627578"><ele>24.0</ele><time>2026-04-29T09:05:31Z</time></trkpt><trkpt lat="43.690143647773745" lon="13.179223009974436"><ele>22.666666666666668</ele><time>2026-04-29T09:05:32Z</time></trkpt><trkpt lat="43.68999234061361" lon="13.179066689066333"><ele>21.333333333333336</ele><time>2026-04-29T09:05:33Z</time></trkpt><trkpt lat="43.689833917060604" lon="13.178930035633115"><ele>20.0</ele><time>2026-04-29T09:05:34Z</time></trkpt><trkpt lat="43.68967214128944" lon="13.178812603554098"><ele>19.0</ele><time>2026-04-29T09:05:35Z</time></trkpt><trkpt lat="43.68950769948164" lon="13.17872401007872"><ele>18.0</ele><time>2026-04-29T09:05:36Z</time></trkpt><trkpt lat="43.689345716863606" lon="13.178673762688181"><ele>17.0</ele><time>2026-04-29T09:05:37Z</time></trkpt><trkpt lat="43.689186811254935" lon="13.1786216551321"><ele>16.8</ele><time>2026-04-29T09:05:38Z</time></trkpt><trkpt lat="43.6890500973627" lon="13.17858593438039"><ele>16.6</ele><time>2026-04-29T09:05:39Z</time></trkpt><trkpt lat="43.68894478086121" lon="13.178564020688317"><ele>16.400000000000002</ele><time>2026-04-29T09:05:40Z</time></trkpt><trkpt lat="43.68885297515343" lon="13.17853426495856"><ele>16.2</ele><time>2026-04-29T09:05:41Z</time></trkpt><trkpt lat="43.68877797584692" lon="13.178508413683822"><ele>16.0</ele><time>2026-04-29T09:05:42Z</time></trkpt><trkpt lat="43.68871760845948" lon="13.178412752448347"><ele>15.999999999999998</ele><time>2026-04-29T09:05:43Z</time></trkpt><trkpt lat="43.688683285728246" lon="13.178329598650151"><ele>16.0</ele><time>2026-04-29T09:05:44Z</time></trkpt><trkpt lat="43.68865785689503" lon="13.178227556782158"><ele>16.0</ele><time>2026-04-29T09:05:45Z</time></trkpt><trkpt lat="43.68864124082683" lon="13.178124065035147"><ele>16.0</ele><time>2026-04-29T09:05:46Z</time></trkpt><trkpt lat="43.68862574195637" lon="13.178027590758854"><ele>15.999999999999998</ele><time>2026-04-29T09:05:47Z</time></trkpt><trkpt lat="43.6886295674755" lon="13.17787629610297"><ele>16.0</ele><time>2026-04-29T09:05:49Z</time></trkpt><trkpt lat="43.68845655706227" lon="13.177782166751673"><ele>16.400000000000002</ele><time>2026-04-29T09:05:51Z</time></trkpt><trkpt lat="43.68837105582642" lon="13.177745867938377"><ele>16.8</ele><time>2026-04-29T09:05:52Z</time></trkpt><trkpt lat="43.68827742545029" lon="13.177699590526611"><ele>17.200000000000003</ele><time>2026-04-29T09:05:53Z</time></trkpt><trkpt lat="43.688175072610974" lon="13.17764236458599"><ele>17.6</ele><time>2026-04-29T09:05:54Z</time></trkpt><trkpt lat="43.688066561962614" lon="13.177571723595433"><ele>18.0</ele><time>2026-04-29T09:05:55Z</time></trkpt><trkpt lat="43.687948822397" lon="13.177494201900638"><ele>18.0</ele><time>2026-04-29T09:05:56Z</time></trkpt><trkpt lat="43.6878328143069" lon="13.177419846420413"><ele>18.0</ele><time>2026-04-29T09:05:57Z</time></trkpt><trkpt lat="43.687741018309936" lon="13.177351558955248"><ele>18.0</ele><time>2026-04-29T09:05:58Z</time></trkpt><trkpt lat="43.687675844928435" lon="13.177285015767213"><ele>18.0</ele><time>2026-04-29T09:05:59Z</time></trkpt><trkpt lat="43.68763421477746" lon="13.177153070664298"><ele>18.0</ele><time>2026-04-29T09:06:00Z</time></trkpt><trkpt lat="43.687589782455895" lon="13.177017836728606"><ele>20.25</ele><time>2026-04-29T09:06:01Z</time></trkpt><trkpt lat="43.68753528367946" lon="13.1768824911433"><ele>22.5</ele><time>2026-04-29T09:06:02Z</time></trkpt><trkpt lat="43.68747999653986" lon="13.17674597097983"><ele>24.75</ele><time>2026-04-29T09:06:03Z</time></trkpt><trkpt lat="43.687417053189954" lon="13.176609518848554"><ele>27.0</ele><time>2026-04-29T09:06:04Z</time></trkpt><trkpt lat="43.68734946880664" lon="13.176490659155293"><ele>29.5</ele><time>2026-04-29T09:06:05Z</time></trkpt><trkpt lat="43.68728523671061" lon="13.17635912695328"><ele>32.0</ele><time>2026-04-29T09:06:06Z</time></trkpt><trkpt lat="43.68721199916979" lon="13.176246994128254"><ele>34.5</ele><time>2026-04-29T09:06:07Z</time></trkpt><trkpt lat="43.68711694670642" lon="13.176104617488205"><ele>37.0</ele><time>2026-04-29T09:06:08Z</time></trkpt><trkpt lat="43.68704786277175" lon="13.17596327210989"><ele>37.0</ele><time>2026-04-29T09:06:09Z</time></trkpt><trkpt lat="43.68698450779864" lon="13.175817893631287"><ele>37.0</ele><time>2026-04-29T09:06:10Z</time></trkpt><trkpt lat="43.68692978817217" lon="13.17566442575302"><ele>37.0</ele><time>2026-04-29T09:06:11Z</time></trkpt><trkpt lat="43.686882059850824" lon="13.17548376505149"><ele>37.0</ele><time>2026-04-29T09:06:12Z</time></trkpt><trkpt lat="43.68683401460157" lon="13.175313514029984"><ele>36.75</ele><time>2026-04-29T09:06:13Z</time></trkpt><trkpt lat="43.68678834587555" lon="13.175126290998142"><ele>36.5</ele><time>2026-04-29T09:06:14Z</time></trkpt><trkpt lat="43.68675071139999" lon="13.174949575507213"><ele>36.25</ele><time>2026-04-29T09:06:15Z</time></trkpt><trkpt lat="43.686713404620996" lon="13.174778613544623"><ele>36.0</ele><time>2026-04-29T09:06:16Z</time></trkpt><trkpt lat="43.68668067349547" lon="13.17459706895099"><ele>37.25</ele><time>2026-04-29T09:06:17Z</time></trkpt><trkpt lat="43.68665068925737" lon="13.174405049255357"><ele>38.5</ele><time>2026-04-29T09:06:18Z</time></trkpt><trkpt lat="43.686616589702126" lon="13.174208319279565"><ele>39.75</ele><time>2026-04-29T09:06:19Z</time></trkpt><trkpt lat="43.6865798343706" lon="13.174008947600461"><ele>41.0</ele><time>2026-04-29T09:06:20Z</time></trkpt><trkpt lat="43.68654364525135" lon="13.173803315624594"><ele>43.75</ele><time>2026-04-29T09:06:21Z</time></trkpt><trkpt lat="43.68650748805897" lon="13.173597338509566"><ele>46.5</ele><time>2026-04-29T09:06:22Z</time></trkpt><trkpt lat="43.68647243389853" lon="13.173398391096585"><ele>49.25</ele><time>2026-04-29T09:06:23Z</time></trkpt><trkpt lat="43.68643597812487" lon="13.173207859726288"><ele>52.0</ele><time>2026-04-29T09:06:24Z</time></trkpt><trkpt lat="43.68639747406145" lon="13.17301294950385"><ele>55.0</ele><time>2026-04-29T09:06:25Z</time></trkpt><trkpt lat="43.686352408117926" lon="13.172812824548972"><ele>58.0</ele><time>2026-04-29T09:06:26Z</time></trkpt><trkpt lat="43.68630115725614" lon="13.172611287969934"><ele>61.0</ele><time>2026-04-29T09:06:27Z</time></trkpt><trkpt lat="43.68624237664274" lon="13.172423310452503"><ele>63.75</ele><time>2026-04-29T09:06:28Z</time></trkpt><trkpt lat="43.686178435999665" lon="13.17225223908899"><ele>66.5</ele><time>2026-04-29T09:06:29Z</time></trkpt><trkpt lat="43.68613257592685" lon="13.172098252948699"><ele>69.25</ele><time>2026-04-29T09:06:30Z</time></trkpt><trkpt lat="43.68610641518106" lon="13.171944183382243"><ele>72.0</ele><time>2026-04-29T09:06:31Z</time></trkpt><trkpt lat="43.68609622104175" lon="13.171781024036289"><ele>73.25</ele><time>2026-04-29T09:06:32Z</time></trkpt><trkpt lat="43.68609167423619" lon="13.17159930814273"><ele>74.5</ele><time>2026-04-29T09:06:33Z</time></trkpt><trkpt lat="43.686096937933385" lon="13.171411247199552"><ele>75.75</ele><time>2026-04-29T09:06:34Z</time></trkpt><trkpt lat="43.68612195307293" lon="13.17124670172718"><ele>77.0</ele><time>2026-04-29T09:06:35Z</time></trkpt><trkpt lat="43.68616828191755" lon="13.17108700174952"><ele>77.0</ele><time>2026-04-29T09:06:36Z</time></trkpt><trkpt lat="43.686231248523846" lon="13.170918625064239"><ele>77.0</ele><time>2026-04-29T09:06:37Z</time></trkpt><trkpt lat="43.68630589657082" lon="13.170751581797907"><ele>77.0</ele><time>2026-04-29T09:06:38Z</time></trkpt><trkpt lat="43.68638066715918" lon="13.170590036463937"><ele>77.0</ele><time>2026-04-29T09:06:39Z</time></trkpt><trkpt lat="43.68644637528944" lon="13.170444211347004"><ele>76.5</ele><time>2026-04-29T09:06:40Z</time></trkpt><trkpt lat="43.68652184136497" lon="13.170299185209004"><ele>76.0</ele><time>2026-04-29T09:06:41Z</time></trkpt><trkpt lat="43.68660945213253" lon="13.170169778154495"><ele>75.5</ele><time>2026-04-29T09:06:42Z</time></trkpt><trkpt lat="43.68670882320271" lon="13.17004835318239"><ele>75.0</ele><time>2026-04-29T09:06:43Z</time></trkpt><trkpt lat="43.686808762450134" lon="13.16994431277865"><ele>73.75</ele><time>2026-04-29T09:06:44Z</time></trkpt><trkpt lat="43.686917919699205" lon="13.169851808742658"><ele>72.5</ele><time>2026-04-29T09:06:45Z</time></trkpt><trkpt lat="43.6870377090686" lon="13.169778534496734"><ele>71.25</ele><time>2026-04-29T09:06:46Z</time></trkpt><trkpt lat="43.687169050352665" lon="13.169737292580605"><ele>70.0</ele><time>2026-04-29T09:06:47Z</time></trkpt><trkpt lat="43.68728677104171" lon="13.169664233981681"><ele>72.5</ele><time>2026-04-29T09:06:48Z</time></trkpt><trkpt lat="43.687413829213874" lon="13.16960039575594"><ele>75.0</ele><time>2026-04-29T09:06:49Z</time></trkpt><trkpt lat="43.687536192796934" lon="13.169531143507792"><ele>77.5</ele><time>2026-04-29T09:06:50Z</time></trkpt><trkpt lat="43.68763862528876" lon="13.169457996344365"><ele>80.0</ele><time>2026-04-29T09:06:51Z</time></trkpt><trkpt lat="43.68771949809918" lon="13.169382436958697"><ele>80.0</ele><time>2026-04-29T09:06:52Z</time></trkpt><trkpt lat="43.68779413032799" lon="13.16929832528557"><ele>80.0</ele><time>2026-04-29T09:06:53Z</time></trkpt><trkpt lat="43.687859450368315" lon="13.169195257314847"><ele>80.0</ele><time>2026-04-29T09:06:54Z</time></trkpt><trkpt lat="43.687912833361636" lon="13.169072264415671"><ele>80.0</ele><time>2026-04-29T09:06:55Z</time></trkpt><trkpt lat="43.687955321734236" lon="13.16892776193955"><ele>80.0</ele><time>2026-04-29T09:06:56Z</time></trkpt><trkpt lat="43.68799171162893" lon="13.168778569528374"><ele>80.0</ele><time>2026-04-29T09:06:57Z</time></trkpt><trkpt lat="43.688030962768984" lon="13.168619914125907"><ele>80.0</ele><time>2026-04-29T09:06:58Z</time></trkpt><trkpt lat="43.68807442250378" lon="13.168463916912813"><ele>80.0</ele><time>2026-04-29T09:06:59Z</time></trkpt><trkpt lat="43.68812461249802" lon="13.168301757154456"><ele>80.0</ele><time>2026-04-29T09:07:00Z</time></trkpt><trkpt lat="43.688187966182696" lon="13.16813964216207"><ele>80.75</ele><time>2026-04-29T09:07:01Z</time></trkpt><trkpt lat="43.688264913140095" lon="13.167975580745193"><ele>81.5</ele><time>2026-04-29T09:07:02Z</time></trkpt><trkpt lat="43.68833296060661" lon="13.167805180229124"><ele>82.25</ele><time>2026-04-29T09:07:03Z</time></trkpt><trkpt lat="43.688385001748834" lon="13.167624860582647"><ele>83.0</ele><time>2026-04-29T09:07:04Z</time></trkpt><trkpt lat="43.68842124334471" lon="13.167426677628637"><ele>84.66666666666667</ele><time>2026-04-29T09:07:05Z</time></trkpt><trkpt lat="43.68844858683176" lon="13.167219839868663"><ele>86.33333333333333</ele><time>2026-04-29T09:07:06Z</time></trkpt><trkpt lat="43.68848727193965" lon="13.16701220646285"><ele>88.0</ele><time>2026-04-29T09:07:07Z</time></trkpt><trkpt lat="43.688495362820746" lon="13.166783813827028"><ele>88.0</ele><time>2026-04-29T09:07:08Z</time></trkpt><trkpt lat="43.68852924893409" lon="13.166578746856002"><ele>88.0</ele><time>2026-04-29T09:07:09Z</time></trkpt><trkpt lat="43.68855359341387" lon="13.166386996384883"><ele>88.0</ele><time>2026-04-29T09:07:10Z</time></trkpt><trkpt lat="43.68857865226041" lon="13.166201457100867"><ele>88.0</ele><time>2026-04-29T09:07:11Z</time></trkpt><trkpt lat="43.68860174971012" lon="13.166024299273309"><ele>86.25</ele><time>2026-04-29T09:07:12Z</time></trkpt><trkpt lat="43.68862185610627" lon="13.165856922315635"><ele>84.5</ele><time>2026-04-29T09:07:13Z</time></trkpt><trkpt lat="43.6886195052828" lon="13.165685470967388"><ele>82.75</ele><time>2026-04-29T09:07:14Z</time></trkpt><trkpt lat="43.68862973849897" lon="13.16552264338586"><ele>81.0</ele><time>2026-04-29T09:07:15Z</time></trkpt><trkpt lat="43.68864003218483" lon="13.165348972333963"><ele>81.0</ele><time>2026-04-29T09:07:16Z</time></trkpt><trkpt lat="43.68864857347483" lon="13.165178111700442"><ele>81.0</ele><time>2026-04-29T09:07:17Z</time></trkpt><trkpt lat="43.68865570910533" lon="13.16500457359331"><ele>81.0</ele><time>2026-04-29T09:07:18Z</time></trkpt><trkpt lat="43.68866408034454" lon="13.164834871493293"><ele>81.0</ele><time>2026-04-29T09:07:19Z</time></trkpt><trkpt lat="43.68867184628375" lon="13.164669377417956"><ele>82.75</ele><time>2026-04-29T09:07:20Z</time></trkpt><trkpt lat="43.68867405252295" lon="13.164502444124171"><ele>84.5</ele><time>2026-04-29T09:07:21Z</time></trkpt><trkpt lat="43.688670356603396" lon="13.164327115937743"><ele>86.25</ele><time>2026-04-29T09:07:22Z</time></trkpt><trkpt lat="43.688665995273404" lon="13.164143452705897"><ele>88.0</ele><time>2026-04-29T09:07:23Z</time></trkpt><trkpt lat="43.68868492551869" lon="13.163949572415692"><ele>90.0</ele><time>2026-04-29T09:07:24Z</time></trkpt><trkpt lat="43.68871304197419" lon="13.163752770847191"><ele>92.0</ele><time>2026-04-29T09:07:25Z</time></trkpt><trkpt lat="43.688767958610626" lon="13.163568724675695"><ele>94.0</ele><time>2026-04-29T09:07:26Z</time></trkpt><trkpt lat="43.68881555535739" lon="13.163388808258064"><ele>96.0</ele><time>2026-04-29T09:07:27Z</time></trkpt><trkpt lat="43.6888982981577" lon="13.1632168972652"><ele>98.25</ele><time>2026-04-29T09:07:28Z</time></trkpt><trkpt lat="43.68895417519516" lon="13.163039414374396"><ele>100.5</ele><time>2026-04-29T09:07:29Z</time></trkpt><trkpt lat="43.68902415593127" lon="13.162878637588097"><ele>102.75</ele><time>2026-04-29T09:07:30Z</time></trkpt><trkpt lat="43.68909217555736" lon="13.162721294132135"><ele>105.0</ele><time>2026-04-29T09:07:31Z</time></trkpt><trkpt lat="43.6891656139694" lon="13.162553397869264"><ele>105.25</ele><time>2026-04-29T09:07:32Z</time></trkpt><trkpt lat="43.68925806972549" lon="13.162364209583627"><ele>105.5</ele><time>2026-04-29T09:07:33Z</time></trkpt><trkpt lat="43.68933492929701" lon="13.16218467832168"><ele>105.75</ele><time>2026-04-29T09:07:34Z</time></trkpt><trkpt lat="43.68939280113597" lon="13.16204950110639"><ele>106.0</ele><time>2026-04-29T09:07:35Z</time></trkpt><trkpt lat="43.689451105338236" lon="13.161900956943601"><ele>106.0</ele><time>2026-04-29T09:07:36Z</time></trkpt><trkpt lat="43.68950764952414" lon="13.161758489090012"><ele>106.0</ele><time>2026-04-29T09:07:37Z</time></trkpt><trkpt lat="43.68956387973989" lon="13.161617750940792"><ele>106.0</ele><time>2026-04-29T09:07:38Z</time></trkpt><trkpt lat="43.68961628099778" lon="13.161476128290879"><ele>106.0</ele><time>2026-04-29T09:07:39Z</time></trkpt><trkpt lat="43.68967148603389" lon="13.161326660673462"><ele>107.0</ele><time>2026-04-29T09:07:40Z</time></trkpt><trkpt lat="43.68971853992803" lon="13.161148078669305"><ele>108.0</ele><time>2026-04-29T09:07:41Z</time></trkpt><trkpt lat="43.68977976325518" lon="13.160983182494434"><ele>109.0</ele><time>2026-04-29T09:07:42Z</time></trkpt><trkpt lat="43.68984053814349" lon="13.160820710337536"><ele>110.0</ele><time>2026-04-29T09:07:43Z</time></trkpt><trkpt lat="43.68989199210765" lon="13.160656006849637"><ele>110.5</ele><time>2026-04-29T09:07:44Z</time></trkpt><trkpt lat="43.68995274633207" lon="13.160497306953804"><ele>111.0</ele><time>2026-04-29T09:07:45Z</time></trkpt><trkpt lat="43.69002202318581" lon="13.160357332032754"><ele>111.5</ele><time>2026-04-29T09:07:46Z</time></trkpt><trkpt lat="43.69008866172743" lon="13.160210852305617"><ele>112.0</ele><time>2026-04-29T09:07:47Z</time></trkpt><trkpt lat="43.690177742769265" lon="13.160070042530917"><ele>112.25</ele><time>2026-04-29T09:07:48Z</time></trkpt><trkpt lat="43.69027805691607" lon="13.159934460623509"><ele>112.5</ele><time>2026-04-29T09:07:49Z</time></trkpt><trkpt lat="43.6903846918865" lon="13.159805635844238"><ele>112.75</ele><time>2026-04-29T09:07:50Z</time></trkpt><trkpt lat="43.69047943149995" lon="13.1596642624523"><ele>113.0</ele><time>2026-04-29T09:07:51Z</time></trkpt><trkpt lat="43.69058517691283" lon="13.159533619515752"><ele>113.5</ele><time>2026-04-29T09:07:52Z</time></trkpt><trkpt lat="43.69068896493463" lon="13.159396355318083"><ele>114.0</ele><time>2026-04-29T09:07:53Z</time></trkpt><trkpt lat="43.690788676054865" lon="13.159250221814698"><ele>114.5</ele><time>2026-04-29T09:07:54Z</time></trkpt><trkpt lat="43.69087588782837" lon="13.159100532054099"><ele>115.0</ele><time>2026-04-29T09:07:55Z</time></trkpt><trkpt lat="43.69095802476916" lon="13.158936670038383"><ele>115.0</ele><time>2026-04-29T09:07:56Z</time></trkpt><trkpt lat="43.69103040241174" lon="13.158763511818567"><ele>115.0</ele><time>2026-04-29T09:07:57Z</time></trkpt><trkpt lat="43.69108816196188" lon="13.158565158768253"><ele>115.0</ele><time>2026-04-29T09:07:58Z</time></trkpt><trkpt lat="43.69112613654438" lon="13.158353612074285"><ele>117.0</ele><time>2026-04-29T09:07:59Z</time></trkpt><trkpt lat="43.691159566538474" lon="13.15814963485252"><ele>119.0</ele><time>2026-04-29T09:08:00Z</time></trkpt><trkpt lat="43.69121145821919" lon="13.15795712400506"><ele>121.0</ele><time>2026-04-29T09:08:01Z</time></trkpt><trkpt lat="43.69124641955228" lon="13.15776437816922"><ele>123.0</ele><time>2026-04-29T09:08:02Z</time></trkpt><trkpt lat="43.69127094096992" lon="13.157561882176884"><ele>124.66666666666666</ele><time>2026-04-29T09:08:03Z</time></trkpt><trkpt lat="43.69132685857861" lon="13.157359682985259"><ele>126.33333333333333</ele><time>2026-04-29T09:08:04Z</time></trkpt><trkpt lat="43.69139146554659" lon="13.157160569278503"><ele>128.0</ele><time>2026-04-29T09:08:05Z</time></trkpt><trkpt lat="43.69145991967635" lon="13.15698559871296"><ele>128.0</ele><time>2026-04-29T09:08:06Z</time></trkpt><trkpt lat="43.69152877461327" lon="13.156821047459532"><ele>128.0</ele><time>2026-04-29T09:08:07Z</time></trkpt><trkpt lat="43.69160159976981" lon="13.156653521814892"><ele>128.0</ele><time>2026-04-29T09:08:08Z</time></trkpt><trkpt lat="43.69167332121647" lon="13.15647978762401"><ele>128.0</ele><time>2026-04-29T09:08:09Z</time></trkpt><trkpt lat="43.691745584843424" lon="13.156297201440266"><ele>128.66666666666666</ele><time>2026-04-29T09:08:10Z</time></trkpt><trkpt lat="43.69181076237206" lon="13.156109993115809"><ele>129.33333333333334</ele><time>2026-04-29T09:08:11Z</time></trkpt><trkpt lat="43.691879231811434" lon="13.155921966474015"><ele>130.0</ele><time>2026-04-29T09:08:12Z</time></trkpt><trkpt lat="43.691947480456896" lon="13.155730397440017"><ele>128.33333333333334</ele><time>2026-04-29T09:08:13Z</time></trkpt><trkpt lat="43.69202276536319" lon="13.155538170387363"><ele>126.66666666666666</ele><time>2026-04-29T09:08:14Z</time></trkpt><trkpt lat="43.69209324018566" lon="13.15535010009038"><ele>125.0</ele><time>2026-04-29T09:08:15Z</time></trkpt><trkpt lat="43.69216902283329" lon="13.15516238674152"><ele>125.0</ele><time>2026-04-29T09:08:16Z</time></trkpt><trkpt lat="43.692250654120215" lon="13.154974014856828"><ele>125.0</ele><time>2026-04-29T09:08:17Z</time></trkpt><trkpt lat="43.692337575553964" lon="13.154789464471465"><ele>125.0</ele><time>2026-04-29T09:08:18Z</time></trkpt><trkpt lat="43.69242317223333" lon="13.154611829273255"><ele>125.66666666666666</ele><time>2026-04-29T09:08:19Z</time></trkpt><trkpt lat="43.692507513473494" lon="13.154433010377504"><ele>126.33333333333334</ele><time>2026-04-29T09:08:20Z</time></trkpt><trkpt lat="43.692592067773376" lon="13.154253177708627"><ele>127.0</ele><time>2026-04-29T09:08:21Z</time></trkpt><trkpt lat="43.692678016193206" lon="13.15407121074294"><ele>128.66666666666669</ele><time>2026-04-29T09:08:22Z</time></trkpt><trkpt lat="43.692763991520984" lon="13.153889397649388"><ele>130.33333333333334</ele><time>2026-04-29T09:08:23Z</time></trkpt><trkpt lat="43.69285056982587" lon="13.153707481427473"><ele>132.0</ele><time>2026-04-29T09:08:24Z</time></trkpt><trkpt lat="43.69293649829146" lon="13.153524096760105"><ele>132.0</ele><time>2026-04-29T09:08:25Z</time></trkpt><trkpt lat="43.69302148535667" lon="13.153342703293797"><ele>132.0</ele><time>2026-04-29T09:08:26Z</time></trkpt><trkpt lat="43.69310729410428" lon="13.153160464008913"><ele>132.0</ele><time>2026-04-29T09:08:27Z</time></trkpt><trkpt lat="43.69318808118055" lon="13.152986291775434"><ele>132.5</ele><time>2026-04-29T09:08:28Z</time></trkpt><trkpt lat="43.69326367794059" lon="13.152818398472858"><ele>133.0</ele><time>2026-04-29T09:08:29Z</time></trkpt><trkpt lat="43.69334284111447" lon="13.152646484725338"><ele>133.5</ele><time>2026-04-29T09:08:30Z</time></trkpt><trkpt lat="43.69342127847655" lon="13.152482673747189"><ele>134.0</ele><time>2026-04-29T09:08:31Z</time></trkpt><trkpt lat="43.69350059302151" lon="13.15231697580572"><ele>134.0</ele><time>2026-04-29T09:08:32Z</time></trkpt><trkpt lat="43.69356802161912" lon="13.152161349731145"><ele>134.0</ele><time>2026-04-29T09:08:33Z</time></trkpt><trkpt lat="43.6936287825508" lon="13.15201143418711"><ele>134.0</ele><time>2026-04-29T09:08:34Z</time></trkpt><trkpt lat="43.69368607545235" lon="13.151850227262935"><ele>134.0</ele><time>2026-04-29T09:08:35Z</time></trkpt><trkpt lat="43.6937358767096" lon="13.15167276520098"><ele>132.0</ele><time>2026-04-29T09:08:36Z</time></trkpt><trkpt lat="43.69377449070875" lon="13.151502406671417"><ele>130.0</ele><time>2026-04-29T09:08:37Z</time></trkpt><trkpt lat="43.69380552302331" lon="13.151339220275984"><ele>128.0</ele><time>2026-04-29T09:08:38Z</time></trkpt><trkpt lat="43.69382741192173" lon="13.151172403918354"><ele>126.0</ele><time>2026-04-29T09:08:39Z</time></trkpt><trkpt lat="43.69384796157119" lon="13.151004201554224"><ele>126.0</ele><time>2026-04-29T09:08:40Z</time></trkpt><trkpt lat="43.693869710933086" lon="13.150836503716585"><ele>126.0</ele><time>2026-04-29T09:08:41Z</time></trkpt><trkpt lat="43.69389123621139" lon="13.150668899623573"><ele>126.0</ele><time>2026-04-29T09:08:42Z</time></trkpt><trkpt lat="43.693913115136986" lon="13.150494094549343"><ele>126.0</ele><time>2026-04-29T09:08:43Z</time></trkpt><trkpt lat="43.693935995841656" lon="13.150332408578187"><ele>127.5</ele><time>2026-04-29T09:08:44Z</time></trkpt><trkpt lat="43.693958854203096" lon="13.150162748943817"><ele>129.0</ele><time>2026-04-29T09:08:45Z</time></trkpt><trkpt lat="43.69397779706506" lon="13.149998260570523"><ele>130.5</ele><time>2026-04-29T09:08:46Z</time></trkpt><trkpt lat="43.693993300504054" lon="13.149827539033051"><ele>132.0</ele><time>2026-04-29T09:08:47Z</time></trkpt><trkpt lat="43.69399178456478" lon="13.149640593364182"><ele>133.75</ele><time>2026-04-29T09:08:48Z</time></trkpt><trkpt lat="43.693985101718226" lon="13.149460835167613"><ele>135.5</ele><time>2026-04-29T09:08:49Z</time></trkpt><trkpt lat="43.69397435241922" lon="13.149284143968508"><ele>137.25</ele><time>2026-04-29T09:08:50Z</time></trkpt><trkpt lat="43.69395630907181" lon="13.149102367952972"><ele>139.0</ele><time>2026-04-29T09:08:51Z</time></trkpt><trkpt lat="43.6939294694185" lon="13.148930564716103"><ele>141.25</ele><time>2026-04-29T09:08:52Z</time></trkpt><trkpt lat="43.69389456519062" lon="13.14876666445284"><ele>143.5</ele><time>2026-04-29T09:08:53Z</time></trkpt><trkpt lat="43.69386606730393" lon="13.148599408638203"><ele>145.75</ele><time>2026-04-29T09:08:54Z</time></trkpt><trkpt lat="43.6938490667037" lon="13.148438108270149"><ele>148.0</ele><time>2026-04-29T09:08:55Z</time></trkpt><trkpt lat="43.69385847209441" lon="13.148296146160824"><ele>148.20000000000002</ele><time>2026-04-29T09:08:56Z</time></trkpt><trkpt lat="43.69389091117277" lon="13.148162323575946"><ele>148.4</ele><time>2026-04-29T09:08:57Z</time></trkpt><trkpt lat="43.6939461856069" lon="13.148061681769999"><ele>148.60000000000002</ele><time>2026-04-29T09:08:58Z</time></trkpt><trkpt lat="43.69403041516955" lon="13.147974514585796"><ele>148.8</ele><time>2026-04-29T09:08:59Z</time></trkpt><trkpt lat="43.69411892193099" lon="13.147877035851872"><ele>149.0</ele><time>2026-04-29T09:09:00Z</time></trkpt><trkpt lat="43.694202648488606" lon="13.147801195406018"><ele>149.0</ele><time>2026-04-29T09:09:01Z</time></trkpt><trkpt lat="43.69428556139386" lon="13.147714244357394"><ele>149.0</ele><time>2026-04-29T09:09:02Z</time></trkpt><trkpt lat="43.69437505140345" lon="13.147612494842656"><ele>149.0</ele><time>2026-04-29T09:09:03Z</time></trkpt><trkpt lat="43.694472889600505" lon="13.147508261333558"><ele>149.0</ele><time>2026-04-29T09:09:04Z</time></trkpt><trkpt lat="43.694566390638066" lon="13.14739934566497"><ele>149.25</ele><time>2026-04-29T09:09:05Z</time></trkpt><trkpt lat="43.69465747213511" lon="13.14727889257947"><ele>149.5</ele><time>2026-04-29T09:09:06Z</time></trkpt><trkpt lat="43.694754007944155" lon="13.147157674720447"><ele>149.75</ele><time>2026-04-29T09:09:07Z</time></trkpt><trkpt lat="43.69484611527519" lon="13.147042805835886"><ele>150.0</ele><time>2026-04-29T09:09:08Z</time></trkpt><trkpt lat="43.69492981879004" lon="13.146936999388728"><ele>150.0</ele><time>2026-04-29T09:09:09Z</time></trkpt><trkpt lat="43.69501357724825" lon="13.146828235830585"><ele>150.0</ele><time>2026-04-29T09:09:10Z</time></trkpt><trkpt lat="43.695106467221315" lon="13.146706558992834"><ele>150.0</ele><time>2026-04-29T09:09:11Z</time></trkpt><trkpt lat="43.695198514026416" lon="13.14658835442028"><ele>150.0</ele><time>2026-04-29T09:09:12Z</time></trkpt><trkpt lat="43.69528374433712" lon="13.146474606564926"><ele>149.75</ele><time>2026-04-29T09:09:13Z</time></trkpt><trkpt lat="43.69537095251041" lon="13.146366209900547"><ele>149.5</ele><time>2026-04-29T09:09:14Z</time></trkpt><trkpt lat="43.6954576684933" lon="13.146253280069306"><ele>149.25</ele><time>2026-04-29T09:09:15Z</time></trkpt><trkpt lat="43.69554554172825" lon="13.146137943075189"><ele>149.0</ele><time>2026-04-29T09:09:16Z</time></trkpt><trkpt lat="43.695625645528864" lon="13.146025733395584"><ele>149.0</ele><time>2026-04-29T09:09:17Z</time></trkpt><trkpt lat="43.69568895208063" lon="13.145915444204546"><ele>149.0</ele><time>2026-04-29T09:09:18Z</time></trkpt><trkpt lat="43.69573440396548" lon="13.145798215724401"><ele>149.0</ele><time>2026-04-29T09:09:19Z</time></trkpt><trkpt lat="43.69577281480451" lon="13.145665768747017"><ele>149.0</ele><time>2026-04-29T09:09:20Z</time></trkpt><trkpt lat="43.695804425757984" lon="13.14553169745923"><ele>149.0</ele><time>2026-04-29T09:09:21Z</time></trkpt><trkpt lat="43.695821071369295" lon="13.145395446056218"><ele>149.0</ele><time>2026-04-29T09:09:22Z</time></trkpt><trkpt lat="43.6958298612407" lon="13.145260061216874"><ele>149.0</ele><time>2026-04-29T09:09:23Z</time></trkpt><trkpt lat="43.6958322695195" lon="13.145124255292725"><ele>149.0</ele><time>2026-04-29T09:09:24Z</time></trkpt><trkpt lat="43.69582161131944" lon="13.14501067834409"><ele>149.0</ele><time>2026-04-29T09:09:25Z</time></trkpt><trkpt lat="43.69579492945416" lon="13.144912451724469"><ele>149.0</ele><time>2026-04-29T09:09:26Z</time></trkpt><trkpt lat="43.69576186257474" lon="13.144832459356374"><ele>149.0</ele><time>2026-04-29T09:09:27Z</time></trkpt><trkpt lat="43.69571324190808" lon="13.144716979121656"><ele>149.0</ele><time>2026-04-29T09:09:29Z</time></trkpt><trkpt lat="43.69574331014802" lon="13.144602314569418"><ele>149.0</ele><time>2026-04-29T09:09:31Z</time></trkpt><trkpt lat="43.695858318070954" lon="13.1445536718531"><ele>149.0</ele><time>2026-04-29T09:09:33Z</time></trkpt><trkpt lat="43.69594100851055" lon="13.144551569542484"><ele>149.0</ele><time>2026-04-29T09:09:34Z</time></trkpt><trkpt lat="43.69602446900794" lon="13.144546162050295"><ele>149.0</ele><time>2026-04-29T09:09:35Z</time></trkpt><trkpt lat="43.69611090507943" lon="13.144535871399865"><ele>147.8</ele><time>2026-04-29T09:09:36Z</time></trkpt><trkpt lat="43.69620378786499" lon="13.14455086544472"><ele>146.60000000000002</ele><time>2026-04-29T09:09:37Z</time></trkpt><trkpt lat="43.69630709040246" lon="13.144531461214834"><ele>145.4</ele><time>2026-04-29T09:09:38Z</time></trkpt><trkpt lat="43.69640064047208" lon="13.144543900160064"><ele>144.20000000000002</ele><time>2026-04-29T09:09:39Z</time></trkpt><trkpt lat="43.69648955091287" lon="13.144578561572079"><ele>143.0</ele><time>2026-04-29T09:09:40Z</time></trkpt><trkpt lat="43.69657851117913" lon="13.144639489471928"><ele>143.0</ele><time>2026-04-29T09:09:41Z</time></trkpt><trkpt lat="43.69666413390719" lon="13.144712943032772"><ele>143.0</ele><time>2026-04-29T09:09:42Z</time></trkpt><trkpt lat="43.69675387997898" lon="13.144775156750145"><ele>143.0</ele><time>2026-04-29T09:09:43Z</time></trkpt><trkpt lat="43.69684736864536" lon="13.144845427178824"><ele>143.0</ele><time>2026-04-29T09:09:44Z</time></trkpt><trkpt lat="43.696952082347536" lon="13.14487536230581"><ele>143.0</ele><time>2026-04-29T09:09:45Z</time></trkpt><trkpt lat="43.69705636079295" lon="13.144858936127434"><ele>142.0</ele><time>2026-04-29T09:09:46Z</time></trkpt><trkpt lat="43.69715923979995" lon="13.144840887543912"><ele>141.0</ele><time>2026-04-29T09:09:47Z</time></trkpt><trkpt lat="43.697259690976416" lon="13.144790623396739"><ele>140.0</ele><time>2026-04-29T09:09:48Z</time></trkpt><trkpt lat="43.697359812892316" lon="13.144707685569404"><ele>139.0</ele><time>2026-04-29T09:09:49Z</time></trkpt><trkpt lat="43.69745489942043" lon="13.144605287192851"><ele>138.0</ele><time>2026-04-29T09:09:50Z</time></trkpt><trkpt lat="43.697548076369095" lon="13.144498933108117"><ele>138.0</ele><time>2026-04-29T09:09:51Z</time></trkpt><trkpt lat="43.697633919800516" lon="13.144384459997903"><ele>138.0</ele><time>2026-04-29T09:09:52Z</time></trkpt><trkpt lat="43.697724912641014" lon="13.144278606575709"><ele>138.0</ele><time>2026-04-29T09:09:53Z</time></trkpt><trkpt lat="43.6978176162569" lon="13.144177349277625"><ele>138.0</ele><time>2026-04-29T09:09:54Z</time></trkpt><trkpt lat="43.6979151337832" lon="13.144087188814314"><ele>137.5</ele><time>2026-04-29T09:09:55Z</time></trkpt><trkpt lat="43.69802149896377" lon="13.144019216509424"><ele>137.0</ele><time>2026-04-29T09:09:56Z</time></trkpt><trkpt lat="43.698112274379746" lon="13.143979789887233"><ele>136.5</ele><time>2026-04-29T09:09:57Z</time></trkpt><trkpt lat="43.6980923181407" lon="13.143682305101747"><ele>136.0</ele><time>2026-04-29T09:10:17Z</time></trkpt><trkpt lat="43.69804015935575" lon="13.143548939950591"><ele>136.0</ele><time>2026-04-29T09:10:19Z</time></trkpt><trkpt lat="43.698016594902725" lon="13.143456347061479"><ele>136.0</ele><time>2026-04-29T09:10:20Z</time></trkpt><trkpt lat="43.69798624759127" lon="13.143358461995463"><ele>136.0</ele><time>2026-04-29T09:10:21Z</time></trkpt><trkpt lat="43.69795722811852" lon="13.143256854094425"><ele>136.0</ele><time>2026-04-29T09:10:22Z</time></trkpt><trkpt lat="43.697933413217996" lon="13.143167936011988"><ele>136.0</ele><time>2026-04-29T09:10:23Z</time></trkpt><trkpt lat="43.697913076210156" lon="13.143012100436064"><ele>136.0</ele><time>2026-04-29T09:10:25Z</time></trkpt><trkpt lat="43.69795639049923" lon="13.142876682830671"><ele>135.83333333333334</ele><time>2026-04-29T09:10:27Z</time></trkpt><trkpt lat="43.69803085292577" lon="13.142837836597392"><ele>135.66666666666669</ele><time>2026-04-29T09:10:28Z</time></trkpt><trkpt lat="43.69808114954326" lon="13.142764288042144"><ele>135.5</ele><time>2026-04-29T09:10:29Z</time></trkpt><trkpt lat="43.698127847283665" lon="13.142664355955088"><ele>135.33333333333334</ele><time>2026-04-29T09:10:30Z</time></trkpt><trkpt lat="43.69814961399192" lon="13.142545642721586"><ele>135.16666666666666</ele><time>2026-04-29T09:10:31Z</time></trkpt><trkpt lat="43.69816792154685" lon="13.142420372701574"><ele>135.0</ele><time>2026-04-29T09:10:32Z</time></trkpt><trkpt lat="43.69817384200647" lon="13.142282647857172"><ele>135.0</ele><time>2026-04-29T09:10:33Z</time></trkpt><trkpt lat="43.69816653533119" lon="13.142144592519035"><ele>135.0</ele><time>2026-04-29T09:10:34Z</time></trkpt><trkpt lat="43.69814589063433" lon="13.142016996687104"><ele>135.0</ele><time>2026-04-29T09:10:35Z</time></trkpt><trkpt lat="43.69812755233573" lon="13.141872167230593"><ele>135.0</ele><time>2026-04-29T09:10:36Z</time></trkpt><trkpt lat="43.69809700458384" lon="13.141752457694976"><ele>135.0</ele><time>2026-04-29T09:10:37Z</time></trkpt><trkpt lat="43.69806320830854" lon="13.141624243056542"><ele>134.66666666666666</ele><time>2026-04-29T09:10:38Z</time></trkpt><trkpt lat="43.698038737699626" lon="13.141511039283857"><ele>134.33333333333334</ele><time>2026-04-29T09:10:39Z</time></trkpt><trkpt lat="43.69802354172971" lon="13.141406386463064"><ele>134.0</ele><time>2026-04-29T09:10:40Z</time></trkpt><trkpt lat="43.69800351045815" lon="13.141285364100636"><ele>133.66666666666669</ele><time>2026-04-29T09:10:41Z</time></trkpt><trkpt lat="43.69802239571722" lon="13.141157990876817"><ele>133.33333333333334</ele><time>2026-04-29T09:10:42Z</time></trkpt><trkpt lat="43.69804242388273" lon="13.141029147440328"><ele>133.0</ele><time>2026-04-29T09:10:43Z</time></trkpt><trkpt lat="43.698060604936934" lon="13.140896074977947"><ele>133.0</ele><time>2026-04-29T09:10:44Z</time></trkpt><trkpt lat="43.69806896000886" lon="13.140767261888275"><ele>133.0</ele><time>2026-04-29T09:10:45Z</time></trkpt><trkpt lat="43.698063620380026" lon="13.140637287985138"><ele>133.0</ele><time>2026-04-29T09:10:46Z</time></trkpt><trkpt lat="43.698060196293696" lon="13.14049749061836"><ele>133.0</ele><time>2026-04-29T09:10:47Z</time></trkpt><trkpt lat="43.6980488769956" lon="13.140352010788662"><ele>133.0</ele><time>2026-04-29T09:10:48Z</time></trkpt><trkpt lat="43.69804441993799" lon="13.140203264043846"><ele>132.0</ele><time>2026-04-29T09:10:49Z</time></trkpt><trkpt lat="43.69803879098788" lon="13.140073680342168"><ele>131.0</ele><time>2026-04-29T09:10:50Z</time></trkpt><trkpt lat="43.698042009847796" lon="13.139967129272213"><ele>130.0</ele><time>2026-04-29T09:10:51Z</time></trkpt><trkpt lat="43.69805173211452" lon="13.13986561500779"><ele>129.0</ele><time>2026-04-29T09:10:52Z</time></trkpt><trkpt lat="43.69808344367901" lon="13.139774490332584"><ele>128.0</ele><time>2026-04-29T09:10:53Z</time></trkpt><trkpt lat="43.698112562024946" lon="13.139664440930058"><ele>127.0</ele><time>2026-04-29T09:10:54Z</time></trkpt><trkpt lat="43.69815944783359" lon="13.139567385306405"><ele>126.16666666666667</ele><time>2026-04-29T09:10:55Z</time></trkpt><trkpt lat="43.69820919553629" lon="13.13947677897873"><ele>125.33333333333334</ele><time>2026-04-29T09:10:56Z</time></trkpt><trkpt lat="43.69828053739027" lon="13.139401099594288"><ele>124.5</ele><time>2026-04-29T09:10:57Z</time></trkpt><trkpt lat="43.69834393496768" lon="13.139323523253324"><ele>123.66666666666666</ele><time>2026-04-29T09:10:58Z</time></trkpt><trkpt lat="43.69841136198294" lon="13.139241782105216"><ele>122.83333333333333</ele><time>2026-04-29T09:10:59Z</time></trkpt><trkpt lat="43.69847522396759" lon="13.139164362853709"><ele>122.0</ele><time>2026-04-29T09:11:00Z</time></trkpt><trkpt lat="43.69854875824534" lon="13.139079370086296"><ele>122.6</ele><time>2026-04-29T09:11:01Z</time></trkpt><trkpt lat="43.69862870121858" lon="13.139001889194633"><ele>123.19999999999999</ele><time>2026-04-29T09:11:02Z</time></trkpt><trkpt lat="43.69871797563481" lon="13.138945809710814"><ele>123.8</ele><time>2026-04-29T09:11:03Z</time></trkpt><trkpt lat="43.69880121400265" lon="13.138872702798098"><ele>124.4</ele><time>2026-04-29T09:11:04Z</time></trkpt><trkpt lat="43.69886606410796" lon="13.138771829148098"><ele>125.0</ele><time>2026-04-29T09:11:05Z</time></trkpt><trkpt lat="43.69887072872741" lon="13.138647349187472"><ele>124.99999999999999</ele><time>2026-04-29T09:11:06Z</time></trkpt><trkpt lat="43.698890099496076" lon="13.138544981795055"><ele>125.0</ele><time>2026-04-29T09:11:07Z</time></trkpt><trkpt lat="43.69889570961585" lon="13.13843794812281"><ele>125.0</ele><time>2026-04-29T09:11:08Z</time></trkpt><trkpt lat="43.69889830990194" lon="13.1383206432994"><ele>125.0</ele><time>2026-04-29T09:11:09Z</time></trkpt><trkpt lat="43.698920694058835" lon="13.13819645005991"><ele>124.99999999999999</ele><time>2026-04-29T09:11:10Z</time></trkpt><trkpt lat="43.69896404391061" lon="13.138074238342977"><ele>125.0</ele><time>2026-04-29T09:11:11Z</time></trkpt><trkpt lat="43.699024598289895" lon="13.137984013862352"><ele>124.0</ele><time>2026-04-29T09:11:12Z</time></trkpt><trkpt lat="43.699088960594636" lon="13.137908461037496"><ele>123.0</ele><time>2026-04-29T09:11:13Z</time></trkpt><trkpt lat="43.6991693090104" lon="13.137820830226923"><ele>122.0</ele><time>2026-04-29T09:11:14Z</time></trkpt><trkpt lat="43.69924917457846" lon="13.13772566413154"><ele>121.0</ele><time>2026-04-29T09:11:15Z</time></trkpt><trkpt lat="43.699325887433055" lon="13.137627040797836"><ele>120.0</ele><time>2026-04-29T09:11:16Z</time></trkpt><trkpt lat="43.69939638112829" lon="13.13752488702263"><ele>120.6</ele><time>2026-04-29T09:11:17Z</time></trkpt><trkpt lat="43.699469320803615" lon="13.137430355555248"><ele>121.2</ele><time>2026-04-29T09:11:18Z</time></trkpt><trkpt lat="43.699542881454434" lon="13.137339149811567"><ele>121.80000000000001</ele><time>2026-04-29T09:11:19Z</time></trkpt><trkpt lat="43.69960518595942" lon="13.137257853932306"><ele>122.4</ele><time>2026-04-29T09:11:20Z</time></trkpt><trkpt lat="43.69964896603897" lon="13.137179578375662"><ele>123.0</ele><time>2026-04-29T09:11:21Z</time></trkpt><trkpt lat="43.69972718247051" lon="13.137043428229514"><ele>121.60000000000001</ele><time>2026-04-29T09:11:23Z</time></trkpt><trkpt lat="43.69976401107122" lon="13.13694338580123"><ele>120.20000000000002</ele><time>2026-04-29T09:11:24Z</time></trkpt><trkpt lat="43.69979188168491" lon="13.136818224373704"><ele>118.8</ele><time>2026-04-29T09:11:25Z</time></trkpt><trkpt lat="43.69981662931583" lon="13.136692443350686"><ele>117.4</ele><time>2026-04-29T09:11:26Z</time></trkpt><trkpt lat="43.69984172760142" lon="13.136543715394643"><ele>116.0</ele><time>2026-04-29T09:11:27Z</time></trkpt><trkpt lat="43.69987060076903" lon="13.136411565432235"><ele>115.19999999999999</ele><time>2026-04-29T09:11:28Z</time></trkpt><trkpt lat="43.69990071867364" lon="13.136262553949164"><ele>114.39999999999999</ele><time>2026-04-29T09:11:29Z</time></trkpt><trkpt lat="43.699930100084096" lon="13.13611867974608"><ele>113.6</ele><time>2026-04-29T09:11:30Z</time></trkpt><trkpt lat="43.69995962163965" lon="13.135969812745312"><ele>112.8</ele><time>2026-04-29T09:11:31Z</time></trkpt><trkpt lat="43.69998332713673" lon="13.13582526019531"><ele>112.0</ele><time>2026-04-29T09:11:32Z</time></trkpt><trkpt lat="43.70001005014693" lon="13.13569411646131"><ele>112.0</ele><time>2026-04-29T09:11:33Z</time></trkpt><trkpt lat="43.70002789216554" lon="13.13556365859485"><ele>111.99999999999999</ele><time>2026-04-29T09:11:34Z</time></trkpt><trkpt lat="43.70004176056194" lon="13.135429532369782"><ele>111.99999999999999</ele><time>2026-04-29T09:11:35Z</time></trkpt><trkpt lat="43.70006313741417" lon="13.135295836754564"><ele>112.0</ele><time>2026-04-29T09:11:36Z</time></trkpt><trkpt lat="43.70009629080085" lon="13.135174101546523"><ele>112.0</ele><time>2026-04-29T09:11:37Z</time></trkpt><trkpt lat="43.700131912454324" lon="13.13504953175673"><ele>112.0</ele><time>2026-04-29T09:11:38Z</time></trkpt><trkpt lat="43.70017123126192" lon="13.134931186682635"><ele>111.99999999999999</ele><time>2026-04-29T09:11:39Z</time></trkpt><trkpt lat="43.70021205670732" lon="13.134826339558034"><ele>111.99999999999999</ele><time>2026-04-29T09:11:40Z</time></trkpt><trkpt lat="43.70023441952331" lon="13.134699143490693"><ele>112.0</ele><time>2026-04-29T09:11:41Z</time></trkpt><trkpt lat="43.70023779864304" lon="13.13458058796512"><ele>112.0</ele><time>2026-04-29T09:11:42Z</time></trkpt><trkpt lat="43.700236979475804" lon="13.134441491487522"><ele>113.19999999999999</ele><time>2026-04-29T09:11:43Z</time></trkpt><trkpt lat="43.700217374019765" lon="13.134291806896062"><ele>114.39999999999999</ele><time>2026-04-29T09:11:44Z</time></trkpt><trkpt lat="43.70018560288356" lon="13.134156952641458"><ele>115.60000000000001</ele><time>2026-04-29T09:11:45Z</time></trkpt><trkpt lat="43.70015319074114" lon="13.134011669794653"><ele>116.80000000000001</ele><time>2026-04-29T09:11:46Z</time></trkpt><trkpt lat="43.70011862795477" lon="13.133873428688407"><ele>118.0</ele><time>2026-04-29T09:11:47Z</time></trkpt><trkpt lat="43.70007556588153" lon="13.133754367295865"><ele>118.83333333333334</ele><time>2026-04-29T09:11:48Z</time></trkpt><trkpt lat="43.700028009832955" lon="13.133669588718469"><ele>119.66666666666667</ele><time>2026-04-29T09:11:49Z</time></trkpt><trkpt lat="43.699960213530055" lon="13.133599612397143"><ele>120.5</ele><time>2026-04-29T09:11:50Z</time></trkpt><trkpt lat="43.69988948045107" lon="13.133551890159424"><ele>121.33333333333334</ele><time>2026-04-29T09:11:51Z</time></trkpt><trkpt lat="43.6998118715913" lon="13.133489413803439"><ele>122.16666666666667</ele><time>2026-04-29T09:11:52Z</time></trkpt><trkpt lat="43.69972732165064" lon="13.133420600716914"><ele>123.0</ele><time>2026-04-29T09:11:53Z</time></trkpt><trkpt lat="43.69965016528366" lon="13.133358719567354"><ele>123.0</ele><time>2026-04-29T09:11:54Z</time></trkpt><trkpt lat="43.69959638278964" lon="13.133285821933315"><ele>123.0</ele><time>2026-04-29T09:11:55Z</time></trkpt><trkpt lat="43.6995430631981" lon="13.133202034208665"><ele>123.0</ele><time>2026-04-29T09:11:56Z</time></trkpt><trkpt lat="43.699525268942864" lon="13.13308987693727"><ele>123.0</ele><time>2026-04-29T09:11:57Z</time></trkpt><trkpt lat="43.69950968853868" lon="13.132969358729362"><ele>123.0</ele><time>2026-04-29T09:11:58Z</time></trkpt><trkpt lat="43.6995152761449" lon="13.132850584538883"><ele>123.0</ele><time>2026-04-29T09:11:59Z</time></trkpt><trkpt lat="43.69950746835941" lon="13.132730667714378"><ele>124.66666666666667</ele><time>2026-04-29T09:12:00Z</time></trkpt><trkpt lat="43.699500899569315" lon="13.132616262931496"><ele>126.33333333333334</ele><time>2026-04-29T09:12:01Z</time></trkpt><trkpt lat="43.69948926358997" lon="13.132508141170215"><ele>128.0</ele><time>2026-04-29T09:12:02Z</time></trkpt><trkpt lat="43.69949474206185" lon="13.132397278224287"><ele>129.66666666666669</ele><time>2026-04-29T09:12:03Z</time></trkpt><trkpt lat="43.699499113391504" lon="13.132288107930366"><ele>131.33333333333334</ele><time>2026-04-29T09:12:04Z</time></trkpt><trkpt lat="43.69949615923352" lon="13.132185850915274"><ele>133.0</ele><time>2026-04-29T09:12:05Z</time></trkpt><trkpt lat="43.69948594750065" lon="13.132071264279375"><ele>133.83333333333334</ele><time>2026-04-29T09:12:06Z</time></trkpt><trkpt lat="43.69945098633742" lon="13.131977686110103"><ele>134.66666666666669</ele><time>2026-04-29T09:12:07Z</time></trkpt><trkpt lat="43.69941218492831" lon="13.131869797548378"><ele>135.5</ele><time>2026-04-29T09:12:08Z</time></trkpt><trkpt lat="43.699371283434736" lon="13.131756215585122"><ele>136.33333333333334</ele><time>2026-04-29T09:12:09Z</time></trkpt><trkpt lat="43.699322081384814" lon="13.131663325308121"><ele>137.16666666666666</ele><time>2026-04-29T09:12:10Z</time></trkpt><trkpt lat="43.699284945330525" lon="13.131590011515994"><ele>138.0</ele><time>2026-04-29T09:12:11Z</time></trkpt><trkpt lat="43.69924206539092" lon="13.131525048156528"><ele>139.83333333333334</ele><time>2026-04-29T09:12:12Z</time></trkpt><trkpt lat="43.69917928213155" lon="13.131456834795662"><ele>141.66666666666666</ele><time>2026-04-29T09:12:13Z</time></trkpt><trkpt lat="43.69911143969475" lon="13.131385334275707"><ele>143.5</ele><time>2026-04-29T09:12:14Z</time></trkpt><trkpt lat="43.6990466524173" lon="13.131326068525686"><ele>145.33333333333331</ele><time>2026-04-29T09:12:15Z</time></trkpt><trkpt lat="43.69898681825733" lon="13.131263670259163"><ele>147.16666666666666</ele><time>2026-04-29T09:12:16Z</time></trkpt><trkpt lat="43.69895195212468" lon="13.131177997701293"><ele>149.0</ele><time>2026-04-29T09:12:17Z</time></trkpt><trkpt lat="43.698900852077564" lon="13.131092549477883"><ele>149.0</ele><time>2026-04-29T09:12:18Z</time></trkpt><trkpt lat="43.698849376214646" lon="13.130998413126509"><ele>149.0</ele><time>2026-04-29T09:12:19Z</time></trkpt><trkpt lat="43.69880984649149" lon="13.13090752809833"><ele>149.0</ele><time>2026-04-29T09:12:20Z</time></trkpt><trkpt lat="43.698796942125824" lon="13.130820593400346"><ele>149.0</ele><time>2026-04-29T09:12:21Z</time></trkpt><trkpt lat="43.69875087331949" lon="13.130645803935687"><ele>149.0</ele><time>2026-04-29T09:12:23Z</time></trkpt><trkpt lat="43.69873950402034" lon="13.13054422174155"><ele>149.0</ele><time>2026-04-29T09:12:24Z</time></trkpt><trkpt lat="43.6987179548985" lon="13.130444791988179"><ele>149.28571428571428</ele><time>2026-04-29T09:12:25Z</time></trkpt><trkpt lat="43.698675372381146" lon="13.130353481559812"><ele>149.57142857142856</ele><time>2026-04-29T09:12:26Z</time></trkpt><trkpt lat="43.69863660503474" lon="13.130276817844706"><ele>149.85714285714286</ele><time>2026-04-29T09:12:27Z</time></trkpt><trkpt lat="43.69857991731568" lon="13.13021006680636"><ele>150.14285714285714</ele><time>2026-04-29T09:12:28Z</time></trkpt><trkpt lat="43.698508254413255" lon="13.130155622724088"><ele>150.42857142857144</ele><time>2026-04-29T09:12:29Z</time></trkpt><trkpt lat="43.698445659762335" lon="13.130105532581073"><ele>150.71428571428572</ele><time>2026-04-29T09:12:30Z</time></trkpt><trkpt lat="43.698384794311195" lon="13.13004563585041"><ele>151.0</ele><time>2026-04-29T09:12:32Z</time></trkpt><trkpt lat="43.69833501546257" lon="13.129948939528191"><ele>151.2</ele><time>2026-04-29T09:12:41Z</time></trkpt><trkpt lat="43.69827940947723" lon="13.129891992244856"><ele>151.39999999999998</ele><time>2026-04-29T09:12:42Z</time></trkpt><trkpt lat="43.698200787358246" lon="13.129799619109024"><ele>151.6</ele><time>2026-04-29T09:12:43Z</time></trkpt><trkpt lat="43.69812239734471" lon="13.12975798769756"><ele>151.79999999999998</ele><time>2026-04-29T09:12:44Z</time></trkpt><trkpt lat="43.698040543332795" lon="13.12966038529774"><ele>152.0</ele><time>2026-04-29T09:12:45Z</time></trkpt><trkpt lat="43.69796328689912" lon="13.129544071018417"><ele>152.0</ele><time>2026-04-29T09:12:46Z</time></trkpt><trkpt lat="43.69789361660818" lon="13.129413165468904"><ele>152.0</ele><time>2026-04-29T09:12:47Z</time></trkpt><trkpt lat="43.69782884728756" lon="13.129272059357039"><ele>152.0</ele><time>2026-04-29T09:12:48Z</time></trkpt><trkpt lat="43.697769116978066" lon="13.129121851593544"><ele>152.0</ele><time>2026-04-29T09:12:49Z</time></trkpt><trkpt lat="43.69771126399209" lon="13.128964227004953"><ele>155.5</ele><time>2026-04-29T09:12:50Z</time></trkpt><trkpt lat="43.69765033093643" lon="13.12880540975128"><ele>159.0</ele><time>2026-04-29T09:12:51Z</time></trkpt><trkpt lat="43.697588631338455" lon="13.128644622230238"><ele>162.5</ele><time>2026-04-29T09:12:52Z</time></trkpt><trkpt lat="43.69752762371908" lon="13.128483560739925"><ele>166.0</ele><time>2026-04-29T09:12:53Z</time></trkpt><trkpt lat="43.69745995202393" lon="13.128327267941408"><ele>167.25</ele><time>2026-04-29T09:12:54Z</time></trkpt><trkpt lat="43.69739192361545" lon="13.128169247021495"><ele>168.5</ele><time>2026-04-29T09:12:55Z</time></trkpt><trkpt lat="43.69732885593514" lon="13.128021843223152"><ele>169.75</ele><time>2026-04-29T09:12:56Z</time></trkpt><trkpt lat="43.69726869717357" lon="13.127893226883351"><ele>171.0</ele><time>2026-04-29T09:12:57Z</time></trkpt><trkpt lat="43.69721571923681" lon="13.127749952074005"><ele>171.0</ele><time>2026-04-29T09:12:58Z</time></trkpt><trkpt lat="43.69716649915655" lon="13.127611219353172"><ele>171.0</ele><time>2026-04-29T09:12:59Z</time></trkpt><trkpt lat="43.69712436675933" lon="13.127483216466532"><ele>171.0</ele><time>2026-04-29T09:13:00Z</time></trkpt><trkpt lat="43.69709276842802" lon="13.12734153271839"><ele>171.0</ele><time>2026-04-29T09:13:01Z</time></trkpt><trkpt lat="43.69707293217507" lon="13.127195467146159"><ele>171.0</ele><time>2026-04-29T09:13:02Z</time></trkpt><trkpt lat="43.69705568749454" lon="13.127044386871715"><ele>170.75</ele><time>2026-04-29T09:13:03Z</time></trkpt><trkpt lat="43.69703288667277" lon="13.126887872059916"><ele>170.5</ele><time>2026-04-29T09:13:04Z</time></trkpt><trkpt lat="43.697011849965044" lon="13.126726547774318"><ele>170.25</ele><time>2026-04-29T09:13:05Z</time></trkpt><trkpt lat="43.69699368115535" lon="13.126555686584739"><ele>170.0</ele><time>2026-04-29T09:13:06Z</time></trkpt><trkpt lat="43.69697668174256" lon="13.126381308778202"><ele>169.25</ele><time>2026-04-29T09:13:07Z</time></trkpt><trkpt lat="43.696961164509034" lon="13.126204504149902"><ele>168.5</ele><time>2026-04-29T09:13:08Z</time></trkpt><trkpt lat="43.69694434789534" lon="13.126031146431142"><ele>167.75</ele><time>2026-04-29T09:13:09Z</time></trkpt><trkpt lat="43.69692568830656" lon="13.125870251959874"><ele>167.0</ele><time>2026-04-29T09:13:10Z</time></trkpt><trkpt lat="43.6969112062066" lon="13.125720248257775"><ele>166.6</ele><time>2026-04-29T09:13:11Z</time></trkpt><trkpt lat="43.696899901074154" lon="13.125576832508044"><ele>166.2</ele><time>2026-04-29T09:13:12Z</time></trkpt><trkpt lat="43.696893533131075" lon="13.125437145491768"><ele>165.8</ele><time>2026-04-29T09:13:13Z</time></trkpt><trkpt lat="43.69688623355812" lon="13.125310461661194"><ele>165.4</ele><time>2026-04-29T09:13:14Z</time></trkpt><trkpt lat="43.69687707656485" lon="13.125179120670122"><ele>165.0</ele><time>2026-04-29T09:13:15Z</time></trkpt><trkpt lat="43.69686325311809" lon="13.125048141143669"><ele>165.0</ele><time>2026-04-29T09:13:16Z</time></trkpt><trkpt lat="43.69684871066744" lon="13.124920105091746"><ele>165.0</ele><time>2026-04-29T09:13:17Z</time></trkpt><trkpt lat="43.69683588041621" lon="13.124801146671786"><ele>165.0</ele><time>2026-04-29T09:13:18Z</time></trkpt><trkpt lat="43.696824624000065" lon="13.124692050111447"><ele>165.0</ele><time>2026-04-29T09:13:19Z</time></trkpt><trkpt lat="43.696814979582896" lon="13.124587214893193"><ele>165.0</ele><time>2026-04-29T09:13:20Z</time></trkpt><trkpt lat="43.696803656112515" lon="13.124484727816169"><ele>165.0</ele><time>2026-04-29T09:13:21Z</time></trkpt><trkpt lat="43.69679156484797" lon="13.1243816002562"><ele>165.6</ele><time>2026-04-29T09:13:22Z</time></trkpt><trkpt lat="43.6967727496277" lon="13.124273757819612"><ele>166.2</ele><time>2026-04-29T09:13:23Z</time></trkpt><trkpt lat="43.69675312345994" lon="13.124161433618402"><ele>166.8</ele><time>2026-04-29T09:13:24Z</time></trkpt><trkpt lat="43.696723287849345" lon="13.124035967488986"><ele>167.4</ele><time>2026-04-29T09:13:25Z</time></trkpt><trkpt lat="43.69667768740844" lon="13.123912029533436"><ele>168.0</ele><time>2026-04-29T09:13:26Z</time></trkpt><trkpt lat="43.69661682444101" lon="13.123798087994189"><ele>168.0</ele><time>2026-04-29T09:13:27Z</time></trkpt><trkpt lat="43.69654388915354" lon="13.123694996392445"><ele>168.0</ele><time>2026-04-29T09:13:28Z</time></trkpt><trkpt lat="43.696466410490515" lon="13.123610305205112"><ele>168.0</ele><time>2026-04-29T09:13:29Z</time></trkpt><trkpt lat="43.69638596667477" lon="13.123539774504831"><ele>168.0</ele><time>2026-04-29T09:13:30Z</time></trkpt><trkpt lat="43.69631276746625" lon="13.123475615127521"><ele>168.0</ele><time>2026-04-29T09:13:31Z</time></trkpt><trkpt lat="43.69622583374883" lon="13.123399781233939"><ele>168.0</ele><time>2026-04-29T09:13:32Z</time></trkpt><trkpt lat="43.6961294786405" lon="13.123312131298315"><ele>168.0</ele><time>2026-04-29T09:13:33Z</time></trkpt><trkpt lat="43.69602200241337" lon="13.123215560078854"><ele>168.0</ele><time>2026-04-29T09:13:34Z</time></trkpt><trkpt lat="43.695922595093585" lon="13.123104949768802"><ele>168.0</ele><time>2026-04-29T09:13:35Z</time></trkpt><trkpt lat="43.695821153085326" lon="13.122973046850083"><ele>170.25</ele><time>2026-04-29T09:13:36Z</time></trkpt><trkpt lat="43.69575752015947" lon="13.12283353921947"><ele>172.5</ele><time>2026-04-29T09:13:37Z</time></trkpt><trkpt lat="43.6956760005591" lon="13.122704355143402"><ele>174.75</ele><time>2026-04-29T09:13:38Z</time></trkpt><trkpt lat="43.69561268179637" lon="13.122561014833643"><ele>177.0</ele><time>2026-04-29T09:13:39Z</time></trkpt><trkpt lat="43.695545905852754" lon="13.122416415664189"><ele>177.5</ele><time>2026-04-29T09:13:40Z</time></trkpt><trkpt lat="43.69546164709105" lon="13.122226147170784"><ele>178.0</ele><time>2026-04-29T09:13:41Z</time></trkpt><trkpt lat="43.695374323760504" lon="13.122035696720857"><ele>178.5</ele><time>2026-04-29T09:13:42Z</time></trkpt><trkpt lat="43.695308030450825" lon="13.121895492476455"><ele>179.0</ele><time>2026-04-29T09:13:43Z</time></trkpt><trkpt lat="43.695220622871254" lon="13.121784842082299"><ele>179.75</ele><time>2026-04-29T09:13:44Z</time></trkpt><trkpt lat="43.69514131902963" lon="13.121677989643032"><ele>180.5</ele><time>2026-04-29T09:13:45Z</time></trkpt><trkpt lat="43.69504394786758" lon="13.121571171187233"><ele>181.25</ele><time>2026-04-29T09:13:46Z</time></trkpt><trkpt lat="43.694948480099754" lon="13.121482845445241"><ele>182.0</ele><time>2026-04-29T09:13:47Z</time></trkpt><trkpt lat="43.694854103421264" lon="13.121383346838352"><ele>182.0</ele><time>2026-04-29T09:13:48Z</time></trkpt><trkpt lat="43.69476046824622" lon="13.121274290264013"><ele>182.0</ele><time>2026-04-29T09:13:49Z</time></trkpt><trkpt lat="43.6946734019122" lon="13.121141797728063"><ele>182.0</ele><time>2026-04-29T09:13:50Z</time></trkpt><trkpt lat="43.69458946110429" lon="13.120990973752898"><ele>182.0</ele><time>2026-04-29T09:13:51Z</time></trkpt><trkpt lat="43.694519814093724" lon="13.120835424070918"><ele>182.75</ele><time>2026-04-29T09:13:52Z</time></trkpt><trkpt lat="43.69445672445847" lon="13.120662422781855"><ele>183.5</ele><time>2026-04-29T09:13:53Z</time></trkpt><trkpt lat="43.69439440517152" lon="13.120487954554328"><ele>184.25</ele><time>2026-04-29T09:13:54Z</time></trkpt><trkpt lat="43.69433266190871" lon="13.1202992760907"><ele>185.0</ele><time>2026-04-29T09:13:55Z</time></trkpt><trkpt lat="43.69427090998637" lon="13.120099256968578"><ele>185.0</ele><time>2026-04-29T09:13:56Z</time></trkpt><trkpt lat="43.69420850847855" lon="13.119907524309639"><ele>185.0</ele><time>2026-04-29T09:13:57Z</time></trkpt><trkpt lat="43.69414684714508" lon="13.11971997606204"><ele>185.0</ele><time>2026-04-29T09:13:58Z</time></trkpt><trkpt lat="43.69408858534564" lon="13.119534761672202"><ele>185.0</ele><time>2026-04-29T09:13:59Z</time></trkpt><trkpt lat="43.69402745676342" lon="13.1193681958453"><ele>185.5</ele><time>2026-04-29T09:14:00Z</time></trkpt><trkpt lat="43.69398504984681" lon="13.119199264211147"><ele>186.0</ele><time>2026-04-29T09:14:01Z</time></trkpt><trkpt lat="43.69393662503538" lon="13.119029993803881"><ele>186.5</ele><time>2026-04-29T09:14:02Z</time></trkpt><trkpt lat="43.69389370181743" lon="13.11885935782577"><ele>187.0</ele><time>2026-04-29T09:14:03Z</time></trkpt><trkpt lat="43.69385678270548" lon="13.118684569573146"><ele>187.0</ele><time>2026-04-29T09:14:04.001Z</time></trkpt><trkpt lat="43.693820403877666" lon="13.1185111323897"><ele>187.0</ele><time>2026-04-29T09:14:05.001Z</time></trkpt><trkpt lat="43.693778857578955" lon="13.118344939340092"><ele>187.0</ele><time>2026-04-29T09:14:06.001Z</time></trkpt><trkpt lat="43.69375557344452" lon="13.118175433970094"><ele>187.0</ele><time>2026-04-29T09:14:07.001Z</time></trkpt><trkpt lat="43.69373113865666" lon="13.118002943478238"><ele>187.0</ele><time>2026-04-29T09:14:08.001Z</time></trkpt><trkpt lat="43.69370934575831" lon="13.117847146075029"><ele>187.0</ele><time>2026-04-29T09:14:09.001Z</time></trkpt><trkpt lat="43.69369643432557" lon="13.117711240748065"><ele>187.0</ele><time>2026-04-29T09:14:10.001Z</time></trkpt><trkpt lat="43.693695665515854" lon="13.11757228956135"><ele>187.0</ele><time>2026-04-29T09:14:11.001Z</time></trkpt><trkpt lat="43.69369185649259" lon="13.117436158307566"><ele>187.0</ele><time>2026-04-29T09:14:12.001Z</time></trkpt><trkpt lat="43.69369081574034" lon="13.117295292833603"><ele>186.6</ele><time>2026-04-29T09:14:13.001Z</time></trkpt><trkpt lat="43.693688117461186" lon="13.117156487222424"><ele>186.2</ele><time>2026-04-29T09:14:14.001Z</time></trkpt><trkpt lat="43.69367977877354" lon="13.1170089580544"><ele>185.8</ele><time>2026-04-29T09:14:15.001Z</time></trkpt><trkpt lat="43.69366716579467" lon="13.116859791226934"><ele>185.4</ele><time>2026-04-29T09:14:16.001Z</time></trkpt><trkpt lat="43.69364819493401" lon="13.116716092012238"><ele>185.0</ele><time>2026-04-29T09:14:17.001Z</time></trkpt><trkpt lat="43.693640986239465" lon="13.116561239502914"><ele>185.0</ele><time>2026-04-29T09:14:18.001Z</time></trkpt><trkpt lat="43.69364178798722" lon="13.11639823934401"><ele>185.0</ele><time>2026-04-29T09:14:19Z</time></trkpt><trkpt lat="43.69364867196758" lon="13.116236912975832"><ele>185.0</ele><time>2026-04-29T09:14:20Z</time></trkpt><trkpt lat="43.69365923657888" lon="13.116071620130056"><ele>185.0</ele><time>2026-04-29T09:14:21Z</time></trkpt><trkpt lat="43.69367164103736" lon="13.115917608882505"><ele>185.0</ele><time>2026-04-29T09:14:22Z</time></trkpt><trkpt lat="43.69368295351731" lon="13.115777960943936"><ele>185.0</ele><time>2026-04-29T09:14:23Z</time></trkpt><trkpt lat="43.69369899211903" lon="13.115641411329017"><ele>185.0</ele><time>2026-04-29T09:14:24Z</time></trkpt><trkpt lat="43.69372043284063" lon="13.11550177931517"><ele>185.0</ele><time>2026-04-29T09:14:25Z</time></trkpt><trkpt lat="43.693751809972824" lon="13.115362368410754"><ele>185.0</ele><time>2026-04-29T09:14:26Z</time></trkpt><trkpt lat="43.693785853246965" lon="13.115227062190208"><ele>185.4</ele><time>2026-04-29T09:14:27Z</time></trkpt><trkpt lat="43.69383066524062" lon="13.115094085266243"><ele>185.8</ele><time>2026-04-29T09:14:28Z</time></trkpt><trkpt lat="43.69388139971921" lon="13.114956587753413"><ele>186.2</ele><time>2026-04-29T09:14:29Z</time></trkpt><trkpt lat="43.693939609909776" lon="13.114821018349037"><ele>186.6</ele><time>2026-04-29T09:14:30Z</time></trkpt><trkpt lat="43.694003621378435" lon="13.114688391611269"><ele>187.0</ele><time>2026-04-29T09:14:31Z</time></trkpt><trkpt lat="43.694072872458804" lon="13.114555753850246"><ele>188.25</ele><time>2026-04-29T09:14:32Z</time></trkpt><trkpt lat="43.69414320794405" lon="13.114420667501708"><ele>189.5</ele><time>2026-04-29T09:14:33Z</time></trkpt><trkpt lat="43.69421093373998" lon="13.114282328598872"><ele>190.75</ele><time>2026-04-29T09:14:34Z</time></trkpt><trkpt lat="43.69426907220555" lon="13.114134251029554"><ele>192.0</ele><time>2026-04-29T09:14:35Z</time></trkpt><trkpt lat="43.69432391618758" lon="13.113982782973629"><ele>192.5</ele><time>2026-04-29T09:14:36Z</time></trkpt><trkpt lat="43.694385201526906" lon="13.113833578582035"><ele>193.0</ele><time>2026-04-29T09:14:37Z</time></trkpt><trkpt lat="43.694438851657985" lon="13.11368016961247"><ele>193.5</ele><time>2026-04-29T09:14:38Z</time></trkpt><trkpt lat="43.69448534610542" lon="13.113528969463445"><ele>194.0</ele><time>2026-04-29T09:14:39Z</time></trkpt><trkpt lat="43.694526586189056" lon="13.113380972584741"><ele>194.39999999999998</ele><time>2026-04-29T09:14:40Z</time></trkpt><trkpt lat="43.694564130716415" lon="13.113241998849702"><ele>194.8</ele><time>2026-04-29T09:14:41Z</time></trkpt><trkpt lat="43.69460055326545" lon="13.11310232855043"><ele>195.2</ele><time>2026-04-29T09:14:42Z</time></trkpt><trkpt lat="43.694640436716725" lon="13.11296704696618"><ele>195.60000000000002</ele><time>2026-04-29T09:14:43Z</time></trkpt><trkpt lat="43.69467475318868" lon="13.112843082611517"><ele>196.0</ele><time>2026-04-29T09:14:44Z</time></trkpt><trkpt lat="43.69470251307965" lon="13.112725216846858"><ele>195.99999999999997</ele><time>2026-04-29T09:14:45Z</time></trkpt><trkpt lat="43.69471050232551" lon="13.112595004875944"><ele>196.0</ele><time>2026-04-29T09:14:46Z</time></trkpt><trkpt lat="43.69469597582199" lon="13.112467744158812"><ele>196.0</ele><time>2026-04-29T09:14:47Z</time></trkpt><trkpt lat="43.69465997929259" lon="13.112355691141524"><ele>196.0</ele><time>2026-04-29T09:14:48Z</time></trkpt><trkpt lat="43.6946121144953" lon="13.112266214387306"><ele>195.99999999999997</ele><time>2026-04-29T09:14:49Z</time></trkpt><trkpt lat="43.694549351923776" lon="13.112186984806815"><ele>196.0</ele><time>2026-04-29T09:14:50Z</time></trkpt><trkpt lat="43.694488844354844" lon="13.112103930748138"><ele>196.20000000000002</ele><time>2026-04-29T09:14:51Z</time></trkpt><trkpt lat="43.694425584892265" lon="13.112004779790011"><ele>196.4</ele><time>2026-04-29T09:14:52Z</time></trkpt><trkpt lat="43.69436620355066" lon="13.111893873549178"><ele>196.6</ele><time>2026-04-29T09:14:53Z</time></trkpt><trkpt lat="43.69432418574997" lon="13.111763293764772"><ele>196.8</ele><time>2026-04-29T09:14:54Z</time></trkpt><trkpt lat="43.69430349248811" lon="13.111624079951184"><ele>197.0</ele><time>2026-04-29T09:14:55Z</time></trkpt><trkpt lat="43.69430086810014" lon="13.111469115722302"><ele>196.5</ele><time>2026-04-29T09:14:56Z</time></trkpt><trkpt lat="43.694302669715945" lon="13.11130864395118"><ele>196.0</ele><time>2026-04-29T09:14:57Z</time></trkpt><trkpt lat="43.694309990574105" lon="13.111144822234259"><ele>195.5</ele><time>2026-04-29T09:14:58Z</time></trkpt><trkpt lat="43.694313854311545" lon="13.11097436536806"><ele>195.0</ele><time>2026-04-29T09:14:59Z</time></trkpt><trkpt lat="43.694317940350786" lon="13.11079588425066"><ele>196.25</ele><time>2026-04-29T09:15:00Z</time></trkpt><trkpt lat="43.69432243415051" lon="13.110619356058315"><ele>197.5</ele><time>2026-04-29T09:15:01Z</time></trkpt><trkpt lat="43.6943246247013" lon="13.110437283938783"><ele>198.75</ele><time>2026-04-29T09:15:02Z</time></trkpt><trkpt lat="43.694327538782545" lon="13.110256642467991"><ele>200.0</ele><time>2026-04-29T09:15:03Z</time></trkpt><trkpt lat="43.69432305209481" lon="13.1100870150012"><ele>200.0</ele><time>2026-04-29T09:15:04Z</time></trkpt><trkpt lat="43.69430124573414" lon="13.109941186561175"><ele>200.0</ele><time>2026-04-29T09:15:05Z</time></trkpt><trkpt lat="43.694246555288736" lon="13.10981898617175"><ele>200.0</ele><time>2026-04-29T09:15:06Z</time></trkpt><trkpt lat="43.69416603787471" lon="13.10973064560281"><ele>200.0</ele><time>2026-04-29T09:15:07Z</time></trkpt><trkpt lat="43.69406351128346" lon="13.109662392791092"><ele>200.0</ele><time>2026-04-29T09:15:08Z</time></trkpt><trkpt lat="43.69394258143269" lon="13.109596011748046"><ele>200.25</ele><time>2026-04-29T09:15:09Z</time></trkpt><trkpt lat="43.693812669462595" lon="13.109545969583236"><ele>200.5</ele><time>2026-04-29T09:15:10Z</time></trkpt><trkpt lat="43.69368335330034" lon="13.109489704722893"><ele>200.75</ele><time>2026-04-29T09:15:11Z</time></trkpt><trkpt lat="43.693550155984695" lon="13.109425311395803"><ele>201.0</ele><time>2026-04-29T09:15:12Z</time></trkpt><trkpt lat="43.693412434558134" lon="13.1093570113962"><ele>201.0</ele><time>2026-04-29T09:15:13Z</time></trkpt><trkpt lat="43.69327184945971" lon="13.109282484448132"><ele>201.0</ele><time>2026-04-29T09:15:14Z</time></trkpt><trkpt lat="43.69313009550201" lon="13.109213896334252"><ele>201.0</ele><time>2026-04-29T09:15:15Z</time></trkpt><trkpt lat="43.69298881505749" lon="13.10914570268401"><ele>200.75</ele><time>2026-04-29T09:15:16Z</time></trkpt><trkpt lat="43.69284985090339" lon="13.109071330541981"><ele>200.5</ele><time>2026-04-29T09:15:17Z</time></trkpt><trkpt lat="43.692717681431674" lon="13.108984172661957"><ele>200.25</ele><time>2026-04-29T09:15:18Z</time></trkpt><trkpt lat="43.69259666529536" lon="13.108882123142466"><ele>200.0</ele><time>2026-04-29T09:15:19Z</time></trkpt><trkpt lat="43.69248811649592" lon="13.108767406239563"><ele>200.0</ele><time>2026-04-29T09:15:20Z</time></trkpt><trkpt lat="43.69238228910132" lon="13.108636502424126"><ele>200.0</ele><time>2026-04-29T09:15:21Z</time></trkpt><trkpt lat="43.692284491408465" lon="13.108495348991648"><ele>200.0</ele><time>2026-04-29T09:15:22Z</time></trkpt><trkpt lat="43.692194784729274" lon="13.108349567973903"><ele>200.0</ele><time>2026-04-29T09:15:23Z</time></trkpt><trkpt lat="43.692102517860775" lon="13.108203777289855"><ele>199.25</ele><time>2026-04-29T09:15:24Z</time></trkpt><trkpt lat="43.69200721409944" lon="13.108069552880865"><ele>198.5</ele><time>2026-04-29T09:15:25Z</time></trkpt><trkpt lat="43.69191364070614" lon="13.107935810409826"><ele>197.75</ele><time>2026-04-29T09:15:26Z</time></trkpt><trkpt lat="43.6918192794034" lon="13.107821772764737"><ele>197.0</ele><time>2026-04-29T09:15:27Z</time></trkpt><trkpt lat="43.69172585220158" lon="13.107702407158945"><ele>197.0</ele><time>2026-04-29T09:15:28Z</time></trkpt><trkpt lat="43.691628276337234" lon="13.107588216734115"><ele>197.0</ele><time>2026-04-29T09:15:29Z</time></trkpt><trkpt lat="43.69152990177214" lon="13.107484504434407"><ele>197.0</ele><time>2026-04-29T09:15:30Z</time></trkpt><trkpt lat="43.69141877388776" lon="13.107381109666097"><ele>197.0</ele><time>2026-04-29T09:15:31Z</time></trkpt><trkpt lat="43.69131391758002" lon="13.10727641002213"><ele>196.5</ele><time>2026-04-29T09:15:32Z</time></trkpt><trkpt lat="43.69120330041776" lon="13.107180448807735"><ele>196.0</ele><time>2026-04-29T09:15:33Z</time></trkpt><trkpt lat="43.691081823774375" lon="13.107095331168106"><ele>195.5</ele><time>2026-04-29T09:15:34Z</time></trkpt><trkpt lat="43.69095219645886" lon="13.10701881231194"><ele>195.0</ele><time>2026-04-29T09:15:35Z</time></trkpt><trkpt lat="43.69082326387738" lon="13.106952462049861"><ele>194.0</ele><time>2026-04-29T09:15:36Z</time></trkpt><trkpt lat="43.6906970642979" lon="13.106884451027103"><ele>193.0</ele><time>2026-04-29T09:15:37Z</time></trkpt><trkpt lat="43.690572382186666" lon="13.106813931042229"><ele>192.0</ele><time>2026-04-29T09:15:38Z</time></trkpt><trkpt lat="43.690448990121126" lon="13.106736510106623"><ele>191.0</ele><time>2026-04-29T09:15:39Z</time></trkpt><trkpt lat="43.69032398608379" lon="13.106665925911887"><ele>191.75</ele><time>2026-04-29T09:15:40Z</time></trkpt><trkpt lat="43.69020390694898" lon="13.106588499597471"><ele>192.5</ele><time>2026-04-29T09:15:41Z</time></trkpt><trkpt lat="43.690090614391615" lon="13.106504787126491"><ele>193.25</ele><time>2026-04-29T09:15:42Z</time></trkpt><trkpt lat="43.689980808724705" lon="13.106417267515363"><ele>194.0</ele><time>2026-04-29T09:15:43Z</time></trkpt><trkpt lat="43.68986180497146" lon="13.106319751391093"><ele>194.0</ele><time>2026-04-29T09:15:44Z</time></trkpt><trkpt lat="43.68973880890603" lon="13.106222501324803"><ele>194.0</ele><time>2026-04-29T09:15:45Z</time></trkpt><trkpt lat="43.689622774361155" lon="13.10615018223131"><ele>194.0</ele><time>2026-04-29T09:15:46Z</time></trkpt><trkpt lat="43.68950233313107" lon="13.106040775767307"><ele>194.0</ele><time>2026-04-29T09:15:47Z</time></trkpt><trkpt lat="43.68938979771614" lon="13.105922822716492"><ele>194.0</ele><time>2026-04-29T09:15:48Z</time></trkpt><trkpt lat="43.68929021882705" lon="13.105791110000254"><ele>194.0</ele><time>2026-04-29T09:15:49Z</time></trkpt><trkpt lat="43.689216176963356" lon="13.105633286674264"><ele>194.0</ele><time>2026-04-29T09:15:50Z</time></trkpt><trkpt lat="43.68916613893877" lon="13.10546123977205"><ele>194.0</ele><time>2026-04-29T09:15:51Z</time></trkpt><trkpt lat="43.6891337987219" lon="13.105278791876675"><ele>194.0</ele><time>2026-04-29T09:15:52Z</time></trkpt><trkpt lat="43.68909574644861" lon="13.105102264085483"><ele>194.0</ele><time>2026-04-29T09:15:53Z</time></trkpt><trkpt lat="43.68906073298905" lon="13.104923483866102"><ele>194.0</ele><time>2026-04-29T09:15:54Z</time></trkpt><trkpt lat="43.68901544049348" lon="13.104743052044922"><ele>194.0</ele><time>2026-04-29T09:15:55Z</time></trkpt><trkpt lat="43.68897773629216" lon="13.104555424702516"><ele>192.75</ele><time>2026-04-29T09:15:56Z</time></trkpt><trkpt lat="43.688941340831406" lon="13.10437909203613"><ele>191.5</ele><time>2026-04-29T09:15:57Z</time></trkpt><trkpt lat="43.68889880955377" lon="13.104205107453534"><ele>190.25</ele><time>2026-04-29T09:15:58Z</time></trkpt><trkpt lat="43.68886577834034" lon="13.104023714313932"><ele>189.0</ele><time>2026-04-29T09:15:59Z</time></trkpt><trkpt lat="43.688816298204294" lon="13.103840548948732"><ele>188.0</ele><time>2026-04-29T09:16:00Z</time></trkpt><trkpt lat="43.68878242291175" lon="13.1036788341141"><ele>187.0</ele><time>2026-04-29T09:16:01Z</time></trkpt><trkpt lat="43.68873123699153" lon="13.103508115817007"><ele>186.0</ele><time>2026-04-29T09:16:02Z</time></trkpt><trkpt lat="43.688686779407455" lon="13.103316475616484"><ele>185.0</ele><time>2026-04-29T09:16:03Z</time></trkpt><trkpt lat="43.688642401592936" lon="13.103140294334189"><ele>184.5</ele><time>2026-04-29T09:16:04Z</time></trkpt><trkpt lat="43.688605049377166" lon="13.102965857967991"><ele>184.0</ele><time>2026-04-29T09:16:05Z</time></trkpt><trkpt lat="43.68856992602022" lon="13.102792666397118"><ele>183.5</ele><time>2026-04-29T09:16:06Z</time></trkpt><trkpt lat="43.68855063709396" lon="13.102630848101334"><ele>183.0</ele><time>2026-04-29T09:16:07Z</time></trkpt><trkpt lat="43.688549579042004" lon="13.10246170008192"><ele>184.75</ele><time>2026-04-29T09:16:08Z</time></trkpt><trkpt lat="43.68855160848017" lon="13.102281930020647"><ele>186.5</ele><time>2026-04-29T09:16:09Z</time></trkpt><trkpt lat="43.688552538799776" lon="13.102106839213292"><ele>188.25</ele><time>2026-04-29T09:16:10.001Z</time></trkpt><trkpt lat="43.68855242852895" lon="13.101928162565335"><ele>190.0</ele><time>2026-04-29T09:16:11.001Z</time></trkpt><trkpt lat="43.68854313147158" lon="13.101738627262632"><ele>190.25</ele><time>2026-04-29T09:16:12.001Z</time></trkpt><trkpt lat="43.68851903174418" lon="13.101547979196607"><ele>190.5</ele><time>2026-04-29T09:16:13.001Z</time></trkpt><trkpt lat="43.68848928268651" lon="13.101355981560413"><ele>190.75</ele><time>2026-04-29T09:16:14.001Z</time></trkpt><trkpt lat="43.688445850785286" lon="13.101165682757788"><ele>191.0</ele><time>2026-04-29T09:16:15.001Z</time></trkpt><trkpt lat="43.68839177246708" lon="13.100982234791447"><ele>191.0</ele><time>2026-04-29T09:16:16.001Z</time></trkpt><trkpt lat="43.688340358823446" lon="13.100808983900832"><ele>191.0</ele><time>2026-04-29T09:16:17.001Z</time></trkpt><trkpt lat="43.68829373511044" lon="13.100634793258083"><ele>191.0</ele><time>2026-04-29T09:16:18.001Z</time></trkpt><trkpt lat="43.688249746015934" lon="13.100452512563427"><ele>191.0</ele><time>2026-04-29T09:16:19.001Z</time></trkpt><trkpt lat="43.68820988605125" lon="13.100283050311429"><ele>192.25</ele><time>2026-04-29T09:16:20.001Z</time></trkpt><trkpt lat="43.68817623766106" lon="13.10010532495711"><ele>193.5</ele><time>2026-04-29T09:16:21Z</time></trkpt><trkpt lat="43.68814617081009" lon="13.099940218474861"><ele>194.75</ele><time>2026-04-29T09:16:22Z</time></trkpt><trkpt lat="43.688119463374484" lon="13.099785071130869"><ele>196.0</ele><time>2026-04-29T09:16:23Z</time></trkpt><trkpt lat="43.688099125249444" lon="13.099642894214798"><ele>197.4</ele><time>2026-04-29T09:16:24Z</time></trkpt><trkpt lat="43.68807983657492" lon="13.099515124334914"><ele>198.8</ele><time>2026-04-29T09:16:25Z</time></trkpt><trkpt lat="43.68806714545969" lon="13.099395313294915"><ele>200.20000000000002</ele><time>2026-04-29T09:16:26Z</time></trkpt><trkpt lat="43.68805500472615" lon="13.099239498050268"><ele>201.60000000000002</ele><time>2026-04-29T09:16:28Z</time></trkpt><trkpt lat="43.68803620097725" lon="13.099136936594636"><ele>203.0</ele><time>2026-04-29T09:16:30Z</time></trkpt><trkpt lat="43.68800806508314" lon="13.099021330057836"><ele>203.0</ele><time>2026-04-29T09:16:32Z</time></trkpt><trkpt lat="43.688150707148026" lon="13.098884237400966"><ele>203.0</ele><time>2026-04-29T09:16:33Z</time></trkpt><trkpt lat="43.68820750156843" lon="13.098781254276876"><ele>203.0</ele><time>2026-04-29T09:16:34Z</time></trkpt><trkpt lat="43.68824113762317" lon="13.098663754221011"><ele>203.0</ele><time>2026-04-29T09:16:35Z</time></trkpt><trkpt lat="43.68828962911313" lon="13.09854410705185"><ele>203.0</ele><time>2026-04-29T09:16:36Z</time></trkpt><trkpt lat="43.6883419340981" lon="13.098416674244547"><ele>203.0</ele><time>2026-04-29T09:16:37Z</time></trkpt><trkpt lat="43.68840308493996" lon="13.09828519203084"><ele>203.0</ele><time>2026-04-29T09:16:38Z</time></trkpt><trkpt lat="43.688470169672506" lon="13.09815119563854"><ele>203.0</ele><time>2026-04-29T09:16:39Z</time></trkpt><trkpt lat="43.688539868860275" lon="13.098016174695843"><ele>200.75</ele><time>2026-04-29T09:16:40Z</time></trkpt><trkpt lat="43.68861168590793" lon="13.097875322106175"><ele>198.5</ele><time>2026-04-29T09:16:41Z</time></trkpt><trkpt lat="43.68868679679224" lon="13.097731559456165"><ele>196.25</ele><time>2026-04-29T09:16:42Z</time></trkpt><trkpt lat="43.68877366147236" lon="13.097587279952343"><ele>194.0</ele><time>2026-04-29T09:16:43Z</time></trkpt><trkpt lat="43.688854474067476" lon="13.097424585061788"><ele>194.0</ele><time>2026-04-29T09:16:44Z</time></trkpt><trkpt lat="43.688933520745984" lon="13.097254429230535"><ele>194.0</ele><time>2026-04-29T09:16:45Z</time></trkpt><trkpt lat="43.6890177254372" lon="13.09708870904125"><ele>194.0</ele><time>2026-04-29T09:16:46Z</time></trkpt><trkpt lat="43.689103451082154" lon="13.096926226710528"><ele>194.0</ele><time>2026-04-29T09:16:47Z</time></trkpt><trkpt lat="43.68918998801598" lon="13.096759690984483"><ele>194.0</ele><time>2026-04-29T09:16:48Z</time></trkpt><trkpt lat="43.689276873993826" lon="13.096593068776219"><ele>194.0</ele><time>2026-04-29T09:16:49Z</time></trkpt><trkpt lat="43.689361534625924" lon="13.096427906185788"><ele>194.0</ele><time>2026-04-29T09:16:50Z</time></trkpt><trkpt lat="43.68944564927286" lon="13.096265900121177"><ele>194.0</ele><time>2026-04-29T09:16:51Z</time></trkpt><trkpt lat="43.6895264317814" lon="13.096103727666963"><ele>194.0</ele><time>2026-04-29T09:16:52Z</time></trkpt><trkpt lat="43.6896029987591" lon="13.095946522409982"><ele>194.0</ele><time>2026-04-29T09:16:53Z</time></trkpt><trkpt lat="43.68967878703442" lon="13.095791701800312"><ele>194.0</ele><time>2026-04-29T09:16:54Z</time></trkpt><trkpt lat="43.68975421025819" lon="13.09563382886616"><ele>194.0</ele><time>2026-04-29T09:16:55Z</time></trkpt><trkpt lat="43.689827399692774" lon="13.095476215641332"><ele>194.0</ele><time>2026-04-29T09:16:56Z</time></trkpt><trkpt lat="43.68989966423391" lon="13.095321614528933"><ele>194.0</ele><time>2026-04-29T09:16:57Z</time></trkpt><trkpt lat="43.689973601270495" lon="13.095157876524285"><ele>194.0</ele><time>2026-04-29T09:16:58Z</time></trkpt><trkpt lat="43.69004713289226" lon="13.095001747588661"><ele>194.0</ele><time>2026-04-29T09:16:59Z</time></trkpt><trkpt lat="43.690126157914555" lon="13.094838566540949"><ele>195.0</ele><time>2026-04-29T09:17:00Z</time></trkpt><trkpt lat="43.69020285873941" lon="13.094670900607031"><ele>196.0</ele><time>2026-04-29T09:17:01Z</time></trkpt><trkpt lat="43.69027560836888" lon="13.09450231390104"><ele>197.0</ele><time>2026-04-29T09:17:02Z</time></trkpt><trkpt lat="43.6903516621552" lon="13.094337906637955"><ele>198.0</ele><time>2026-04-29T09:17:03Z</time></trkpt><trkpt lat="43.69042956748403" lon="13.094174874347585"><ele>195.5</ele><time>2026-04-29T09:17:04Z</time></trkpt><trkpt lat="43.69051203859122" lon="13.094011125519035"><ele>193.0</ele><time>2026-04-29T09:17:05Z</time></trkpt><trkpt lat="43.69059398505135" lon="13.093859457684378"><ele>190.5</ele><time>2026-04-29T09:17:06Z</time></trkpt><trkpt lat="43.69067765191866" lon="13.093717348908603"><ele>188.0</ele><time>2026-04-29T09:17:07Z</time></trkpt><trkpt lat="43.690759613771455" lon="13.093589253777248"><ele>188.0</ele><time>2026-04-29T09:17:08Z</time></trkpt><trkpt lat="43.69084014071637" lon="13.093477654122031"><ele>188.0</ele><time>2026-04-29T09:17:09Z</time></trkpt><trkpt lat="43.690922191747866" lon="13.093372790449083"><ele>188.0</ele><time>2026-04-29T09:17:10Z</time></trkpt><trkpt lat="43.69100394805857" lon="13.093274863205206"><ele>188.0</ele><time>2026-04-29T09:17:11Z</time></trkpt><trkpt lat="43.69108160759964" lon="13.093186230405816"><ele>188.0</ele><time>2026-04-29T09:17:12Z</time></trkpt><trkpt lat="43.691161288079535" lon="13.093106355535904"><ele>187.4</ele><time>2026-04-29T09:17:13Z</time></trkpt><trkpt lat="43.691233342170285" lon="13.093035868450777"><ele>186.8</ele><time>2026-04-29T09:17:14Z</time></trkpt><trkpt lat="43.69129050345579" lon="13.092982751722507"><ele>186.2</ele><time>2026-04-29T09:17:15Z</time></trkpt><trkpt lat="43.69137575668162" lon="13.092917123900278"><ele>185.6</ele><time>2026-04-29T09:17:17Z</time></trkpt><trkpt lat="43.69144811026096" lon="13.09288117852038"><ele>185.0</ele><time>2026-04-29T09:17:19Z</time></trkpt><trkpt lat="43.69140866973021" lon="13.092662141455914"><ele>185.0</ele><time>2026-04-29T09:17:21Z</time></trkpt><trkpt lat="43.691369356135915" lon="13.0925495736382"><ele>185.0</ele><time>2026-04-29T09:17:22Z</time></trkpt><trkpt lat="43.691324036732944" lon="13.092409121586142"><ele>185.0</ele><time>2026-04-29T09:17:23Z</time></trkpt><trkpt lat="43.691274817194575" lon="13.092245440153295"><ele>185.0</ele><time>2026-04-29T09:17:24Z</time></trkpt><trkpt lat="43.69122322663684" lon="13.092073280364781"><ele>186.5</ele><time>2026-04-29T09:17:25Z</time></trkpt><trkpt lat="43.69116926667421" lon="13.091906870673537"><ele>188.0</ele><time>2026-04-29T09:17:26Z</time></trkpt><trkpt lat="43.69111378701198" lon="13.091740968577325"><ele>189.5</ele><time>2026-04-29T09:17:27Z</time></trkpt><trkpt lat="43.691058616638216" lon="13.091576874761913"><ele>191.0</ele><time>2026-04-29T09:17:28Z</time></trkpt><trkpt lat="43.69100721618467" lon="13.091414990318201"><ele>191.75</ele><time>2026-04-29T09:17:29Z</time></trkpt><trkpt lat="43.690962550892785" lon="13.091255888197082"><ele>192.5</ele><time>2026-04-29T09:17:30Z</time></trkpt><trkpt lat="43.69092856681503" lon="13.091092725977264"><ele>193.25</ele><time>2026-04-29T09:17:31Z</time></trkpt><trkpt lat="43.69090473815628" lon="13.090929589649795"><ele>194.0</ele><time>2026-04-29T09:17:32Z</time></trkpt><trkpt lat="43.690886057082515" lon="13.090768828536893"><ele>195.25</ele><time>2026-04-29T09:17:33Z</time></trkpt><trkpt lat="43.690871676805656" lon="13.09061285588372"><ele>196.5</ele><time>2026-04-29T09:17:34Z</time></trkpt><trkpt lat="43.690862784416304" lon="13.090456260962151"><ele>197.75</ele><time>2026-04-29T09:17:35Z</time></trkpt><trkpt lat="43.69086288321762" lon="13.0902978848235"><ele>199.0</ele><time>2026-04-29T09:17:36Z</time></trkpt><trkpt lat="43.690874745158055" lon="13.09013567905299"><ele>199.0</ele><time>2026-04-29T09:17:37Z</time></trkpt><trkpt lat="43.69088439774476" lon="13.089968195159123"><ele>199.0</ele><time>2026-04-29T09:17:38Z</time></trkpt><trkpt lat="43.690885250030355" lon="13.089799121582661"><ele>199.0</ele><time>2026-04-29T09:17:39Z</time></trkpt><trkpt lat="43.69087485546781" lon="13.089633495187531"><ele>199.0</ele><time>2026-04-29T09:17:40Z</time></trkpt><trkpt lat="43.690861178440116" lon="13.08946938612811"><ele>198.25</ele><time>2026-04-29T09:17:41Z</time></trkpt><trkpt lat="43.6908468682127" lon="13.089301234287856"><ele>197.5</ele><time>2026-04-29T09:17:42Z</time></trkpt><trkpt lat="43.69082495952273" lon="13.089129700933205"><ele>196.75</ele><time>2026-04-29T09:17:43Z</time></trkpt><trkpt lat="43.69077914105301" lon="13.088972289041541"><ele>196.0</ele><time>2026-04-29T09:17:44Z</time></trkpt><trkpt lat="43.69071088212117" lon="13.088831553412053"><ele>194.75</ele><time>2026-04-29T09:17:45Z</time></trkpt><trkpt lat="43.69063384695288" lon="13.08869849250058"><ele>193.5</ele><time>2026-04-29T09:17:46Z</time></trkpt><trkpt lat="43.69056742948158" lon="13.088566319089477"><ele>192.25</ele><time>2026-04-29T09:17:47Z</time></trkpt><trkpt lat="43.69051173935355" lon="13.088425787112339"><ele>191.0</ele><time>2026-04-29T09:17:48Z</time></trkpt><trkpt lat="43.690478944893634" lon="13.088274067003919"><ele>190.0</ele><time>2026-04-29T09:17:49Z</time></trkpt><trkpt lat="43.690468704818066" lon="13.088107846856948"><ele>189.0</ele><time>2026-04-29T09:17:50Z</time></trkpt><trkpt lat="43.69046933306101" lon="13.087927454137198"><ele>188.0</ele><time>2026-04-29T09:17:51Z</time></trkpt><trkpt lat="43.69046505950809" lon="13.08774116635818"><ele>187.0</ele><time>2026-04-29T09:17:52Z</time></trkpt><trkpt lat="43.690458608569244" lon="13.087564906057743"><ele>185.25</ele><time>2026-04-29T09:17:53Z</time></trkpt><trkpt lat="43.69044418306884" lon="13.087387927609342"><ele>183.5</ele><time>2026-04-29T09:17:54Z</time></trkpt><trkpt lat="43.69043236416426" lon="13.087208419785703"><ele>181.75</ele><time>2026-04-29T09:17:55Z</time></trkpt><trkpt lat="43.6903671217071" lon="13.08705112507479"><ele>180.0</ele><time>2026-04-29T09:17:56Z</time></trkpt><trkpt lat="43.69029917514321" lon="13.08690442811248"><ele>185.0</ele><time>2026-04-29T09:17:57Z</time></trkpt><trkpt lat="43.69022185670072" lon="13.086768063500637"><ele>190.0</ele><time>2026-04-29T09:17:58Z</time></trkpt><trkpt lat="43.69014870170622" lon="13.086623347653047"><ele>195.0</ele><time>2026-04-29T09:17:59Z</time></trkpt><trkpt lat="43.69007898423495" lon="13.086472779976775"><ele>200.0</ele><time>2026-04-29T09:18:00Z</time></trkpt><trkpt lat="43.69001420541975" lon="13.08631458763638"><ele>200.0</ele><time>2026-04-29T09:18:01Z</time></trkpt><trkpt lat="43.689943690057596" lon="13.086150914538441"><ele>200.0</ele><time>2026-04-29T09:18:02Z</time></trkpt><trkpt lat="43.689865037909094" lon="13.085992811332629"><ele>200.0</ele><time>2026-04-29T09:18:03Z</time></trkpt><trkpt lat="43.68977267590019" lon="13.085859645593457"><ele>200.0</ele><time>2026-04-29T09:18:04Z</time></trkpt><trkpt lat="43.689672290393226" lon="13.08574210316244"><ele>200.25</ele><time>2026-04-29T09:18:05Z</time></trkpt><trkpt lat="43.68957401956399" lon="13.085621231392562"><ele>200.5</ele><time>2026-04-29T09:18:06Z</time></trkpt><trkpt lat="43.6894747423351" lon="13.085500509926417"><ele>200.75</ele><time>2026-04-29T09:18:07Z</time></trkpt><trkpt lat="43.68937695630016" lon="13.08537769454023"><ele>201.0</ele><time>2026-04-29T09:18:08Z</time></trkpt><trkpt lat="43.68929163490961" lon="13.085253685852761"><ele>201.0</ele><time>2026-04-29T09:18:09Z</time></trkpt><trkpt lat="43.689219602792065" lon="13.085115975673556"><ele>201.0</ele><time>2026-04-29T09:18:10Z</time></trkpt><trkpt lat="43.68915107826146" lon="13.084965176424399"><ele>201.0</ele><time>2026-04-29T09:18:11Z</time></trkpt><trkpt lat="43.689088028894034" lon="13.084806834555124"><ele>201.0</ele><time>2026-04-29T09:18:12Z</time></trkpt><trkpt lat="43.68902450987624" lon="13.08465017673977"><ele>200.5</ele><time>2026-04-29T09:18:13Z</time></trkpt><trkpt lat="43.68897014355814" lon="13.084497262681387"><ele>200.0</ele><time>2026-04-29T09:18:14Z</time></trkpt><trkpt lat="43.6889250222815" lon="13.08434637805508"><ele>199.5</ele><time>2026-04-29T09:18:15Z</time></trkpt><trkpt lat="43.68889636941035" lon="13.0841949044748"><ele>199.0</ele><time>2026-04-29T09:18:16Z</time></trkpt><trkpt lat="43.68888175892709" lon="13.08404033675342"><ele>196.25</ele><time>2026-04-29T09:18:17Z</time></trkpt><trkpt lat="43.6888744433954" lon="13.083887345983802"><ele>193.5</ele><time>2026-04-29T09:18:18Z</time></trkpt><trkpt lat="43.68887065008999" lon="13.083729784737551"><ele>190.75</ele><time>2026-04-29T09:18:19Z</time></trkpt><trkpt lat="43.68885773582741" lon="13.083573900513935"><ele>188.0</ele><time>2026-04-29T09:18:20Z</time></trkpt><trkpt lat="43.68882320784531" lon="13.083420862055211"><ele>188.0</ele><time>2026-04-29T09:18:21Z</time></trkpt><trkpt lat="43.68876065901942" lon="13.083284505795243"><ele>188.0</ele><time>2026-04-29T09:18:22Z</time></trkpt><trkpt lat="43.68868528388059" lon="13.083155274610254"><ele>188.0</ele><time>2026-04-29T09:18:23Z</time></trkpt><trkpt lat="43.68859026936678" lon="13.08303417877969"><ele>188.0</ele><time>2026-04-29T09:18:24Z</time></trkpt><trkpt lat="43.68849812712966" lon="13.082899771362749"><ele>185.5</ele><time>2026-04-29T09:18:25Z</time></trkpt><trkpt lat="43.688398502391266" lon="13.082773868759915"><ele>183.0</ele><time>2026-04-29T09:18:26Z</time></trkpt><trkpt lat="43.688290576504265" lon="13.08266311665877"><ele>180.5</ele><time>2026-04-29T09:18:27Z</time></trkpt><trkpt lat="43.68818221623246" lon="13.082547794738625"><ele>178.0</ele><time>2026-04-29T09:18:28Z</time></trkpt><trkpt lat="43.68807278899472" lon="13.082425818228295"><ele>176.0</ele><time>2026-04-29T09:18:29Z</time></trkpt><trkpt lat="43.68796437518959" lon="13.082296005524377"><ele>174.0</ele><time>2026-04-29T09:18:30Z</time></trkpt><trkpt lat="43.687860137982724" lon="13.082160008971071"><ele>172.0</ele><time>2026-04-29T09:18:31Z</time></trkpt><trkpt lat="43.68776068238267" lon="13.082009965272682"><ele>170.0</ele><time>2026-04-29T09:18:32Z</time></trkpt><trkpt lat="43.68766290105907" lon="13.081847343957174"><ele>170.0</ele><time>2026-04-29T09:18:33Z</time></trkpt><trkpt lat="43.68756711953524" lon="13.08168302993905"><ele>170.0</ele><time>2026-04-29T09:18:34Z</time></trkpt><trkpt lat="43.687477526234716" lon="13.081522558107116"><ele>170.0</ele><time>2026-04-29T09:18:35Z</time></trkpt><trkpt lat="43.687395089350986" lon="13.081362195039857"><ele>170.0</ele><time>2026-04-29T09:18:36Z</time></trkpt><trkpt lat="43.687316006484345" lon="13.081204336902115"><ele>169.0</ele><time>2026-04-29T09:18:37Z</time></trkpt><trkpt lat="43.687230429996504" lon="13.08104120110761"><ele>168.0</ele><time>2026-04-29T09:18:38Z</time></trkpt><trkpt lat="43.68714344959103" lon="13.080875227038254"><ele>167.0</ele><time>2026-04-29T09:18:39Z</time></trkpt><trkpt lat="43.687057136502204" lon="13.080708505667019"><ele>166.0</ele><time>2026-04-29T09:18:40Z</time></trkpt><trkpt lat="43.686969156286516" lon="13.080537419443935"><ele>168.0</ele><time>2026-04-29T09:18:41Z</time></trkpt><trkpt lat="43.686880815274414" lon="13.080364803383729"><ele>170.0</ele><time>2026-04-29T09:18:42Z</time></trkpt><trkpt lat="43.686791713715536" lon="13.080187361813268"><ele>172.0</ele><time>2026-04-29T09:18:43Z</time></trkpt><trkpt lat="43.6867013474026" lon="13.080010478144926"><ele>170.0</ele><time>2026-04-29T09:18:44Z</time></trkpt><trkpt lat="43.68660587567032" lon="13.079830277106415"><ele>168.0</ele><time>2026-04-29T09:18:45Z</time></trkpt><trkpt lat="43.68651541102482" lon="13.079653418507688"><ele>166.0</ele><time>2026-04-29T09:18:46Z</time></trkpt><trkpt lat="43.68642453623067" lon="13.079482622040938"><ele>166.0</ele><time>2026-04-29T09:18:47Z</time></trkpt><trkpt lat="43.68633201160071" lon="13.079312738873735"><ele>166.0</ele><time>2026-04-29T09:18:48Z</time></trkpt><trkpt lat="43.6862401660867" lon="13.07914546439621"><ele>166.0</ele><time>2026-04-29T09:18:49Z</time></trkpt><trkpt lat="43.68614496413045" lon="13.078991695132384"><ele>168.75</ele><time>2026-04-29T09:18:50Z</time></trkpt><trkpt lat="43.68604840486846" lon="13.078854220567706"><ele>171.5</ele><time>2026-04-29T09:18:51Z</time></trkpt><trkpt lat="43.68594780805337" lon="13.07872526033175"><ele>174.25</ele><time>2026-04-29T09:18:52Z</time></trkpt><trkpt lat="43.68584265127915" lon="13.078597959529406"><ele>177.0</ele><time>2026-04-29T09:18:53Z</time></trkpt><trkpt lat="43.685734378555026" lon="13.078468732525996"><ele>177.0</ele><time>2026-04-29T09:18:54Z</time></trkpt><trkpt lat="43.68562763765623" lon="13.078350339856684"><ele>177.0</ele><time>2026-04-29T09:18:55Z</time></trkpt><trkpt lat="43.68550759750385" lon="13.078246233600483"><ele>177.0</ele><time>2026-04-29T09:18:56Z</time></trkpt><trkpt lat="43.685373087471596" lon="13.078161377311112"><ele>177.0</ele><time>2026-04-29T09:18:57Z</time></trkpt><trkpt lat="43.685230693049725" lon="13.078106649008951"><ele>179.75</ele><time>2026-04-29T09:18:58Z</time></trkpt><trkpt lat="43.68508717065226" lon="13.07806162946746"><ele>182.5</ele><time>2026-04-29T09:18:59Z</time></trkpt><trkpt lat="43.68494515066283" lon="13.078027423460993"><ele>185.25</ele><time>2026-04-29T09:19:00Z</time></trkpt><trkpt lat="43.68479847100638" lon="13.077993468885449"><ele>188.0</ele><time>2026-04-29T09:19:01Z</time></trkpt><trkpt lat="43.68465089911764" lon="13.07795573069142"><ele>188.0</ele><time>2026-04-29T09:19:02Z</time></trkpt><trkpt lat="43.68450066096094" lon="13.077915184123228"><ele>188.0</ele><time>2026-04-29T09:19:03Z</time></trkpt><trkpt lat="43.6843504692227" lon="13.077886030471948"><ele>188.0</ele><time>2026-04-29T09:19:04Z</time></trkpt><trkpt lat="43.684200289163016" lon="13.077852112530742"><ele>188.75</ele><time>2026-04-29T09:19:05Z</time></trkpt><trkpt lat="43.68405058419715" lon="13.077829499840648"><ele>189.5</ele><time>2026-04-29T09:19:06Z</time></trkpt><trkpt lat="43.68390608926557" lon="13.077805199959428"><ele>190.25</ele><time>2026-04-29T09:19:07Z</time></trkpt><trkpt lat="43.683765912923114" lon="13.077780835643242"><ele>191.0</ele><time>2026-04-29T09:19:08Z</time></trkpt><trkpt lat="43.683626197297805" lon="13.077750395397196"><ele>191.75</ele><time>2026-04-29T09:19:09Z</time></trkpt><trkpt lat="43.68348955518026" lon="13.07771090259375"><ele>192.5</ele><time>2026-04-29T09:19:10Z</time></trkpt><trkpt lat="43.68335170442942" lon="13.07766619621008"><ele>193.25</ele><time>2026-04-29T09:19:11Z</time></trkpt><trkpt lat="43.68321538555591" lon="13.0776173592744"><ele>194.0</ele><time>2026-04-29T09:19:12Z</time></trkpt><trkpt lat="43.683077266334244" lon="13.077566725733082"><ele>194.0</ele><time>2026-04-29T09:19:13Z</time></trkpt><trkpt lat="43.682937454603525" lon="13.077511448512519"><ele>194.0</ele><time>2026-04-29T09:19:14Z</time></trkpt><trkpt lat="43.682799617724946" lon="13.07745805489624"><ele>194.0</ele><time>2026-04-29T09:19:15Z</time></trkpt><trkpt lat="43.682661511951636" lon="13.07740282708401"><ele>194.0</ele><time>2026-04-29T09:19:16Z</time></trkpt><trkpt lat="43.682521677376364" lon="13.077353394398356"><ele>193.0</ele><time>2026-04-29T09:19:17Z</time></trkpt><trkpt lat="43.68237963578422" lon="13.077298715333933"><ele>192.0</ele><time>2026-04-29T09:19:18Z</time></trkpt><trkpt lat="43.68223735441115" lon="13.077234996464384"><ele>191.0</ele><time>2026-04-29T09:19:19Z</time></trkpt><trkpt lat="43.68209874825081" lon="13.077157754050456"><ele>190.0</ele><time>2026-04-29T09:19:20Z</time></trkpt><trkpt lat="43.68195942021421" lon="13.077073971037606"><ele>190.0</ele><time>2026-04-29T09:19:21Z</time></trkpt><trkpt lat="43.68181839321816" lon="13.076990421575598"><ele>190.0</ele><time>2026-04-29T09:19:22Z</time></trkpt><trkpt lat="43.681691959143755" lon="13.076893414011026"><ele>190.0</ele><time>2026-04-29T09:19:23Z</time></trkpt><trkpt lat="43.68157197172566" lon="13.076788043206534"><ele>190.0</ele><time>2026-04-29T09:19:24Z</time></trkpt><trkpt lat="43.68145550472998" lon="13.076672338659106"><ele>189.75</ele><time>2026-04-29T09:19:25Z</time></trkpt><trkpt lat="43.68134359279381" lon="13.076560285658593"><ele>189.5</ele><time>2026-04-29T09:19:26Z</time></trkpt><trkpt lat="43.68122936247173" lon="13.076459179980315"><ele>189.25</ele><time>2026-04-29T09:19:27Z</time></trkpt><trkpt lat="43.68111226296491" lon="13.07636789537203"><ele>189.0</ele><time>2026-04-29T09:19:28Z</time></trkpt><trkpt lat="43.68099130085138" lon="13.076287977970445"><ele>188.5</ele><time>2026-04-29T09:19:29Z</time></trkpt><trkpt lat="43.68086843867492" lon="13.076216091739019"><ele>188.0</ele><time>2026-04-29T09:19:30Z</time></trkpt><trkpt lat="43.68073972531908" lon="13.07614323199361"><ele>187.5</ele><time>2026-04-29T09:19:31Z</time></trkpt><trkpt lat="43.680604046817926" lon="13.076070364500827"><ele>187.0</ele><time>2026-04-29T09:19:32Z</time></trkpt><trkpt lat="43.68046426997868" lon="13.075995280786556"><ele>187.0</ele><time>2026-04-29T09:19:33Z</time></trkpt><trkpt lat="43.68032255797277" lon="13.075920787358125"><ele>187.0</ele><time>2026-04-29T09:19:34Z</time></trkpt><trkpt lat="43.68018318578831" lon="13.075844517608761"><ele>187.0</ele><time>2026-04-29T09:19:35Z</time></trkpt><trkpt lat="43.680044895192424" lon="13.07576136432293"><ele>186.5</ele><time>2026-04-29T09:19:36Z</time></trkpt><trkpt lat="43.67990731288877" lon="13.075669294717754"><ele>186.0</ele><time>2026-04-29T09:19:37Z</time></trkpt><trkpt lat="43.679779242304214" lon="13.075569145512933"><ele>185.5</ele><time>2026-04-29T09:19:38Z</time></trkpt><trkpt lat="43.67965557467951" lon="13.075460859384165"><ele>185.0</ele><time>2026-04-29T09:19:39Z</time></trkpt><trkpt lat="43.67953750925856" lon="13.075340831056362"><ele>185.25</ele><time>2026-04-29T09:19:40Z</time></trkpt><trkpt lat="43.67942867620441" lon="13.07520628030972"><ele>185.5</ele><time>2026-04-29T09:19:41Z</time></trkpt><trkpt lat="43.67933241622277" lon="13.075052349580082"><ele>185.75</ele><time>2026-04-29T09:19:42Z</time></trkpt><trkpt lat="43.67924281028967" lon="13.074889522819193"><ele>186.0</ele><time>2026-04-29T09:19:43Z</time></trkpt><trkpt lat="43.67915452577486" lon="13.074724138240303"><ele>186.0</ele><time>2026-04-29T09:19:44Z</time></trkpt><trkpt lat="43.67906256547504" lon="13.074557269492985"><ele>186.0</ele><time>2026-04-29T09:19:45Z</time></trkpt><trkpt lat="43.678971635661064" lon="13.07439441980552"><ele>186.0</ele><time>2026-04-29T09:19:46Z</time></trkpt><trkpt lat="43.67888175825455" lon="13.074232843417558"><ele>186.0</ele><time>2026-04-29T09:19:47Z</time></trkpt><trkpt lat="43.6787890978344" lon="13.07406876244381"><ele>188.0</ele><time>2026-04-29T09:19:48Z</time></trkpt><trkpt lat="43.678694012574894" lon="13.073897288775786"><ele>190.0</ele><time>2026-04-29T09:19:49Z</time></trkpt><trkpt lat="43.67859795787836" lon="13.073728466579539"><ele>192.0</ele><time>2026-04-29T09:19:50Z</time></trkpt><trkpt lat="43.6785038965194" lon="13.073560716983357"><ele>192.0</ele><time>2026-04-29T09:19:51Z</time></trkpt><trkpt lat="43.67841015794616" lon="13.073396489848689"><ele>192.0</ele><time>2026-04-29T09:19:52Z</time></trkpt><trkpt lat="43.678319417402804" lon="13.073223464909987"><ele>192.0</ele><time>2026-04-29T09:19:53Z</time></trkpt><trkpt lat="43.67823907564854" lon="13.07304880190144"><ele>190.25</ele><time>2026-04-29T09:19:54Z</time></trkpt><trkpt lat="43.67816385123538" lon="13.07287064453907"><ele>188.5</ele><time>2026-04-29T09:19:55Z</time></trkpt><trkpt lat="43.67809338108983" lon="13.07268622646289"><ele>186.75</ele><time>2026-04-29T09:19:56Z</time></trkpt><trkpt lat="43.67803067824748" lon="13.07250062579106"><ele>185.0</ele><time>2026-04-29T09:19:57Z</time></trkpt><trkpt lat="43.67797653582127" lon="13.072292970665355"><ele>182.33333333333331</ele><time>2026-04-29T09:19:58Z</time></trkpt><trkpt lat="43.67792259843603" lon="13.072089012347321"><ele>179.66666666666666</ele><time>2026-04-29T09:19:59Z</time></trkpt><trkpt lat="43.67787095944807" lon="13.071882785458596"><ele>177.0</ele><time>2026-04-29T09:20:00Z</time></trkpt><trkpt lat="43.677818800464266" lon="13.071677356540693"><ele>179.66666666666666</ele><time>2026-04-29T09:20:01Z</time></trkpt><trkpt lat="43.677766272377085" lon="13.071466824674575"><ele>182.33333333333331</ele><time>2026-04-29T09:20:02Z</time></trkpt><trkpt lat="43.67771026399229" lon="13.07125631279927"><ele>185.0</ele><time>2026-04-29T09:20:03Z</time></trkpt><trkpt lat="43.67765739953987" lon="13.071047393397823"><ele>185.0</ele><time>2026-04-29T09:20:04Z</time></trkpt><trkpt lat="43.67760838039633" lon="13.070837257245882"><ele>185.0</ele><time>2026-04-29T09:20:05Z</time></trkpt><trkpt lat="43.67755762023706" lon="13.070624475721422"><ele>185.0</ele><time>2026-04-29T09:20:06Z</time></trkpt><trkpt lat="43.67749981737308" lon="13.070417462535705"><ele>184.66666666666666</ele><time>2026-04-29T09:20:07Z</time></trkpt><trkpt lat="43.67743854309702" lon="13.070217088283123"><ele>184.33333333333334</ele><time>2026-04-29T09:20:08Z</time></trkpt><trkpt lat="43.67736947889707" lon="13.070023393476507"><ele>184.0</ele><time>2026-04-29T09:20:09Z</time></trkpt><trkpt lat="43.677293074264234" lon="13.069834687950927"><ele>182.33333333333334</ele><time>2026-04-29T09:20:10Z</time></trkpt><trkpt lat="43.67720977344511" lon="13.069656803261712"><ele>180.66666666666666</ele><time>2026-04-29T09:20:11Z</time></trkpt><trkpt lat="43.67712046513946" lon="13.069481184525294"><ele>179.0</ele><time>2026-04-29T09:20:12Z</time></trkpt><trkpt lat="43.67702438284851" lon="13.069314498568012"><ele>182.0</ele><time>2026-04-29T09:20:13Z</time></trkpt><trkpt lat="43.67691481687166" lon="13.069157518234883"><ele>185.0</ele><time>2026-04-29T09:20:14Z</time></trkpt><trkpt lat="43.67679958759478" lon="13.069011260079204"><ele>188.0</ele><time>2026-04-29T09:20:15Z</time></trkpt><trkpt lat="43.67669240406447" lon="13.068865749118356"><ele>189.0</ele><time>2026-04-29T09:20:16Z</time></trkpt><trkpt lat="43.67659752514735" lon="13.068719718756077"><ele>190.0</ele><time>2026-04-29T09:20:17Z</time></trkpt><trkpt lat="43.676519688056096" lon="13.0685571014785"><ele>191.0</ele><time>2026-04-29T09:20:18Z</time></trkpt><trkpt lat="43.676469362184655" lon="13.068374088452305"><ele>192.0</ele><time>2026-04-29T09:20:19Z</time></trkpt><trkpt lat="43.67640842217869" lon="13.068198085583267"><ele>192.0</ele><time>2026-04-29T09:20:20Z</time></trkpt><trkpt lat="43.676386138169974" lon="13.068005686608833"><ele>192.0</ele><time>2026-04-29T09:20:21Z</time></trkpt><trkpt lat="43.676377764837405" lon="13.067812279132445"><ele>192.0</ele><time>2026-04-29T09:20:22Z</time></trkpt><trkpt lat="43.676374798663886" lon="13.0676104108819"><ele>192.0</ele><time>2026-04-29T09:20:23Z</time></trkpt><trkpt lat="43.6763748534721" lon="13.067416915422566"><ele>192.0</ele><time>2026-04-29T09:20:24Z</time></trkpt><trkpt lat="43.67635039272381" lon="13.067252389771289"><ele>192.0</ele><time>2026-04-29T09:20:25Z</time></trkpt><trkpt lat="43.67629942648019" lon="13.067113891430388"><ele>192.0</ele><time>2026-04-29T09:20:26Z</time></trkpt><trkpt lat="43.676221886229506" lon="13.066983201707227"><ele>192.0</ele><time>2026-04-29T09:20:27Z</time></trkpt><trkpt lat="43.67612349199739" lon="13.066863236295626"><ele>193.25</ele><time>2026-04-29T09:20:28Z</time></trkpt><trkpt lat="43.67602492847994" lon="13.066742295407824"><ele>194.5</ele><time>2026-04-29T09:20:29Z</time></trkpt><trkpt lat="43.67592559980923" lon="13.06661784852004"><ele>195.75</ele><time>2026-04-29T09:20:30Z</time></trkpt><trkpt lat="43.675828114228416" lon="13.066496749475439"><ele>197.0</ele><time>2026-04-29T09:20:31Z</time></trkpt><trkpt lat="43.67573368708196" lon="13.066400628932804"><ele>197.0</ele><time>2026-04-29T09:20:32Z</time></trkpt><trkpt lat="43.675626905690606" lon="13.066311926089087"><ele>197.0</ele><time>2026-04-29T09:20:33Z</time></trkpt><trkpt lat="43.675510807276325" lon="13.066266862967119"><ele>197.0</ele><time>2026-04-29T09:20:34Z</time></trkpt><trkpt lat="43.67539270365869" lon="13.066237614649276"><ele>197.0</ele><time>2026-04-29T09:20:35Z</time></trkpt><trkpt lat="43.67525305138308" lon="13.066261604577974"><ele>199.0</ele><time>2026-04-29T09:20:36Z</time></trkpt><trkpt lat="43.675110765061156" lon="13.066279068351557"><ele>201.0</ele><time>2026-04-29T09:20:37Z</time></trkpt><trkpt lat="43.67496554292719" lon="13.066289445116682"><ele>203.0</ele><time>2026-04-29T09:20:38Z</time></trkpt><trkpt lat="43.67482725234083" lon="13.066283376467224"><ele>205.0</ele><time>2026-04-29T09:20:39Z</time></trkpt><trkpt lat="43.67468363190234" lon="13.066255014287194"><ele>205.0</ele><time>2026-04-29T09:20:40Z</time></trkpt><trkpt lat="43.674535356293205" lon="13.06620992079194"><ele>205.0</ele><time>2026-04-29T09:20:41Z</time></trkpt><trkpt lat="43.67439773039288" lon="13.066151637811025"><ele>205.0</ele><time>2026-04-29T09:20:42Z</time></trkpt><trkpt lat="43.674258632318846" lon="13.066092705524403"><ele>205.0</ele><time>2026-04-29T09:20:43Z</time></trkpt><trkpt lat="43.67411237873158" lon="13.066029140424149"><ele>206.0</ele><time>2026-04-29T09:20:44Z</time></trkpt><trkpt lat="43.67396543605849" lon="13.065950663383514"><ele>207.0</ele><time>2026-04-29T09:20:45Z</time></trkpt><trkpt lat="43.67382525600257" lon="13.065850449016127"><ele>208.0</ele><time>2026-04-29T09:20:46Z</time></trkpt><trkpt lat="43.673694273410014" lon="13.06572721602466"><ele>205.0</ele><time>2026-04-29T09:20:47Z</time></trkpt><trkpt lat="43.67356068085544" lon="13.065612219340693"><ele>202.0</ele><time>2026-04-29T09:20:48Z</time></trkpt><trkpt lat="43.67341942774408" lon="13.065520441946761"><ele>199.0</ele><time>2026-04-29T09:20:49Z</time></trkpt><trkpt lat="43.673278025175904" lon="13.065457653764382"><ele>199.0</ele><time>2026-04-29T09:20:50Z</time></trkpt><trkpt lat="43.673127030187175" lon="13.065407779348972"><ele>199.0</ele><time>2026-04-29T09:20:51Z</time></trkpt><trkpt lat="43.6729801388729" lon="13.065351318175198"><ele>199.0</ele><time>2026-04-29T09:20:52Z</time></trkpt><trkpt lat="43.67284280460467" lon="13.065279012732109"><ele>197.75</ele><time>2026-04-29T09:20:53Z</time></trkpt><trkpt lat="43.67270867247769" lon="13.06520239839894"><ele>196.5</ele><time>2026-04-29T09:20:54Z</time></trkpt><trkpt lat="43.672576766952226" lon="13.065118296021838"><ele>195.25</ele><time>2026-04-29T09:20:55Z</time></trkpt><trkpt lat="43.67243938840701" lon="13.065034676775962"><ele>194.0</ele><time>2026-04-29T09:20:56Z</time></trkpt><trkpt lat="43.672302501906714" lon="13.064948887163869"><ele>194.0</ele><time>2026-04-29T09:20:57Z</time></trkpt><trkpt lat="43.67216378013999" lon="13.0648699499543"><ele>194.0</ele><time>2026-04-29T09:20:58Z</time></trkpt><trkpt lat="43.672030964534834" lon="13.064772742701729"><ele>194.0</ele><time>2026-04-29T09:20:59Z</time></trkpt><trkpt lat="43.671909377588086" lon="13.064655538633644"><ele>194.0</ele><time>2026-04-29T09:21:00Z</time></trkpt><trkpt lat="43.671795019976365" lon="13.064522526117988"><ele>195.33333333333334</ele><time>2026-04-29T09:21:01Z</time></trkpt><trkpt lat="43.671679546559616" lon="13.064381253587744"><ele>196.66666666666669</ele><time>2026-04-29T09:21:02Z</time></trkpt><trkpt lat="43.67156184794715" lon="13.064244516567147"><ele>198.0</ele><time>2026-04-29T09:21:03Z</time></trkpt><trkpt lat="43.671429022187" lon="13.064110184309975"><ele>198.0</ele><time>2026-04-29T09:21:04Z</time></trkpt><trkpt lat="43.67129885357304" lon="13.063970273849662"><ele>198.0</ele><time>2026-04-29T09:21:05Z</time></trkpt><trkpt lat="43.67115853259049" lon="13.063832278426895"><ele>198.0</ele><time>2026-04-29T09:21:06Z</time></trkpt><trkpt lat="43.67101892979858" lon="13.06370097370958"><ele>198.0</ele><time>2026-04-29T09:21:07Z</time></trkpt><trkpt lat="43.670886003739405" lon="13.063563007330304"><ele>198.0</ele><time>2026-04-29T09:21:08Z</time></trkpt><trkpt lat="43.67075732181023" lon="13.063408256337837"><ele>198.0</ele><time>2026-04-29T09:21:09Z</time></trkpt><trkpt lat="43.67063988181687" lon="13.063251451562644"><ele>198.0</ele><time>2026-04-29T09:21:10Z</time></trkpt><trkpt lat="43.670532007076936" lon="13.063089936665643"><ele>198.0</ele><time>2026-04-29T09:21:11Z</time></trkpt><trkpt lat="43.670424710542235" lon="13.062925273789347"><ele>198.0</ele><time>2026-04-29T09:21:12Z</time></trkpt><trkpt lat="43.67031828939836" lon="13.062748129561175"><ele>200.66666666666669</ele><time>2026-04-29T09:21:13Z</time></trkpt><trkpt lat="43.67021037829065" lon="13.06256829276524"><ele>203.33333333333334</ele><time>2026-04-29T09:21:14Z</time></trkpt><trkpt lat="43.67009655901967" lon="13.062393648242132"><ele>206.0</ele><time>2026-04-29T09:21:15Z</time></trkpt><trkpt lat="43.66997846502408" lon="13.062233182457556"><ele>206.0</ele><time>2026-04-29T09:21:16Z</time></trkpt><trkpt lat="43.669859250687445" lon="13.06207733189563"><ele>206.0</ele><time>2026-04-29T09:21:17Z</time></trkpt><trkpt lat="43.66973872132132" lon="13.061927623693274"><ele>206.0</ele><time>2026-04-29T09:21:18Z</time></trkpt><trkpt lat="43.66962279282802" lon="13.06178325068849"><ele>206.0</ele><time>2026-04-29T09:21:19Z</time></trkpt><trkpt lat="43.669509559548594" lon="13.061641192095447"><ele>206.0</ele><time>2026-04-29T09:21:20Z</time></trkpt><trkpt lat="43.66939292820582" lon="13.061498989898752"><ele>206.0</ele><time>2026-04-29T09:21:21Z</time></trkpt><trkpt lat="43.66927754877778" lon="13.06135153104149"><ele>208.0</ele><time>2026-04-29T09:21:22Z</time></trkpt><trkpt lat="43.669164139083755" lon="13.061198048072882"><ele>210.0</ele><time>2026-04-29T09:21:23Z</time></trkpt><trkpt lat="43.669051699160214" lon="13.061039119285331"><ele>212.0</ele><time>2026-04-29T09:21:24Z</time></trkpt><trkpt lat="43.66894725692194" lon="13.060874803140711"><ele>209.33333333333334</ele><time>2026-04-29T09:21:25Z</time></trkpt><trkpt lat="43.66885075806712" lon="13.060703655117392"><ele>206.66666666666669</ele><time>2026-04-29T09:21:26Z</time></trkpt><trkpt lat="43.668750991321915" lon="13.060523606164399"><ele>204.0</ele><time>2026-04-29T09:21:27Z</time></trkpt><trkpt lat="43.6686513358745" lon="13.060345251361902"><ele>206.66666666666669</ele><time>2026-04-29T09:21:28Z</time></trkpt><trkpt lat="43.66855456419793" lon="13.060168712272192"><ele>209.33333333333334</ele><time>2026-04-29T09:21:29Z</time></trkpt><trkpt lat="43.66845991770177" lon="13.05999435921951"><ele>212.0</ele><time>2026-04-29T09:21:30Z</time></trkpt><trkpt lat="43.668363965394285" lon="13.05981431001633"><ele>212.0</ele><time>2026-04-29T09:21:31Z</time></trkpt><trkpt lat="43.66827083420853" lon="13.05962782670181"><ele>212.0</ele><time>2026-04-29T09:21:32Z</time></trkpt><trkpt lat="43.66817664103006" lon="13.059442338128498"><ele>212.0</ele><time>2026-04-29T09:21:33Z</time></trkpt><trkpt lat="43.66808399005113" lon="13.059262371322047"><ele>209.66666666666669</ele><time>2026-04-29T09:21:34Z</time></trkpt><trkpt lat="43.667991665365314" lon="13.059085150697237"><ele>207.33333333333331</ele><time>2026-04-29T09:21:35Z</time></trkpt><trkpt lat="43.66790646198186" lon="13.058913544611917"><ele>205.0</ele><time>2026-04-29T09:21:36Z</time></trkpt><trkpt lat="43.667826520505336" lon="13.058749668282603"><ele>207.0</ele><time>2026-04-29T09:21:37Z</time></trkpt><trkpt lat="43.66775644567954" lon="13.058591599320309"><ele>209.0</ele><time>2026-04-29T09:21:38Z</time></trkpt><trkpt lat="43.66768994843457" lon="13.058444366279701"><ele>211.0</ele><time>2026-04-29T09:21:39Z</time></trkpt><trkpt lat="43.66762872013794" lon="13.058303256161967"><ele>213.0</ele><time>2026-04-29T09:21:40Z</time></trkpt><trkpt lat="43.66757527681905" lon="13.058164226356121"><ele>213.0</ele><time>2026-04-29T09:21:41Z</time></trkpt><trkpt lat="43.66752952549842" lon="13.058016995724788"><ele>213.0</ele><time>2026-04-29T09:21:42Z</time></trkpt><trkpt lat="43.66750063772024" lon="13.057861864857891"><ele>213.0</ele><time>2026-04-29T09:21:43Z</time></trkpt><trkpt lat="43.667497238691666" lon="13.057688480065368"><ele>213.0</ele><time>2026-04-29T09:21:44Z</time></trkpt><trkpt lat="43.667502404702304" lon="13.05750350071233"><ele>212.25</ele><time>2026-04-29T09:21:45Z</time></trkpt><trkpt lat="43.66749604183645" lon="13.057326195403578"><ele>211.5</ele><time>2026-04-29T09:21:46Z</time></trkpt><trkpt lat="43.66748714435576" lon="13.057140158224728"><ele>210.75</ele><time>2026-04-29T09:21:47Z</time></trkpt><trkpt lat="43.667474489716376" lon="13.056951119047135"><ele>210.0</ele><time>2026-04-29T09:21:48Z</time></trkpt><trkpt lat="43.66746201178279" lon="13.056763242871664"><ele>209.5</ele><time>2026-04-29T09:21:49Z</time></trkpt><trkpt lat="43.66744276355096" lon="13.056580683312863"><ele>209.0</ele><time>2026-04-29T09:21:50Z</time></trkpt><trkpt lat="43.6674212425592" lon="13.056402928605877"><ele>208.5</ele><time>2026-04-29T09:21:51Z</time></trkpt><trkpt lat="43.667390228792534" lon="13.056232577437267"><ele>208.0</ele><time>2026-04-29T09:21:52Z</time></trkpt><trkpt lat="43.667354776936385" lon="13.056061934677446"><ele>208.0</ele><time>2026-04-29T09:21:53Z</time></trkpt><trkpt lat="43.66730940802493" lon="13.055893196642634"><ele>208.0</ele><time>2026-04-29T09:21:54Z</time></trkpt><trkpt lat="43.667263373069254" lon="13.055721484227574"><ele>208.0</ele><time>2026-04-29T09:21:55Z</time></trkpt><trkpt lat="43.667222734903376" lon="13.055551419105035"><ele>208.0</ele><time>2026-04-29T09:21:56Z</time></trkpt><trkpt lat="43.667179942404964" lon="13.055387167555478"><ele>207.0</ele><time>2026-04-29T09:21:57Z</time></trkpt><trkpt lat="43.667135671412126" lon="13.055221807973709"><ele>206.0</ele><time>2026-04-29T09:21:58Z</time></trkpt><trkpt lat="43.667092232660565" lon="13.055058698870948"><ele>205.0</ele><time>2026-04-29T09:21:59Z</time></trkpt><trkpt lat="43.66704995376954" lon="13.054890077116172"><ele>204.0</ele><time>2026-04-29T09:22:00Z</time></trkpt><trkpt lat="43.667005313705886" lon="13.054722273752668"><ele>203.5</ele><time>2026-04-29T09:22:01Z</time></trkpt><trkpt lat="43.66696163383968" lon="13.054554047354014"><ele>203.0</ele><time>2026-04-29T09:22:02Z</time></trkpt><trkpt lat="43.6669122890756" lon="13.05438794089502"><ele>202.5</ele><time>2026-04-29T09:22:03Z</time></trkpt><trkpt lat="43.666866744356255" lon="13.054224167155613"><ele>202.0</ele><time>2026-04-29T09:22:04Z</time></trkpt><trkpt lat="43.666825445350526" lon="13.054065089921998"><ele>204.5</ele><time>2026-04-29T09:22:05Z</time></trkpt><trkpt lat="43.66678168678318" lon="13.053912800622564"><ele>207.0</ele><time>2026-04-29T09:22:06Z</time></trkpt><trkpt lat="43.666737724036736" lon="13.053753251601812"><ele>209.5</ele><time>2026-04-29T09:22:07Z</time></trkpt><trkpt lat="43.666694779778275" lon="13.053594171088504"><ele>212.0</ele><time>2026-04-29T09:22:08Z</time></trkpt><trkpt lat="43.666652275760995" lon="13.053435451935474"><ele>211.75</ele><time>2026-04-29T09:22:09Z</time></trkpt><trkpt lat="43.66660893292642" lon="13.053276668137642"><ele>211.5</ele><time>2026-04-29T09:22:10Z</time></trkpt><trkpt lat="43.66655656154328" lon="13.053124736188078"><ele>211.25</ele><time>2026-04-29T09:22:11Z</time></trkpt><trkpt lat="43.66650155042385" lon="13.05297203137902"><ele>211.0</ele><time>2026-04-29T09:22:12Z</time></trkpt><trkpt lat="43.66645021182475" lon="13.05281225190075"><ele>211.0</ele><time>2026-04-29T09:22:13Z</time></trkpt><trkpt lat="43.666392527254374" lon="13.05264826652776"><ele>211.0</ele><time>2026-04-29T09:22:14Z</time></trkpt><trkpt lat="43.66632059428344" lon="13.052484145300575"><ele>211.0</ele><time>2026-04-29T09:22:15Z</time></trkpt><trkpt lat="43.666232715560156" lon="13.052327126437206"><ele>211.0</ele><time>2026-04-29T09:22:16Z</time></trkpt><trkpt lat="43.66613055709858" lon="13.052176819172955"><ele>210.66666666666666</ele><time>2026-04-29T09:22:17Z</time></trkpt><trkpt lat="43.66601612300991" lon="13.052027447794009"><ele>210.33333333333331</ele><time>2026-04-29T09:22:18Z</time></trkpt><trkpt lat="43.665893121493575" lon="13.051865020208831"><ele>210.0</ele><time>2026-04-29T09:22:19Z</time></trkpt><trkpt lat="43.66576370182882" lon="13.05169133205738"><ele>207.33333333333331</ele><time>2026-04-29T09:22:20Z</time></trkpt><trkpt lat="43.665627063420864" lon="13.05151221714284"><ele>204.66666666666666</ele><time>2026-04-29T09:22:21Z</time></trkpt><trkpt lat="43.66549117293317" lon="13.0513333545272"><ele>202.0</ele><time>2026-04-29T09:22:22Z</time></trkpt><trkpt lat="43.66535117875172" lon="13.051149386847658"><ele>202.0</ele><time>2026-04-29T09:22:23Z</time></trkpt><trkpt lat="43.66520970155651" lon="13.050968282851594"><ele>202.0</ele><time>2026-04-29T09:22:24Z</time></trkpt><trkpt lat="43.66506979807775" lon="13.050782341310338"><ele>202.0</ele><time>2026-04-29T09:22:25Z</time></trkpt><trkpt lat="43.66493818542543" lon="13.050593899001184"><ele>200.66666666666666</ele><time>2026-04-29T09:22:26Z</time></trkpt><trkpt lat="43.66480963031111" lon="13.05040574002001"><ele>199.33333333333331</ele><time>2026-04-29T09:22:27Z</time></trkpt><trkpt lat="43.66468650687661" lon="13.050212943109157"><ele>198.0</ele><time>2026-04-29T09:22:28Z</time></trkpt><trkpt lat="43.66456622579493" lon="13.050015534676907"><ele>200.0</ele><time>2026-04-29T09:22:29Z</time></trkpt><trkpt lat="43.66444280983647" lon="13.049817358532161"><ele>202.0</ele><time>2026-04-29T09:22:30Z</time></trkpt><trkpt lat="43.66432547814557" lon="13.04962593662631"><ele>204.0</ele><time>2026-04-29T09:22:31Z</time></trkpt><trkpt lat="43.664212448189915" lon="13.049431438055969"><ele>204.0</ele><time>2026-04-29T09:22:32Z</time></trkpt><trkpt lat="43.664102782087724" lon="13.049232567303148"><ele>204.0</ele><time>2026-04-29T09:22:33Z</time></trkpt><trkpt lat="43.66399427224784" lon="13.0490328114186"><ele>204.0</ele><time>2026-04-29T09:22:34Z</time></trkpt><trkpt lat="43.66389339517607" lon="13.04883315706791"><ele>203.0</ele><time>2026-04-29T09:22:35Z</time></trkpt><trkpt lat="43.66378922428985" lon="13.048633928101111"><ele>202.0</ele><time>2026-04-29T09:22:36Z</time></trkpt><trkpt lat="43.663670462102615" lon="13.048451822288527"><ele>201.0</ele><time>2026-04-29T09:22:37Z</time></trkpt><trkpt lat="43.663531063474046" lon="13.04830050988207"><ele>204.0</ele><time>2026-04-29T09:22:38Z</time></trkpt><trkpt lat="43.66337333311067" lon="13.048184469050833"><ele>207.0</ele><time>2026-04-29T09:22:39Z</time></trkpt><trkpt lat="43.663205745330266" lon="13.048118473962033"><ele>210.0</ele><time>2026-04-29T09:22:40Z</time></trkpt><trkpt lat="43.663038499815606" lon="13.048065021761971"><ele>210.0</ele><time>2026-04-29T09:22:41Z</time></trkpt><trkpt lat="43.66287736217571" lon="13.048007255581627"><ele>210.0</ele><time>2026-04-29T09:22:42Z</time></trkpt><trkpt lat="43.66271864059602" lon="13.047926243320473"><ele>210.0</ele><time>2026-04-29T09:22:43Z</time></trkpt><trkpt lat="43.66257743428141" lon="13.047827446153198"><ele>212.33333333333331</ele><time>2026-04-29T09:22:44Z</time></trkpt><trkpt lat="43.6624568506299" lon="13.047700129214798"><ele>214.66666666666666</ele><time>2026-04-29T09:22:45Z</time></trkpt><trkpt lat="43.662344114167844" lon="13.047557683474494"><ele>217.0</ele><time>2026-04-29T09:22:46Z</time></trkpt><trkpt lat="43.66223717134372" lon="13.047403456441131"><ele>218.0</ele><time>2026-04-29T09:22:47Z</time></trkpt><trkpt lat="43.66211820550653" lon="13.047248975628488"><ele>219.0</ele><time>2026-04-29T09:22:48Z</time></trkpt><trkpt lat="43.6619898842629" lon="13.047096946841549"><ele>220.0</ele><time>2026-04-29T09:22:49Z</time></trkpt><trkpt lat="43.66185402297897" lon="13.04695485031109"><ele>220.0</ele><time>2026-04-29T09:22:50Z</time></trkpt><trkpt lat="43.66171504911966" lon="13.046819852409973"><ele>220.0</ele><time>2026-04-29T09:22:51Z</time></trkpt><trkpt lat="43.661576239823894" lon="13.046685763323273"><ele>220.0</ele><time>2026-04-29T09:22:52Z</time></trkpt><trkpt lat="43.661433410888485" lon="13.046549030603357"><ele>219.66666666666666</ele><time>2026-04-29T09:22:53Z</time></trkpt><trkpt lat="43.66129446897834" lon="13.046412807617303"><ele>219.33333333333331</ele><time>2026-04-29T09:22:54Z</time></trkpt><trkpt lat="43.661155182749724" lon="13.046281075053354"><ele>219.0</ele><time>2026-04-29T09:22:55Z</time></trkpt><trkpt lat="43.66102063465139" lon="13.046161207827796"><ele>219.0</ele><time>2026-04-29T09:22:56Z</time></trkpt><trkpt lat="43.660888537845075" lon="13.046048890729843"><ele>219.0</ele><time>2026-04-29T09:22:57Z</time></trkpt><trkpt lat="43.66075375587762" lon="13.04594526633218"><ele>219.0</ele><time>2026-04-29T09:22:58Z</time></trkpt><trkpt lat="43.66061430989657" lon="13.045841589989822"><ele>218.66666666666669</ele><time>2026-04-29T09:22:59Z</time></trkpt><trkpt lat="43.66047500128918" lon="13.045732666782236"><ele>218.33333333333334</ele><time>2026-04-29T09:23:00Z</time></trkpt><trkpt lat="43.66032984996954" lon="13.045635595660647"><ele>218.0</ele><time>2026-04-29T09:23:01Z</time></trkpt><trkpt lat="43.66017469678381" lon="13.04556291135854"><ele>220.66666666666669</ele><time>2026-04-29T09:23:02Z</time></trkpt><trkpt lat="43.66002171541682" lon="13.045511093429983"><ele>223.33333333333331</ele><time>2026-04-29T09:23:03Z</time></trkpt><trkpt lat="43.659862079919584" lon="13.045488260984163"><ele>226.0</ele><time>2026-04-29T09:23:04Z</time></trkpt><trkpt lat="43.659701501916494" lon="13.04547964501108"><ele>226.0</ele><time>2026-04-29T09:23:05Z</time></trkpt><trkpt lat="43.65953530983394" lon="13.045474289206624"><ele>226.0</ele><time>2026-04-29T09:23:06Z</time></trkpt><trkpt lat="43.65937581830242" lon="13.0454615997947"><ele>226.0</ele><time>2026-04-29T09:23:07Z</time></trkpt><trkpt lat="43.65921789254419" lon="13.04543317540973"><ele>227.0</ele><time>2026-04-29T09:23:08Z</time></trkpt><trkpt lat="43.65906143051967" lon="13.045383629256145"><ele>228.0</ele><time>2026-04-29T09:23:09Z</time></trkpt><trkpt lat="43.65891217414438" lon="13.04532696445771"><ele>229.0</ele><time>2026-04-29T09:23:10Z</time></trkpt><trkpt lat="43.65877119823213" lon="13.045267434527691"><ele>229.0</ele><time>2026-04-29T09:23:11Z</time></trkpt><trkpt lat="43.658630422909845" lon="13.045202820452882"><ele>229.0</ele><time>2026-04-29T09:23:12Z</time></trkpt><trkpt lat="43.65849655946657" lon="13.045143432527741"><ele>229.0</ele><time>2026-04-29T09:23:13Z</time></trkpt><trkpt lat="43.658376929022296" lon="13.045077748912448"><ele>229.0</ele><time>2026-04-29T09:23:14Z</time></trkpt><trkpt lat="43.65826727937532" lon="13.044990750634078"><ele>228.0</ele><time>2026-04-29T09:23:15Z</time></trkpt><trkpt lat="43.65816709251338" lon="13.044875467709613"><ele>227.0</ele><time>2026-04-29T09:23:16Z</time></trkpt><trkpt lat="43.65808237454248" lon="13.044754949225204"><ele>226.0</ele><time>2026-04-29T09:23:17Z</time></trkpt><trkpt lat="43.658004604103915" lon="13.044648234119835"><ele>225.0</ele><time>2026-04-29T09:23:18Z</time></trkpt><trkpt lat="43.65793289691597" lon="13.044553727865226"><ele>225.0</ele><time>2026-04-29T09:23:19Z</time></trkpt><trkpt lat="43.65787575793647" lon="13.044476780660615"><ele>225.0</ele><time>2026-04-29T09:23:20Z</time></trkpt><trkpt lat="43.6578007636615" lon="13.044361095033086"><ele>225.0</ele><time>2026-04-29T09:23:22Z</time></trkpt><trkpt lat="43.65777082647481" lon="13.044281473532774"><ele>225.0</ele><time>2026-04-29T09:23:24Z</time></trkpt><trkpt lat="43.65774412169084" lon="13.044183301895558"><ele>225.0</ele><time>2026-04-29T09:23:27Z</time></trkpt><trkpt lat="43.65766486913242" lon="13.044088840630332"><ele>225.0</ele><time>2026-04-29T09:23:29Z</time></trkpt><trkpt lat="43.65760181379743" lon="13.04405327731107"><ele>222.6</ele><time>2026-04-29T09:23:30Z</time></trkpt><trkpt lat="43.65752606654696" lon="13.044019040387193"><ele>220.2</ele><time>2026-04-29T09:23:31Z</time></trkpt><trkpt lat="43.657443214515034" lon="13.043963916514532"><ele>217.8</ele><time>2026-04-29T09:23:32Z</time></trkpt><trkpt lat="43.65736350931487" lon="13.04388734210819"><ele>215.4</ele><time>2026-04-29T09:23:33Z</time></trkpt><trkpt lat="43.65728110330609" lon="13.043780967270452"><ele>213.0</ele><time>2026-04-29T09:23:34Z</time></trkpt><trkpt lat="43.65719437103639" lon="13.043669424670275"><ele>213.0</ele><time>2026-04-29T09:23:35Z</time></trkpt><trkpt lat="43.657101790315764" lon="13.04355470329153"><ele>213.0</ele><time>2026-04-29T09:23:36Z</time></trkpt><trkpt lat="43.65700023789228" lon="13.043463367643191"><ele>213.0</ele><time>2026-04-29T09:23:37Z</time></trkpt><trkpt lat="43.65689436267356" lon="13.043409789064647"><ele>213.0</ele><time>2026-04-29T09:23:38Z</time></trkpt><trkpt lat="43.656783909690006" lon="13.043387324795992"><ele>213.4</ele><time>2026-04-29T09:23:39Z</time></trkpt><trkpt lat="43.65667488684005" lon="13.043390126003702"><ele>213.8</ele><time>2026-04-29T09:23:40Z</time></trkpt><trkpt lat="43.65657122450322" lon="13.043429169600863"><ele>214.2</ele><time>2026-04-29T09:23:41Z</time></trkpt><trkpt lat="43.65647998074654" lon="13.043507105642068"><ele>214.6</ele><time>2026-04-29T09:23:42Z</time></trkpt><trkpt lat="43.65641319205814" lon="13.043620416605494"><ele>215.0</ele><time>2026-04-29T09:23:43Z</time></trkpt><trkpt lat="43.65637223678785" lon="13.04375295012888"><ele>215.0</ele><time>2026-04-29T09:23:44Z</time></trkpt><trkpt lat="43.65636748067799" lon="13.043902710014033"><ele>215.0</ele><time>2026-04-29T09:23:45Z</time></trkpt><trkpt lat="43.65639753110775" lon="13.044061686797574"><ele>215.0</ele><time>2026-04-29T09:23:46Z</time></trkpt><trkpt lat="43.656451575415694" lon="13.044218174492734"><ele>215.0</ele><time>2026-04-29T09:23:47Z</time></trkpt><trkpt lat="43.65651382423318" lon="13.04437038885061"><ele>215.25</ele><time>2026-04-29T09:23:48Z</time></trkpt><trkpt lat="43.65657343366856" lon="13.044542814308283"><ele>215.5</ele><time>2026-04-29T09:23:49Z</time></trkpt><trkpt lat="43.65662410787828" lon="13.044727442828032"><ele>215.75</ele><time>2026-04-29T09:23:50Z</time></trkpt><trkpt lat="43.65666612940252" lon="13.044905463602534"><ele>216.0</ele><time>2026-04-29T09:23:51Z</time></trkpt><trkpt lat="43.656692258120714" lon="13.045088596675134"><ele>216.0</ele><time>2026-04-29T09:23:52Z</time></trkpt><trkpt lat="43.65670472127454" lon="13.04526953927582"><ele>216.0</ele><time>2026-04-29T09:23:53Z</time></trkpt><trkpt lat="43.656696048982695" lon="13.045456897681037"><ele>216.0</ele><time>2026-04-29T09:23:54Z</time></trkpt><trkpt lat="43.65666587682164" lon="13.045639828594618"><ele>216.0</ele><time>2026-04-29T09:23:55Z</time></trkpt><trkpt lat="43.656625250019125" lon="13.045816473734433"><ele>215.75</ele><time>2026-04-29T09:23:56Z</time></trkpt><trkpt lat="43.65657400614058" lon="13.04599033015197"><ele>215.5</ele><time>2026-04-29T09:23:57Z</time></trkpt><trkpt lat="43.656525944782075" lon="13.046157379611774"><ele>215.25</ele><time>2026-04-29T09:23:58Z</time></trkpt><trkpt lat="43.656476368403204" lon="13.046332787508472"><ele>215.0</ele><time>2026-04-29T09:23:59Z</time></trkpt><trkpt lat="43.656437391799486" lon="13.046496050465093"><ele>215.2</ele><time>2026-04-29T09:24:00Z</time></trkpt><trkpt lat="43.6564055188988" lon="13.0466461344833"><ele>215.4</ele><time>2026-04-29T09:24:01Z</time></trkpt><trkpt lat="43.65638488764445" lon="13.046782428339613"><ele>215.60000000000002</ele><time>2026-04-29T09:24:02Z</time></trkpt><trkpt lat="43.6563448464096" lon="13.04690772194657"><ele>215.8</ele><time>2026-04-29T09:24:03Z</time></trkpt><trkpt lat="43.65629463409962" lon="13.04701644473476"><ele>216.0</ele><time>2026-04-29T09:24:04Z</time></trkpt><trkpt lat="43.65623770425546" lon="13.047107517104456"><ele>216.0</ele><time>2026-04-29T09:24:05Z</time></trkpt><trkpt lat="43.656175689581836" lon="13.047171674042916"><ele>216.0</ele><time>2026-04-29T09:24:06Z</time></trkpt><trkpt lat="43.65610871878835" lon="13.047221865895208"><ele>216.0</ele><time>2026-04-29T09:24:07Z</time></trkpt><trkpt lat="43.65603520061907" lon="13.047266022729854"><ele>216.0</ele><time>2026-04-29T09:24:08Z</time></trkpt><trkpt lat="43.65594638359906" lon="13.04729720160254"><ele>216.0</ele><time>2026-04-29T09:24:09Z</time></trkpt><trkpt lat="43.65583981921278" lon="13.047316840635466"><ele>216.0</ele><time>2026-04-29T09:24:10Z</time></trkpt><trkpt lat="43.65572896063576" lon="13.047335602434948"><ele>212.5</ele><time>2026-04-29T09:24:11Z</time></trkpt><trkpt lat="43.65561128066526" lon="13.04735772650687"><ele>209.0</ele><time>2026-04-29T09:24:12Z</time></trkpt><trkpt lat="43.655494823977584" lon="13.047381751949555"><ele>205.5</ele><time>2026-04-29T09:24:13Z</time></trkpt><trkpt lat="43.6553788700629" lon="13.047403777859488"><ele>202.0</ele><time>2026-04-29T09:24:14Z</time></trkpt><trkpt lat="43.65526067202574" lon="13.047423359305098"><ele>201.5</ele><time>2026-04-29T09:24:15Z</time></trkpt><trkpt lat="43.65513892654944" lon="13.047437227929297"><ele>201.0</ele><time>2026-04-29T09:24:16Z</time></trkpt><trkpt lat="43.65501407817888" lon="13.04745384291145"><ele>200.5</ele><time>2026-04-29T09:24:17Z</time></trkpt><trkpt lat="43.65490641197356" lon="13.047487041923869"><ele>200.0</ele><time>2026-04-29T09:24:18Z</time></trkpt><trkpt lat="43.654784875148415" lon="13.047507526631225"><ele>200.0</ele><time>2026-04-29T09:24:19Z</time></trkpt><trkpt lat="43.65465886325384" lon="13.047537892396834"><ele>200.0</ele><time>2026-04-29T09:24:20Z</time></trkpt><trkpt lat="43.65452579411162" lon="13.047564129045305"><ele>200.0</ele><time>2026-04-29T09:24:21Z</time></trkpt><trkpt lat="43.654384126894975" lon="13.04760012403299"><ele>200.0</ele><time>2026-04-29T09:24:22Z</time></trkpt><trkpt lat="43.65424302409665" lon="13.047637217893298"><ele>200.0</ele><time>2026-04-29T09:24:23Z</time></trkpt><trkpt lat="43.65409403882046" lon="13.047674988960237"><ele>200.0</ele><time>2026-04-29T09:24:24Z</time></trkpt><trkpt lat="43.653941534719365" lon="13.047717492658343"><ele>200.0</ele><time>2026-04-29T09:24:25Z</time></trkpt><trkpt lat="43.653789126431406" lon="13.047758901827187"><ele>200.0</ele><time>2026-04-29T09:24:26Z</time></trkpt><trkpt lat="43.653635495436546" lon="13.047801248512041"><ele>200.0</ele><time>2026-04-29T09:24:27Z</time></trkpt><trkpt lat="43.653490619245176" lon="13.047841800012991"><ele>200.0</ele><time>2026-04-29T09:24:28Z</time></trkpt><trkpt lat="43.65334630590443" lon="13.047884484645703"><ele>199.5</ele><time>2026-04-29T09:24:29Z</time></trkpt><trkpt lat="43.65321257197432" lon="13.047875418937451"><ele>199.0</ele><time>2026-04-29T09:24:30Z</time></trkpt><trkpt lat="43.65309060798489" lon="13.047874867905476"><ele>198.5</ele><time>2026-04-29T09:24:31Z</time></trkpt><trkpt lat="43.65297360211906" lon="13.04787599549416"><ele>198.0</ele><time>2026-04-29T09:24:32Z</time></trkpt><trkpt lat="43.652864614678535" lon="13.047872404818351"><ele>195.2</ele><time>2026-04-29T09:24:33Z</time></trkpt><trkpt lat="43.65275844835525" lon="13.047867401794953"><ele>192.4</ele><time>2026-04-29T09:24:34Z</time></trkpt><trkpt lat="43.652670932173564" lon="13.04786639663138"><ele>189.6</ele><time>2026-04-29T09:24:35Z</time></trkpt><trkpt lat="43.652591113306066" lon="13.047861370945206"><ele>186.79999999999998</ele><time>2026-04-29T09:24:36Z</time></trkpt><trkpt lat="43.65252665895311" lon="13.047860700458065"><ele>184.0</ele><time>2026-04-29T09:24:37Z</time></trkpt><trkpt lat="43.65240798883053" lon="13.047854324476846"><ele>184.0</ele><time>2026-04-29T09:24:39Z</time></trkpt><trkpt lat="43.65232536582095" lon="13.04785303437631"><ele>184.0</ele><time>2026-04-29T09:24:41Z</time></trkpt><trkpt lat="43.65225530511263" lon="13.047815293198887"><ele>184.0</ele><time>2026-04-29T09:24:44Z</time></trkpt><trkpt lat="43.65218784397254" lon="13.047846110193403"><ele>184.0</ele><time>2026-04-29T09:27:20Z</time></trkpt><trkpt lat="43.65212262411806" lon="13.047792578785007"><ele>184.0</ele><time>2026-04-29T09:27:22Z</time></trkpt><trkpt lat="43.65211458821795" lon="13.047576826318053"><ele>184.0</ele><time>2026-04-29T09:27:25Z</time></trkpt><trkpt lat="43.65211603726343" lon="13.047466702998335"><ele>184.0</ele><time>2026-04-29T09:27:26Z</time></trkpt><trkpt lat="43.65211251437407" lon="13.047367336576093"><ele>184.0</ele><time>2026-04-29T09:27:27Z</time></trkpt><trkpt lat="43.652106109977254" lon="13.047249280846875"><ele>184.0</ele><time>2026-04-29T09:27:29Z</time></trkpt><trkpt lat="43.65206063610457" lon="13.047141235040174"><ele>184.0</ele><time>2026-04-29T09:28:52Z</time></trkpt><trkpt lat="43.6519916201847" lon="13.047071473161663"><ele>184.0</ele><time>2026-04-29T09:28:54Z</time></trkpt><trkpt lat="43.65193332524625" lon="13.04698177833722"><ele>184.0</ele><time>2026-04-29T09:28:56Z</time></trkpt><trkpt lat="43.65188103838324" lon="13.046867538345685"><ele>184.0</ele><time>2026-04-29T09:28:58Z</time></trkpt><trkpt lat="43.651824868258316" lon="13.046746262531778"><ele>184.0</ele><time>2026-04-29T09:29:00Z</time></trkpt><trkpt lat="43.65176106050677" lon="13.046598317452021"><ele>184.0</ele><time>2026-04-29T09:29:02Z</time></trkpt><trkpt lat="43.65169095573918" lon="13.046478446734397"><ele>184.0</ele><time>2026-04-29T09:29:04Z</time></trkpt><trkpt lat="43.65161248589662" lon="13.04634740799726"><ele>182.2</ele><time>2026-04-29T09:29:06Z</time></trkpt><trkpt lat="43.65151621449988" lon="13.046236575846612"><ele>180.39999999999998</ele><time>2026-04-29T09:29:08Z</time></trkpt><trkpt lat="43.651412998807096" lon="13.046146870939529"><ele>178.6</ele><time>2026-04-29T09:29:10Z</time></trkpt><trkpt lat="43.6512954976875" lon="13.046107333655005"><ele>176.8</ele><time>2026-04-29T09:29:12Z</time></trkpt><trkpt lat="43.65121880697993" lon="13.046120821660203"><ele>175.0</ele><time>2026-04-29T09:29:14Z</time></trkpt><trkpt lat="43.65115546599709" lon="13.046176156015221"><ele>175.33333333333334</ele><time>2026-04-29T09:29:17Z</time></trkpt><trkpt lat="43.65109801827685" lon="13.046241570466641"><ele>175.66666666666669</ele><time>2026-04-29T09:29:20Z</time></trkpt><trkpt lat="43.65103675515655" lon="13.04634258214106"><ele>176.0</ele><time>2026-04-29T09:29:23Z</time></trkpt><trkpt lat="43.65096422284215" lon="13.046390056405821"><ele>176.33333333333334</ele><time>2026-04-29T09:29:25Z</time></trkpt><trkpt lat="43.65091203647842" lon="13.046476323839455"><ele>176.66666666666666</ele><time>2026-04-29T09:29:27Z</time></trkpt><trkpt lat="43.65084202482958" lon="13.046541968404105"><ele>177.0</ele><time>2026-04-29T09:29:29Z</time></trkpt><trkpt lat="43.65077435265897" lon="13.04660859616105"><ele>179.0</ele><time>2026-04-29T09:29:31Z</time></trkpt><trkpt lat="43.65071205699859" lon="13.046668535482286"><ele>181.0</ele><time>2026-04-29T09:29:33Z</time></trkpt><trkpt lat="43.650637703113325" lon="13.046708970315592"><ele>183.0</ele><time>2026-04-29T09:29:35Z</time></trkpt><trkpt lat="43.650570370579985" lon="13.04676703773127"><ele>185.0</ele><time>2026-04-29T09:29:37Z</time></trkpt><trkpt lat="43.650511806391755" lon="13.046838945883442"><ele>187.0</ele><time>2026-04-29T09:29:39Z</time></trkpt><trkpt lat="43.65043934275305" lon="13.046856270562163"><ele>189.0</ele><time>2026-04-29T09:29:42Z</time></trkpt><trkpt lat="43.650366658498385" lon="13.046762741269502"><ele>189.0</ele><time>2026-04-29T09:29:45Z</time></trkpt><trkpt lat="43.65032590925929" lon="13.046655548380688"><ele>189.0</ele><time>2026-04-29T09:29:47Z</time></trkpt><trkpt lat="43.65027894344897" lon="13.046522431191999"><ele>189.0</ele><time>2026-04-29T09:29:49Z</time></trkpt><trkpt lat="43.65024433480365" lon="13.046416438297996"><ele>189.0</ele><time>2026-04-29T09:29:50Z</time></trkpt><trkpt lat="43.65022134936698" lon="13.046327220828564"><ele>189.0</ele><time>2026-04-29T09:29:51Z</time></trkpt><trkpt lat="43.65018388839298" lon="13.046243893310338"><ele>189.0</ele><time>2026-04-29T09:29:52Z</time></trkpt><trkpt lat="43.65016078456406" lon="13.04615867980984"><ele>189.14285714285714</ele><time>2026-04-29T09:29:53Z</time></trkpt><trkpt lat="43.65012339937535" lon="13.04608525698452"><ele>189.28571428571428</ele><time>2026-04-29T09:29:54Z</time></trkpt><trkpt lat="43.65007941038665" lon="13.046010128459454"><ele>189.42857142857144</ele><time>2026-04-29T09:29:55Z</time></trkpt><trkpt lat="43.65002392210721" lon="13.045955323653573"><ele>189.57142857142856</ele><time>2026-04-29T09:29:56Z</time></trkpt><trkpt lat="43.64998073902779" lon="13.04588737024569"><ele>189.71428571428572</ele><time>2026-04-29T09:29:57Z</time></trkpt><trkpt lat="43.649918028029255" lon="13.04583586482687"><ele>189.85714285714286</ele><time>2026-04-29T09:29:58Z</time></trkpt><trkpt lat="43.64985278659012" lon="13.045769231004789"><ele>190.0</ele><time>2026-04-29T09:29:59Z</time></trkpt><trkpt lat="43.649803539437514" lon="13.045697963056655"><ele>189.0</ele><time>2026-04-29T09:30:00Z</time></trkpt><trkpt lat="43.64974376948228" lon="13.045654785981387"><ele>188.0</ele><time>2026-04-29T09:30:01Z</time></trkpt><trkpt lat="43.64969073475994" lon="13.045591707098541"><ele>187.0</ele><time>2026-04-29T09:30:02Z</time></trkpt><trkpt lat="43.64963899566908" lon="13.045535093893204"><ele>186.0</ele><time>2026-04-29T09:30:03Z</time></trkpt><trkpt lat="43.649587469016076" lon="13.045476910383687"><ele>185.0</ele><time>2026-04-29T09:30:04Z</time></trkpt><trkpt lat="43.649528653691306" lon="13.045438035756424"><ele>184.0</ele><time>2026-04-29T09:30:05Z</time></trkpt><trkpt lat="43.649418030714756" lon="13.045330257979401"><ele>184.0</ele><time>2026-04-29T09:30:07Z</time></trkpt><trkpt lat="43.64932836932658" lon="13.045229312192475"><ele>184.0</ele><time>2026-04-29T09:30:09Z</time></trkpt><trkpt lat="43.649251529188184" lon="13.045169227368948"><ele>184.0</ele><time>2026-04-29T09:30:10Z</time></trkpt><trkpt lat="43.64916004077032" lon="13.045238458438035"><ele>184.0</ele><time>2026-04-29T09:30:12Z</time></trkpt><trkpt lat="43.64910831371847" lon="13.045346768582514"><ele>184.0</ele><time>2026-04-29T09:30:14Z</time></trkpt><trkpt lat="43.64905944186053" lon="13.045416151317033"><ele>184.0</ele><time>2026-04-29T09:30:15Z</time></trkpt><trkpt lat="43.64902874321677" lon="13.045528132427417"><ele>184.0</ele><time>2026-04-29T09:30:16Z</time></trkpt><trkpt lat="43.648982324538636" lon="13.045636816840574"><ele>184.0</ele><time>2026-04-29T09:30:17Z</time></trkpt><trkpt lat="43.64893485956343" lon="13.04576199717293"><ele>184.0</ele><time>2026-04-29T09:30:18Z</time></trkpt><trkpt lat="43.648890663565396" lon="13.045903903975196"><ele>184.0</ele><time>2026-04-29T09:30:19Z</time></trkpt><trkpt lat="43.64884754293708" lon="13.046055582015532"><ele>186.75</ele><time>2026-04-29T09:30:20Z</time></trkpt><trkpt lat="43.64880855738098" lon="13.046214434931741"><ele>189.5</ele><time>2026-04-29T09:30:21Z</time></trkpt><trkpt lat="43.64876652800587" lon="13.04637521539325"><ele>192.25</ele><time>2026-04-29T09:30:22Z</time></trkpt><trkpt lat="43.64873116612988" lon="13.046530045408584"><ele>195.0</ele><time>2026-04-29T09:30:23Z</time></trkpt><trkpt lat="43.64869287718223" lon="13.04669503316482"><ele>196.0</ele><time>2026-04-29T09:30:24Z</time></trkpt><trkpt lat="43.64864855474774" lon="13.04686072292975"><ele>197.0</ele><time>2026-04-29T09:30:25Z</time></trkpt><trkpt lat="43.64860522784247" lon="13.04702438681597"><ele>198.0</ele><time>2026-04-29T09:30:26Z</time></trkpt><trkpt lat="43.64856506545997" lon="13.04717480008472"><ele>199.0</ele><time>2026-04-29T09:30:27Z</time></trkpt><trkpt lat="43.648532855593984" lon="13.047310173307665"><ele>194.39999999999998</ele><time>2026-04-29T09:30:28Z</time></trkpt><trkpt lat="43.64849037193894" lon="13.047433050775638"><ele>189.8</ele><time>2026-04-29T09:30:29Z</time></trkpt><trkpt lat="43.64845528902176" lon="13.047544856124087"><ele>185.2</ele><time>2026-04-29T09:30:30Z</time></trkpt><trkpt lat="43.64842410941394" lon="13.047657535059704"><ele>180.60000000000002</ele><time>2026-04-29T09:30:31Z</time></trkpt><trkpt lat="43.648398977819824" lon="13.047771402952105"><ele>176.0</ele><time>2026-04-29T09:30:32Z</time></trkpt><trkpt lat="43.64839962682474" lon="13.04790298872859"><ele>175.8</ele><time>2026-04-29T09:30:33Z</time></trkpt><trkpt lat="43.64841661315868" lon="13.04803407367802"><ele>175.60000000000002</ele><time>2026-04-29T09:30:34Z</time></trkpt><trkpt lat="43.648445620716465" lon="13.048181065521554"><ele>175.4</ele><time>2026-04-29T09:30:35Z</time></trkpt><trkpt lat="43.64847677514007" lon="13.048338336536162"><ele>175.2</ele><time>2026-04-29T09:30:36Z</time></trkpt><trkpt lat="43.64849813939615" lon="13.048482057530052"><ele>175.0</ele><time>2026-04-29T09:30:37Z</time></trkpt><trkpt lat="43.64851774522471" lon="13.048607512200345"><ele>174.33333333333334</ele><time>2026-04-29T09:30:38Z</time></trkpt><trkpt lat="43.64853927908884" lon="13.048737402240146"><ele>173.66666666666669</ele><time>2026-04-29T09:30:39Z</time></trkpt><trkpt lat="43.64856882492713" lon="13.048866506509542"><ele>173.0</ele><time>2026-04-29T09:30:40Z</time></trkpt><trkpt lat="43.64859211858304" lon="13.048976320628851"><ele>172.33333333333334</ele><time>2026-04-29T09:30:41Z</time></trkpt><trkpt lat="43.6486149465908" lon="13.049064667573274"><ele>171.66666666666666</ele><time>2026-04-29T09:30:42Z</time></trkpt><trkpt lat="43.648648486442795" lon="13.049197644899643"><ele>171.0</ele><time>2026-04-29T09:30:44Z</time></trkpt><trkpt lat="43.64864958587994" lon="13.049301654762685"><ele>169.83333333333334</ele><time>2026-04-29T09:30:46Z</time></trkpt><trkpt lat="43.64857380711997" lon="13.049434702629316"><ele>168.66666666666666</ele><time>2026-04-29T09:30:47.999Z</time></trkpt><trkpt lat="43.64852029541878" lon="13.049518262980392"><ele>167.5</ele><time>2026-04-29T09:30:48.999Z</time></trkpt><trkpt lat="43.64846123288257" lon="13.049598533942131"><ele>166.33333333333331</ele><time>2026-04-29T09:30:49.999Z</time></trkpt><trkpt lat="43.648410456314735" lon="13.049656106830074"><ele>165.16666666666666</ele><time>2026-04-29T09:30:51Z</time></trkpt><trkpt lat="43.64833810290734" lon="13.049711004918027"><ele>164.0</ele><time>2026-04-29T09:30:53Z</time></trkpt><trkpt lat="43.64826791931126" lon="13.049778898515202"><ele>164.0</ele><time>2026-04-29T09:30:56Z</time></trkpt><trkpt lat="43.648207907480085" lon="13.049843509427632"><ele>164.0</ele><time>2026-04-29T09:31:45Z</time></trkpt><trkpt lat="43.648140429319746" lon="13.049926115436937"><ele>164.0</ele><time>2026-04-29T09:31:47Z</time></trkpt><trkpt lat="43.648056474098006" lon="13.049942217410383"><ele>164.0</ele><time>2026-04-29T09:31:49Z</time></trkpt><trkpt lat="43.64795024633928" lon="13.04995164741277"><ele>164.0</ele><time>2026-04-29T09:31:51Z</time></trkpt><trkpt lat="43.647874608868555" lon="13.050041131472284"><ele>163.33333333333331</ele><time>2026-04-29T09:31:53Z</time></trkpt><trkpt lat="43.64786945958451" lon="13.05013749631024"><ele>162.66666666666666</ele><time>2026-04-29T09:31:54Z</time></trkpt><trkpt lat="43.647836208284424" lon="13.050216030658085"><ele>162.0</ele><time>2026-04-29T09:31:55Z</time></trkpt><trkpt lat="43.6477877802142" lon="13.05029550427158"><ele>161.33333333333334</ele><time>2026-04-29T09:31:56Z</time></trkpt><trkpt lat="43.64772673655062" lon="13.050378926081857"><ele>160.66666666666669</ele><time>2026-04-29T09:31:57Z</time></trkpt><trkpt lat="43.6476595794687" lon="13.050464982782609"><ele>160.0</ele><time>2026-04-29T09:31:58Z</time></trkpt><trkpt lat="43.64758765006849" lon="13.050550640014484"><ele>159.6</ele><time>2026-04-29T09:31:59Z</time></trkpt><trkpt lat="43.64751146861837" lon="13.050644989091499"><ele>159.2</ele><time>2026-04-29T09:32:00Z</time></trkpt><trkpt lat="43.64743619130635" lon="13.050750173482035"><ele>158.8</ele><time>2026-04-29T09:32:01Z</time></trkpt><trkpt lat="43.64736065873172" lon="13.050863350987958"><ele>158.4</ele><time>2026-04-29T09:32:02Z</time></trkpt><trkpt lat="43.647282455601" lon="13.050984614421486"><ele>158.0</ele><time>2026-04-29T09:32:03Z</time></trkpt><trkpt lat="43.647200003362265" lon="13.05111196914344"><ele>158.0</ele><time>2026-04-29T09:32:04Z</time></trkpt><trkpt lat="43.64711636984358" lon="13.051246371858236"><ele>158.0</ele><time>2026-04-29T09:32:05Z</time></trkpt><trkpt lat="43.64703047163858" lon="13.051385065259193"><ele>158.0</ele><time>2026-04-29T09:32:05.999Z</time></trkpt><trkpt lat="43.6469336138202" lon="13.051532792332859"><ele>158.0</ele><time>2026-04-29T09:32:06.999Z</time></trkpt><trkpt lat="43.646834599181986" lon="13.051682245690639"><ele>156.66666666666666</ele><time>2026-04-29T09:32:07.999Z</time></trkpt><trkpt lat="43.64673163112153" lon="13.051835123714339"><ele>155.33333333333334</ele><time>2026-04-29T09:32:08.999Z</time></trkpt><trkpt lat="43.64662796860349" lon="13.051991222160462"><ele>154.0</ele><time>2026-04-29T09:32:09.999Z</time></trkpt><trkpt lat="43.646521804445726" lon="13.052146720856312"><ele>154.0</ele><time>2026-04-29T09:32:10.999Z</time></trkpt><trkpt lat="43.64641694442489" lon="13.052303885917105"><ele>154.0</ele><time>2026-04-29T09:32:11.999Z</time></trkpt><trkpt lat="43.646313450082616" lon="13.052460019118172"><ele>154.0</ele><time>2026-04-29T09:32:12.999Z</time></trkpt><trkpt lat="43.64620573532049" lon="13.052617309542228"><ele>151.75</ele><time>2026-04-29T09:32:13.999Z</time></trkpt><trkpt lat="43.64610826712336" lon="13.052762532991444"><ele>149.5</ele><time>2026-04-29T09:32:14.999Z</time></trkpt><trkpt lat="43.646005090432475" lon="13.05290108718317"><ele>147.25</ele><time>2026-04-29T09:32:15.999Z</time></trkpt><trkpt lat="43.64589593090213" lon="13.053036430075748"><ele>145.0</ele><time>2026-04-29T09:32:16.999Z</time></trkpt><trkpt lat="43.64577844404599" lon="13.053161362282864"><ele>145.0</ele><time>2026-04-29T09:32:17.999Z</time></trkpt><trkpt lat="43.645654860129525" lon="13.053272129806444"><ele>145.0</ele><time>2026-04-29T09:32:18.999Z</time></trkpt><trkpt lat="43.64552180200514" lon="13.053370862759616"><ele>145.0</ele><time>2026-04-29T09:32:19.999Z</time></trkpt><trkpt lat="43.64538666368884" lon="13.053472976421064"><ele>144.66666666666669</ele><time>2026-04-29T09:32:20.999Z</time></trkpt><trkpt lat="43.64525115823297" lon="13.053571293584511"><ele>144.33333333333334</ele><time>2026-04-29T09:32:21.999Z</time></trkpt><trkpt lat="43.645112735939946" lon="13.053668074900736"><ele>144.0</ele><time>2026-04-29T09:32:22.999Z</time></trkpt><trkpt lat="43.64497822423091" lon="13.05376601780339"><ele>144.0</ele><time>2026-04-29T09:32:23.999Z</time></trkpt><trkpt lat="43.644841542683906" lon="13.053860583244212"><ele>144.0</ele><time>2026-04-29T09:32:24.999Z</time></trkpt><trkpt lat="43.64470797598624" lon="13.053961219894193"><ele>144.0</ele><time>2026-04-29T09:32:25.999Z</time></trkpt><trkpt lat="43.644573933182514" lon="13.05407146471187"><ele>143.66666666666666</ele><time>2026-04-29T09:32:26.999Z</time></trkpt><trkpt lat="43.644439029387854" lon="13.05418703293253"><ele>143.33333333333331</ele><time>2026-04-29T09:32:27.999Z</time></trkpt><trkpt lat="43.64430313792555" lon="13.054310904208943"><ele>143.0</ele><time>2026-04-29T09:32:28.999Z</time></trkpt><trkpt lat="43.644175588443154" lon="13.054444912798699"><ele>143.0</ele><time>2026-04-29T09:32:29.999Z</time></trkpt><trkpt lat="43.64405608822491" lon="13.054591989441663"><ele>143.0</ele><time>2026-04-29T09:32:30.999Z</time></trkpt><trkpt lat="43.64394342978209" lon="13.054743026108289"><ele>143.0</ele><time>2026-04-29T09:32:31.999Z</time></trkpt><trkpt lat="43.643831042448774" lon="13.054903344863316"><ele>141.66666666666666</ele><time>2026-04-29T09:32:32.999Z</time></trkpt><trkpt lat="43.64372681447838" lon="13.055059490727668"><ele>140.33333333333334</ele><time>2026-04-29T09:32:33.999Z</time></trkpt><trkpt lat="43.64362292620108" lon="13.055213659588855"><ele>139.0</ele><time>2026-04-29T09:32:34.999Z</time></trkpt><trkpt lat="43.643521011784536" lon="13.055373105871176"><ele>138.5</ele><time>2026-04-29T09:32:35.999Z</time></trkpt><trkpt lat="43.643424593317405" lon="13.05553161337277"><ele>138.0</ele><time>2026-04-29T09:32:36.999Z</time></trkpt><trkpt lat="43.643334691242096" lon="13.055684260499566"><ele>137.5</ele><time>2026-04-29T09:32:37.999Z</time></trkpt><trkpt lat="43.64324941287886" lon="13.055829211844104"><ele>137.0</ele><time>2026-04-29T09:32:38.999Z</time></trkpt><trkpt lat="43.643166921381315" lon="13.05596766556595"><ele>135.75</ele><time>2026-04-29T09:32:39.999Z</time></trkpt><trkpt lat="43.643088596242606" lon="13.056098637470111"><ele>134.5</ele><time>2026-04-29T09:32:40.999Z</time></trkpt><trkpt lat="43.64301378693118" lon="13.056227791002053"><ele>133.25</ele><time>2026-04-29T09:32:41.999Z</time></trkpt><trkpt lat="43.64294082458438" lon="13.056356445690632"><ele>132.0</ele><time>2026-04-29T09:32:42.999Z</time></trkpt><trkpt lat="43.6428704529142" lon="13.056485303556855"><ele>132.0</ele><time>2026-04-29T09:32:43.999Z</time></trkpt><trkpt lat="43.64279970589624" lon="13.056618137558697"><ele>132.0</ele><time>2026-04-29T09:32:44.999Z</time></trkpt><trkpt lat="43.64272697369144" lon="13.056753150903827"><ele>132.0</ele><time>2026-04-29T09:32:45.999Z</time></trkpt><trkpt lat="43.6426533829645" lon="13.056890093013129"><ele>132.0</ele><time>2026-04-29T09:32:46.999Z</time></trkpt><trkpt lat="43.64257970027624" lon="13.057022736781235"><ele>131.0</ele><time>2026-04-29T09:32:47.999Z</time></trkpt><trkpt lat="43.6425108051139" lon="13.05715975600101"><ele>130.0</ele><time>2026-04-29T09:32:48.999Z</time></trkpt><trkpt lat="43.642442313412566" lon="13.057292470596579"><ele>129.0</ele><time>2026-04-29T09:32:49.999Z</time></trkpt><trkpt lat="43.642373209493705" lon="13.057427522132471"><ele>128.0</ele><time>2026-04-29T09:32:50.999Z</time></trkpt><trkpt lat="43.642303095164486" lon="13.0575634441661"><ele>127.25</ele><time>2026-04-29T09:32:51.999Z</time></trkpt><trkpt lat="43.64223211394902" lon="13.05769346050259"><ele>126.5</ele><time>2026-04-29T09:32:52.999Z</time></trkpt><trkpt lat="43.64216409731481" lon="13.05782534678717"><ele>125.75</ele><time>2026-04-29T09:32:53.999Z</time></trkpt><trkpt lat="43.642097699397425" lon="13.057954772957284"><ele>125.0</ele><time>2026-04-29T09:32:54.999Z</time></trkpt><trkpt lat="43.642033301929175" lon="13.058080248861462"><ele>125.0</ele><time>2026-04-29T09:32:55.999Z</time></trkpt><trkpt lat="43.64196677716932" lon="13.05820705575419"><ele>125.0</ele><time>2026-04-29T09:32:56.999Z</time></trkpt><trkpt lat="43.64189341157356" lon="13.058317156139196"><ele>125.0</ele><time>2026-04-29T09:32:57.999Z</time></trkpt><trkpt lat="43.64180226501151" lon="13.058399226558674"><ele>125.0</ele><time>2026-04-29T09:32:58.999Z</time></trkpt><trkpt lat="43.641714538537926" lon="13.058438460814845"><ele>125.0</ele><time>2026-04-29T09:32:59.999Z</time></trkpt><trkpt lat="43.64160925446781" lon="13.058448757481091"><ele>125.0</ele><time>2026-04-29T09:33:00.999Z</time></trkpt><trkpt lat="43.641501288600665" lon="13.058435408782168"><ele>125.0</ele><time>2026-04-29T09:33:01.999Z</time></trkpt><trkpt lat="43.6413908327288" lon="13.05840779843356"><ele>125.0</ele><time>2026-04-29T09:33:02.999Z</time></trkpt><trkpt lat="43.641281516794486" lon="13.058365943084162"><ele>125.0</ele><time>2026-04-29T09:33:03.999Z</time></trkpt><trkpt lat="43.64117076589094" lon="13.058314546156085"><ele>122.25</ele><time>2026-04-29T09:33:04.999Z</time></trkpt><trkpt lat="43.641054571360165" lon="13.05826559197344"><ele>119.5</ele><time>2026-04-29T09:33:05.999Z</time></trkpt><trkpt lat="43.64093316164776" lon="13.058226383927735"><ele>116.75</ele><time>2026-04-29T09:33:06.999Z</time></trkpt><trkpt lat="43.64080208380508" lon="13.058215603434897"><ele>114.0</ele><time>2026-04-29T09:33:07.999Z</time></trkpt><trkpt lat="43.64065933960232" lon="13.058236514731906"><ele>114.33333333333334</ele><time>2026-04-29T09:33:08.999Z</time></trkpt><trkpt lat="43.640516834501625" lon="13.05828808755658"><ele>114.66666666666667</ele><time>2026-04-29T09:33:09.999Z</time></trkpt><trkpt lat="43.64036753861417" lon="13.058358435248113"><ele>115.0</ele><time>2026-04-29T09:33:10.999Z</time></trkpt><trkpt lat="43.640213522935156" lon="13.058441210616824"><ele>115.0</ele><time>2026-04-29T09:33:11.999Z</time></trkpt><trkpt lat="43.64006596008591" lon="13.058542097767102"><ele>115.0</ele><time>2026-04-29T09:33:12.999Z</time></trkpt><trkpt lat="43.63993542676813" lon="13.058665771132084"><ele>115.0</ele><time>2026-04-29T09:33:13.999Z</time></trkpt><trkpt lat="43.639815728557465" lon="13.058811566165021"><ele>115.0</ele><time>2026-04-29T09:33:14.999Z</time></trkpt><trkpt lat="43.6397046876775" lon="13.058987554865569"><ele>115.0</ele><time>2026-04-29T09:33:15.999Z</time></trkpt><trkpt lat="43.63960204554744" lon="13.059157584267483"><ele>115.0</ele><time>2026-04-29T09:33:16.999Z</time></trkpt><trkpt lat="43.63947467071383" lon="13.059284824069222"><ele>113.0</ele><time>2026-04-29T09:33:17.999Z</time></trkpt><trkpt lat="43.63933867321229" lon="13.059367755861425"><ele>111.0</ele><time>2026-04-29T09:33:18.999Z</time></trkpt><trkpt lat="43.63920548224316" lon="13.0594185552865"><ele>109.0</ele><time>2026-04-29T09:33:19.999Z</time></trkpt><trkpt lat="43.63907581796342" lon="13.059433229312578"><ele>107.0</ele><time>2026-04-29T09:33:20.999Z</time></trkpt><trkpt lat="43.638955893531296" lon="13.059458955477337"><ele>107.0</ele><time>2026-04-29T09:33:21.999Z</time></trkpt><trkpt lat="43.63885025823042" lon="13.059517106906986"><ele>107.0</ele><time>2026-04-29T09:33:22.999Z</time></trkpt><trkpt lat="43.63876998485702" lon="13.059613301612544"><ele>107.0</ele><time>2026-04-29T09:33:23.999Z</time></trkpt><trkpt lat="43.638660366675104" lon="13.059678122865927"><ele>107.0</ele><time>2026-04-29T09:33:24.999Z</time></trkpt><trkpt lat="43.638673564448446" lon="13.059908954950293"><ele>108.0</ele><time>2026-04-29T09:33:25.999Z</time></trkpt><trkpt lat="43.63868279392524" lon="13.060094251189502"><ele>109.0</ele><time>2026-04-29T09:33:26.999Z</time></trkpt><trkpt lat="43.6387077974737" lon="13.060296518669032"><ele>110.0</ele><time>2026-04-29T09:33:27.999Z</time></trkpt><trkpt lat="43.63875107083972" lon="13.060540376068055"><ele>109.33333333333333</ele><time>2026-04-29T09:33:28.999Z</time></trkpt><trkpt lat="43.63879998908017" lon="13.060787322740516"><ele>108.66666666666666</ele><time>2026-04-29T09:33:29.999Z</time></trkpt><trkpt lat="43.638839321531904" lon="13.061036060085382"><ele>108.0</ele><time>2026-04-29T09:33:30.999Z</time></trkpt><trkpt lat="43.638870122652975" lon="13.061281212400175"><ele>108.0</ele><time>2026-04-29T09:33:31.999Z</time></trkpt><trkpt lat="43.63890426968137" lon="13.061498647783742"><ele>108.0</ele><time>2026-04-29T09:33:32.999Z</time></trkpt><trkpt lat="43.638939028749895" lon="13.061715169475848"><ele>108.0</ele><time>2026-04-29T09:33:33.999Z</time></trkpt><trkpt lat="43.63897626738362" lon="13.06193990204433"><ele>105.66666666666666</ele><time>2026-04-29T09:33:34.999Z</time></trkpt><trkpt lat="43.63901478138666" lon="13.062176318385305"><ele>103.33333333333333</ele><time>2026-04-29T09:33:35.999Z</time></trkpt><trkpt lat="43.639053274873845" lon="13.062409097801309"><ele>101.0</ele><time>2026-04-29T09:33:36.999Z</time></trkpt><trkpt lat="43.63909303025219" lon="13.062649052198758"><ele>99.33333333333333</ele><time>2026-04-29T09:33:37.999Z</time></trkpt><trkpt lat="43.639132075618555" lon="13.062880475261826"><ele>97.66666666666666</ele><time>2026-04-29T09:33:38.999Z</time></trkpt><trkpt lat="43.63916983756569" lon="13.063105996322737"><ele>96.0</ele><time>2026-04-29T09:33:39.999Z</time></trkpt><trkpt lat="43.63920541243308" lon="13.063314058044211"><ele>94.5</ele><time>2026-04-29T09:33:40.999Z</time></trkpt><trkpt lat="43.639239986489265" lon="13.063514698349389"><ele>93.0</ele><time>2026-04-29T09:33:41.999Z</time></trkpt><trkpt lat="43.63927158830256" lon="13.063709975231399"><ele>91.5</ele><time>2026-04-29T09:33:42.999Z</time></trkpt><trkpt lat="43.63930673328881" lon="13.063906836254553"><ele>90.0</ele><time>2026-04-29T09:33:43.999Z</time></trkpt><trkpt lat="43.63933639905234" lon="13.06410314826338"><ele>88.0</ele><time>2026-04-29T09:33:44.999Z</time></trkpt><trkpt lat="43.639372623514866" lon="13.064291561299566"><ele>86.0</ele><time>2026-04-29T09:33:45.999Z</time></trkpt><trkpt lat="43.63939960844001" lon="13.06447889980522"><ele>84.0</ele><time>2026-04-29T09:33:46.999Z</time></trkpt><trkpt lat="43.63941665199573" lon="13.064665082160356"><ele>82.0</ele><time>2026-04-29T09:33:47.999Z</time></trkpt><trkpt lat="43.639416279028055" lon="13.064841755623016"><ele>81.0</ele><time>2026-04-29T09:33:48.999Z</time></trkpt><trkpt lat="43.63939890516361" lon="13.06502363529467"><ele>80.0</ele><time>2026-04-29T09:33:49.999Z</time></trkpt><trkpt lat="43.639369960099316" lon="13.0652034113161"><ele>79.0</ele><time>2026-04-29T09:33:50.999Z</time></trkpt><trkpt lat="43.63934240735884" lon="13.065383832439469"><ele>78.0</ele><time>2026-04-29T09:33:51.999Z</time></trkpt><trkpt lat="43.6393196402292" lon="13.065564342977058"><ele>78.0</ele><time>2026-04-29T09:33:52.999Z</time></trkpt><trkpt lat="43.63930695639411" lon="13.065738203156942"><ele>78.0</ele><time>2026-04-29T09:33:53.999Z</time></trkpt><trkpt lat="43.63931004010812" lon="13.065895300465895"><ele>78.0</ele><time>2026-04-29T09:33:54.999Z</time></trkpt><trkpt lat="43.639331148011756" lon="13.066041428836765"><ele>78.0</ele><time>2026-04-29T09:33:55.999Z</time></trkpt><trkpt lat="43.6393468931842" lon="13.066183051444519"><ele>77.83333333333333</ele><time>2026-04-29T09:33:56.999Z</time></trkpt><trkpt lat="43.639398247927375" lon="13.066287844036113"><ele>77.66666666666667</ele><time>2026-04-29T09:33:57.999Z</time></trkpt><trkpt lat="43.63943195832143" lon="13.066388302382196"><ele>77.5</ele><time>2026-04-29T09:33:58.999Z</time></trkpt><trkpt lat="43.63946244228917" lon="13.066475808465112"><ele>77.33333333333334</ele><time>2026-04-29T09:33:59.999Z</time></trkpt><trkpt lat="43.63946788047139" lon="13.066636151719093"><ele>77.16666666666667</ele><time>2026-04-29T09:34:01.999Z</time></trkpt><trkpt lat="43.639443173698126" lon="13.066725541729744"><ele>77.0</ele><time>2026-04-29T09:34:02.999Z</time></trkpt><trkpt lat="43.63941442649533" lon="13.066821517033867"><ele>76.83333333333334</ele><time>2026-04-29T09:34:03.999Z</time></trkpt><trkpt lat="43.63938217193602" lon="13.066919667488053"><ele>76.66666666666667</ele><time>2026-04-29T09:34:04.999Z</time></trkpt><trkpt lat="43.63938392137135" lon="13.067038646531394"><ele>76.5</ele><time>2026-04-29T09:34:05.999Z</time></trkpt><trkpt lat="43.639443642230965" lon="13.067130250347182"><ele>76.33333333333333</ele><time>2026-04-29T09:34:06.999Z</time></trkpt><trkpt lat="43.639506302844" lon="13.06720496235099"><ele>76.16666666666666</ele><time>2026-04-29T09:34:07.999Z</time></trkpt><trkpt lat="43.63959518826133" lon="13.06726933588834"><ele>76.0</ele><time>2026-04-29T09:34:08.999Z</time></trkpt><trkpt lat="43.639690941464146" lon="13.06733771250816"><ele>76.0</ele><time>2026-04-29T09:34:09.999Z</time></trkpt><trkpt lat="43.63976417749063" lon="13.067430099410002"><ele>76.0</ele><time>2026-04-29T09:34:10.999Z</time></trkpt><trkpt lat="43.63982217215831" lon="13.067555079200401"><ele>76.0</ele><time>2026-04-29T09:34:11.999Z</time></trkpt><trkpt lat="43.63986549486422" lon="13.06773932422077"><ele>76.0</ele><time>2026-04-29T09:34:12.999Z</time></trkpt><trkpt lat="43.63996807620167" lon="13.067918567185979"><ele>75.66666666666666</ele><time>2026-04-29T09:34:13.999Z</time></trkpt><trkpt lat="43.640069193149785" lon="13.06810019794003"><ele>75.33333333333333</ele><time>2026-04-29T09:34:14.999Z</time></trkpt><trkpt lat="43.640183418684856" lon="13.068261319935127"><ele>75.0</ele><time>2026-04-29T09:34:15.999Z</time></trkpt><trkpt lat="43.6402843807721" lon="13.068400152915059"><ele>74.75</ele><time>2026-04-29T09:34:16.999Z</time></trkpt><trkpt lat="43.64037640889587" lon="13.068547630595384"><ele>74.5</ele><time>2026-04-29T09:34:17.999Z</time></trkpt><trkpt lat="43.64046362581181" lon="13.068699401613245"><ele>74.25</ele><time>2026-04-29T09:34:18.999Z</time></trkpt><trkpt lat="43.640544943555405" lon="13.068860962816704"><ele>74.0</ele><time>2026-04-29T09:34:19.999Z</time></trkpt><trkpt lat="43.64060765763716" lon="13.068995130253061"><ele>74.0</ele><time>2026-04-29T09:34:20.999Z</time></trkpt><trkpt lat="43.64064003506515" lon="13.069083585578266"><ele>74.0</ele><time>2026-04-29T09:34:21.999Z</time></trkpt><trkpt lat="43.64067576146134" lon="13.069179721078411"><ele>74.0</ele><time>2026-04-29T09:36:02.999Z</time></trkpt><trkpt lat="43.64073921249382" lon="13.069305626377156"><ele>74.0</ele><time>2026-04-29T09:36:04.999Z</time></trkpt><trkpt lat="43.64077808726206" lon="13.0694014405575"><ele>74.0</ele><time>2026-04-29T09:36:05.999Z</time></trkpt><trkpt lat="43.64081352518373" lon="13.069502221820795"><ele>74.0</ele><time>2026-04-29T09:36:06.999Z</time></trkpt><trkpt lat="43.64084699720192" lon="13.069596707576887"><ele>73.8</ele><time>2026-04-29T09:36:07.999Z</time></trkpt><trkpt lat="43.640874522663246" lon="13.069686633381037"><ele>73.60000000000001</ele><time>2026-04-29T09:36:08.999Z</time></trkpt><trkpt lat="43.640910996471995" lon="13.069804313283612"><ele>73.4</ele><time>2026-04-29T09:36:10.999Z</time></trkpt><trkpt lat="43.64094484236705" lon="13.069911421097661"><ele>73.2</ele><time>2026-04-29T09:36:13.999Z</time></trkpt><trkpt lat="43.6409899943211" lon="13.070049511589515"><ele>73.0</ele><time>2026-04-29T09:36:15.999Z</time></trkpt><trkpt lat="43.64103559667948" lon="13.070182220795537"><ele>73.0</ele><time>2026-04-29T09:36:16.999Z</time></trkpt><trkpt lat="43.64107968760622" lon="13.070311282105246"><ele>73.0</ele><time>2026-04-29T09:36:17.999Z</time></trkpt><trkpt lat="43.64112524680825" lon="13.070454893668826"><ele>73.0</ele><time>2026-04-29T09:36:18.999Z</time></trkpt><trkpt lat="43.64117260850541" lon="13.07059285622901"><ele>73.0</ele><time>2026-04-29T09:36:19.999Z</time></trkpt><trkpt lat="43.641221483456015" lon="13.070727979178233"><ele>73.0</ele><time>2026-04-29T09:36:20.999Z</time></trkpt><trkpt lat="43.64126377885777" lon="13.070853785784637"><ele>74.0</ele><time>2026-04-29T09:36:21.999Z</time></trkpt><trkpt lat="43.64128925112206" lon="13.07096001187511"><ele>75.0</ele><time>2026-04-29T09:36:22.999Z</time></trkpt><trkpt lat="43.64131772001929" lon="13.071049721500403"><ele>76.0</ele><time>2026-04-29T09:36:23.999Z</time></trkpt><trkpt lat="43.64133140229591" lon="13.071191459466922"><ele>77.0</ele><time>2026-04-29T09:36:25.999Z</time></trkpt><trkpt lat="43.64117436697902" lon="13.071412635548782"><ele>76.0</ele><time>2026-04-29T09:36:27.999Z</time></trkpt><trkpt lat="43.64109235248972" lon="13.071530122691248"><ele>75.0</ele><time>2026-04-29T09:36:28.999Z</time></trkpt><trkpt lat="43.64100527889509" lon="13.071668766858378"><ele>74.0</ele><time>2026-04-29T09:36:29.999Z</time></trkpt><trkpt lat="43.6409197146353" lon="13.071818041564004"><ele>73.0</ele><time>2026-04-29T09:36:30.999Z</time></trkpt><trkpt lat="43.64082569567741" lon="13.071985648386844"><ele>72.66666666666666</ele><time>2026-04-29T09:36:31.999Z</time></trkpt><trkpt lat="43.64072623823345" lon="13.072161821688173"><ele>72.33333333333333</ele><time>2026-04-29T09:36:32.999Z</time></trkpt><trkpt lat="43.64062302170654" lon="13.07234152363107"><ele>72.0</ele><time>2026-04-29T09:36:33.999Z</time></trkpt><trkpt lat="43.64051737736699" lon="13.072525468392007"><ele>71.0</ele><time>2026-04-29T09:36:34.999Z</time></trkpt><trkpt lat="43.64041854157562" lon="13.072701357668127"><ele>70.0</ele><time>2026-04-29T09:36:35.999Z</time></trkpt><trkpt lat="43.6403234226494" lon="13.072870404133717"><ele>69.0</ele><time>2026-04-29T09:36:36.999Z</time></trkpt><trkpt lat="43.64022950090231" lon="13.073029958165991"><ele>69.0</ele><time>2026-04-29T09:36:37.999Z</time></trkpt><trkpt lat="43.640136885921805" lon="13.073188683100831"><ele>69.0</ele><time>2026-04-29T09:36:38.999Z</time></trkpt><trkpt lat="43.640044288658075" lon="13.07333974456253"><ele>69.0</ele><time>2026-04-29T09:36:39.999Z</time></trkpt><trkpt lat="43.63995509180094" lon="13.073487238026386"><ele>69.0</ele><time>2026-04-29T09:36:40.999Z</time></trkpt><trkpt lat="43.639864099000704" lon="13.073653093044785"><ele>68.66666666666667</ele><time>2026-04-29T09:36:41.999Z</time></trkpt><trkpt lat="43.63976737996163" lon="13.073826503026151"><ele>68.33333333333334</ele><time>2026-04-29T09:36:42.999Z</time></trkpt><trkpt lat="43.639671880012116" lon="13.07399872146477"><ele>68.0</ele><time>2026-04-29T09:36:43.999Z</time></trkpt><trkpt lat="43.6395724879234" lon="13.074172289684949"><ele>67.0</ele><time>2026-04-29T09:36:44.999Z</time></trkpt><trkpt lat="43.63947623938232" lon="13.07433847004519"><ele>66.0</ele><time>2026-04-29T09:36:45.999Z</time></trkpt><trkpt lat="43.63938064509852" lon="13.074504602409148"><ele>65.0</ele><time>2026-04-29T09:36:46.999Z</time></trkpt><trkpt lat="43.63928110263549" lon="13.07467486172009"><ele>64.66666666666667</ele><time>2026-04-29T09:36:47.999Z</time></trkpt><trkpt lat="43.63918213486587" lon="13.074845299124807"><ele>64.33333333333333</ele><time>2026-04-29T09:36:48.999Z</time></trkpt><trkpt lat="43.639085930527095" lon="13.075017483303094"><ele>64.0</ele><time>2026-04-29T09:36:49.999Z</time></trkpt><trkpt lat="43.63899774077385" lon="13.075179672652027"><ele>63.75</ele><time>2026-04-29T09:36:50.999Z</time></trkpt><trkpt lat="43.638920546903975" lon="13.075329286191318"><ele>63.5</ele><time>2026-04-29T09:36:51.999Z</time></trkpt><trkpt lat="43.638856773992345" lon="13.075470150782827"><ele>63.25</ele><time>2026-04-29T09:36:52.999Z</time></trkpt><trkpt lat="43.63880824789278" lon="13.075599454495043"><ele>63.0</ele><time>2026-04-29T09:36:53.999Z</time></trkpt><trkpt lat="43.63876876854687" lon="13.07571840423786"><ele>62.833333333333336</ele><time>2026-04-29T09:36:54.999Z</time></trkpt><trkpt lat="43.638736376068806" lon="13.07582525221334"><ele>62.66666666666667</ele><time>2026-04-29T09:36:55.999Z</time></trkpt><trkpt lat="43.63871247018237" lon="13.075915462070986"><ele>62.5</ele><time>2026-04-29T09:36:56.999Z</time></trkpt><trkpt lat="43.6386914999341" lon="13.076018836049906"><ele>62.333333333333336</ele><time>2026-04-29T09:36:58.999Z</time></trkpt><trkpt lat="43.63866639478121" lon="13.07611806192554"><ele>62.16666666666667</ele><time>2026-04-29T09:37:20.999Z</time></trkpt><trkpt lat="43.63864363507807" lon="13.076230320451279"><ele>62.0</ele><time>2026-04-29T09:37:21.999Z</time></trkpt><trkpt lat="43.63861815282334" lon="13.07636936204898"><ele>62.0</ele><time>2026-04-29T09:37:22.999Z</time></trkpt><trkpt lat="43.63858539420794" lon="13.076537428906429"><ele>62.0</ele><time>2026-04-29T09:37:23.999Z</time></trkpt><trkpt lat="43.63854892428816" lon="13.076729089360581"><ele>62.0</ele><time>2026-04-29T09:37:24.999Z</time></trkpt><trkpt lat="43.638507543634354" lon="13.076941741493272"><ele>62.0</ele><time>2026-04-29T09:37:25.999Z</time></trkpt><trkpt lat="43.638463756931806" lon="13.077168115381856"><ele>62.0</ele><time>2026-04-29T09:37:26.999Z</time></trkpt><trkpt lat="43.638414533409325" lon="13.077413725492796"><ele>62.0</ele><time>2026-04-29T09:37:27.999Z</time></trkpt><trkpt lat="43.63836290632695" lon="13.077674296482524"><ele>62.0</ele><time>2026-04-29T09:37:28.999Z</time></trkpt><trkpt lat="43.63831027663396" lon="13.077950991700115"><ele>62.333333333333336</ele><time>2026-04-29T09:37:29.999Z</time></trkpt><trkpt lat="43.638256564043274" lon="13.078239529740259"><ele>62.66666666666667</ele><time>2026-04-29T09:37:30.999Z</time></trkpt><trkpt lat="43.63820202568613" lon="13.078535399081229"><ele>63.0</ele><time>2026-04-29T09:37:31.999Z</time></trkpt><trkpt lat="43.638144473085944" lon="13.078838924850015"><ele>64.0</ele><time>2026-04-29T09:37:32.999Z</time></trkpt><trkpt lat="43.6380852009203" lon="13.079146368192848"><ele>65.0</ele><time>2026-04-29T09:37:33.999Z</time></trkpt><trkpt lat="43.63802546342299" lon="13.079454669389222"><ele>65.0</ele><time>2026-04-29T09:37:34.999Z</time></trkpt><trkpt lat="43.6379678689307" lon="13.079756448322515"><ele>65.0</ele><time>2026-04-29T09:37:35.999Z</time></trkpt><trkpt lat="43.63791617457895" lon="13.08003875011235"><ele>65.0</ele><time>2026-04-29T09:37:36.999Z</time></trkpt><trkpt lat="43.63786607936862" lon="13.080302814811928"><ele>65.0</ele><time>2026-04-29T09:37:37.999Z</time></trkpt><trkpt lat="43.63781779021994" lon="13.080548982173445"><ele>65.0</ele><time>2026-04-29T09:37:38.999Z</time></trkpt><trkpt lat="43.63777321776705" lon="13.080783393939832"><ele>65.0</ele><time>2026-04-29T09:37:39.999Z</time></trkpt><trkpt lat="43.63773204861961" lon="13.08098377804825"><ele>66.0</ele><time>2026-04-29T09:37:40.999Z</time></trkpt><trkpt lat="43.637698122980495" lon="13.081156342827676"><ele>67.0</ele><time>2026-04-29T09:37:41.999Z</time></trkpt><trkpt lat="43.637671154510244" lon="13.081301030068184"><ele>68.0</ele><time>2026-04-29T09:37:42.999Z</time></trkpt><trkpt lat="43.63765121244047" lon="13.081428379009079"><ele>69.0</ele><time>2026-04-29T09:37:43.999Z</time></trkpt><trkpt lat="43.637644933457544" lon="13.08153401679051"><ele>70.0</ele><time>2026-04-29T09:37:44.999Z</time></trkpt><trkpt lat="43.63760983707233" lon="13.081645211000115"><ele>70.2</ele><time>2026-04-29T09:37:46.999Z</time></trkpt><trkpt lat="43.6377423110152" lon="13.081732785710456"><ele>70.4</ele><time>2026-04-29T09:37:47.999Z</time></trkpt><trkpt lat="43.637807155226646" lon="13.081792406363197"><ele>70.6</ele><time>2026-04-29T09:37:48.999Z</time></trkpt><trkpt lat="43.63788024167139" lon="13.0818561652914"><ele>70.8</ele><time>2026-04-29T09:37:49.999Z</time></trkpt><trkpt lat="43.63794993366131" lon="13.081915691091234"><ele>71.0</ele><time>2026-04-29T09:37:50.999Z</time></trkpt><trkpt lat="43.638008476076045" lon="13.082000092894159"><ele>70.6</ele><time>2026-04-29T09:37:51.999Z</time></trkpt><trkpt lat="43.63809023802639" lon="13.082046505205904"><ele>70.19999999999999</ele><time>2026-04-29T09:37:52.999Z</time></trkpt><trkpt lat="43.6381659056508" lon="13.082113027147184"><ele>69.80000000000001</ele><time>2026-04-29T09:37:53.999Z</time></trkpt><trkpt lat="43.638244008169934" lon="13.082180688261797"><ele>69.4</ele><time>2026-04-29T09:37:54.999Z</time></trkpt><trkpt lat="43.63832306127763" lon="13.082245873907317"><ele>69.0</ele><time>2026-04-29T09:37:55.999Z</time></trkpt><trkpt lat="43.638386952353734" lon="13.082349315254458"><ele>69.0</ele><time>2026-04-29T09:37:56.999Z</time></trkpt><trkpt lat="43.63846077805186" lon="13.082415514585575"><ele>69.0</ele><time>2026-04-29T09:37:57.999Z</time></trkpt><trkpt lat="43.63853453914991" lon="13.08248165598813"><ele>69.0</ele><time>2026-04-29T09:37:58.999Z</time></trkpt><trkpt lat="43.638602371743154" lon="13.082542481224177"><ele>69.0</ele><time>2026-04-29T09:37:59.999Z</time></trkpt><trkpt lat="43.63866555045355" lon="13.082602556802117"><ele>69.0</ele><time>2026-04-29T09:38:00.999Z</time></trkpt><trkpt lat="43.63873523292231" lon="13.082668755081457"><ele>69.0</ele><time>2026-04-29T09:38:01.999Z</time></trkpt><trkpt lat="43.638816919905274" lon="13.082734614717694"><ele>68.60000000000001</ele><time>2026-04-29T09:38:02.999Z</time></trkpt><trkpt lat="43.63889496135805" lon="13.082809489003091"><ele>68.2</ele><time>2026-04-29T09:38:03.999Z</time></trkpt><trkpt lat="43.638959592586765" lon="13.082924518522875"><ele>67.80000000000001</ele><time>2026-04-29T09:38:04.999Z</time></trkpt><trkpt lat="43.63903966807486" lon="13.083019730846802"><ele>67.4</ele><time>2026-04-29T09:38:05.999Z</time></trkpt><trkpt lat="43.63909893647744" lon="13.08314131025842"><ele>67.0</ele><time>2026-04-29T09:38:06.999Z</time></trkpt><trkpt lat="43.63914003346931" lon="13.0832867859955"><ele>67.0</ele><time>2026-04-29T09:38:07.999Z</time></trkpt><trkpt lat="43.63920418963286" lon="13.08341380041006"><ele>67.0</ele><time>2026-04-29T09:38:08.999Z</time></trkpt><trkpt lat="43.63925323524588" lon="13.0835546394424"><ele>67.0</ele><time>2026-04-29T09:38:09.999Z</time></trkpt><trkpt lat="43.63930808385353" lon="13.08370083371684"><ele>67.0</ele><time>2026-04-29T09:38:10.999Z</time></trkpt><trkpt lat="43.6393698937904" lon="13.083850530933244"><ele>67.0</ele><time>2026-04-29T09:38:11.999Z</time></trkpt><trkpt lat="43.639427832399434" lon="13.08400449612157"><ele>67.0</ele><time>2026-04-29T09:38:12.999Z</time></trkpt><trkpt lat="43.63947988999681" lon="13.084145714099781"><ele>67.0</ele><time>2026-04-29T09:38:13.999Z</time></trkpt><trkpt lat="43.639526500809524" lon="13.084269913360348"><ele>67.0</ele><time>2026-04-29T09:38:14.999Z</time></trkpt><trkpt lat="43.63956869501877" lon="13.084380343375644"><ele>67.0</ele><time>2026-04-29T09:38:15.999Z</time></trkpt><trkpt lat="43.63960179530839" lon="13.084462732461857"><ele>67.0</ele><time>2026-04-29T09:38:16.999Z</time></trkpt><trkpt lat="43.63963594505926" lon="13.08458328092159"><ele>67.0</ele><time>2026-04-29T09:38:18.999Z</time></trkpt><trkpt lat="43.63965827367469" lon="13.084675837462576"><ele>67.0</ele><time>2026-04-29T09:38:21.999Z</time></trkpt><trkpt lat="43.63972582083005" lon="13.084747286747147"><ele>67.0</ele><time>2026-04-29T09:39:49.999Z</time></trkpt><trkpt lat="43.63978893115273" lon="13.084863676005154"><ele>67.0</ele><time>2026-04-29T09:39:51.999Z</time></trkpt><trkpt lat="43.63981945882344" lon="13.084949158821974"><ele>67.0</ele><time>2026-04-29T09:39:52.999Z</time></trkpt><trkpt lat="43.63985181739664" lon="13.085036837956087"><ele>67.0</ele><time>2026-04-29T09:39:53.999Z</time></trkpt><trkpt lat="43.6398874740641" lon="13.085116268984887"><ele>67.0</ele><time>2026-04-29T09:39:54.999Z</time></trkpt><trkpt lat="43.639933749796455" lon="13.085182636106493"><ele>67.0</ele><time>2026-04-29T09:39:55.999Z</time></trkpt><trkpt lat="43.639973505295366" lon="13.085262127388717"><ele>67.0</ele><time>2026-04-29T09:39:56.999Z</time></trkpt><trkpt lat="43.64004174676701" lon="13.085291949534813"><ele>67.0</ele><time>2026-04-29T09:39:57.999Z</time></trkpt><trkpt lat="43.64011645540382" lon="13.085268495026176"><ele>67.0</ele><time>2026-04-29T09:39:58.999Z</time></trkpt><trkpt lat="43.64020060690221" lon="13.085245350863"><ele>67.0</ele><time>2026-04-29T09:39:59.999Z</time></trkpt><trkpt lat="43.64029342491508" lon="13.085208789464998"><ele>66.25</ele><time>2026-04-29T09:40:00.999Z</time></trkpt><trkpt lat="43.64039066307161" lon="13.085144746645899"><ele>65.5</ele><time>2026-04-29T09:40:01.999Z</time></trkpt><trkpt lat="43.64049631360701" lon="13.085056179919011"><ele>64.75</ele><time>2026-04-29T09:40:02.999Z</time></trkpt><trkpt lat="43.64059648349101" lon="13.084939641114893"><ele>64.0</ele><time>2026-04-29T09:40:03.999Z</time></trkpt><trkpt lat="43.640701294141365" lon="13.08480963865244"><ele>63.5</ele><time>2026-04-29T09:40:04.999Z</time></trkpt><trkpt lat="43.6408131349806" lon="13.084684113027077"><ele>63.0</ele><time>2026-04-29T09:40:05.999Z</time></trkpt><trkpt lat="43.640924347856505" lon="13.084552122193664"><ele>62.5</ele><time>2026-04-29T09:40:06.999Z</time></trkpt><trkpt lat="43.64103308460579" lon="13.084428017812101"><ele>62.0</ele><time>2026-04-29T09:40:07.999Z</time></trkpt><trkpt lat="43.64115500020614" lon="13.084347981972906"><ele>61.75</ele><time>2026-04-29T09:40:08.999Z</time></trkpt><trkpt lat="43.641269170323646" lon="13.084247329479473"><ele>61.5</ele><time>2026-04-29T09:40:09.999Z</time></trkpt><trkpt lat="43.64137998278875" lon="13.084139637684537"><ele>61.25</ele><time>2026-04-29T09:40:10.999Z</time></trkpt><trkpt lat="43.64147308484401" lon="13.08401689595415"><ele>61.0</ele><time>2026-04-29T09:40:11.999Z</time></trkpt><trkpt lat="43.64156938426385" lon="13.083914415966342"><ele>61.0</ele><time>2026-04-29T09:40:12.999Z</time></trkpt><trkpt lat="43.64165810257786" lon="13.083811726319189"><ele>61.0</ele><time>2026-04-29T09:40:13.999Z</time></trkpt><trkpt lat="43.6417515127899" lon="13.083713039468671"><ele>61.0</ele><time>2026-04-29T09:40:14.999Z</time></trkpt><trkpt lat="43.64184444710818" lon="13.08362521090124"><ele>61.0</ele><time>2026-04-29T09:40:15.999Z</time></trkpt><trkpt lat="43.64194079583767" lon="13.083564483700766"><ele>60.8</ele><time>2026-04-29T09:40:16.999Z</time></trkpt><trkpt lat="43.64203802519791" lon="13.083547990005696"><ele>60.599999999999994</ele><time>2026-04-29T09:40:17.999Z</time></trkpt><trkpt lat="43.64213958419118" lon="13.08359814730515"><ele>60.4</ele><time>2026-04-29T09:40:18.999Z</time></trkpt><trkpt lat="43.642241945391056" lon="13.083650141631432"><ele>60.2</ele><time>2026-04-29T09:40:19.999Z</time></trkpt><trkpt lat="43.6423646831594" lon="13.08371261558044"><ele>60.0</ele><time>2026-04-29T09:40:20.999Z</time></trkpt><trkpt lat="43.64248215934151" lon="13.083801368334619"><ele>60.0</ele><time>2026-04-29T09:40:21.999Z</time></trkpt><trkpt lat="43.64259547539718" lon="13.083889618154883"><ele>60.0</ele><time>2026-04-29T09:40:22.999Z</time></trkpt><trkpt lat="43.6427085406885" lon="13.083980594476042"><ele>60.0</ele><time>2026-04-29T09:40:23.999Z</time></trkpt><trkpt lat="43.6428189735599" lon="13.0840719398001"><ele>60.0</ele><time>2026-04-29T09:40:24.999Z</time></trkpt><trkpt lat="43.64292898110094" lon="13.084161878751058"><ele>60.0</ele><time>2026-04-29T09:40:25.999Z</time></trkpt><trkpt lat="43.64303443334759" lon="13.084267743620169"><ele>60.0</ele><time>2026-04-29T09:40:26.999Z</time></trkpt><trkpt lat="43.64314237157379" lon="13.08435335298428"><ele>60.0</ele><time>2026-04-29T09:40:27.999Z</time></trkpt><trkpt lat="43.643243553053395" lon="13.084444165410629"><ele>60.0</ele><time>2026-04-29T09:40:28.999Z</time></trkpt><trkpt lat="43.64334624199225" lon="13.084531530498072"><ele>60.0</ele><time>2026-04-29T09:40:29.999Z</time></trkpt><trkpt lat="43.64346247579044" lon="13.08463598074663"><ele>60.0</ele><time>2026-04-29T09:40:30.999Z</time></trkpt><trkpt lat="43.64356616452114" lon="13.08473459239437"><ele>60.0</ele><time>2026-04-29T09:40:31.999Z</time></trkpt><trkpt lat="43.64365843664898" lon="13.084829727980141"><ele>60.0</ele><time>2026-04-29T09:40:32.999Z</time></trkpt><trkpt lat="43.643745484287166" lon="13.084924992505032"><ele>59.25</ele><time>2026-04-29T09:40:33.999Z</time></trkpt><trkpt lat="43.64383456495569" lon="13.085024026361058"><ele>58.5</ele><time>2026-04-29T09:40:34.999Z</time></trkpt><trkpt lat="43.643930692142874" lon="13.085124993291886"><ele>57.75</ele><time>2026-04-29T09:40:35.999Z</time></trkpt><trkpt lat="43.644023082211234" lon="13.085233573705583"><ele>57.0</ele><time>2026-04-29T09:40:36.999Z</time></trkpt><trkpt lat="43.64411574831947" lon="13.085338762820793"><ele>57.0</ele><time>2026-04-29T09:40:37.999Z</time></trkpt><trkpt lat="43.64420696432971" lon="13.085446072686015"><ele>57.0</ele><time>2026-04-29T09:40:38.999Z</time></trkpt><trkpt lat="43.64428710897292" lon="13.085551609434615"><ele>57.0</ele><time>2026-04-29T09:40:39.999Z</time></trkpt><trkpt lat="43.644361067038936" lon="13.085657855342825"><ele>57.0</ele><time>2026-04-29T09:40:40.999Z</time></trkpt><trkpt lat="43.64443773688519" lon="13.08576452674113"><ele>57.0</ele><time>2026-04-29T09:40:41.999Z</time></trkpt><trkpt lat="43.644538081887305" lon="13.085843641926267"><ele>57.25</ele><time>2026-04-29T09:40:42.999Z</time></trkpt><trkpt lat="43.644645125534865" lon="13.085920046592276"><ele>57.5</ele><time>2026-04-29T09:40:43.999Z</time></trkpt><trkpt lat="43.6447492862174" lon="13.086008827055291"><ele>57.75</ele><time>2026-04-29T09:40:44.999Z</time></trkpt><trkpt lat="43.64484809831213" lon="13.086099623852457"><ele>58.0</ele><time>2026-04-29T09:40:45.999Z</time></trkpt><trkpt lat="43.64494306292167" lon="13.086191096634574"><ele>58.0</ele><time>2026-04-29T09:40:46.999Z</time></trkpt><trkpt lat="43.645052850923335" lon="13.086253674261693"><ele>58.0</ele><time>2026-04-29T09:40:47.999Z</time></trkpt><trkpt lat="43.645161869230236" lon="13.086307303872482"><ele>58.0</ele><time>2026-04-29T09:40:48.999Z</time></trkpt><trkpt lat="43.64525902550545" lon="13.086384986356416"><ele>58.0</ele><time>2026-04-29T09:40:49.999Z</time></trkpt><trkpt lat="43.64536885605837" lon="13.08643131593559"><ele>57.75</ele><time>2026-04-29T09:40:50.999Z</time></trkpt><trkpt lat="43.6454741537691" lon="13.08649309451147"><ele>57.5</ele><time>2026-04-29T09:40:51.999Z</time></trkpt><trkpt lat="43.64558218215589" lon="13.086548815087033"><ele>57.25</ele><time>2026-04-29T09:40:52.999Z</time></trkpt><trkpt lat="43.6456929847234" lon="13.086601370388335"><ele>57.0</ele><time>2026-04-29T09:40:53.999Z</time></trkpt><trkpt lat="43.64580911469844" lon="13.08663525050584"><ele>57.0</ele><time>2026-04-29T09:40:54.999Z</time></trkpt><trkpt lat="43.6459206715367" lon="13.086687841697433"><ele>57.0</ele><time>2026-04-29T09:40:55.999Z</time></trkpt><trkpt lat="43.64603848618766" lon="13.086732085178955"><ele>57.0</ele><time>2026-04-29T09:40:56.999Z</time></trkpt><trkpt lat="43.646163226637206" lon="13.086768432172402"><ele>57.0</ele><time>2026-04-29T09:40:57.999Z</time></trkpt><trkpt lat="43.64627754571493" lon="13.086832632548195"><ele>56.75</ele><time>2026-04-29T09:40:58.999Z</time></trkpt><trkpt lat="43.646382366715926" lon="13.086908851022018"><ele>56.5</ele><time>2026-04-29T09:40:59.999Z</time></trkpt><trkpt lat="43.64647804126931" lon="13.087000162321715"><ele>56.25</ele><time>2026-04-29T09:41:00.999Z</time></trkpt><trkpt lat="43.646569464753114" lon="13.087105834626488"><ele>56.0</ele><time>2026-04-29T09:41:01.999Z</time></trkpt><trkpt lat="43.6466530163747" lon="13.08722260950575"><ele>56.0</ele><time>2026-04-29T09:41:02.999Z</time></trkpt><trkpt lat="43.64672822344139" lon="13.087334011399218"><ele>55.99999999999999</ele><time>2026-04-29T09:41:03.999Z</time></trkpt><trkpt lat="43.646808433755815" lon="13.087443816614957"><ele>55.99999999999999</ele><time>2026-04-29T09:41:04.999Z</time></trkpt><trkpt lat="43.646883221353754" lon="13.087546907961606"><ele>56.0</ele><time>2026-04-29T09:41:05.999Z</time></trkpt><trkpt lat="43.646956021060895" lon="13.087647827349485"><ele>56.0</ele><time>2026-04-29T09:41:06.999Z</time></trkpt><trkpt lat="43.647019587298395" lon="13.087743196074623"><ele>55.8</ele><time>2026-04-29T09:41:07.999Z</time></trkpt><trkpt lat="43.64708190160026" lon="13.087849618753525"><ele>55.599999999999994</ele><time>2026-04-29T09:41:08.999Z</time></trkpt><trkpt lat="43.64713502875102" lon="13.087963419421719"><ele>55.4</ele><time>2026-04-29T09:41:09.999Z</time></trkpt><trkpt lat="43.64717386767421" lon="13.088086656718623"><ele>55.2</ele><time>2026-04-29T09:41:10.999Z</time></trkpt><trkpt lat="43.647185187218206" lon="13.088218241331237"><ele>55.0</ele><time>2026-04-29T09:41:11.999Z</time></trkpt><trkpt lat="43.64721690934668" lon="13.088337021378942"><ele>54.8</ele><time>2026-04-29T09:41:12.999Z</time></trkpt><trkpt lat="43.647225429818135" lon="13.08846825939628"><ele>54.6</ele><time>2026-04-29T09:41:13.999Z</time></trkpt><trkpt lat="43.64723503833978" lon="13.088603828476527"><ele>54.400000000000006</ele><time>2026-04-29T09:41:14.999Z</time></trkpt><trkpt lat="43.64725001746942" lon="13.088737730728843"><ele>54.2</ele><time>2026-04-29T09:41:15.999Z</time></trkpt><trkpt lat="43.64725767235694" lon="13.088880418944798"><ele>54.0</ele><time>2026-04-29T09:41:16.999Z</time></trkpt><trkpt lat="43.64726553612971" lon="13.089025852337192"><ele>54.0</ele><time>2026-04-29T09:41:17.999Z</time></trkpt><trkpt lat="43.647264863675254" lon="13.089164273468423"><ele>54.00000000000001</ele><time>2026-04-29T09:41:18.999Z</time></trkpt><trkpt lat="43.64725078221487" lon="13.089257036951999"><ele>54.00000000000001</ele><time>2026-04-29T09:41:19.999Z</time></trkpt><trkpt lat="43.64722406129127" lon="13.089349938323307"><ele>54.0</ele><time>2026-04-29T09:41:21.999Z</time></trkpt><trkpt lat="43.64718981665902" lon="13.089428439841004"><ele>54.0</ele><time>2026-04-29T09:41:28.999Z</time></trkpt><trkpt lat="43.64729837693181" lon="13.089654534010077"><ele>54.0</ele><time>2026-04-29T09:59:40Z</time></trkpt><trkpt lat="43.64728043881591" lon="13.089777115813522"><ele>54.00000000000001</ele><time>2026-04-29T10:08:22.001Z</time></trkpt><trkpt lat="43.64727743560835" lon="13.089925818079763"><ele>54.00000000000001</ele><time>2026-04-29T10:08:24.001Z</time></trkpt><trkpt lat="43.64726919617616" lon="13.090051195040125"><ele>54.0</ele><time>2026-04-29T10:08:26.001Z</time></trkpt><trkpt lat="43.64726294370767" lon="13.090177566600588"><ele>54.0</ele><time>2026-04-29T10:08:28.001Z</time></trkpt><trkpt lat="43.647253462745844" lon="13.090341115335619"><ele>54.166666666666664</ele><time>2026-04-29T10:08:30.001Z</time></trkpt><trkpt lat="43.64724557366167" lon="13.09044261149905"><ele>54.33333333333333</ele><time>2026-04-29T10:08:31.001Z</time></trkpt><trkpt lat="43.647253606868475" lon="13.090556123797702"><ele>54.5</ele><time>2026-04-29T10:08:32.001Z</time></trkpt><trkpt lat="43.64722916308844" lon="13.09071762966547"><ele>54.666666666666664</ele><time>2026-04-29T10:08:34.001Z</time></trkpt><trkpt lat="43.64722312432542" lon="13.090810229403615"><ele>54.83333333333333</ele><time>2026-04-29T10:08:35.001Z</time></trkpt><trkpt lat="43.64721667158336" lon="13.09089710205536"><ele>55.0</ele><time>2026-04-29T10:08:36.001Z</time></trkpt><trkpt lat="43.64720950273406" lon="13.091055756783462"><ele>54.4</ele><time>2026-04-29T10:08:38Z</time></trkpt><trkpt lat="43.64721635734953" lon="13.09122319314657"><ele>53.8</ele><time>2026-04-29T10:08:40Z</time></trkpt><trkpt lat="43.64719640452507" lon="13.09138201585786"><ele>53.2</ele><time>2026-04-29T10:08:42Z</time></trkpt><trkpt lat="43.64717850888604" lon="13.091522357566584"><ele>52.6</ele><time>2026-04-29T10:08:44Z</time></trkpt><trkpt lat="43.64716265105487" lon="13.09163429644437"><ele>52.0</ele><time>2026-04-29T10:08:46Z</time></trkpt><trkpt lat="43.64712756102893" lon="13.09174600203561"><ele>51.99999999999999</ele><time>2026-04-29T10:08:48Z</time></trkpt><trkpt lat="43.64710399923556" lon="13.091830789744755"><ele>52.0</ele><time>2026-04-29T10:08:49Z</time></trkpt><trkpt lat="43.647073404384365" lon="13.091908382171223"><ele>52.0</ele><time>2026-04-29T10:08:50Z</time></trkpt><trkpt lat="43.64704283934172" lon="13.091985835701134"><ele>52.0</ele><time>2026-04-29T10:08:51Z</time></trkpt><trkpt lat="43.64699359305186" lon="13.092118957681718"><ele>51.99999999999999</ele><time>2026-04-29T10:08:53Z</time></trkpt><trkpt lat="43.64694376926245" lon="13.092276350525061"><ele>52.0</ele><time>2026-04-29T10:08:55Z</time></trkpt><trkpt lat="43.6469160411026" lon="13.092366662648697"><ele>52.166666666666664</ele><time>2026-04-29T10:08:56Z</time></trkpt><trkpt lat="43.64688641324569" lon="13.0924454515527"><ele>52.33333333333333</ele><time>2026-04-29T10:08:57Z</time></trkpt><trkpt lat="43.64684869884381" lon="13.092524702774327"><ele>52.5</ele><time>2026-04-29T10:08:58Z</time></trkpt><trkpt lat="43.6468072955624" lon="13.092606319400677"><ele>52.66666666666667</ele><time>2026-04-29T10:08:59Z</time></trkpt><trkpt lat="43.64674442933492" lon="13.092760349570304"><ele>52.833333333333336</ele><time>2026-04-29T10:09:01Z</time></trkpt><trkpt lat="43.64670208324306" lon="13.092845146617718"><ele>53.0</ele><time>2026-04-29T10:09:02Z</time></trkpt><trkpt lat="43.64665890399597" lon="13.092931842979555"><ele>53.00000000000001</ele><time>2026-04-29T10:09:03Z</time></trkpt><trkpt lat="43.64661342098571" lon="13.09301854865044"><ele>53.0</ele><time>2026-04-29T10:09:04Z</time></trkpt><trkpt lat="43.64657133118297" lon="13.09310933108598"><ele>53.0</ele><time>2026-04-29T10:09:05Z</time></trkpt><trkpt lat="43.64654101746096" lon="13.09320442924252"><ele>53.0</ele><time>2026-04-29T10:09:06Z</time></trkpt><trkpt lat="43.6465212104799" lon="13.093313635473647"><ele>53.00000000000001</ele><time>2026-04-29T10:09:07Z</time></trkpt><trkpt lat="43.646496017685216" lon="13.093453335302634"><ele>53.0</ele><time>2026-04-29T10:09:09Z</time></trkpt><trkpt lat="43.64648024821747" lon="13.093538260165621"><ele>53.16666666666667</ele><time>2026-04-29T10:09:10Z</time></trkpt><trkpt lat="43.64651235412795" lon="13.093681289770368"><ele>53.333333333333336</ele><time>2026-04-29T10:09:12Z</time></trkpt><trkpt lat="43.64654198259111" lon="13.093766611031768"><ele>53.5</ele><time>2026-04-29T10:09:13Z</time></trkpt><trkpt lat="43.646576258486135" lon="13.093848022375225"><ele>53.66666666666667</ele><time>2026-04-29T10:09:14Z</time></trkpt><trkpt lat="43.64661681247094" lon="13.093926637707474"><ele>53.833333333333336</ele><time>2026-04-29T10:09:15Z</time></trkpt><trkpt lat="43.646663645754984" lon="13.094016502514597"><ele>54.0</ele><time>2026-04-29T10:09:16Z</time></trkpt><trkpt lat="43.64670984995442" lon="13.09411499766967"><ele>54.5</ele><time>2026-04-29T10:09:17Z</time></trkpt><trkpt lat="43.64675432946252" lon="13.094198423341826"><ele>55.0</ele><time>2026-04-29T10:09:18Z</time></trkpt><trkpt lat="43.64679277447633" lon="13.094286830734326"><ele>55.5</ele><time>2026-04-29T10:09:19Z</time></trkpt><trkpt lat="43.64682565850837" lon="13.094377008592236"><ele>56.0</ele><time>2026-04-29T10:09:20Z</time></trkpt><trkpt lat="43.646857161421764" lon="13.094475089918149"><ele>56.5</ele><time>2026-04-29T10:09:21Z</time></trkpt><trkpt lat="43.646876086726195" lon="13.09458431674399"><ele>57.0</ele><time>2026-04-29T10:09:23Z</time></trkpt><trkpt lat="43.64689928441103" lon="13.094685481430732"><ele>57.0</ele><time>2026-04-29T10:09:25Z</time></trkpt><trkpt lat="43.646932635524244" lon="13.094817983207474"><ele>57.0</ele><time>2026-04-29T10:09:27Z</time></trkpt><trkpt lat="43.64697367335494" lon="13.09496059144729"><ele>57.0</ele><time>2026-04-29T10:09:29Z</time></trkpt><trkpt lat="43.64700772647781" lon="13.09508648910526"><ele>57.0</ele><time>2026-04-29T10:09:31Z</time></trkpt><trkpt lat="43.647046290704495" lon="13.095230464322057"><ele>57.0</ele><time>2026-04-29T10:09:33Z</time></trkpt><trkpt lat="43.64709669906994" lon="13.095377368647435"><ele>56.0</ele><time>2026-04-29T10:09:35Z</time></trkpt><trkpt lat="43.64713773756492" lon="13.095511963691187"><ele>55.0</ele><time>2026-04-29T10:09:37Z</time></trkpt><trkpt lat="43.64716386813543" lon="13.095595038225762"><ele>54.0</ele><time>2026-04-29T10:09:38Z</time></trkpt><trkpt lat="43.64718917663158" lon="13.095676548549418"><ele>53.0</ele><time>2026-04-29T10:09:39Z</time></trkpt><trkpt lat="43.64723396254415" lon="13.095808448121854"><ele>52.0</ele><time>2026-04-29T10:09:41Z</time></trkpt><trkpt lat="43.647285766088174" lon="13.095940801018648"><ele>52.0</ele><time>2026-04-29T10:09:43Z</time></trkpt><trkpt lat="43.64733759839519" lon="13.096083751488509"><ele>52.0</ele><time>2026-04-29T10:09:45Z</time></trkpt><trkpt lat="43.64738198824714" lon="13.096171375106378"><ele>52.0</ele><time>2026-04-29T10:09:47Z</time></trkpt><trkpt lat="43.64741914518235" lon="13.096255778919222"><ele>52.0</ele><time>2026-04-29T10:09:49Z</time></trkpt><trkpt lat="43.647476091090695" lon="13.096351445423641"><ele>52.0</ele><time>2026-04-29T10:09:51Z</time></trkpt><trkpt lat="43.64754752063297" lon="13.096448086393629"><ele>52.0</ele><time>2026-04-29T10:09:53.001Z</time></trkpt><trkpt lat="43.64762185985177" lon="13.096514777398575"><ele>52.0</ele><time>2026-04-29T10:09:55.001Z</time></trkpt><trkpt lat="43.64771215905461" lon="13.096565464257857"><ele>52.0</ele><time>2026-04-29T10:09:57.001Z</time></trkpt><trkpt lat="43.647801228038944" lon="13.096608665045721"><ele>52.0</ele><time>2026-04-29T10:09:59.001Z</time></trkpt><trkpt lat="43.64790195562257" lon="13.096665975561423"><ele>52.0</ele><time>2026-04-29T10:10:01.001Z</time></trkpt><trkpt lat="43.648009430926905" lon="13.096717032994087"><ele>51.857142857142854</ele><time>2026-04-29T10:10:03.001Z</time></trkpt><trkpt lat="43.64807735346814" lon="13.096747969014828"><ele>51.714285714285715</ele><time>2026-04-29T10:10:04.001Z</time></trkpt><trkpt lat="43.64815082472452" lon="13.096775672219366"><ele>51.57142857142857</ele><time>2026-04-29T10:10:05.001Z</time></trkpt><trkpt lat="43.64822243359988" lon="13.096805462946978"><ele>51.42857142857143</ele><time>2026-04-29T10:10:06.001Z</time></trkpt><trkpt lat="43.64828328324304" lon="13.09684080629945"><ele>51.28571428571429</ele><time>2026-04-29T10:10:07.001Z</time></trkpt><trkpt lat="43.64834862427846" lon="13.096871698392356"><ele>51.142857142857146</ele><time>2026-04-29T10:10:08.001Z</time></trkpt><trkpt lat="43.648416491677985" lon="13.096897069632478"><ele>51.0</ele><time>2026-04-29T10:10:09.001Z</time></trkpt><trkpt lat="43.64848510846599" lon="13.096918496797269"><ele>51.0</ele><time>2026-04-29T10:10:10.001Z</time></trkpt><trkpt lat="43.648574288145305" lon="13.096950774912148"><ele>51.0</ele><time>2026-04-29T10:10:12.001Z</time></trkpt><trkpt lat="43.64866966645803" lon="13.097000063171299"><ele>51.0</ele><time>2026-04-29T10:10:14.001Z</time></trkpt><trkpt lat="43.64873560208181" lon="13.097040169920945"><ele>51.0</ele><time>2026-04-29T10:10:15.001Z</time></trkpt><trkpt lat="43.64881190685598" lon="13.097076654094238"><ele>51.0</ele><time>2026-04-29T10:10:16.001Z</time></trkpt><trkpt lat="43.6488882612706" lon="13.097100458602835"><ele>51.0</ele><time>2026-04-29T10:10:17.001Z</time></trkpt><trkpt lat="43.64896264705792" lon="13.097117350333486"><ele>51.0</ele><time>2026-04-29T10:10:18.001Z</time></trkpt><trkpt lat="43.64903900406745" lon="13.097136003677855"><ele>51.0</ele><time>2026-04-29T10:10:19.001Z</time></trkpt><trkpt lat="43.64912779048787" lon="13.097160005992118"><ele>51.0</ele><time>2026-04-29T10:10:20.001Z</time></trkpt><trkpt lat="43.64922271584959" lon="13.097187380436978"><ele>51.0</ele><time>2026-04-29T10:10:21.001Z</time></trkpt><trkpt lat="43.64930437389068" lon="13.09721044084198"><ele>51.0</ele><time>2026-04-29T10:10:22.001Z</time></trkpt><trkpt lat="43.649383699358644" lon="13.097240960143353"><ele>51.0</ele><time>2026-04-29T10:10:23.001Z</time></trkpt><trkpt lat="43.64946111949272" lon="13.09728039380824"><ele>51.0</ele><time>2026-04-29T10:10:24.001Z</time></trkpt><trkpt lat="43.649528204863906" lon="13.097332724050396"><ele>51.0</ele><time>2026-04-29T10:10:25.001Z</time></trkpt><trkpt lat="43.649589958872774" lon="13.097399043333207"><ele>51.0</ele><time>2026-04-29T10:10:26.001Z</time></trkpt><trkpt lat="43.64966092298095" lon="13.09746518062165"><ele>51.0</ele><time>2026-04-29T10:10:27.001Z</time></trkpt><trkpt lat="43.649732945280384" lon="13.097530295015853"><ele>51.0</ele><time>2026-04-29T10:10:28.001Z</time></trkpt><trkpt lat="43.64980609459083" lon="13.097598161711112"><ele>51.0</ele><time>2026-04-29T10:10:29.001Z</time></trkpt><trkpt lat="43.649866896955395" lon="13.097655219750399"><ele>50.4</ele><time>2026-04-29T10:10:30.001Z</time></trkpt><trkpt lat="43.64992421631341" lon="13.09770591545361"><ele>49.8</ele><time>2026-04-29T10:10:31.001Z</time></trkpt><trkpt lat="43.650015336865174" lon="13.09780473041848"><ele>49.199999999999996</ele><time>2026-04-29T10:10:33.001Z</time></trkpt><trkpt lat="43.650082557510295" lon="13.09792522208478"><ele>48.599999999999994</ele><time>2026-04-29T10:10:35.001Z</time></trkpt><trkpt lat="43.6501878009143" lon="13.098031571863642"><ele>48.0</ele><time>2026-04-29T10:10:37.001Z</time></trkpt><trkpt lat="43.65024103246446" lon="13.098107441684565"><ele>48.0</ele><time>2026-04-29T10:10:38.001Z</time></trkpt><trkpt lat="43.6502899661518" lon="13.098186395945891"><ele>48.0</ele><time>2026-04-29T10:10:39.001Z</time></trkpt><trkpt lat="43.6503299593839" lon="13.098268177074067"><ele>48.0</ele><time>2026-04-29T10:10:40.001Z</time></trkpt><trkpt lat="43.65036867490568" lon="13.098355813082224"><ele>48.0</ele><time>2026-04-29T10:10:41.001Z</time></trkpt><trkpt lat="43.65040828314053" lon="13.098449351594164"><ele>48.0</ele><time>2026-04-29T10:10:42.001Z</time></trkpt><trkpt lat="43.65044895643079" lon="13.098544884847174"><ele>48.0</ele><time>2026-04-29T10:10:43.001Z</time></trkpt><trkpt lat="43.65049249009162" lon="13.098669469625193"><ele>48.2</ele><time>2026-04-29T10:10:45Z</time></trkpt><trkpt lat="43.65052154256029" lon="13.098777142965574"><ele>48.4</ele><time>2026-04-29T10:10:47Z</time></trkpt><trkpt lat="43.65054988852005" lon="13.098874940165626"><ele>48.6</ele><time>2026-04-29T10:10:49Z</time></trkpt><trkpt lat="43.65055750003537" lon="13.099050361040259"><ele>48.800000000000004</ele><time>2026-04-29T10:10:51Z</time></trkpt><trkpt lat="43.65056275441711" lon="13.099151778423687"><ele>49.0</ele><time>2026-04-29T10:10:52Z</time></trkpt><trkpt lat="43.65058235322248" lon="13.09929999049321"><ele>49.25</ele><time>2026-04-29T10:10:53Z</time></trkpt><trkpt lat="43.65058552603791" lon="13.099473604973769"><ele>49.5</ele><time>2026-04-29T10:10:54Z</time></trkpt><trkpt lat="43.6505855619381" lon="13.099670588685152"><ele>49.75</ele><time>2026-04-29T10:10:55Z</time></trkpt><trkpt lat="43.6505999497487" lon="13.099844061458406"><ele>50.0</ele><time>2026-04-29T10:10:56Z</time></trkpt><trkpt lat="43.650623033885914" lon="13.100005897853638"><ele>49.5</ele><time>2026-04-29T10:10:57Z</time></trkpt><trkpt lat="43.65063849267385" lon="13.100174527842006"><ele>49.0</ele><time>2026-04-29T10:10:58Z</time></trkpt><trkpt lat="43.65064715463283" lon="13.100338958378691"><ele>48.5</ele><time>2026-04-29T10:10:59Z</time></trkpt><trkpt lat="43.650667514581805" lon="13.10050148734548"><ele>48.0</ele><time>2026-04-29T10:11:00Z</time></trkpt><trkpt lat="43.65067159522827" lon="13.100648802180457"><ele>48.166666666666664</ele><time>2026-04-29T10:11:01Z</time></trkpt><trkpt lat="43.6506753741394" lon="13.10078067571329"><ele>48.33333333333333</ele><time>2026-04-29T10:11:02Z</time></trkpt><trkpt lat="43.65068001823297" lon="13.10089038053887"><ele>48.5</ele><time>2026-04-29T10:11:03Z</time></trkpt><trkpt lat="43.65068269064307" lon="13.100978816976209"><ele>48.666666666666664</ele><time>2026-04-29T10:11:04Z</time></trkpt><trkpt lat="43.65071470262716" lon="13.101118584020611"><ele>48.83333333333333</ele><time>2026-04-29T10:11:06Z</time></trkpt><trkpt lat="43.65073263912018" lon="13.101228762963808"><ele>49.0</ele><time>2026-04-29T10:11:09Z</time></trkpt><trkpt lat="43.65076134825556" lon="13.101308256323174"><ele>48.99999999999999</ele><time>2026-04-29T10:11:11Z</time></trkpt><trkpt lat="43.65082069847133" lon="13.101346515724364"><ele>49.0</ele><time>2026-04-29T10:11:12Z</time></trkpt><trkpt lat="43.650910182681635" lon="13.101473058084672"><ele>49.0</ele><time>2026-04-29T10:11:14Z</time></trkpt><trkpt lat="43.65095157792953" lon="13.101569967547674"><ele>49.0</ele><time>2026-04-29T10:11:15Z</time></trkpt><trkpt lat="43.65099297624608" lon="13.101665931875434"><ele>48.99999999999999</ele><time>2026-04-29T10:11:16Z</time></trkpt><trkpt lat="43.651038895959665" lon="13.101769476670123"><ele>49.0</ele><time>2026-04-29T10:11:17Z</time></trkpt><trkpt lat="43.65108436145463" lon="13.101872970340084"><ele>49.166666666666664</ele><time>2026-04-29T10:11:18Z</time></trkpt><trkpt lat="43.65112430699672" lon="13.101964435485325"><ele>49.33333333333333</ele><time>2026-04-29T10:11:19Z</time></trkpt><trkpt lat="43.65115041709927" lon="13.10206462730109"><ele>49.5</ele><time>2026-04-29T10:11:20Z</time></trkpt><trkpt lat="43.65119046757765" lon="13.102159336141506"><ele>49.66666666666667</ele><time>2026-04-29T10:11:21Z</time></trkpt><trkpt lat="43.651244007309174" lon="13.102248186106992"><ele>49.833333333333336</ele><time>2026-04-29T10:11:22Z</time></trkpt><trkpt lat="43.651263655214564" lon="13.102358757081713"><ele>50.0</ele><time>2026-04-29T10:11:23Z</time></trkpt><trkpt lat="43.65130590597072" lon="13.1024483260123"><ele>49.66666666666667</ele><time>2026-04-29T10:11:24Z</time></trkpt><trkpt lat="43.65132026317238" lon="13.10254857834373"><ele>49.333333333333336</ele><time>2026-04-29T10:11:25Z</time></trkpt><trkpt lat="43.65134864912388" lon="13.102655979460108"><ele>49.0</ele><time>2026-04-29T10:11:26Z</time></trkpt><trkpt lat="43.65139125054222" lon="13.102766037245404"><ele>48.66666666666667</ele><time>2026-04-29T10:11:27Z</time></trkpt><trkpt lat="43.651420761680825" lon="13.102890461994003"><ele>48.333333333333336</ele><time>2026-04-29T10:11:28Z</time></trkpt><trkpt lat="43.651454108502506" lon="13.103021007004601"><ele>48.0</ele><time>2026-04-29T10:11:29Z</time></trkpt><trkpt lat="43.65147534164641" lon="13.10315335353301"><ele>48.0</ele><time>2026-04-29T10:11:30Z</time></trkpt><trkpt lat="43.65149402672074" lon="13.103282821354323"><ele>48.0</ele><time>2026-04-29T10:11:31Z</time></trkpt><trkpt lat="43.65151412755558" lon="13.103422379273974"><ele>48.0</ele><time>2026-04-29T10:11:32Z</time></trkpt><trkpt lat="43.65153770228803" lon="13.103564016257438"><ele>48.0</ele><time>2026-04-29T10:11:33Z</time></trkpt><trkpt lat="43.651566778143916" lon="13.10370692197683"><ele>48.0</ele><time>2026-04-29T10:11:34Z</time></trkpt><trkpt lat="43.65160088394928" lon="13.103843174132063"><ele>48.0</ele><time>2026-04-29T10:11:35Z</time></trkpt><trkpt lat="43.651627463199496" lon="13.103987768484565"><ele>48.0</ele><time>2026-04-29T10:11:36Z</time></trkpt><trkpt lat="43.65165687690551" lon="13.104136830551736"><ele>48.0</ele><time>2026-04-29T10:11:37Z</time></trkpt><trkpt lat="43.65167052754005" lon="13.10428983519552"><ele>48.0</ele><time>2026-04-29T10:11:38Z</time></trkpt><trkpt lat="43.65166543539298" lon="13.104439502038872"><ele>48.0</ele><time>2026-04-29T10:11:39Z</time></trkpt><trkpt lat="43.65165018023034" lon="13.104589545310677"><ele>48.2</ele><time>2026-04-29T10:11:40Z</time></trkpt><trkpt lat="43.65161423467145" lon="13.104727155918019"><ele>48.4</ele><time>2026-04-29T10:11:41Z</time></trkpt><trkpt lat="43.65160567639531" lon="13.104859927379202"><ele>48.6</ele><time>2026-04-29T10:11:42Z</time></trkpt><trkpt lat="43.65156767661749" lon="13.104979906707428"><ele>48.800000000000004</ele><time>2026-04-29T10:11:43Z</time></trkpt><trkpt lat="43.65155368408315" lon="13.1051115173802"><ele>49.0</ele><time>2026-04-29T10:11:44Z</time></trkpt><trkpt lat="43.651518495328794" lon="13.105221064716142"><ele>48.99999999999999</ele><time>2026-04-29T10:11:45Z</time></trkpt><trkpt lat="43.65149534422683" lon="13.105328759217286"><ele>49.0</ele><time>2026-04-29T10:11:46Z</time></trkpt><trkpt lat="43.651472356279655" lon="13.105435694829213"><ele>49.0</ele><time>2026-04-29T10:11:47Z</time></trkpt><trkpt lat="43.651464303694446" lon="13.10554951861712"><ele>49.0</ele><time>2026-04-29T10:11:48Z</time></trkpt><trkpt lat="43.6514401196952" lon="13.105637179280025"><ele>48.99999999999999</ele><time>2026-04-29T10:11:49Z</time></trkpt><trkpt lat="43.6514106073092" lon="13.10576635054762"><ele>49.0</ele><time>2026-04-29T10:11:51Z</time></trkpt><trkpt lat="43.6513942121053" lon="13.105862855946334"><ele>48.800000000000004</ele><time>2026-04-29T10:11:54Z</time></trkpt><trkpt lat="43.65149797447549" lon="13.105917555783055"><ele>48.6</ele><time>2026-04-29T10:11:56Z</time></trkpt><trkpt lat="43.65160631085516" lon="13.105966094954457"><ele>48.4</ele><time>2026-04-29T10:11:58Z</time></trkpt><trkpt lat="43.65170548293105" lon="13.106006774685307"><ele>48.2</ele><time>2026-04-29T10:12:00Z</time></trkpt><trkpt lat="43.65176174180675" lon="13.106080933738022"><ele>48.0</ele><time>2026-04-29T10:12:02Z</time></trkpt><trkpt lat="43.651769793386755" lon="13.106219745608746"><ele>48.0</ele><time>2026-04-29T10:12:04Z</time></trkpt><trkpt lat="43.65175184913513" lon="13.10630822249464"><ele>48.0</ele><time>2026-04-29T10:12:05Z</time></trkpt><trkpt lat="43.6517315099363" lon="13.106411604205126"><ele>48.0</ele><time>2026-04-29T10:12:06.001Z</time></trkpt><trkpt lat="43.65170714240942" lon="13.106522450787784"><ele>48.0</ele><time>2026-04-29T10:12:07.001Z</time></trkpt><trkpt lat="43.651690421590914" lon="13.10663788618489"><ele>48.0</ele><time>2026-04-29T10:12:08.001Z</time></trkpt><trkpt lat="43.65168255771079" lon="13.106744398938227"><ele>48.0</ele><time>2026-04-29T10:12:09.001Z</time></trkpt><trkpt lat="43.6516746297347" lon="13.106839315732817"><ele>47.666666666666664</ele><time>2026-04-29T10:12:10.001Z</time></trkpt><trkpt lat="43.651707506142515" lon="13.106922924561276"><ele>47.333333333333336</ele><time>2026-04-29T10:12:11.001Z</time></trkpt><trkpt lat="43.65177295434106" lon="13.106973918895"><ele>47.0</ele><time>2026-04-29T10:12:12.001Z</time></trkpt><trkpt lat="43.651846168705234" lon="13.107020358698367"><ele>46.66666666666667</ele><time>2026-04-29T10:12:13.001Z</time></trkpt><trkpt lat="43.65192949934991" lon="13.107065564873167"><ele>46.333333333333336</ele><time>2026-04-29T10:12:14.001Z</time></trkpt><trkpt lat="43.65202679501741" lon="13.107103740815132"><ele>46.0</ele><time>2026-04-29T10:12:15.001Z</time></trkpt><trkpt lat="43.65213044615127" lon="13.107144208890496"><ele>47.25</ele><time>2026-04-29T10:12:16.001Z</time></trkpt><trkpt lat="43.65224498921766" lon="13.107193719108084"><ele>48.5</ele><time>2026-04-29T10:12:17.001Z</time></trkpt><trkpt lat="43.65236176205843" lon="13.107245592666875"><ele>49.75</ele><time>2026-04-29T10:12:18.001Z</time></trkpt><trkpt lat="43.652483561697736" lon="13.107299455608846"><ele>51.0</ele><time>2026-04-29T10:12:19.001Z</time></trkpt><trkpt lat="43.65261190308283" lon="13.107353000544236"><ele>51.0</ele><time>2026-04-29T10:12:20.001Z</time></trkpt><trkpt lat="43.652727349052476" lon="13.107404340476627"><ele>51.0</ele><time>2026-04-29T10:12:21.001Z</time></trkpt><trkpt lat="43.65283294480482" lon="13.107452231108937"><ele>51.0</ele><time>2026-04-29T10:12:22.001Z</time></trkpt><trkpt lat="43.65292242531177" lon="13.107500620839511"><ele>51.0</ele><time>2026-04-29T10:12:23.001Z</time></trkpt><trkpt lat="43.6530100215089" lon="13.107547166912195"><ele>51.0</ele><time>2026-04-29T10:12:24.001Z</time></trkpt><trkpt lat="43.65309659994213" lon="13.107586200643693"><ele>50.8</ele><time>2026-04-29T10:12:25.001Z</time></trkpt><trkpt lat="43.65318586996218" lon="13.10761504438065"><ele>50.599999999999994</ele><time>2026-04-29T10:12:26.001Z</time></trkpt><trkpt lat="43.65326975071614" lon="13.107612875722474"><ele>50.4</ele><time>2026-04-29T10:12:27.001Z</time></trkpt><trkpt lat="43.653352705013795" lon="13.107592957087522"><ele>50.2</ele><time>2026-04-29T10:12:28.001Z</time></trkpt><trkpt lat="43.65344366976459" lon="13.107557582685208"><ele>50.0</ele><time>2026-04-29T10:12:29.001Z</time></trkpt><trkpt lat="43.65354890828978" lon="13.107552995567834"><ele>50.5</ele><time>2026-04-29T10:12:30.001Z</time></trkpt><trkpt lat="43.6536595490389" lon="13.107520382730922"><ele>51.0</ele><time>2026-04-29T10:12:31.001Z</time></trkpt><trkpt lat="43.65377172886636" lon="13.10747853479351"><ele>51.5</ele><time>2026-04-29T10:12:32.001Z</time></trkpt><trkpt lat="43.65388746972536" lon="13.107451856497702"><ele>52.0</ele><time>2026-04-29T10:12:33.001Z</time></trkpt><trkpt lat="43.65401052030805" lon="13.107412224611886"><ele>52.0</ele><time>2026-04-29T10:12:34.001Z</time></trkpt><trkpt lat="43.65413118010206" lon="13.10738309166005"><ele>52.0</ele><time>2026-04-29T10:12:35.001Z</time></trkpt><trkpt lat="43.65424725587539" lon="13.10735223676109"><ele>52.0</ele><time>2026-04-29T10:12:36.001Z</time></trkpt><trkpt lat="43.65435120204832" lon="13.107325266904956"><ele>52.0</ele><time>2026-04-29T10:12:37.001Z</time></trkpt><trkpt lat="43.65445057924748" lon="13.107299287801727"><ele>52.0</ele><time>2026-04-29T10:12:38.001Z</time></trkpt><trkpt lat="43.65454191663465" lon="13.107277641660483"><ele>52.0</ele><time>2026-04-29T10:12:39.001Z</time></trkpt><trkpt lat="43.65463811850748" lon="13.107256437062441"><ele>52.0</ele><time>2026-04-29T10:12:40.001Z</time></trkpt><trkpt lat="43.65474294006525" lon="13.10722985102547"><ele>52.0</ele><time>2026-04-29T10:12:41.001Z</time></trkpt><trkpt lat="43.65485259769746" lon="13.107197423485962"><ele>52.0</ele><time>2026-04-29T10:12:42.001Z</time></trkpt><trkpt lat="43.65494677909103" lon="13.107150308148919"><ele>52.0</ele><time>2026-04-29T10:12:43.001Z</time></trkpt><trkpt lat="43.65502983583422" lon="13.107088731644456"><ele>52.0</ele><time>2026-04-29T10:12:44.001Z</time></trkpt><trkpt lat="43.65509706690375" lon="13.107025614406204"><ele>52.0</ele><time>2026-04-29T10:12:45.001Z</time></trkpt><trkpt lat="43.65515831257407" lon="13.106960966372817"><ele>52.0</ele><time>2026-04-29T10:12:47.001Z</time></trkpt><trkpt lat="43.65525234378225" lon="13.107039017075838"><ele>52.0</ele><time>2026-04-29T10:13:52Z</time></trkpt><trkpt lat="43.65523607016731" lon="13.10720503608062"><ele>52.0</ele><time>2026-04-29T10:13:53Z</time></trkpt><trkpt lat="43.65524141606887" lon="13.107318794394832"><ele>52.166666666666664</ele><time>2026-04-29T10:13:54Z</time></trkpt><trkpt lat="43.6552505658554" lon="13.107431697766648"><ele>52.33333333333333</ele><time>2026-04-29T10:13:55.001Z</time></trkpt><trkpt lat="43.65525915594396" lon="13.107542933014363"><ele>52.5</ele><time>2026-04-29T10:13:56.001Z</time></trkpt><trkpt lat="43.655271349522856" lon="13.107659231711002"><ele>52.66666666666667</ele><time>2026-04-29T10:13:57.001Z</time></trkpt><trkpt lat="43.655284250663996" lon="13.107788389375564"><ele>52.833333333333336</ele><time>2026-04-29T10:13:58.001Z</time></trkpt><trkpt lat="43.655296325261915" lon="13.107926699488688"><ele>53.0</ele><time>2026-04-29T10:13:59.001Z</time></trkpt><trkpt lat="43.65530848196293" lon="13.108073065948842"><ele>52.75</ele><time>2026-04-29T10:14:00.001Z</time></trkpt><trkpt lat="43.65532421332188" lon="13.108232881842296"><ele>52.5</ele><time>2026-04-29T10:14:01.001Z</time></trkpt><trkpt lat="43.655341668000816" lon="13.108395603244135"><ele>52.25</ele><time>2026-04-29T10:14:02.001Z</time></trkpt><trkpt lat="43.65535947925755" lon="13.108572187896597"><ele>52.0</ele><time>2026-04-29T10:14:03.001Z</time></trkpt><trkpt lat="43.65537601720352" lon="13.108752612961437"><ele>52.0</ele><time>2026-04-29T10:14:04.001Z</time></trkpt><trkpt lat="43.655392256381646" lon="13.108936960812683"><ele>52.0</ele><time>2026-04-29T10:14:05.001Z</time></trkpt><trkpt lat="43.65540793639142" lon="13.109103994917705"><ele>52.0</ele><time>2026-04-29T10:14:06.001Z</time></trkpt><trkpt lat="43.65542186086773" lon="13.109236990053686"><ele>52.0</ele><time>2026-04-29T10:14:07.001Z</time></trkpt><trkpt lat="43.65543419257144" lon="13.109352968941412"><ele>52.0</ele><time>2026-04-29T10:14:08.001Z</time></trkpt><trkpt lat="43.655442646411856" lon="13.109444916821264"><ele>52.2</ele><time>2026-04-29T10:14:09.001Z</time></trkpt><trkpt lat="43.65545378486602" lon="13.109584864289191"><ele>52.400000000000006</ele><time>2026-04-29T10:14:11.001Z</time></trkpt><trkpt lat="43.65546901684213" lon="13.109697561338002"><ele>52.599999999999994</ele><time>2026-04-29T10:14:15.001Z</time></trkpt><trkpt lat="43.65547680408193" lon="13.109826894894645"><ele>52.8</ele><time>2026-04-29T10:14:34.001Z</time></trkpt><trkpt lat="43.65549542251599" lon="13.110005663796873"><ele>53.0</ele><time>2026-04-29T10:14:36.001Z</time></trkpt><trkpt lat="43.65550791545031" lon="13.110105628667696"><ele>53.0</ele><time>2026-04-29T10:14:37.001Z</time></trkpt><trkpt lat="43.655520054723766" lon="13.110213402001408"><ele>53.0</ele><time>2026-04-29T10:14:38.001Z</time></trkpt><trkpt lat="43.655533753928786" lon="13.110337790883769"><ele>53.0</ele><time>2026-04-29T10:14:39.001Z</time></trkpt><trkpt lat="43.65555034960204" lon="13.110496852142514"><ele>53.0</ele><time>2026-04-29T10:14:40.001Z</time></trkpt><trkpt lat="43.65556537468224" lon="13.110656326952897"><ele>53.0</ele><time>2026-04-29T10:14:41.001Z</time></trkpt><trkpt lat="43.655578339694316" lon="13.110815013716254"><ele>53.25</ele><time>2026-04-29T10:14:42.001Z</time></trkpt><trkpt lat="43.655590889020836" lon="13.110978523751799"><ele>53.5</ele><time>2026-04-29T10:14:43.001Z</time></trkpt><trkpt lat="43.65560890650976" lon="13.111156611597682"><ele>53.75</ele><time>2026-04-29T10:14:44.001Z</time></trkpt><trkpt lat="43.655632545532164" lon="13.111349557901152"><ele>54.0</ele><time>2026-04-29T10:14:45.001Z</time></trkpt><trkpt lat="43.65565280830558" lon="13.111534226339856"><ele>53.75</ele><time>2026-04-29T10:14:46.001Z</time></trkpt><trkpt lat="43.655666306605745" lon="13.111708760985055"><ele>53.5</ele><time>2026-04-29T10:14:47.001Z</time></trkpt><trkpt lat="43.65566823095053" lon="13.111880349490146"><ele>53.25</ele><time>2026-04-29T10:14:48.001Z</time></trkpt><trkpt lat="43.65566712453251" lon="13.11205578267621"><ele>53.0</ele><time>2026-04-29T10:14:49.001Z</time></trkpt><trkpt lat="43.65566370195143" lon="13.112244106839167"><ele>52.0</ele><time>2026-04-29T10:14:50.001Z</time></trkpt><trkpt lat="43.65566212958895" lon="13.112447760770902"><ele>51.0</ele><time>2026-04-29T10:14:51.001Z</time></trkpt><trkpt lat="43.65566197424036" lon="13.112668806163141"><ele>50.0</ele><time>2026-04-29T10:14:52.001Z</time></trkpt><trkpt lat="43.655650729416244" lon="13.112916623816966"><ele>50.0</ele><time>2026-04-29T10:14:53.001Z</time></trkpt><trkpt lat="43.655594780737275" lon="13.11315790630797"><ele>50.0</ele><time>2026-04-29T10:14:54.001Z</time></trkpt><trkpt lat="43.655548935172725" lon="13.113407044552224"><ele>50.0</ele><time>2026-04-29T10:14:55.001Z</time></trkpt><trkpt lat="43.65549501001823" lon="13.113656875558892"><ele>49.333333333333336</ele><time>2026-04-29T10:14:56.001Z</time></trkpt><trkpt lat="43.65543806632012" lon="13.113903544224904"><ele>48.66666666666667</ele><time>2026-04-29T10:14:57.001Z</time></trkpt><trkpt lat="43.655362944454495" lon="13.114130657140777"><ele>48.0</ele><time>2026-04-29T10:14:58.001Z</time></trkpt><trkpt lat="43.65528646016812" lon="13.114334730441193"><ele>47.666666666666664</ele><time>2026-04-29T10:14:59.001Z</time></trkpt><trkpt lat="43.655215085933555" lon="13.11453594474142"><ele>47.33333333333333</ele><time>2026-04-29T10:15:00.001Z</time></trkpt><trkpt lat="43.655146184942204" lon="13.114733058990247"><ele>47.0</ele><time>2026-04-29T10:15:01.001Z</time></trkpt><trkpt lat="43.655073933342344" lon="13.114936496409523"><ele>47.0</ele><time>2026-04-29T10:15:02.001Z</time></trkpt><trkpt lat="43.655000588662304" lon="13.115140025183637"><ele>47.0</ele><time>2026-04-29T10:15:03.001Z</time></trkpt><trkpt lat="43.654928814347265" lon="13.115343172489444"><ele>47.0</ele><time>2026-04-29T10:15:04.001Z</time></trkpt><trkpt lat="43.654766910087076" lon="13.115818440032369"><ele>45.0</ele><time>2026-04-29T10:15:06.001Z</time></trkpt><trkpt lat="43.65447633560337" lon="13.116634682134134"><ele>45.0</ele><time>2026-04-29T10:15:09.001Z</time></trkpt><trkpt lat="43.654371221960766" lon="13.116891627313633"><ele>45.0</ele><time>2026-04-29T10:15:10.001Z</time></trkpt><trkpt lat="43.65426406801632" lon="13.117160202785419"><ele>45.0</ele><time>2026-04-29T10:15:11.001Z</time></trkpt><trkpt lat="43.65415957337499" lon="13.11743748748904"><ele>45.0</ele><time>2026-04-29T10:15:12.001Z</time></trkpt><trkpt lat="43.654056816097075" lon="13.117719868590575"><ele>45.0</ele><time>2026-04-29T10:15:13.001Z</time></trkpt><trkpt lat="43.653953506645266" lon="13.118005556961638"><ele>45.0</ele><time>2026-04-29T10:15:14.001Z</time></trkpt><trkpt lat="43.65385664677069" lon="13.118281431342469"><ele>45.0</ele><time>2026-04-29T10:15:15.001Z</time></trkpt><trkpt lat="43.65376779316144" lon="13.118531681649534"><ele>45.0</ele><time>2026-04-29T10:15:16.001Z</time></trkpt><trkpt lat="43.6536816442098" lon="13.118771449063383"><ele>45.0</ele><time>2026-04-29T10:15:17.001Z</time></trkpt><trkpt lat="43.65359233754952" lon="13.119004688061583"><ele>45.0</ele><time>2026-04-29T10:15:18.001Z</time></trkpt><trkpt lat="43.653508802077795" lon="13.119231664209524"><ele>45.0</ele><time>2026-04-29T10:15:19.001Z</time></trkpt><trkpt lat="43.65342936480035" lon="13.119439388020096"><ele>44.666666666666664</ele><time>2026-04-29T10:15:20.001Z</time></trkpt><trkpt lat="43.6533532665806" lon="13.119650753719446"><ele>44.33333333333333</ele><time>2026-04-29T10:15:21.001Z</time></trkpt><trkpt lat="43.653273350259965" lon="13.119872796362483"><ele>44.0</ele><time>2026-04-29T10:15:22.001Z</time></trkpt><trkpt lat="43.653189563833735" lon="13.120106125532132"><ele>43.666666666666664</ele><time>2026-04-29T10:15:23.001Z</time></trkpt><trkpt lat="43.65310647162858" lon="13.120341252377505"><ele>43.333333333333336</ele><time>2026-04-29T10:15:24.001Z</time></trkpt><trkpt lat="43.65302085823246" lon="13.120586038802328"><ele>43.0</ele><time>2026-04-29T10:15:25.001Z</time></trkpt><trkpt lat="43.65293347469907" lon="13.120831221386366"><ele>43.0</ele><time>2026-04-29T10:15:26.001Z</time></trkpt><trkpt lat="43.65284634722592" lon="13.121078873002205"><ele>43.0</ele><time>2026-04-29T10:15:27.001Z</time></trkpt><trkpt lat="43.65275521792033" lon="13.121326814570313"><ele>43.0</ele><time>2026-04-29T10:15:28.001Z</time></trkpt><trkpt lat="43.65266581394664" lon="13.121571540012754"><ele>42.333333333333336</ele><time>2026-04-29T10:15:29.001Z</time></trkpt><trkpt lat="43.65258170331039" lon="13.121799557000749"><ele>41.666666666666664</ele><time>2026-04-29T10:15:30.001Z</time></trkpt><trkpt lat="43.65249852885574" lon="13.12201506746808"><ele>41.0</ele><time>2026-04-29T10:15:31.001Z</time></trkpt><trkpt lat="43.65241755257551" lon="13.122227650728606"><ele>41.0</ele><time>2026-04-29T10:15:32.001Z</time></trkpt><trkpt lat="43.65233923854467" lon="13.122440035476359"><ele>41.0</ele><time>2026-04-29T10:15:33.001Z</time></trkpt><trkpt lat="43.65226764781572" lon="13.122637817091938"><ele>41.0</ele><time>2026-04-29T10:15:34.001Z</time></trkpt><trkpt lat="43.65219674102053" lon="13.122813215864383"><ele>41.0</ele><time>2026-04-29T10:15:35.001Z</time></trkpt><trkpt lat="43.652117551713324" lon="13.122965417465073"><ele>41.0</ele><time>2026-04-29T10:15:36.001Z</time></trkpt><trkpt lat="43.65202832444823" lon="13.123109203626223"><ele>41.0</ele><time>2026-04-29T10:15:37.001Z</time></trkpt><trkpt lat="43.65193061437417" lon="13.123232874514802"><ele>41.0</ele><time>2026-04-29T10:15:38.001Z</time></trkpt><trkpt lat="43.65183354062989" lon="13.123348744913201"><ele>40.599999999999994</ele><time>2026-04-29T10:15:39.001Z</time></trkpt><trkpt lat="43.65175307745399" lon="13.123456719236936"><ele>40.199999999999996</ele><time>2026-04-29T10:15:40.001Z</time></trkpt><trkpt lat="43.65169624641414" lon="13.12357744291575"><ele>39.8</ele><time>2026-04-29T10:15:41.001Z</time></trkpt><trkpt lat="43.65166199490456" lon="13.123706996212084"><ele>39.4</ele><time>2026-04-29T10:15:42.001Z</time></trkpt><trkpt lat="43.65165697711796" lon="13.123845859457512"><ele>39.0</ele><time>2026-04-29T10:15:43.001Z</time></trkpt><trkpt lat="43.65167516493771" lon="13.123993804267263"><ele>39.25</ele><time>2026-04-29T10:15:44.001Z</time></trkpt><trkpt lat="43.65172911246123" lon="13.124159608215058"><ele>39.5</ele><time>2026-04-29T10:15:45.001Z</time></trkpt><trkpt lat="43.65175815860161" lon="13.124350064106563"><ele>39.75</ele><time>2026-04-29T10:15:46.001Z</time></trkpt><trkpt lat="43.65178189887965" lon="13.12454921832395"><ele>40.0</ele><time>2026-04-29T10:15:47.001Z</time></trkpt><trkpt lat="43.65178507407869" lon="13.124752889616168"><ele>40.333333333333336</ele><time>2026-04-29T10:15:48.001Z</time></trkpt><trkpt lat="43.65177356120927" lon="13.124953513717166"><ele>40.666666666666664</ele><time>2026-04-29T10:15:49.001Z</time></trkpt><trkpt lat="43.65175534514877" lon="13.125157919824314"><ele>41.0</ele><time>2026-04-29T10:15:50.001Z</time></trkpt><trkpt lat="43.65177054770627" lon="13.12537114986898"><ele>41.0</ele><time>2026-04-29T10:15:51.001Z</time></trkpt><trkpt lat="43.65172484207109" lon="13.125602377665135"><ele>41.0</ele><time>2026-04-29T10:15:52.001Z</time></trkpt><trkpt lat="43.651710956771645" lon="13.125831119682779"><ele>41.0</ele><time>2026-04-29T10:15:53.001Z</time></trkpt><trkpt lat="43.651700725933885" lon="13.126069413388802"><ele>40.666666666666664</ele><time>2026-04-29T10:15:54.001Z</time></trkpt><trkpt lat="43.65168975833234" lon="13.126316181559144"><ele>40.333333333333336</ele><time>2026-04-29T10:15:55.001Z</time></trkpt><trkpt lat="43.65167866607995" lon="13.126561878894531"><ele>40.0</ele><time>2026-04-29T10:15:56.001Z</time></trkpt><trkpt lat="43.65167559675775" lon="13.126816655098152"><ele>39.66666666666667</ele><time>2026-04-29T10:15:57.001Z</time></trkpt><trkpt lat="43.65168844933751" lon="13.127071602003982"><ele>39.333333333333336</ele><time>2026-04-29T10:15:58.001Z</time></trkpt><trkpt lat="43.65171832616522" lon="13.127313335099025"><ele>39.0</ele><time>2026-04-29T10:15:59.001Z</time></trkpt><trkpt lat="43.651768393474974" lon="13.127548374181686"><ele>39.0</ele><time>2026-04-29T10:16:00.001Z</time></trkpt><trkpt lat="43.651831871655865" lon="13.127784384670763"><ele>39.0</ele><time>2026-04-29T10:16:01.001Z</time></trkpt><trkpt lat="43.651907885130456" lon="13.128011948100713"><ele>39.0</ele><time>2026-04-29T10:16:02.001Z</time></trkpt><trkpt lat="43.65199731920825" lon="13.12824264199275"><ele>39.0</ele><time>2026-04-29T10:16:03.001Z</time></trkpt><trkpt lat="43.652108433980835" lon="13.128490899543094"><ele>39.0</ele><time>2026-04-29T10:16:04.001Z</time></trkpt><trkpt lat="43.65222276169207" lon="13.12875323434104"><ele>39.0</ele><time>2026-04-29T10:16:05.001Z</time></trkpt><trkpt lat="43.65233977926818" lon="13.12901311740227"><ele>38.666666666666664</ele><time>2026-04-29T10:16:06.001Z</time></trkpt><trkpt lat="43.65245300979294" lon="13.129273195972981"><ele>38.33333333333333</ele><time>2026-04-29T10:16:07.001Z</time></trkpt><trkpt lat="43.652562770877736" lon="13.129527221465327"><ele>38.0</ele><time>2026-04-29T10:16:08.001Z</time></trkpt><trkpt lat="43.65266755542329" lon="13.129766925495064"><ele>38.33333333333333</ele><time>2026-04-29T10:16:09.001Z</time></trkpt><trkpt lat="43.65277249083651" lon="13.129997644711514"><ele>38.666666666666664</ele><time>2026-04-29T10:16:10.001Z</time></trkpt><trkpt lat="43.6528783831272" lon="13.130232471036265"><ele>39.0</ele><time>2026-04-29T10:16:11.001Z</time></trkpt><trkpt lat="43.652981857398416" lon="13.130459283685429"><ele>39.333333333333336</ele><time>2026-04-29T10:16:12.001Z</time></trkpt><trkpt lat="43.65307869578969" lon="13.13068643426455"><ele>39.66666666666667</ele><time>2026-04-29T10:16:13.001Z</time></trkpt><trkpt lat="43.65317280303419" lon="13.13092059376608"><ele>40.0</ele><time>2026-04-29T10:16:14.001Z</time></trkpt><trkpt lat="43.653260897052256" lon="13.131159622429003"><ele>39.333333333333336</ele><time>2026-04-29T10:16:15.001Z</time></trkpt><trkpt lat="43.653339238333444" lon="13.131411172192774"><ele>38.666666666666664</ele><time>2026-04-29T10:16:16.001Z</time></trkpt><trkpt lat="43.65340334846702" lon="13.13167468997055"><ele>38.0</ele><time>2026-04-29T10:16:17.001Z</time></trkpt><trkpt lat="43.65345506304332" lon="13.131937435936447"><ele>38.0</ele><time>2026-04-29T10:16:18.001Z</time></trkpt><trkpt lat="43.6534924416166" lon="13.132201732760794"><ele>38.0</ele><time>2026-04-29T10:16:19.001Z</time></trkpt><trkpt lat="43.653516708913614" lon="13.13246270895865"><ele>38.0</ele><time>2026-04-29T10:16:20.001Z</time></trkpt><trkpt lat="43.65352964296686" lon="13.132719937020136"><ele>38.0</ele><time>2026-04-29T10:16:21.001Z</time></trkpt><trkpt lat="43.65353779685251" lon="13.132986256184717"><ele>38.0</ele><time>2026-04-29T10:16:22.001Z</time></trkpt><trkpt lat="43.653547755656966" lon="13.13325942241239"><ele>38.0</ele><time>2026-04-29T10:16:23.001Z</time></trkpt><trkpt lat="43.653555786402904" lon="13.133540068531614"><ele>38.0</ele><time>2026-04-29T10:16:24.001Z</time></trkpt><trkpt lat="43.653562610436715" lon="13.13382619012977"><ele>38.0</ele><time>2026-04-29T10:16:25.001Z</time></trkpt><trkpt lat="43.65356931269248" lon="13.134117160307351"><ele>38.0</ele><time>2026-04-29T10:16:26.001Z</time></trkpt><trkpt lat="43.65357723414812" lon="13.13440914031811"><ele>38.0</ele><time>2026-04-29T10:16:27.001Z</time></trkpt><trkpt lat="43.6535860718961" lon="13.13469870381878"><ele>38.0</ele><time>2026-04-29T10:16:28.001Z</time></trkpt><trkpt lat="43.65359612332573" lon="13.13497488276632"><ele>38.0</ele><time>2026-04-29T10:16:29.001Z</time></trkpt><trkpt lat="43.65360615831547" lon="13.13523912752761"><ele>37.666666666666664</ele><time>2026-04-29T10:16:30.001Z</time></trkpt><trkpt lat="43.65361565585922" lon="13.135500237965644"><ele>37.333333333333336</ele><time>2026-04-29T10:16:31.001Z</time></trkpt><trkpt lat="43.65362385881492" lon="13.135752179181436"><ele>37.0</ele><time>2026-04-29T10:16:32.001Z</time></trkpt><trkpt lat="43.65363189321773" lon="13.136005081543216"><ele>37.0</ele><time>2026-04-29T10:16:33.001Z</time></trkpt><trkpt lat="43.65363895323679" lon="13.136267959086888"><ele>37.0</ele><time>2026-04-29T10:16:34.001Z</time></trkpt><trkpt lat="43.65364381457957" lon="13.136542543425625"><ele>37.0</ele><time>2026-04-29T10:16:35.001Z</time></trkpt><trkpt lat="43.653654584068555" lon="13.136820660050732"><ele>40.0</ele><time>2026-04-29T10:16:36.001Z</time></trkpt><trkpt lat="43.653664672303336" lon="13.137094773631002"><ele>43.0</ele><time>2026-04-29T10:16:37.001Z</time></trkpt><trkpt lat="43.65367116495549" lon="13.137368281063956"><ele>46.0</ele><time>2026-04-29T10:16:38.001Z</time></trkpt><trkpt lat="43.653679867811356" lon="13.137629289644536"><ele>47.333333333333336</ele><time>2026-04-29T10:16:39.001Z</time></trkpt><trkpt lat="43.65368914001414" lon="13.1378983405873"><ele>48.66666666666667</ele><time>2026-04-29T10:16:40.001Z</time></trkpt><trkpt lat="43.653701542756764" lon="13.138180584658347"><ele>50.0</ele><time>2026-04-29T10:16:41.001Z</time></trkpt><trkpt lat="43.65371294149096" lon="13.138453398275823"><ele>51.0</ele><time>2026-04-29T10:16:42.001Z</time></trkpt><trkpt lat="43.653724732096336" lon="13.138735814076894"><ele>52.0</ele><time>2026-04-29T10:16:43.001Z</time></trkpt><trkpt lat="43.65373333701954" lon="13.1390259931818"><ele>53.0</ele><time>2026-04-29T10:16:44.001Z</time></trkpt><trkpt lat="43.65374381075897" lon="13.139325717676472"><ele>53.0</ele><time>2026-04-29T10:16:45.001Z</time></trkpt><trkpt lat="43.6537531667447" lon="13.13962662284952"><ele>53.0</ele><time>2026-04-29T10:16:46.001Z</time></trkpt><trkpt lat="43.65375946560551" lon="13.139916526976622"><ele>53.0</ele><time>2026-04-29T10:16:47.001Z</time></trkpt><trkpt lat="43.653754910747104" lon="13.140190230130752"><ele>51.66666666666667</ele><time>2026-04-29T10:16:48.001Z</time></trkpt><trkpt lat="43.65372512943503" lon="13.140446372422856"><ele>50.33333333333333</ele><time>2026-04-29T10:16:49.001Z</time></trkpt><trkpt lat="43.653660486196905" lon="13.14068251554512"><ele>49.0</ele><time>2026-04-29T10:16:50.001Z</time></trkpt><trkpt lat="43.65359384259069" lon="13.140927036587952"><ele>46.0</ele><time>2026-04-29T10:16:51.001Z</time></trkpt><trkpt lat="43.653506636579024" lon="13.14116504357086"><ele>43.0</ele><time>2026-04-29T10:16:52.001Z</time></trkpt><trkpt lat="43.6534027610682" lon="13.141397256413939"><ele>40.0</ele><time>2026-04-29T10:16:53.001Z</time></trkpt><trkpt lat="43.65328368188594" lon="13.141628446275886"><ele>40.0</ele><time>2026-04-29T10:16:54.001Z</time></trkpt><trkpt lat="43.65316904184134" lon="13.141861138407908"><ele>40.0</ele><time>2026-04-29T10:16:55.001Z</time></trkpt><trkpt lat="43.65306829850281" lon="13.142093440269269"><ele>40.0</ele><time>2026-04-29T10:16:56.001Z</time></trkpt><trkpt lat="43.65297768288391" lon="13.142319284216084"><ele>39.0</ele><time>2026-04-29T10:16:57.001Z</time></trkpt><trkpt lat="43.652896274986304" lon="13.142547965834318"><ele>38.0</ele><time>2026-04-29T10:16:58.001Z</time></trkpt><trkpt lat="43.65282143245022" lon="13.142787259202837"><ele>37.0</ele><time>2026-04-29T10:16:59.001Z</time></trkpt><trkpt lat="43.65275959369063" lon="13.143029391461054"><ele>36.333333333333336</ele><time>2026-04-29T10:17:00.001Z</time></trkpt><trkpt lat="43.652712694294735" lon="13.143270299835446"><ele>35.666666666666664</ele><time>2026-04-29T10:17:01.001Z</time></trkpt><trkpt lat="43.65267227837737" lon="13.14352857458347"><ele>35.0</ele><time>2026-04-29T10:17:02.001Z</time></trkpt><trkpt lat="43.65263381430188" lon="13.14379994246654"><ele>35.33333333333333</ele><time>2026-04-29T10:17:03.001Z</time></trkpt><trkpt lat="43.652597550031054" lon="13.144071478194004"><ele>35.666666666666664</ele><time>2026-04-29T10:17:04.001Z</time></trkpt><trkpt lat="43.65256171790926" lon="13.144343928315829"><ele>36.0</ele><time>2026-04-29T10:17:05.001Z</time></trkpt><trkpt lat="43.65252458082682" lon="13.144610395713308"><ele>36.0</ele><time>2026-04-29T10:17:06.001Z</time></trkpt><trkpt lat="43.65248572436045" lon="13.144868848398461"><ele>36.0</ele><time>2026-04-29T10:17:07Z</time></trkpt><trkpt lat="43.65244641010745" lon="13.145123803692227"><ele>36.0</ele><time>2026-04-29T10:17:08Z</time></trkpt><trkpt lat="43.65240332110942" lon="13.145375876609242"><ele>36.666666666666664</ele><time>2026-04-29T10:17:09Z</time></trkpt><trkpt lat="43.652353996301535" lon="13.145628224732432"><ele>37.33333333333333</ele><time>2026-04-29T10:17:10Z</time></trkpt><trkpt lat="43.6522982406166" lon="13.145887211397241"><ele>38.0</ele><time>2026-04-29T10:17:11Z</time></trkpt><trkpt lat="43.65223649520876" lon="13.146150235741546"><ele>38.0</ele><time>2026-04-29T10:17:12Z</time></trkpt><trkpt lat="43.65216962790925" lon="13.146415278905096"><ele>38.0</ele><time>2026-04-29T10:17:13Z</time></trkpt><trkpt lat="43.6521024393902" lon="13.146686064779066"><ele>38.0</ele><time>2026-04-29T10:17:14Z</time></trkpt><trkpt lat="43.652034316674865" lon="13.146953568499297"><ele>37.33333333333333</ele><time>2026-04-29T10:17:15Z</time></trkpt><trkpt lat="43.651969894939526" lon="13.147219473079423"><ele>36.666666666666664</ele><time>2026-04-29T10:17:16Z</time></trkpt><trkpt lat="43.65190483627587" lon="13.147472829290937"><ele>36.0</ele><time>2026-04-29T10:17:17Z</time></trkpt><trkpt lat="43.65184728099771" lon="13.147712433641981"><ele>36.0</ele><time>2026-04-29T10:17:18Z</time></trkpt><trkpt lat="43.65181056616027" lon="13.14792380056048"><ele>36.0</ele><time>2026-04-29T10:17:19Z</time></trkpt><trkpt lat="43.65178866971144" lon="13.148125486979957"><ele>36.0</ele><time>2026-04-29T10:17:20Z</time></trkpt><trkpt lat="43.65178053253982" lon="13.148317278862766"><ele>36.0</ele><time>2026-04-29T10:17:21Z</time></trkpt><trkpt lat="43.65178217261922" lon="13.148492055399004"><ele>36.2</ele><time>2026-04-29T10:17:22Z</time></trkpt><trkpt lat="43.65177687965515" lon="13.148637331352463"><ele>36.400000000000006</ele><time>2026-04-29T10:17:23Z</time></trkpt><trkpt lat="43.65176247656628" lon="13.148755984163511"><ele>36.6</ele><time>2026-04-29T10:17:24Z</time></trkpt><trkpt lat="43.651728742040596" lon="13.1488494219583"><ele>36.800000000000004</ele><time>2026-04-29T10:17:25Z</time></trkpt><trkpt lat="43.65169031519763" lon="13.148945738888882"><ele>37.0</ele><time>2026-04-29T10:17:26Z</time></trkpt><trkpt lat="43.65159932513101" lon="13.14901886504194"><ele>36.2</ele><time>2026-04-29T10:17:27Z</time></trkpt><trkpt lat="43.65153764729682" lon="13.149134032655851"><ele>35.400000000000006</ele><time>2026-04-29T10:17:28Z</time></trkpt><trkpt lat="43.65151087695417" lon="13.14926088095941"><ele>34.599999999999994</ele><time>2026-04-29T10:17:29Z</time></trkpt><trkpt lat="43.651536062915255" lon="13.149381512596875"><ele>33.8</ele><time>2026-04-29T10:17:30Z</time></trkpt><trkpt lat="43.651576966773504" lon="13.149489083821116"><ele>33.0</ele><time>2026-04-29T10:17:31Z</time></trkpt><trkpt lat="43.651667411098366" lon="13.149551964276283"><ele>33.0</ele><time>2026-04-29T10:17:32Z</time></trkpt><trkpt lat="43.651778846128714" lon="13.149549644638807"><ele>33.0</ele><time>2026-04-29T10:17:33Z</time></trkpt><trkpt lat="43.65190065349683" lon="13.14954640113684"><ele>33.0</ele><time>2026-04-29T10:17:34Z</time></trkpt><trkpt lat="43.65202911823055" lon="13.14955709559818"><ele>33.0</ele><time>2026-04-29T10:17:35Z</time></trkpt><trkpt lat="43.65216096196054" lon="13.14958314325469"><ele>33.0</ele><time>2026-04-29T10:17:36Z</time></trkpt><trkpt lat="43.65230123372036" lon="13.149714792340063"><ele>33.0</ele><time>2026-04-29T10:17:37Z</time></trkpt><trkpt lat="43.65245439498219" lon="13.149849064875726"><ele>33.0</ele><time>2026-04-29T10:17:38Z</time></trkpt><trkpt lat="43.65261943934414" lon="13.149987211223852"><ele>33.0</ele><time>2026-04-29T10:17:39Z</time></trkpt><trkpt lat="43.65278174265144" lon="13.150118289568532"><ele>33.0</ele><time>2026-04-29T10:17:40Z</time></trkpt><trkpt lat="43.65294656016352" lon="13.15024898589023"><ele>33.0</ele><time>2026-04-29T10:17:41Z</time></trkpt><trkpt lat="43.65311598373313" lon="13.150384024807522"><ele>33.0</ele><time>2026-04-29T10:17:42.001Z</time></trkpt><trkpt lat="43.653290199083166" lon="13.150522220402864"><ele>33.0</ele><time>2026-04-29T10:17:43.001Z</time></trkpt><trkpt lat="43.65345835034563" lon="13.150652526508452"><ele>33.0</ele><time>2026-04-29T10:17:44.001Z</time></trkpt><trkpt lat="43.653625936726655" lon="13.1507801542792"><ele>32.333333333333336</ele><time>2026-04-29T10:17:45.001Z</time></trkpt><trkpt lat="43.65378148546156" lon="13.150909486455573"><ele>31.666666666666668</ele><time>2026-04-29T10:17:46.001Z</time></trkpt><trkpt lat="43.653934563342695" lon="13.151049915899256"><ele>31.0</ele><time>2026-04-29T10:17:47.001Z</time></trkpt><trkpt lat="43.65408365132914" lon="13.151209555981962"><ele>31.0</ele><time>2026-04-29T10:17:48.001Z</time></trkpt><trkpt lat="43.65422652587381" lon="13.151381090568101"><ele>31.0</ele><time>2026-04-29T10:17:49.001Z</time></trkpt><trkpt lat="43.654355848229066" lon="13.151567741024282"><ele>31.0</ele><time>2026-04-29T10:17:50.001Z</time></trkpt><trkpt lat="43.65447373934049" lon="13.151770410131773"><ele>32.0</ele><time>2026-04-29T10:17:51.001Z</time></trkpt><trkpt lat="43.65458667650971" lon="13.151984134175557"><ele>33.0</ele><time>2026-04-29T10:17:52.001Z</time></trkpt><trkpt lat="43.65470005432726" lon="13.152195414184565"><ele>34.0</ele><time>2026-04-29T10:17:53.001Z</time></trkpt><trkpt lat="43.65481841713026" lon="13.152405813052535"><ele>34.0</ele><time>2026-04-29T10:17:54.001Z</time></trkpt><trkpt lat="43.65493230054485" lon="13.152602005275542"><ele>34.0</ele><time>2026-04-29T10:17:55.001Z</time></trkpt><trkpt lat="43.655041532628445" lon="13.15279346662101"><ele>34.0</ele><time>2026-04-29T10:17:56.001Z</time></trkpt><trkpt lat="43.65514435563069" lon="13.152978610376664"><ele>34.0</ele><time>2026-04-29T10:17:57.001Z</time></trkpt><trkpt lat="43.65524910222235" lon="13.153160293559877"><ele>34.0</ele><time>2026-04-29T10:17:58.001Z</time></trkpt><trkpt lat="43.65535587834597" lon="13.153340445093496"><ele>34.0</ele><time>2026-04-29T10:17:59.001Z</time></trkpt><trkpt lat="43.65546440654055" lon="13.153521880146315"><ele>34.0</ele><time>2026-04-29T10:18:00.001Z</time></trkpt><trkpt lat="43.655578489140616" lon="13.15370047706256"><ele>34.0</ele><time>2026-04-29T10:18:01.001Z</time></trkpt><trkpt lat="43.65570038581609" lon="13.153879724708172"><ele>34.0</ele><time>2026-04-29T10:18:02.001Z</time></trkpt><trkpt lat="43.655833781488205" lon="13.154053662417873"><ele>31.666666666666668</ele><time>2026-04-29T10:18:03.001Z</time></trkpt><trkpt lat="43.655982866160606" lon="13.154206315292873"><ele>29.333333333333336</ele><time>2026-04-29T10:18:04.001Z</time></trkpt><trkpt lat="43.656148178995096" lon="13.154344793083556"><ele>27.0</ele><time>2026-04-29T10:18:05.001Z</time></trkpt><trkpt lat="43.656312653455934" lon="13.154481126691039"><ele>27.0</ele><time>2026-04-29T10:18:06.001Z</time></trkpt><trkpt lat="43.656465287927645" lon="13.154607063425638"><ele>27.0</ele><time>2026-04-29T10:18:07.001Z</time></trkpt><trkpt lat="43.656606630923896" lon="13.154723679878472"><ele>27.0</ele><time>2026-04-29T10:18:08.001Z</time></trkpt><trkpt lat="43.65675360329993" lon="13.15484538180714"><ele>26.333333333333336</ele><time>2026-04-29T10:18:09.001Z</time></trkpt><trkpt lat="43.65689999457275" lon="13.15496534423307"><ele>25.666666666666668</ele><time>2026-04-29T10:18:10.001Z</time></trkpt><trkpt lat="43.65705427239834" lon="13.155089261713528"><ele>25.0</ele><time>2026-04-29T10:18:11.001Z</time></trkpt><trkpt lat="43.65721465482356" lon="13.15521928642173"><ele>25.0</ele><time>2026-04-29T10:18:12.001Z</time></trkpt><trkpt lat="43.65737430247398" lon="13.155350708167065"><ele>25.0</ele><time>2026-04-29T10:18:13.001Z</time></trkpt><trkpt lat="43.65753250100449" lon="13.155482732624804"><ele>25.0</ele><time>2026-04-29T10:18:14.001Z</time></trkpt><trkpt lat="43.65769290274963" lon="13.155620244796852"><ele>25.333333333333336</ele><time>2026-04-29T10:18:15.001Z</time></trkpt><trkpt lat="43.6578524019756" lon="13.155758570925999"><ele>25.666666666666664</ele><time>2026-04-29T10:18:16.001Z</time></trkpt><trkpt lat="43.658006754927854" lon="13.1558907724701"><ele>26.0</ele><time>2026-04-29T10:18:17.001Z</time></trkpt><trkpt lat="43.658162902455345" lon="13.15602437071099"><ele>26.0</ele><time>2026-04-29T10:18:18.001Z</time></trkpt><trkpt lat="43.65832206456555" lon="13.156158331198768"><ele>26.0</ele><time>2026-04-29T10:18:19.001Z</time></trkpt><trkpt lat="43.658485076357316" lon="13.156294012613115"><ele>26.0</ele><time>2026-04-29T10:18:20.001Z</time></trkpt><trkpt lat="43.65864030010907" lon="13.1564251981424"><ele>25.666666666666664</ele><time>2026-04-29T10:18:21.001Z</time></trkpt><trkpt lat="43.658799502083966" lon="13.156556557483176"><ele>25.333333333333336</ele><time>2026-04-29T10:18:22.001Z</time></trkpt><trkpt lat="43.65895376032681" lon="13.156683133138845"><ele>25.0</ele><time>2026-04-29T10:18:23.001Z</time></trkpt><trkpt lat="43.65911288857925" lon="13.156801277021483"><ele>25.0</ele><time>2026-04-29T10:18:24.001Z</time></trkpt><trkpt lat="43.65926939711652" lon="13.156894730305247"><ele>25.0</ele><time>2026-04-29T10:18:25.001Z</time></trkpt><trkpt lat="43.659424583656595" lon="13.156961228770632"><ele>25.0</ele><time>2026-04-29T10:18:26.001Z</time></trkpt><trkpt lat="43.65958027149872" lon="13.157005941932411"><ele>25.333333333333336</ele><time>2026-04-29T10:18:27.001Z</time></trkpt><trkpt lat="43.659744901741945" lon="13.157035055167153"><ele>25.666666666666664</ele><time>2026-04-29T10:18:28.001Z</time></trkpt><trkpt lat="43.65991078283973" lon="13.157041189522436"><ele>26.0</ele><time>2026-04-29T10:18:29.001Z</time></trkpt><trkpt lat="43.6600752002945" lon="13.157024383246334"><ele>26.0</ele><time>2026-04-29T10:18:30.001Z</time></trkpt><trkpt lat="43.66024168553699" lon="13.156983875371056"><ele>26.0</ele><time>2026-04-29T10:18:31.001Z</time></trkpt><trkpt lat="43.66040527567806" lon="13.156921658226823"><ele>26.0</ele><time>2026-04-29T10:18:32.001Z</time></trkpt><trkpt lat="43.660568277706645" lon="13.156839282456215"><ele>26.0</ele><time>2026-04-29T10:18:33.001Z</time></trkpt><trkpt lat="43.66072898726" lon="13.156744573191077"><ele>26.0</ele><time>2026-04-29T10:18:34.001Z</time></trkpt><trkpt lat="43.66089466127866" lon="13.156647071186525"><ele>26.0</ele><time>2026-04-29T10:18:35.001Z</time></trkpt><trkpt lat="43.66105846971107" lon="13.15654400306572"><ele>27.0</ele><time>2026-04-29T10:18:36.001Z</time></trkpt><trkpt lat="43.66122270443835" lon="13.156439441127482"><ele>28.0</ele><time>2026-04-29T10:18:37.001Z</time></trkpt><trkpt lat="43.6613895766512" lon="13.156334065049458"><ele>29.0</ele><time>2026-04-29T10:18:38.001Z</time></trkpt><trkpt lat="43.661555400453686" lon="13.156230295722755"><ele>29.0</ele><time>2026-04-29T10:18:39.001Z</time></trkpt><trkpt lat="43.66171356502596" lon="13.156132194043469"><ele>29.0</ele><time>2026-04-29T10:18:40.001Z</time></trkpt><trkpt lat="43.66186165520264" lon="13.15603993544715"><ele>29.0</ele><time>2026-04-29T10:18:41.001Z</time></trkpt><trkpt lat="43.662001826646375" lon="13.15595224830233"><ele>29.0</ele><time>2026-04-29T10:18:42.001Z</time></trkpt><trkpt lat="43.66214003620339" lon="13.155870072092453"><ele>29.0</ele><time>2026-04-29T10:18:43.001Z</time></trkpt><trkpt lat="43.66228035135711" lon="13.155782574491512"><ele>29.0</ele><time>2026-04-29T10:18:44.001Z</time></trkpt><trkpt lat="43.66241275520861" lon="13.155695362729674"><ele>29.0</ele><time>2026-04-29T10:18:45.001Z</time></trkpt><trkpt lat="43.66255567932235" lon="13.15560401691504"><ele>29.0</ele><time>2026-04-29T10:18:46.001Z</time></trkpt><trkpt lat="43.662693156042245" lon="13.155518819780948"><ele>29.0</ele><time>2026-04-29T10:18:47.001Z</time></trkpt><trkpt lat="43.66283398785001" lon="13.15543934623172"><ele>29.5</ele><time>2026-04-29T10:18:48.001Z</time></trkpt><trkpt lat="43.66296939222304" lon="13.155364292037898"><ele>30.0</ele><time>2026-04-29T10:18:49.001Z</time></trkpt><trkpt lat="43.663104412475356" lon="13.15529595987866"><ele>30.5</ele><time>2026-04-29T10:18:50.001Z</time></trkpt><trkpt lat="43.66324466576592" lon="13.15523878941472"><ele>31.0</ele><time>2026-04-29T10:18:51.001Z</time></trkpt><trkpt lat="43.6633883775776" lon="13.155207000110483"><ele>31.0</ele><time>2026-04-29T10:18:52.001Z</time></trkpt><trkpt lat="43.663529622291875" lon="13.155191254816764"><ele>31.0</ele><time>2026-04-29T10:18:53.001Z</time></trkpt><trkpt lat="43.663665913126344" lon="13.155195813820495"><ele>31.0</ele><time>2026-04-29T10:18:54.001Z</time></trkpt><trkpt lat="43.663803805628156" lon="13.155210513556684"><ele>31.0</ele><time>2026-04-29T10:18:55.001Z</time></trkpt><trkpt lat="43.66394467955485" lon="13.155239293418747"><ele>31.75</ele><time>2026-04-29T10:18:56.001Z</time></trkpt><trkpt lat="43.66407668866926" lon="13.15528209672706"><ele>32.5</ele><time>2026-04-29T10:18:57.001Z</time></trkpt><trkpt lat="43.66420197935075" lon="13.155338014692596"><ele>33.25</ele><time>2026-04-29T10:18:58.001Z</time></trkpt><trkpt lat="43.66432575191605" lon="13.155398239520315"><ele>34.0</ele><time>2026-04-29T10:18:59.001Z</time></trkpt><trkpt lat="43.664450042355654" lon="13.155469400506831"><ele>34.25</ele><time>2026-04-29T10:19:00.001Z</time></trkpt><trkpt lat="43.66457174140923" lon="13.155551970299681"><ele>34.5</ele><time>2026-04-29T10:19:01.001Z</time></trkpt><trkpt lat="43.66469264399803" lon="13.155633420423747"><ele>34.75</ele><time>2026-04-29T10:19:02.001Z</time></trkpt><trkpt lat="43.664808958940945" lon="13.155712920957495"><ele>35.0</ele><time>2026-04-29T10:19:03.001Z</time></trkpt><trkpt lat="43.66492398099263" lon="13.155796565284373"><ele>34.0</ele><time>2026-04-29T10:19:04.001Z</time></trkpt><trkpt lat="43.66504689210299" lon="13.155885191596953"><ele>33.0</ele><time>2026-04-29T10:19:05.001Z</time></trkpt><trkpt lat="43.665165221320294" lon="13.155963639437608"><ele>32.0</ele><time>2026-04-29T10:19:06.001Z</time></trkpt><trkpt lat="43.665284648301714" lon="13.156028711834015"><ele>31.0</ele><time>2026-04-29T10:19:07.001Z</time></trkpt><trkpt lat="43.665407434345596" lon="13.156082096573154"><ele>30.25</ele><time>2026-04-29T10:19:08.001Z</time></trkpt><trkpt lat="43.66553291304047" lon="13.156130721616938"><ele>29.5</ele><time>2026-04-29T10:19:09.001Z</time></trkpt><trkpt lat="43.66566291955167" lon="13.156174084550369"><ele>28.75</ele><time>2026-04-29T10:19:10.001Z</time></trkpt><trkpt lat="43.66579760461153" lon="13.156210857190615"><ele>28.0</ele><time>2026-04-29T10:19:11.001Z</time></trkpt><trkpt lat="43.66593071201545" lon="13.156237121518195"><ele>28.0</ele><time>2026-04-29T10:19:12.001Z</time></trkpt><trkpt lat="43.66606579606689" lon="13.156249094042488"><ele>28.0</ele><time>2026-04-29T10:19:13.001Z</time></trkpt><trkpt lat="43.666206539418354" lon="13.156242102564711"><ele>28.0</ele><time>2026-04-29T10:19:14.001Z</time></trkpt><trkpt lat="43.666344971557045" lon="13.156230963215359"><ele>28.0</ele><time>2026-04-29T10:19:15.001Z</time></trkpt><trkpt lat="43.66648203152304" lon="13.156219220230284"><ele>28.25</ele><time>2026-04-29T10:19:16.001Z</time></trkpt><trkpt lat="43.666621262729514" lon="13.156206166289634"><ele>28.5</ele><time>2026-04-29T10:19:17.001Z</time></trkpt><trkpt lat="43.66676234016748" lon="13.156188836739016"><ele>28.75</ele><time>2026-04-29T10:19:18Z</time></trkpt><trkpt lat="43.66689646702998" lon="13.156171742361026"><ele>29.0</ele><time>2026-04-29T10:19:19Z</time></trkpt><trkpt lat="43.6670285089556" lon="13.156157872993006"><ele>29.0</ele><time>2026-04-29T10:19:20Z</time></trkpt><trkpt lat="43.66716626393424" lon="13.156140193446774"><ele>29.0</ele><time>2026-04-29T10:19:21Z</time></trkpt><trkpt lat="43.66731558879514" lon="13.156120425635143"><ele>29.0</ele><time>2026-04-29T10:19:22Z</time></trkpt><trkpt lat="43.66747055212422" lon="13.156104046552512"><ele>29.0</ele><time>2026-04-29T10:19:23Z</time></trkpt><trkpt lat="43.66763357487519" lon="13.156091604407438"><ele>30.0</ele><time>2026-04-29T10:19:24Z</time></trkpt><trkpt lat="43.66779829660876" lon="13.156086069238883"><ele>31.0</ele><time>2026-04-29T10:19:25Z</time></trkpt><trkpt lat="43.66796350616097" lon="13.15609618451352"><ele>32.0</ele><time>2026-04-29T10:19:26Z</time></trkpt><trkpt lat="43.66812641816226" lon="13.156127955699203"><ele>32.0</ele><time>2026-04-29T10:19:27Z</time></trkpt><trkpt lat="43.66828612001212" lon="13.156186524225769"><ele>32.0</ele><time>2026-04-29T10:19:28Z</time></trkpt><trkpt lat="43.66843409568302" lon="13.156271432500061"><ele>32.0</ele><time>2026-04-29T10:19:29Z</time></trkpt><trkpt lat="43.668574194952505" lon="13.156369617974445"><ele>32.75</ele><time>2026-04-29T10:19:30Z</time></trkpt><trkpt lat="43.668700434255285" lon="13.156476207284264"><ele>33.5</ele><time>2026-04-29T10:19:31Z</time></trkpt><trkpt lat="43.66881893580927" lon="13.15659776574025"><ele>34.25</ele><time>2026-04-29T10:19:32Z</time></trkpt><trkpt lat="43.66892606467075" lon="13.156729590363769"><ele>35.0</ele><time>2026-04-29T10:19:33Z</time></trkpt><trkpt lat="43.6690321602187" lon="13.156881684379348"><ele>33.5</ele><time>2026-04-29T10:19:34Z</time></trkpt><trkpt lat="43.66912790287183" lon="13.157027877069368"><ele>32.0</ele><time>2026-04-29T10:19:35Z</time></trkpt><trkpt lat="43.6692182796478" lon="13.157170575477735"><ele>30.5</ele><time>2026-04-29T10:19:36Z</time></trkpt><trkpt lat="43.66931054059266" lon="13.15731758993991"><ele>29.0</ele><time>2026-04-29T10:19:37Z</time></trkpt><trkpt lat="43.66940478487156" lon="13.157472313212798"><ele>30.333333333333332</ele><time>2026-04-29T10:19:38Z</time></trkpt><trkpt lat="43.66950059996498" lon="13.157630404595146"><ele>31.666666666666664</ele><time>2026-04-29T10:19:39Z</time></trkpt><trkpt lat="43.6695992689439" lon="13.157791661168378"><ele>33.0</ele><time>2026-04-29T10:19:40Z</time></trkpt><trkpt lat="43.66970234496657" lon="13.15795832815916"><ele>33.0</ele><time>2026-04-29T10:19:41Z</time></trkpt><trkpt lat="43.669804885592534" lon="13.158125948307992"><ele>33.0</ele><time>2026-04-29T10:19:42Z</time></trkpt><trkpt lat="43.66991267772555" lon="13.15831045333932"><ele>33.0</ele><time>2026-04-29T10:19:43Z</time></trkpt><trkpt lat="43.67002200096918" lon="13.158494957256886"><ele>32.666666666666664</ele><time>2026-04-29T10:19:44Z</time></trkpt><trkpt lat="43.67013304579138" lon="13.15867747886141"><ele>32.33333333333333</ele><time>2026-04-29T10:19:45Z</time></trkpt><trkpt lat="43.67024231393368" lon="13.158853638369418"><ele>32.0</ele><time>2026-04-29T10:19:46Z</time></trkpt><trkpt lat="43.67034887986956" lon="13.1590210510441"><ele>31.333333333333332</ele><time>2026-04-29T10:19:47Z</time></trkpt><trkpt lat="43.67045392652616" lon="13.159191971582052"><ele>30.666666666666664</ele><time>2026-04-29T10:19:48Z</time></trkpt><trkpt lat="43.67055154297696" lon="13.159359598658288"><ele>30.0</ele><time>2026-04-29T10:19:49Z</time></trkpt><trkpt lat="43.67065239446056" lon="13.159526228174641"><ele>30.0</ele><time>2026-04-29T10:19:50Z</time></trkpt><trkpt lat="43.67075936761966" lon="13.159688412398555"><ele>30.0</ele><time>2026-04-29T10:19:51Z</time></trkpt><trkpt lat="43.67087091967227" lon="13.159835132554594"><ele>30.0</ele><time>2026-04-29T10:19:52Z</time></trkpt><trkpt lat="43.67098125549455" lon="13.159973166715526"><ele>30.25</ele><time>2026-04-29T10:19:53Z</time></trkpt><trkpt lat="43.671094477070426" lon="13.160102216086353"><ele>30.5</ele><time>2026-04-29T10:19:54Z</time></trkpt><trkpt lat="43.6712103800782" lon="13.160216724459767"><ele>30.75</ele><time>2026-04-29T10:19:55Z</time></trkpt><trkpt lat="43.671329976507245" lon="13.160332966891302"><ele>31.0</ele><time>2026-04-29T10:19:56Z</time></trkpt><trkpt lat="43.67145603867902" lon="13.16044459126582"><ele>31.0</ele><time>2026-04-29T10:19:57.001Z</time></trkpt><trkpt lat="43.671584265396504" lon="13.160553569668226"><ele>31.0</ele><time>2026-04-29T10:19:58.001Z</time></trkpt><trkpt lat="43.6717097797617" lon="13.160653873626043"><ele>31.0</ele><time>2026-04-29T10:19:59.001Z</time></trkpt><trkpt lat="43.67182862961295" lon="13.160746611050168"><ele>31.0</ele><time>2026-04-29T10:20:00.001Z</time></trkpt><trkpt lat="43.67194403831728" lon="13.160840599559275"><ele>29.75</ele><time>2026-04-29T10:20:01.001Z</time></trkpt><trkpt lat="43.67205854242316" lon="13.160935113671151"><ele>28.5</ele><time>2026-04-29T10:20:02.001Z</time></trkpt><trkpt lat="43.67216758067839" lon="13.161023418879068"><ele>27.25</ele><time>2026-04-29T10:20:03.001Z</time></trkpt><trkpt lat="43.67227678272763" lon="13.161109966141144"><ele>26.0</ele><time>2026-04-29T10:20:04.001Z</time></trkpt><trkpt lat="43.672387070701305" lon="13.161198129078306"><ele>26.0</ele><time>2026-04-29T10:20:05.001Z</time></trkpt><trkpt lat="43.67249772051265" lon="13.161285690747647"><ele>26.0</ele><time>2026-04-29T10:20:06.001Z</time></trkpt><trkpt lat="43.67260896664161" lon="13.161375435648393"><ele>26.0</ele><time>2026-04-29T10:20:07.001Z</time></trkpt><trkpt lat="43.67272357461153" lon="13.161467079258069"><ele>26.0</ele><time>2026-04-29T10:20:08.001Z</time></trkpt><trkpt lat="43.672846711677145" lon="13.161564935053999"><ele>25.333333333333332</ele><time>2026-04-29T10:20:09.001Z</time></trkpt><trkpt lat="43.67297660092985" lon="13.161668850974344"><ele>24.666666666666664</ele><time>2026-04-29T10:20:10.001Z</time></trkpt><trkpt lat="43.673111151309534" lon="13.16177539876899"><ele>24.0</ele><time>2026-04-29T10:20:11.001Z</time></trkpt><trkpt lat="43.673248084216276" lon="13.161886951723886"><ele>24.0</ele><time>2026-04-29T10:20:12.001Z</time></trkpt><trkpt lat="43.673386384974634" lon="13.16199474156072"><ele>24.0</ele><time>2026-04-29T10:20:13.001Z</time></trkpt><trkpt lat="43.67353068385062" lon="13.162100801009537"><ele>24.0</ele><time>2026-04-29T10:20:14.001Z</time></trkpt><trkpt lat="43.67368550091271" lon="13.16220632357564"><ele>23.666666666666668</ele><time>2026-04-29T10:20:15.001Z</time></trkpt><trkpt lat="43.67384437975744" lon="13.162351407464984"><ele>23.333333333333336</ele><time>2026-04-29T10:20:16.001Z</time></trkpt><trkpt lat="43.67401865163377" lon="13.16248986625494"><ele>23.0</ele><time>2026-04-29T10:20:17.001Z</time></trkpt><trkpt lat="43.67419927658393" lon="13.162634723142828"><ele>23.333333333333336</ele><time>2026-04-29T10:20:18.001Z</time></trkpt><trkpt lat="43.674378231674936" lon="13.162778241412328"><ele>23.666666666666668</ele><time>2026-04-29T10:20:19.001Z</time></trkpt><trkpt lat="43.674563177436205" lon="13.162910175156956"><ele>24.0</ele><time>2026-04-29T10:20:20.001Z</time></trkpt><trkpt lat="43.674728181268115" lon="13.163043939861916"><ele>24.0</ele><time>2026-04-29T10:20:21.001Z</time></trkpt><trkpt lat="43.67488089130941" lon="13.163164685785128"><ele>24.0</ele><time>2026-04-29T10:20:22.001Z</time></trkpt><trkpt lat="43.675034459173354" lon="13.163282749420246"><ele>24.0</ele><time>2026-04-29T10:20:23.001Z</time></trkpt><trkpt lat="43.675193049721265" lon="13.163422632361277"><ele>24.666666666666664</ele><time>2026-04-29T10:20:24.001Z</time></trkpt><trkpt lat="43.675366902288054" lon="13.163562286133821"><ele>25.333333333333332</ele><time>2026-04-29T10:20:25.001Z</time></trkpt><trkpt lat="43.67555425613907" lon="13.163691275363664"><ele>26.0</ele><time>2026-04-29T10:20:26.001Z</time></trkpt><trkpt lat="43.67573218818531" lon="13.163857314124005"><ele>25.0</ele><time>2026-04-29T10:20:27.001Z</time></trkpt><trkpt lat="43.67591473899701" lon="13.164042947034613"><ele>24.0</ele><time>2026-04-29T10:20:28.001Z</time></trkpt><trkpt lat="43.67609369001929" lon="13.16422713596514"><ele>25.666666666666664</ele><time>2026-04-29T10:20:29.001Z</time></trkpt><trkpt lat="43.67626261371444" lon="13.164418736653465"><ele>27.333333333333332</ele><time>2026-04-29T10:20:30.001Z</time></trkpt><trkpt lat="43.67641462118802" lon="13.164617173981618"><ele>29.0</ele><time>2026-04-29T10:20:31.001Z</time></trkpt><trkpt lat="43.676556992617776" lon="13.164819692993223"><ele>29.0</ele><time>2026-04-29T10:20:32.001Z</time></trkpt><trkpt lat="43.676696920558335" lon="13.165030489322492"><ele>29.0</ele><time>2026-04-29T10:20:33.001Z</time></trkpt><trkpt lat="43.676834073645466" lon="13.1652474474734"><ele>29.0</ele><time>2026-04-29T10:20:34.001Z</time></trkpt><trkpt lat="43.67696527926031" lon="13.165463878388113"><ele>29.0</ele><time>2026-04-29T10:20:35.001Z</time></trkpt><trkpt lat="43.677091339220624" lon="13.165672267268038"><ele>29.0</ele><time>2026-04-29T10:20:36.001Z</time></trkpt><trkpt lat="43.677216937410776" lon="13.165879780768586"><ele>29.0</ele><time>2026-04-29T10:20:37.001Z</time></trkpt><trkpt lat="43.677340229882084" lon="13.166081848521037"><ele>29.0</ele><time>2026-04-29T10:20:38.001Z</time></trkpt><trkpt lat="43.67745458106238" lon="13.166275270077772"><ele>29.0</ele><time>2026-04-29T10:20:39.001Z</time></trkpt><trkpt lat="43.6775687332965" lon="13.166469465204772"><ele>29.0</ele><time>2026-04-29T10:20:40.001Z</time></trkpt><trkpt lat="43.67768174994005" lon="13.166659223160302"><ele>31.0</ele><time>2026-04-29T10:20:41.001Z</time></trkpt><trkpt lat="43.67779744076248" lon="13.166844868436197"><ele>33.0</ele><time>2026-04-29T10:20:42.001Z</time></trkpt><trkpt lat="43.67791458041921" lon="13.167028365440801"><ele>35.0</ele><time>2026-04-29T10:20:43.001Z</time></trkpt><trkpt lat="43.67803279800233" lon="13.167210392304028"><ele>33.33333333333333</ele><time>2026-04-29T10:20:44.001Z</time></trkpt><trkpt lat="43.678154310272525" lon="13.167390843133768"><ele>31.666666666666664</ele><time>2026-04-29T10:20:45.001Z</time></trkpt><trkpt lat="43.67828082640569" lon="13.167562142843739"><ele>30.0</ele><time>2026-04-29T10:20:46.001Z</time></trkpt><trkpt lat="43.67841563634123" lon="13.167732715635715"><ele>30.0</ele><time>2026-04-29T10:20:47.001Z</time></trkpt><trkpt lat="43.678558570677396" lon="13.167901342914437"><ele>30.0</ele><time>2026-04-29T10:20:48.001Z</time></trkpt><trkpt lat="43.67870746235656" lon="13.168074969694457"><ele>30.0</ele><time>2026-04-29T10:20:49.001Z</time></trkpt><trkpt lat="43.678862722350864" lon="13.16824569364468"><ele>31.0</ele><time>2026-04-29T10:20:50.001Z</time></trkpt><trkpt lat="43.679015886217826" lon="13.16841495408236"><ele>32.0</ele><time>2026-04-29T10:20:51.001Z</time></trkpt><trkpt lat="43.67916832182961" lon="13.1685840554339"><ele>33.0</ele><time>2026-04-29T10:20:52.001Z</time></trkpt><trkpt lat="43.67931418428816" lon="13.168744488546155"><ele>31.333333333333336</ele><time>2026-04-29T10:20:53.001Z</time></trkpt><trkpt lat="43.67946325317639" lon="13.16890864580924"><ele>29.666666666666668</ele><time>2026-04-29T10:20:54.001Z</time></trkpt><trkpt lat="43.679618183166475" lon="13.16907668911901"><ele>28.0</ele><time>2026-04-29T10:20:55.001Z</time></trkpt><trkpt lat="43.67978074220843" lon="13.169240992713771"><ele>28.0</ele><time>2026-04-29T10:20:56.001Z</time></trkpt><trkpt lat="43.67994864930445" lon="13.169409278526365"><ele>28.0</ele><time>2026-04-29T10:20:57.001Z</time></trkpt><trkpt lat="43.680123469099705" lon="13.169567221008412"><ele>28.0</ele><time>2026-04-29T10:20:58.001Z</time></trkpt><trkpt lat="43.680300988703564" lon="13.169708767410444"><ele>27.666666666666668</ele><time>2026-04-29T10:20:59.001Z</time></trkpt><trkpt lat="43.68047346777875" lon="13.169833630828608"><ele>27.333333333333336</ele><time>2026-04-29T10:21:00.001Z</time></trkpt><trkpt lat="43.68064465982685" lon="13.16994589775034"><ele>27.0</ele><time>2026-04-29T10:21:01.001Z</time></trkpt><trkpt lat="43.680821348675615" lon="13.170049370462493"><ele>27.0</ele><time>2026-04-29T10:21:02.001Z</time></trkpt><trkpt lat="43.68099580937991" lon="13.170151427414256"><ele>27.0</ele><time>2026-04-29T10:21:03.001Z</time></trkpt><trkpt lat="43.68116418054103" lon="13.170243133817435"><ele>27.0</ele><time>2026-04-29T10:21:04.001Z</time></trkpt><trkpt lat="43.68132257865006" lon="13.170342020492221"><ele>28.666666666666664</ele><time>2026-04-29T10:21:05.001Z</time></trkpt><trkpt lat="43.681472682327644" lon="13.170444027343173"><ele>30.333333333333332</ele><time>2026-04-29T10:21:06.001Z</time></trkpt><trkpt lat="43.68162089045508" lon="13.170540368001395"><ele>32.0</ele><time>2026-04-29T10:21:07.001Z</time></trkpt><trkpt lat="43.681778718946276" lon="13.170648695249515"><ele>31.333333333333332</ele><time>2026-04-29T10:21:08.001Z</time></trkpt><trkpt lat="43.68192950990256" lon="13.170763720958497"><ele>30.666666666666664</ele><time>2026-04-29T10:21:09.001Z</time></trkpt><trkpt lat="43.682073907349185" lon="13.170886843671449"><ele>30.0</ele><time>2026-04-29T10:21:10.001Z</time></trkpt><trkpt lat="43.682213206130726" lon="13.17102011255755"><ele>30.0</ele><time>2026-04-29T10:21:11.001Z</time></trkpt><trkpt lat="43.68234411738358" lon="13.171164201275518"><ele>30.0</ele><time>2026-04-29T10:21:12.001Z</time></trkpt><trkpt lat="43.68247191757458" lon="13.171319500558559"><ele>30.0</ele><time>2026-04-29T10:21:13.001Z</time></trkpt><trkpt lat="43.682592282338504" lon="13.171480584310228"><ele>29.333333333333336</ele><time>2026-04-29T10:21:14.001Z</time></trkpt><trkpt lat="43.68270591605848" lon="13.17165507652291"><ele>28.666666666666668</ele><time>2026-04-29T10:21:15.001Z</time></trkpt><trkpt lat="43.6828075336505" lon="13.171840793456235"><ele>28.0</ele><time>2026-04-29T10:21:16.001Z</time></trkpt><trkpt lat="43.682899044905085" lon="13.17202644086513"><ele>28.0</ele><time>2026-04-29T10:21:17.001Z</time></trkpt><trkpt lat="43.68298974112772" lon="13.172209475458498"><ele>28.0</ele><time>2026-04-29T10:21:18.001Z</time></trkpt><trkpt lat="43.68308246444078" lon="13.172394862651336"><ele>28.0</ele><time>2026-04-29T10:21:19.001Z</time></trkpt><trkpt lat="43.683179288506025" lon="13.172580464338834"><ele>27.333333333333336</ele><time>2026-04-29T10:21:20.001Z</time></trkpt><trkpt lat="43.6832789716743" lon="13.172766959529557"><ele>26.666666666666664</ele><time>2026-04-29T10:21:21.001Z</time></trkpt><trkpt lat="43.68337847070658" lon="13.172956514753"><ele>26.0</ele><time>2026-04-29T10:21:22.001Z</time></trkpt><trkpt lat="43.68348031649563" lon="13.173141927817877"><ele>25.0</ele><time>2026-04-29T10:21:23.001Z</time></trkpt><trkpt lat="43.68358208597911" lon="13.173333050172669"><ele>24.0</ele><time>2026-04-29T10:21:24.001Z</time></trkpt><trkpt lat="43.68368892870457" lon="13.173533032485272"><ele>23.0</ele><time>2026-04-29T10:21:25.001Z</time></trkpt><trkpt lat="43.683795997799656" lon="13.173738594131708"><ele>23.666666666666668</ele><time>2026-04-29T10:21:26.001Z</time></trkpt><trkpt lat="43.68390617978026" lon="13.173952642351978"><ele>24.333333333333336</ele><time>2026-04-29T10:21:27.001Z</time></trkpt><trkpt lat="43.684017559376855" lon="13.174172896002062"><ele>25.0</ele><time>2026-04-29T10:21:28.001Z</time></trkpt><trkpt lat="43.68412901269091" lon="13.174392653762835"><ele>25.0</ele><time>2026-04-29T10:21:29.001Z</time></trkpt><trkpt lat="43.68424339398261" lon="13.17461422811813"><ele>25.0</ele><time>2026-04-29T10:21:30.001Z</time></trkpt><trkpt lat="43.68435994799913" lon="13.1748357085861"><ele>25.0</ele><time>2026-04-29T10:21:31.001Z</time></trkpt><trkpt lat="43.684475846267524" lon="13.175051963262112"><ele>25.666666666666668</ele><time>2026-04-29T10:21:32.001Z</time></trkpt><trkpt lat="43.6845859448377" lon="13.175261516793299"><ele>26.333333333333336</ele><time>2026-04-29T10:21:33.001Z</time></trkpt><trkpt lat="43.68469406001265" lon="13.175471929936549"><ele>27.0</ele><time>2026-04-29T10:21:34.001Z</time></trkpt><trkpt lat="43.684806735542494" lon="13.175690076939812"><ele>25.666666666666668</ele><time>2026-04-29T10:21:35.001Z</time></trkpt><trkpt lat="43.684924669303555" lon="13.175916875746637"><ele>24.333333333333336</ele><time>2026-04-29T10:21:36.001Z</time></trkpt><trkpt lat="43.685043453599995" lon="13.176148403374055"><ele>23.0</ele><time>2026-04-29T10:21:37.001Z</time></trkpt><trkpt lat="43.68516019312482" lon="13.176374531659205"><ele>22.0</ele><time>2026-04-29T10:21:38.001Z</time></trkpt><trkpt lat="43.685276662520735" lon="13.176601781810664"><ele>21.0</ele><time>2026-04-29T10:21:39Z</time></trkpt><trkpt lat="43.68539050306993" lon="13.176826907545355"><ele>20.0</ele><time>2026-04-29T10:21:40Z</time></trkpt><trkpt lat="43.6854993181201" lon="13.177048408612816"><ele>20.0</ele><time>2026-04-29T10:21:41Z</time></trkpt><trkpt lat="43.68561011044715" lon="13.177270048080677"><ele>20.0</ele><time>2026-04-29T10:21:42Z</time></trkpt><trkpt lat="43.68572075730035" lon="13.177486191377898"><ele>20.0</ele><time>2026-04-29T10:21:43Z</time></trkpt><trkpt lat="43.68582822314948" lon="13.177695216475549"><ele>19.333333333333336</ele><time>2026-04-29T10:21:44Z</time></trkpt><trkpt lat="43.68594052747702" lon="13.17790110801352"><ele>18.666666666666668</ele><time>2026-04-29T10:21:45Z</time></trkpt><trkpt lat="43.68606087481474" lon="13.178093013934221"><ele>18.0</ele><time>2026-04-29T10:21:46Z</time></trkpt><trkpt lat="43.68619553041744" lon="13.178258747805732"><ele>17.333333333333332</ele><time>2026-04-29T10:21:47Z</time></trkpt><trkpt lat="43.68634066782688" lon="13.178405570738654"><ele>16.666666666666664</ele><time>2026-04-29T10:21:48Z</time></trkpt><trkpt lat="43.68649920950865" lon="13.178542064588074"><ele>16.0</ele><time>2026-04-29T10:21:49Z</time></trkpt><trkpt lat="43.68666704887819" lon="13.178653186962345"><ele>16.0</ele><time>2026-04-29T10:21:50Z</time></trkpt><trkpt lat="43.686842131129424" lon="13.178732426493191"><ele>16.0</ele><time>2026-04-29T10:21:51Z</time></trkpt><trkpt lat="43.68702051662766" lon="13.178793050796934"><ele>16.0</ele><time>2026-04-29T10:21:52Z</time></trkpt><trkpt lat="43.68720230489864" lon="13.178826377303581"><ele>16.0</ele><time>2026-04-29T10:21:53Z</time></trkpt><trkpt lat="43.6873891212781" lon="13.178833175903595"><ele>16.0</ele><time>2026-04-29T10:21:54Z</time></trkpt><trkpt lat="43.68757287343256" lon="13.178822771237646"><ele>16.0</ele><time>2026-04-29T10:21:55Z</time></trkpt><trkpt lat="43.68775573831178" lon="13.178795245077517"><ele>16.333333333333332</ele><time>2026-04-29T10:21:56Z</time></trkpt><trkpt lat="43.68793218253896" lon="13.178756236616955"><ele>16.666666666666668</ele><time>2026-04-29T10:21:57Z</time></trkpt><trkpt lat="43.68810626782612" lon="13.178710422992031"><ele>17.0</ele><time>2026-04-29T10:21:58Z</time></trkpt><trkpt lat="43.68827038072614" lon="13.178675220829971"><ele>17.0</ele><time>2026-04-29T10:21:59Z</time></trkpt><trkpt lat="43.68843103361029" lon="13.178651294535193"><ele>17.0</ele><time>2026-04-29T10:22:00.001Z</time></trkpt><trkpt lat="43.688588586663954" lon="13.178628634118594"><ele>17.0</ele><time>2026-04-29T10:22:01.001Z</time></trkpt><trkpt lat="43.688741004842896" lon="13.178610608822579"><ele>16.75</ele><time>2026-04-29T10:22:02.001Z</time></trkpt><trkpt lat="43.68888700571076" lon="13.17860534138646"><ele>16.5</ele><time>2026-04-29T10:22:03.001Z</time></trkpt><trkpt lat="43.689033068962424" lon="13.178622316879636"><ele>16.25</ele><time>2026-04-29T10:22:04.001Z</time></trkpt><trkpt lat="43.689179367061" lon="13.178656676396752"><ele>16.0</ele><time>2026-04-29T10:22:05.001Z</time></trkpt><trkpt lat="43.68932662750268" lon="13.178708081076277"><ele>16.333333333333332</ele><time>2026-04-29T10:22:06.001Z</time></trkpt><trkpt lat="43.689480025593916" lon="13.178774960316145"><ele>16.666666666666668</ele><time>2026-04-29T10:22:07.001Z</time></trkpt><trkpt lat="43.68963477083645" lon="13.178853986223476"><ele>17.0</ele><time>2026-04-29T10:22:08.001Z</time></trkpt><trkpt lat="43.68979446219711" lon="13.178956805112316"><ele>18.0</ele><time>2026-04-29T10:22:09.001Z</time></trkpt><trkpt lat="43.68994998781464" lon="13.17909025622745"><ele>19.0</ele><time>2026-04-29T10:22:10.001Z</time></trkpt><trkpt lat="43.69007892814739" lon="13.17922720321125"><ele>20.0</ele><time>2026-04-29T10:22:11.001Z</time></trkpt><trkpt lat="43.69020166149442" lon="13.179365168364614"><ele>21.333333333333336</ele><time>2026-04-29T10:22:12.001Z</time></trkpt><trkpt lat="43.69032335027678" lon="13.17951602199008"><ele>22.666666666666668</ele><time>2026-04-29T10:22:13.001Z</time></trkpt><trkpt lat="43.69044229110657" lon="13.179667161058404"><ele>24.0</ele><time>2026-04-29T10:22:14.001Z</time></trkpt><trkpt lat="43.69056234672654" lon="13.179817919884812"><ele>25.666666666666664</ele><time>2026-04-29T10:22:15.001Z</time></trkpt><trkpt lat="43.690684560126044" lon="13.17996710230001"><ele>27.333333333333332</ele><time>2026-04-29T10:22:16.001Z</time></trkpt><trkpt lat="43.69081315320234" lon="13.180123233443453"><ele>29.0</ele><time>2026-04-29T10:22:17.001Z</time></trkpt><trkpt lat="43.690936476747034" lon="13.180271537375607"><ele>29.0</ele><time>2026-04-29T10:22:18.001Z</time></trkpt><trkpt lat="43.69105517464976" lon="13.180412278190381"><ele>29.0</ele><time>2026-04-29T10:22:19.001Z</time></trkpt><trkpt lat="43.69117853147774" lon="13.180559180487718"><ele>29.0</ele><time>2026-04-29T10:22:20.001Z</time></trkpt><trkpt lat="43.69129594060408" lon="13.180723263501529"><ele>28.666666666666664</ele><time>2026-04-29T10:22:21.001Z</time></trkpt><trkpt lat="43.69142656405173" lon="13.180870284555573"><ele>28.333333333333336</ele><time>2026-04-29T10:22:22.001Z</time></trkpt><trkpt lat="43.69155472722394" lon="13.181022575260398"><ele>28.0</ele><time>2026-04-29T10:22:23.001Z</time></trkpt><trkpt lat="43.691685479463224" lon="13.181174893849185"><ele>28.0</ele><time>2026-04-29T10:22:24.001Z</time></trkpt><trkpt lat="43.691820570251274" lon="13.181337074681936"><ele>28.0</ele><time>2026-04-29T10:22:25.001Z</time></trkpt><trkpt lat="43.6919597197608" lon="13.181505141186785"><ele>28.0</ele><time>2026-04-29T10:22:26.001Z</time></trkpt><trkpt lat="43.692099273987175" lon="13.181678680960815"><ele>28.333333333333336</ele><time>2026-04-29T10:22:27.001Z</time></trkpt><trkpt lat="43.69224269087078" lon="13.181857682706458"><ele>28.666666666666664</ele><time>2026-04-29T10:22:28.001Z</time></trkpt><trkpt lat="43.692383255202785" lon="13.182035003926995"><ele>29.0</ele><time>2026-04-29T10:22:29.001Z</time></trkpt><trkpt lat="43.69251411591813" lon="13.18220700066663"><ele>29.0</ele><time>2026-04-29T10:22:30.001Z</time></trkpt><trkpt lat="43.69263599610991" lon="13.18236888041161"><ele>29.0</ele><time>2026-04-29T10:22:31.001Z</time></trkpt><trkpt lat="43.69275745669987" lon="13.18253640882002"><ele>29.0</ele><time>2026-04-29T10:22:32.001Z</time></trkpt><trkpt lat="43.692878711323594" lon="13.182705181051876"><ele>29.0</ele><time>2026-04-29T10:22:33.001Z</time></trkpt><trkpt lat="43.692992734061505" lon="13.182878192474318"><ele>29.0</ele><time>2026-04-29T10:22:34.001Z</time></trkpt><trkpt lat="43.69310633904357" lon="13.18304383663859"><ele>29.0</ele><time>2026-04-29T10:22:35.001Z</time></trkpt><trkpt lat="43.69321774325855" lon="13.183211008858164"><ele>28.333333333333332</ele><time>2026-04-29T10:22:36.001Z</time></trkpt><trkpt lat="43.69332332999165" lon="13.183379818375807"><ele>27.666666666666664</ele><time>2026-04-29T10:22:37.001Z</time></trkpt><trkpt lat="43.693424767560785" lon="13.18354339375188"><ele>27.0</ele><time>2026-04-29T10:22:38.001Z</time></trkpt><trkpt lat="43.6935254330586" lon="13.183716008753581"><ele>27.333333333333336</ele><time>2026-04-29T10:22:39.001Z</time></trkpt><trkpt lat="43.69362747557694" lon="13.183892864561567"><ele>27.666666666666668</ele><time>2026-04-29T10:22:40.001Z</time></trkpt><trkpt lat="43.69373545667988" lon="13.184071716315273"><ele>28.0</ele><time>2026-04-29T10:22:41.001Z</time></trkpt><trkpt lat="43.69383786290886" lon="13.184265193098732"><ele>27.0</ele><time>2026-04-29T10:22:42.001Z</time></trkpt><trkpt lat="43.69393981458917" lon="13.18446086231195"><ele>26.0</ele><time>2026-04-29T10:22:43.001Z</time></trkpt><trkpt lat="43.69403805389349" lon="13.184661149794808"><ele>25.0</ele><time>2026-04-29T10:22:44.001Z</time></trkpt><trkpt lat="43.6941343442232" lon="13.184855193684735"><ele>25.0</ele><time>2026-04-29T10:22:45.001Z</time></trkpt><trkpt lat="43.694232336019844" lon="13.18504876832615"><ele>25.0</ele><time>2026-04-29T10:22:46.001Z</time></trkpt><trkpt lat="43.69433400093871" lon="13.185253331892138"><ele>25.0</ele><time>2026-04-29T10:22:47.001Z</time></trkpt><trkpt lat="43.69443401438345" lon="13.185461278302437"><ele>25.0</ele><time>2026-04-29T10:22:48.001Z</time></trkpt><trkpt lat="43.69453211905963" lon="13.185652731826787"><ele>25.0</ele><time>2026-04-29T10:22:49.001Z</time></trkpt><trkpt lat="43.69463237150467" lon="13.18585437686376"><ele>25.0</ele><time>2026-04-29T10:22:50.001Z</time></trkpt><trkpt lat="43.69473218197113" lon="13.186053083812988"><ele>24.666666666666668</ele><time>2026-04-29T10:22:51.001Z</time></trkpt><trkpt lat="43.694829356193885" lon="13.186248558103957"><ele>24.333333333333336</ele><time>2026-04-29T10:22:52.001Z</time></trkpt><trkpt lat="43.69492927077813" lon="13.18644497301173"><ele>24.0</ele><time>2026-04-29T10:22:53.001Z</time></trkpt><trkpt lat="43.69503183310736" lon="13.186649527413214"><ele>24.0</ele><time>2026-04-29T10:22:54.001Z</time></trkpt><trkpt lat="43.69513756407098" lon="13.186851417934143"><ele>24.0</ele><time>2026-04-29T10:22:55.001Z</time></trkpt><trkpt lat="43.69524625187198" lon="13.187047440031144"><ele>24.0</ele><time>2026-04-29T10:22:56.001Z</time></trkpt><trkpt lat="43.69535263873013" lon="13.18723634955428"><ele>23.666666666666668</ele><time>2026-04-29T10:22:57.001Z</time></trkpt><trkpt lat="43.69546890475738" lon="13.187428224133336"><ele>23.333333333333336</ele><time>2026-04-29T10:22:58.001Z</time></trkpt><trkpt lat="43.695583539059236" lon="13.18760948669398"><ele>23.0</ele><time>2026-04-29T10:22:59.001Z</time></trkpt><trkpt lat="43.6956990783686" lon="13.187780664765711"><ele>23.0</ele><time>2026-04-29T10:23:00.001Z</time></trkpt><trkpt lat="43.695812955999955" lon="13.187944606515996"><ele>23.0</ele><time>2026-04-29T10:23:01.001Z</time></trkpt><trkpt lat="43.69593068886364" lon="13.188102621634103"><ele>23.0</ele><time>2026-04-29T10:23:02.001Z</time></trkpt><trkpt lat="43.696046768299766" lon="13.188256869452278"><ele>22.666666666666668</ele><time>2026-04-29T10:23:03.001Z</time></trkpt><trkpt lat="43.696159348430925" lon="13.188408291192733"><ele>22.333333333333332</ele><time>2026-04-29T10:23:04.001Z</time></trkpt><trkpt lat="43.69627104993115" lon="13.188557644629686"><ele>22.0</ele><time>2026-04-29T10:23:05.001Z</time></trkpt><trkpt lat="43.69638114085846" lon="13.188698656113312"><ele>22.0</ele><time>2026-04-29T10:23:06.001Z</time></trkpt><trkpt lat="43.6964855834585" lon="13.188834955858551"><ele>22.0</ele><time>2026-04-29T10:23:07.001Z</time></trkpt><trkpt lat="43.69659103584879" lon="13.188965976016073"><ele>22.0</ele><time>2026-04-29T10:23:08.001Z</time></trkpt><trkpt lat="43.696696875192394" lon="13.18909520124613"><ele>22.0</ele><time>2026-04-29T10:23:09.001Z</time></trkpt><trkpt lat="43.69679871652236" lon="13.189219685262977"><ele>21.75</ele><time>2026-04-29T10:23:10.001Z</time></trkpt><trkpt lat="43.696896889105595" lon="13.189343578606204"><ele>21.5</ele><time>2026-04-29T10:23:11.001Z</time></trkpt><trkpt lat="43.69700249857211" lon="13.189469770802788"><ele>21.25</ele><time>2026-04-29T10:23:12.001Z</time></trkpt><trkpt lat="43.69711741063246" lon="13.189603144040316"><ele>21.0</ele><time>2026-04-29T10:23:13.001Z</time></trkpt><trkpt lat="43.69723906982243" lon="13.189737482693543"><ele>20.0</ele><time>2026-04-29T10:23:14.001Z</time></trkpt><trkpt lat="43.697371402449015" lon="13.189876280979531"><ele>19.0</ele><time>2026-04-29T10:23:15.001Z</time></trkpt><trkpt lat="43.69751413547971" lon="13.190019754462137"><ele>18.0</ele><time>2026-04-29T10:23:16.001Z</time></trkpt><trkpt lat="43.69765758686332" lon="13.190150327352715"><ele>18.0</ele><time>2026-04-29T10:23:17.001Z</time></trkpt><trkpt lat="43.69780538379076" lon="13.190274526992026"><ele>18.0</ele><time>2026-04-29T10:23:18.001Z</time></trkpt><trkpt lat="43.69795563850423" lon="13.190393406485962"><ele>18.0</ele><time>2026-04-29T10:23:19.001Z</time></trkpt><trkpt lat="43.69810321324263" lon="13.190505660042476"><ele>18.0</ele><time>2026-04-29T10:23:20.001Z</time></trkpt><trkpt lat="43.69825740676798" lon="13.190614686811712"><ele>18.0</ele><time>2026-04-29T10:23:21.001Z</time></trkpt><trkpt lat="43.6984020692489" lon="13.190712815893123"><ele>18.0</ele><time>2026-04-29T10:23:22.001Z</time></trkpt><trkpt lat="43.69853986024433" lon="13.19080391475259"><ele>18.0</ele><time>2026-04-29T10:23:23.001Z</time></trkpt><trkpt lat="43.69868102507722" lon="13.190894575044638"><ele>18.0</ele><time>2026-04-29T10:23:24.001Z</time></trkpt><trkpt lat="43.69881318442485" lon="13.190976760607352"><ele>18.0</ele><time>2026-04-29T10:23:25.001Z</time></trkpt><trkpt lat="43.69894315374258" lon="13.191055702320929"><ele>18.0</ele><time>2026-04-29T10:23:26.001Z</time></trkpt><trkpt lat="43.699076877047965" lon="13.191136905453064"><ele>18.0</ele><time>2026-04-29T10:23:27.001Z</time></trkpt><trkpt lat="43.69921048258665" lon="13.191221007761394"><ele>18.0</ele><time>2026-04-29T10:23:28.001Z</time></trkpt><trkpt lat="43.6993403551385" lon="13.19130435221102"><ele>18.0</ele><time>2026-04-29T10:23:29.001Z</time></trkpt><trkpt lat="43.699460643078915" lon="13.19138490775127"><ele>18.0</ele><time>2026-04-29T10:23:30.001Z</time></trkpt><trkpt lat="43.69956736158715" lon="13.1914604798709"><ele>17.4</ele><time>2026-04-29T10:23:31.001Z</time></trkpt><trkpt lat="43.69966709813009" lon="13.191527723765322"><ele>16.8</ele><time>2026-04-29T10:23:32.001Z</time></trkpt><trkpt lat="43.699766356435795" lon="13.191590838995173"><ele>16.2</ele><time>2026-04-29T10:23:33.001Z</time></trkpt><trkpt lat="43.69986030688427" lon="13.191650653846754"><ele>15.6</ele><time>2026-04-29T10:23:34.001Z</time></trkpt><trkpt lat="43.6999633735867" lon="13.191717675193447"><ele>15.0</ele><time>2026-04-29T10:23:35.001Z</time></trkpt><trkpt lat="43.700066670339474" lon="13.19178399493756"><ele>15.0</ele><time>2026-04-29T10:23:36.001Z</time></trkpt><trkpt lat="43.70017798831463" lon="13.191851053156158"><ele>15.0</ele><time>2026-04-29T10:23:37.001Z</time></trkpt><trkpt lat="43.70029498302815" lon="13.191916578906937"><ele>15.0</ele><time>2026-04-29T10:23:38.001Z</time></trkpt><trkpt lat="43.70041826158954" lon="13.191988140279745"><ele>15.0</ele><time>2026-04-29T10:23:39.001Z</time></trkpt><trkpt lat="43.70054808112366" lon="13.192066681081718"><ele>14.666666666666668</ele><time>2026-04-29T10:23:40.001Z</time></trkpt><trkpt lat="43.700689551150106" lon="13.192152046233483"><ele>14.333333333333334</ele><time>2026-04-29T10:23:41.001Z</time></trkpt><trkpt lat="43.70083619918015" lon="13.192242439485748"><ele>14.0</ele><time>2026-04-29T10:23:42.001Z</time></trkpt><trkpt lat="43.700991644669976" lon="13.192341948515228"><ele>14.0</ele><time>2026-04-29T10:23:43Z</time></trkpt><trkpt lat="43.7011335062077" lon="13.192443707287014"><ele>14.0</ele><time>2026-04-29T10:23:44Z</time></trkpt><trkpt lat="43.701261889406766" lon="13.192557743754062"><ele>14.0</ele><time>2026-04-29T10:23:45Z</time></trkpt><trkpt lat="43.701376331363704" lon="13.192682771228663"><ele>14.0</ele><time>2026-04-29T10:23:46Z</time></trkpt><trkpt lat="43.7014857399062" lon="13.192810477629846"><ele>14.0</ele><time>2026-04-29T10:23:47Z</time></trkpt><trkpt lat="43.70159493406558" lon="13.192966641233989"><ele>14.0</ele><time>2026-04-29T10:23:48Z</time></trkpt><trkpt lat="43.7017105343579" lon="13.19314910050972"><ele>14.0</ele><time>2026-04-29T10:23:49Z</time></trkpt><trkpt lat="43.70182377425515" lon="13.19336177693954"><ele>14.0</ele><time>2026-04-29T10:23:50Z</time></trkpt><trkpt lat="43.70192089583344" lon="13.193591564644962"><ele>14.0</ele><time>2026-04-29T10:23:51Z</time></trkpt><trkpt lat="43.70200983443218" lon="13.193841265043176"><ele>13.333333333333334</ele><time>2026-04-29T10:23:52Z</time></trkpt><trkpt lat="43.70208648421279" lon="13.194109797692622"><ele>12.666666666666668</ele><time>2026-04-29T10:23:53Z</time></trkpt><trkpt lat="43.702145648707" lon="13.194393092605663"><ele>12.0</ele><time>2026-04-29T10:23:54Z</time></trkpt><trkpt lat="43.70217265636588" lon="13.194702553391574"><ele>11.5</ele><time>2026-04-29T10:23:55Z</time></trkpt><trkpt lat="43.7021776367064" lon="13.195025785584201"><ele>11.0</ele><time>2026-04-29T10:23:56Z</time></trkpt><trkpt lat="43.70216387900599" lon="13.195342489279588"><ele>11.0</ele><time>2026-04-29T10:23:57Z</time></trkpt><trkpt lat="43.70210511856167" lon="13.195646692623567"><ele>11.0</ele><time>2026-04-29T10:23:58Z</time></trkpt><trkpt lat="43.70205095097442" lon="13.195964750555463"><ele>10.5</ele><time>2026-04-29T10:23:59Z</time></trkpt><trkpt lat="43.70196711930349" lon="13.196281000904532"><ele>10.0</ele><time>2026-04-29T10:24:00Z</time></trkpt><trkpt lat="43.70189502006489" lon="13.196607074817067"><ele>9.0</ele><time>2026-04-29T10:24:01Z</time></trkpt><trkpt lat="43.70184286040259" lon="13.19694362397186"><ele>8.0</ele><time>2026-04-29T10:24:02Z</time></trkpt><trkpt lat="43.70177242068387" lon="13.197278971485398"><ele>7.5</ele><time>2026-04-29T10:24:03Z</time></trkpt><trkpt lat="43.70170023190064" lon="13.197619222432776"><ele>7.0</ele><time>2026-04-29T10:24:04Z</time></trkpt><trkpt lat="43.70162773090259" lon="13.197957292542096"><ele>6.5</ele><time>2026-04-29T10:24:05Z</time></trkpt><trkpt lat="43.701558276353744" lon="13.198288786135631"><ele>6.0</ele><time>2026-04-29T10:24:06Z</time></trkpt><trkpt lat="43.701494599431975" lon="13.198599880997165"><ele>6.0</ele><time>2026-04-29T10:24:07Z</time></trkpt><trkpt lat="43.701429983138304" lon="13.198911662459517"><ele>6.0</ele><time>2026-04-29T10:24:08Z</time></trkpt><trkpt lat="43.701364799813184" lon="13.199225656012343"><ele>6.0</ele><time>2026-04-29T10:24:09Z</time></trkpt><trkpt lat="43.7013013306006" lon="13.199538758006168"><ele>6.0</ele><time>2026-04-29T10:24:10Z</time></trkpt><trkpt lat="43.70124566127985" lon="13.199817517271406"><ele>6.0</ele><time>2026-04-29T10:24:11Z</time></trkpt><trkpt lat="43.701196985566625" lon="13.200057930441996"><ele>5.666666666666667</ele><time>2026-04-29T10:24:12Z</time></trkpt><trkpt lat="43.70115040230444" lon="13.200278329284679"><ele>5.333333333333334</ele><time>2026-04-29T10:24:13Z</time></trkpt><trkpt lat="43.70110593023992" lon="13.200497450983077"><ele>5.0</ele><time>2026-04-29T10:24:14Z</time></trkpt><trkpt lat="43.70105657317559" lon="13.200719357519612"><ele>5.0</ele><time>2026-04-29T10:24:15Z</time></trkpt><trkpt lat="43.701014455480085" lon="13.200932574775374"><ele>5.0</ele><time>2026-04-29T10:24:16Z</time></trkpt><trkpt lat="43.700975305701284" lon="13.201124488043053"><ele>5.0</ele><time>2026-04-29T10:24:17Z</time></trkpt><trkpt lat="43.70093611316737" lon="13.201307417449096"><ele>5.0</ele><time>2026-04-29T10:24:18Z</time></trkpt><trkpt lat="43.700898127994265" lon="13.20149749114405"><ele>5.25</ele><time>2026-04-29T10:24:19Z</time></trkpt><trkpt lat="43.700858467306816" lon="13.20168252890924"><ele>5.5</ele><time>2026-04-29T10:24:20Z</time></trkpt><trkpt lat="43.7008243788731" lon="13.201848346339522"><ele>5.75</ele><time>2026-04-29T10:24:21Z</time></trkpt><trkpt lat="43.70079840065008" lon="13.202006961837727"><ele>6.0</ele><time>2026-04-29T10:24:22Z</time></trkpt><trkpt lat="43.70075836041014" lon="13.202153473652956"><ele>6.0</ele><time>2026-04-29T10:24:23Z</time></trkpt><trkpt lat="43.70071138765933" lon="13.202296901924013"><ele>6.0</ele><time>2026-04-29T10:24:24Z</time></trkpt><trkpt lat="43.70065707500725" lon="13.202415072742827"><ele>6.0</ele><time>2026-04-29T10:24:25Z</time></trkpt><trkpt lat="43.70060673689672" lon="13.20251541339318"><ele>6.0</ele><time>2026-04-29T10:24:26Z</time></trkpt><trkpt lat="43.70057157673062" lon="13.20258769224663"><ele>6.0</ele><time>2026-04-29T10:24:27Z</time></trkpt><trkpt lat="43.700507573426385" lon="13.202687785970271"><ele>5.833333333333333</ele><time>2026-04-29T10:24:29.001Z</time></trkpt><trkpt lat="43.70045573490235" lon="13.202737731899676"><ele>5.666666666666667</ele><time>2026-04-29T10:24:33.001Z</time></trkpt><trkpt lat="43.700388676672475" lon="13.202828606160159"><ele>5.5</ele><time>2026-04-29T10:24:35.001Z</time></trkpt><trkpt lat="43.70031571706655" lon="13.20297957025269"><ele>5.333333333333334</ele><time>2026-04-29T10:24:37.001Z</time></trkpt><trkpt lat="43.700302812485944" lon="13.203080951433195"><ele>5.166666666666667</ele><time>2026-04-29T10:24:38.001Z</time></trkpt><trkpt lat="43.700278466257814" lon="13.203186402907464"><ele>5.0</ele><time>2026-04-29T10:24:39.001Z</time></trkpt><trkpt lat="43.70035752481059" lon="13.203295587965126"><ele>5.0</ele><time>2026-04-29T10:24:40.001Z</time></trkpt><trkpt lat="43.70042199988433" lon="13.20337282759679"><ele>5.0</ele><time>2026-04-29T10:24:41.001Z</time></trkpt><trkpt lat="43.700506688889405" lon="13.2034316675229"><ele>5.0</ele><time>2026-04-29T10:24:42.001Z</time></trkpt><trkpt lat="43.70058800785911" lon="13.203506584655251"><ele>5.0</ele><time>2026-04-29T10:24:43.001Z</time></trkpt><trkpt lat="43.700658504632464" lon="13.203607660785366"><ele>5.0</ele><time>2026-04-29T10:24:44.001Z</time></trkpt><trkpt lat="43.7007218041571" lon="13.203726169174454"><ele>5.0</ele><time>2026-04-29T10:24:45.001Z</time></trkpt><trkpt lat="43.70078006403949" lon="13.20385649369784"><ele>5.0</ele><time>2026-04-29T10:24:46.001Z</time></trkpt><trkpt lat="43.70083906518519" lon="13.203995019339496"><ele>5.0</ele><time>2026-04-29T10:24:47.001Z</time></trkpt><trkpt lat="43.70090575063322" lon="13.204134596983657"><ele>5.0</ele><time>2026-04-29T10:24:48.001Z</time></trkpt><trkpt lat="43.700980565705954" lon="13.204268385043513"><ele>5.25</ele><time>2026-04-29T10:24:49.001Z</time></trkpt><trkpt lat="43.70106364296164" lon="13.204394537907325"><ele>5.5</ele><time>2026-04-29T10:24:50.001Z</time></trkpt><trkpt lat="43.70114509825874" lon="13.20450681518252"><ele>5.75</ele><time>2026-04-29T10:24:51.001Z</time></trkpt><trkpt lat="43.70122299083271" lon="13.204607876393789"><ele>6.0</ele><time>2026-04-29T10:24:52.001Z</time></trkpt><trkpt lat="43.70130115267922" lon="13.20470816755187"><ele>6.0</ele><time>2026-04-29T10:24:53.001Z</time></trkpt><trkpt lat="43.70137866831874" lon="13.20480765331976"><ele>6.0</ele><time>2026-04-29T10:24:54.001Z</time></trkpt><trkpt lat="43.70145602630535" lon="13.204905386668717"><ele>6.0</ele><time>2026-04-29T10:24:55.001Z</time></trkpt><trkpt lat="43.701539094865986" lon="13.205002512342348"><ele>6.0</ele><time>2026-04-29T10:24:56.001Z</time></trkpt><trkpt lat="43.701615768868955" lon="13.205101077246788"><ele>6.0</ele><time>2026-04-29T10:24:57.001Z</time></trkpt><trkpt lat="43.70168048084714" lon="13.205187499853105"><ele>6.0</ele><time>2026-04-29T10:24:58.001Z</time></trkpt><trkpt lat="43.7017384716551" lon="13.205257832810867"><ele>6.0</ele><time>2026-04-29T10:24:59.001Z</time></trkpt><trkpt lat="43.701794387831235" lon="13.205325491330647"><ele>6.0</ele><time>2026-04-29T10:25:00.001Z</time></trkpt><trkpt lat="43.701849083584975" lon="13.205391616759323"><ele>6.0</ele><time>2026-04-29T10:25:01.001Z</time></trkpt><trkpt lat="43.70190899826143" lon="13.205473090702682"><ele>6.0</ele><time>2026-04-29T10:25:02.001Z</time></trkpt><trkpt lat="43.70197684493487" lon="13.205563902818893"><ele>6.0</ele><time>2026-04-29T10:25:03.001Z</time></trkpt><trkpt lat="43.70206047254791" lon="13.205672472116472"><ele>6.0</ele><time>2026-04-29T10:25:04.001Z</time></trkpt><trkpt lat="43.702157811163296" lon="13.205782920571563"><ele>6.0</ele><time>2026-04-29T10:25:05.001Z</time></trkpt><trkpt lat="43.70224811503648" lon="13.205889151527316"><ele>6.0</ele><time>2026-04-29T10:25:06.001Z</time></trkpt><trkpt lat="43.702332152509186" lon="13.205992619041877"><ele>6.0</ele><time>2026-04-29T10:25:07.001Z</time></trkpt><trkpt lat="43.70241473523343" lon="13.206089892551832"><ele>6.0</ele><time>2026-04-29T10:25:08.001Z</time></trkpt><trkpt lat="43.70249763328328" lon="13.206180170009684"><ele>6.0</ele><time>2026-04-29T10:25:09.001Z</time></trkpt><trkpt lat="43.70257725815997" lon="13.206265705258165"><ele>6.0</ele><time>2026-04-29T10:25:10.001Z</time></trkpt><trkpt lat="43.70264585716207" lon="13.20635392980948"><ele>6.0</ele><time>2026-04-29T10:25:11.001Z</time></trkpt><trkpt lat="43.70270306426252" lon="13.206437949556038"><ele>6.0</ele><time>2026-04-29T10:25:12.001Z</time></trkpt><trkpt lat="43.70274678146348" lon="13.20651129419998"><ele>6.166666666666667</ele><time>2026-04-29T10:25:13.001Z</time></trkpt><trkpt lat="43.70278020573229" lon="13.206588685568303"><ele>6.333333333333334</ele><time>2026-04-29T10:25:14.001Z</time></trkpt><trkpt lat="43.702801750962536" lon="13.206678888019495"><ele>6.5</ele><time>2026-04-29T10:25:15.001Z</time></trkpt><trkpt lat="43.70282044269899" lon="13.206773370488168"><ele>6.666666666666667</ele><time>2026-04-29T10:25:16.001Z</time></trkpt><trkpt lat="43.70284653294167" lon="13.206897994487212"><ele>6.833333333333334</ele><time>2026-04-29T10:25:17.001Z</time></trkpt><trkpt lat="43.70289384570831" lon="13.20700476106648"><ele>7.0</ele><time>2026-04-29T10:25:18.001Z</time></trkpt><trkpt lat="43.702955848175726" lon="13.207118956222233"><ele>7.0</ele><time>2026-04-29T10:25:19.001Z</time></trkpt><trkpt lat="43.70304381711107" lon="13.20721786861913"><ele>7.0</ele><time>2026-04-29T10:25:20.001Z</time></trkpt><trkpt lat="43.70312853642812" lon="13.207321171964477"><ele>7.0</ele><time>2026-04-29T10:25:21.001Z</time></trkpt><trkpt lat="43.70321450119833" lon="13.207421282786136"><ele>7.0</ele><time>2026-04-29T10:25:22.001Z</time></trkpt><trkpt lat="43.70330268058307" lon="13.207528962072471"><ele>6.8</ele><time>2026-04-29T10:25:23.001Z</time></trkpt><trkpt lat="43.703385735496084" lon="13.207634330086261"><ele>6.6</ele><time>2026-04-29T10:25:24.001Z</time></trkpt><trkpt lat="43.70347119205532" lon="13.207730547990424"><ele>6.3999999999999995</ele><time>2026-04-29T10:25:25.001Z</time></trkpt><trkpt lat="43.70355829624181" lon="13.20781679874223"><ele>6.199999999999999</ele><time>2026-04-29T10:25:26Z</time></trkpt><trkpt lat="43.703653889121064" lon="13.207892686921353"><ele>6.0</ele><time>2026-04-29T10:25:27Z</time></trkpt><trkpt lat="43.70375337419934" lon="13.20796220474911"><ele>5.8</ele><time>2026-04-29T10:25:28Z</time></trkpt><trkpt lat="43.70385140372667" lon="13.208031949840779"><ele>5.6</ele><time>2026-04-29T10:25:29Z</time></trkpt><trkpt lat="43.703947243992914" lon="13.208106816340159"><ele>5.4</ele><time>2026-04-29T10:25:30Z</time></trkpt><trkpt lat="43.70403355596634" lon="13.208185544006998"><ele>5.2</ele><time>2026-04-29T10:25:31Z</time></trkpt><trkpt lat="43.70411952322138" lon="13.208274490753553"><ele>5.0</ele><time>2026-04-29T10:25:32Z</time></trkpt><trkpt lat="43.7042077205818" lon="13.208369300430977"><ele>5.0</ele><time>2026-04-29T10:25:33Z</time></trkpt><trkpt lat="43.70429381808853" lon="13.208458234900663"><ele>5.0</ele><time>2026-04-29T10:25:34Z</time></trkpt><trkpt lat="43.70438302967896" lon="13.208541966141537"><ele>5.0</ele><time>2026-04-29T10:25:35Z</time></trkpt><trkpt lat="43.70446614839421" lon="13.208629705460762"><ele>5.0</ele><time>2026-04-29T10:25:36Z</time></trkpt><trkpt lat="43.70453136159555" lon="13.208718078083932"><ele>5.0</ele><time>2026-04-29T10:25:37Z</time></trkpt><trkpt lat="43.704598974565975" lon="13.208784621940147"><ele>5.0</ele><time>2026-04-29T10:25:38Z</time></trkpt><trkpt lat="43.704707631205004" lon="13.208838856035598"><ele>5.0</ele><time>2026-04-29T10:25:39Z</time></trkpt><trkpt lat="43.70478032704811" lon="13.208892894623895"><ele>5.0</ele><time>2026-04-29T10:25:40Z</time></trkpt><trkpt lat="43.70486525548447" lon="13.208959284454721"><ele>5.0</ele><time>2026-04-29T10:25:41Z</time></trkpt><trkpt lat="43.70495217484602" lon="13.209025407859004"><ele>5.0</ele><time>2026-04-29T10:25:42Z</time></trkpt><trkpt lat="43.70504027988495" lon="13.20910046585937"><ele>5.0</ele><time>2026-04-29T10:25:43Z</time></trkpt><trkpt lat="43.705114511905784" lon="13.209168157973258"><ele>5.0</ele><time>2026-04-29T10:25:44Z</time></trkpt><trkpt lat="43.70518586997532" lon="13.20924793796348"><ele>5.0</ele><time>2026-04-29T10:25:45Z</time></trkpt><trkpt lat="43.70524132381491" lon="13.209305658160298"><ele>5.0</ele><time>2026-04-29T10:25:46Z</time></trkpt><trkpt lat="43.70530591415596" lon="13.209399794536534"><ele>5.0</ele><time>2026-04-29T10:25:47Z</time></trkpt><trkpt lat="43.70536000898091" lon="13.209473267584576"><ele>5.0</ele><time>2026-04-29T10:25:48Z</time></trkpt><trkpt lat="43.70540367406236" lon="13.209540725654014"><ele>5.0</ele><time>2026-04-29T10:25:49Z</time></trkpt><trkpt lat="43.705454233215065" lon="13.209631651011048"><ele>5.0</ele><time>2026-04-29T10:25:51Z</time></trkpt><trkpt lat="43.70548166045097" lon="13.20973464105205"><ele>5.0</ele><time>2026-04-29T10:25:57Z</time></trkpt><trkpt lat="43.70552111492832" lon="13.209864230825596"><ele>5.0</ele><time>2026-04-29T10:25:59Z</time></trkpt><trkpt lat="43.70559191254709" lon="13.209992854327146"><ele>5.0</ele><time>2026-04-29T10:26:01Z</time></trkpt><trkpt lat="43.705722734749855" lon="13.210058408524107"><ele>5.2</ele><time>2026-04-29T10:26:03Z</time></trkpt><trkpt lat="43.70579799889481" lon="13.210123615550689"><ele>5.4</ele><time>2026-04-29T10:26:04Z</time></trkpt><trkpt lat="43.70587410027275" lon="13.210199078299294"><ele>5.6</ele><time>2026-04-29T10:26:05Z</time></trkpt><trkpt lat="43.705948256712176" lon="13.210282383250853"><ele>5.8</ele><time>2026-04-29T10:26:06Z</time></trkpt><trkpt lat="43.70602444173919" lon="13.21036844314684"><ele>6.0</ele><time>2026-04-29T10:26:07Z</time></trkpt><trkpt lat="43.706105408992634" lon="13.210463051428794"><ele>6.199999999999999</ele><time>2026-04-29T10:26:08Z</time></trkpt><trkpt lat="43.70618898497229" lon="13.210562613244637"><ele>6.3999999999999995</ele><time>2026-04-29T10:26:09Z</time></trkpt><trkpt lat="43.7062710227784" lon="13.210670264017194"><ele>6.6</ele><time>2026-04-29T10:26:10Z</time></trkpt><trkpt lat="43.70635501742528" lon="13.210780126455877"><ele>6.8</ele><time>2026-04-29T10:26:11Z</time></trkpt><trkpt lat="43.70642637432983" lon="13.210884168389985"><ele>7.0</ele><time>2026-04-29T10:26:12Z</time></trkpt><trkpt lat="43.70649391106023" lon="13.210979714894787"><ele>6.666666666666667</ele><time>2026-04-29T10:26:13Z</time></trkpt><trkpt lat="43.70655343699944" lon="13.211067863328068"><ele>6.333333333333334</ele><time>2026-04-29T10:26:14Z</time></trkpt><trkpt lat="43.70660005791823" lon="13.211151870201187"><ele>6.0</ele><time>2026-04-29T10:26:15Z</time></trkpt><trkpt lat="43.70664295548779" lon="13.211234104400885"><ele>5.666666666666667</ele><time>2026-04-29T10:26:16Z</time></trkpt><trkpt lat="43.706698569869076" lon="13.21131723388511"><ele>5.333333333333334</ele><time>2026-04-29T10:26:17Z</time></trkpt><trkpt lat="43.706750801360755" lon="13.211412294678627"><ele>5.0</ele><time>2026-04-29T10:26:18Z</time></trkpt><trkpt lat="43.70681249523342" lon="13.211515617017472"><ele>4.8</ele><time>2026-04-29T10:26:19Z</time></trkpt><trkpt lat="43.70688067888248" lon="13.21162016495443"><ele>4.6</ele><time>2026-04-29T10:26:20Z</time></trkpt><trkpt lat="43.70694461006203" lon="13.211712692925289"><ele>4.4</ele><time>2026-04-29T10:26:21Z</time></trkpt><trkpt lat="43.70700679721701" lon="13.211799139892314"><ele>4.2</ele><time>2026-04-29T10:26:22Z</time></trkpt><trkpt lat="43.70707462548852" lon="13.211883825543605"><ele>4.0</ele><time>2026-04-29T10:26:23Z</time></trkpt><trkpt lat="43.707138147578206" lon="13.211964401653534"><ele>3.9999999999999996</ele><time>2026-04-29T10:26:24Z</time></trkpt><trkpt lat="43.70720003590716" lon="13.212036410226641"><ele>4.0</ele><time>2026-04-29T10:26:25Z</time></trkpt><trkpt lat="43.707260661236056" lon="13.212100874827525"><ele>4.0</ele><time>2026-04-29T10:26:26Z</time></trkpt><trkpt lat="43.70733189875319" lon="13.212164138104699"><ele>4.0</ele><time>2026-04-29T10:26:27Z</time></trkpt><trkpt lat="43.70740322171204" lon="13.212225051749583"><ele>3.9999999999999996</ele><time>2026-04-29T10:26:28Z</time></trkpt><trkpt lat="43.70748032881955" lon="13.21229250601478"><ele>4.0</ele><time>2026-04-29T10:26:29Z</time></trkpt><trkpt lat="43.70756168699897" lon="13.21233350944487"><ele>3.8000000000000003</ele><time>2026-04-29T10:26:30Z</time></trkpt><trkpt lat="43.70763241966434" lon="13.212422887220848"><ele>3.6000000000000005</ele><time>2026-04-29T10:26:31Z</time></trkpt><trkpt lat="43.70770627281575" lon="13.212491467059715"><ele>3.4</ele><time>2026-04-29T10:26:32Z</time></trkpt><trkpt lat="43.707777191693104" lon="13.212567747850384"><ele>3.2</ele><time>2026-04-29T10:26:33Z</time></trkpt><trkpt lat="43.70785586622861" lon="13.212656333510477"><ele>3.0</ele><time>2026-04-29T10:26:34Z</time></trkpt><trkpt lat="43.707927573232595" lon="13.212740610979777"><ele>3.4</ele><time>2026-04-29T10:26:35Z</time></trkpt><trkpt lat="43.70799991089279" lon="13.212825199794814"><ele>3.8</ele><time>2026-04-29T10:26:36Z</time></trkpt><trkpt lat="43.70806757131298" lon="13.212908610397498"><ele>4.2</ele><time>2026-04-29T10:26:37Z</time></trkpt><trkpt lat="43.708136439140056" lon="13.212996100294731"><ele>4.6</ele><time>2026-04-29T10:26:38Z</time></trkpt><trkpt lat="43.70820993052979" lon="13.213086259174858"><ele>5.0</ele><time>2026-04-29T10:26:39Z</time></trkpt><trkpt lat="43.708281752053004" lon="13.21317668831158"><ele>5.0</ele><time>2026-04-29T10:26:40Z</time></trkpt><trkpt lat="43.708348168821885" lon="13.21326608240904"><ele>5.0</ele><time>2026-04-29T10:26:41Z</time></trkpt><trkpt lat="43.70841803272259" lon="13.213356319480788"><ele>5.0</ele><time>2026-04-29T10:26:42Z</time></trkpt><trkpt lat="43.708490103805566" lon="13.213450148679298"><ele>5.0</ele><time>2026-04-29T10:26:43Z</time></trkpt><trkpt lat="43.708549393192925" lon="13.213545742444131"><ele>5.0</ele><time>2026-04-29T10:26:44Z</time></trkpt><trkpt lat="43.70861063805986" lon="13.213644450385866"><ele>4.8</ele><time>2026-04-29T10:26:45Z</time></trkpt><trkpt lat="43.70866514861626" lon="13.213755100124905"><ele>4.6</ele><time>2026-04-29T10:26:46Z</time></trkpt><trkpt lat="43.70872094960646" lon="13.213870367811458"><ele>4.4</ele><time>2026-04-29T10:26:47Z</time></trkpt><trkpt lat="43.70877757402623" lon="13.213990096076369"><ele>4.2</ele><time>2026-04-29T10:26:48Z</time></trkpt><trkpt lat="43.70884024635267" lon="13.214125805442675"><ele>4.0</ele><time>2026-04-29T10:26:49Z</time></trkpt><trkpt lat="43.70890239112991" lon="13.214272520923409"><ele>4.0</ele><time>2026-04-29T10:26:50Z</time></trkpt><trkpt lat="43.70896068039713" lon="13.214434768940189"><ele>4.0</ele><time>2026-04-29T10:26:51Z</time></trkpt><trkpt lat="43.70902328989923" lon="13.214603597740282"><ele>4.0</ele><time>2026-04-29T10:26:52Z</time></trkpt><trkpt lat="43.709087811748695" lon="13.214767991639345"><ele>4.0</ele><time>2026-04-29T10:26:53Z</time></trkpt><trkpt lat="43.70915553149631" lon="13.214933750376382"><ele>4.0</ele><time>2026-04-29T10:26:54Z</time></trkpt><trkpt lat="43.70922617113897" lon="13.21509831993938"><ele>4.0</ele><time>2026-04-29T10:26:55Z</time></trkpt><trkpt lat="43.70929321968312" lon="13.215250578379473"><ele>4.0</ele><time>2026-04-29T10:26:56Z</time></trkpt><trkpt lat="43.709351197453046" lon="13.215389954239285"><ele>4.0</ele><time>2026-04-29T10:26:57Z</time></trkpt><trkpt lat="43.7094113774601" lon="13.215523058106916"><ele>4.0</ele><time>2026-04-29T10:26:58Z</time></trkpt><trkpt lat="43.70947371522895" lon="13.21564571655428"><ele>4.0</ele><time>2026-04-29T10:26:59Z</time></trkpt><trkpt lat="43.709534077867275" lon="13.215762803858029"><ele>4.0</ele><time>2026-04-29T10:27:00Z</time></trkpt><trkpt lat="43.70958783399354" lon="13.215865308308011"><ele>4.0</ele><time>2026-04-29T10:27:01Z</time></trkpt><trkpt lat="43.70964981041314" lon="13.215970923276066"><ele>4.0</ele><time>2026-04-29T10:27:02Z</time></trkpt><trkpt lat="43.70971153273475" lon="13.21607166644364"><ele>4.0</ele><time>2026-04-29T10:27:03Z</time></trkpt><trkpt lat="43.70977201657462" lon="13.216176029493955"><ele>4.0</ele><time>2026-04-29T10:27:04Z</time></trkpt><trkpt lat="43.7098325674559" lon="13.216282013653139"><ele>4.0</ele><time>2026-04-29T10:27:05Z</time></trkpt><trkpt lat="43.70989216028345" lon="13.216384208736795"><ele>4.0</ele><time>2026-04-29T10:27:06Z</time></trkpt><trkpt lat="43.709953612389654" lon="13.21649008045086"><ele>4.0</ele><time>2026-04-29T10:27:07Z</time></trkpt><trkpt lat="43.71002204917814" lon="13.216604793873353"><ele>4.5</ele><time>2026-04-29T10:27:08Z</time></trkpt><trkpt lat="43.71009546843312" lon="13.216717921590698"><ele>5.0</ele><time>2026-04-29T10:27:09Z</time></trkpt><trkpt lat="43.71016925106499" lon="13.216837419526549"><ele>5.5</ele><time>2026-04-29T10:27:10Z</time></trkpt><trkpt lat="43.71024511026953" lon="13.216960260857986"><ele>6.0</ele><time>2026-04-29T10:27:11Z</time></trkpt><trkpt lat="43.71032155005062" lon="13.217080493521834"><ele>6.0</ele><time>2026-04-29T10:27:12Z</time></trkpt><trkpt lat="43.71039654960883" lon="13.217204476086474"><ele>6.0</ele><time>2026-04-29T10:27:13Z</time></trkpt><trkpt lat="43.710475125387525" lon="13.217324863631454"><ele>6.0</ele><time>2026-04-29T10:27:14Z</time></trkpt><trkpt lat="43.71055707279978" lon="13.217442140739406"><ele>6.0</ele><time>2026-04-29T10:27:15Z</time></trkpt><trkpt lat="43.71063345736884" lon="13.217566945584243"><ele>5.75</ele><time>2026-04-29T10:27:16Z</time></trkpt><trkpt lat="43.71071267831607" lon="13.217692429617141"><ele>5.5</ele><time>2026-04-29T10:27:17Z</time></trkpt><trkpt lat="43.71079098637841" lon="13.21782104553433"><ele>5.25</ele><time>2026-04-29T10:27:18Z</time></trkpt><trkpt lat="43.710868655043825" lon="13.21794857134234"><ele>5.0</ele><time>2026-04-29T10:27:19Z</time></trkpt><trkpt lat="43.71094387180453" lon="13.218060504191039"><ele>5.166666666666667</ele><time>2026-04-29T10:27:20Z</time></trkpt><trkpt lat="43.711011113720154" lon="13.218162927744293"><ele>5.333333333333334</ele><time>2026-04-29T10:27:21Z</time></trkpt><trkpt lat="43.71107308013835" lon="13.218251426003729"><ele>5.5</ele><time>2026-04-29T10:27:22Z</time></trkpt><trkpt lat="43.711126711486" lon="13.218334606031584"><ele>5.666666666666667</ele><time>2026-04-29T10:27:23Z</time></trkpt><trkpt lat="43.711198148442385" lon="13.218431578426312"><ele>5.833333333333333</ele><time>2026-04-29T10:27:25Z</time></trkpt><trkpt lat="43.71123626942703" lon="13.218509759195967"><ele>6.0</ele><time>2026-04-29T10:27:52Z</time></trkpt><trkpt lat="43.71132126593747" lon="13.218638733776809"><ele>6.0</ele><time>2026-04-29T10:27:54Z</time></trkpt><trkpt lat="43.71136930892847" lon="13.21873079042278"><ele>6.0</ele><time>2026-04-29T10:27:55Z</time></trkpt><trkpt lat="43.71142611566055" lon="13.218837468655531"><ele>6.0</ele><time>2026-04-29T10:27:56Z</time></trkpt><trkpt lat="43.71148653363402" lon="13.218949340942915"><ele>6.0</ele><time>2026-04-29T10:27:57Z</time></trkpt><trkpt lat="43.711558505660584" lon="13.219059867865846"><ele>6.0</ele><time>2026-04-29T10:27:58Z</time></trkpt><trkpt lat="43.71162950904182" lon="13.219176777829963"><ele>6.0</ele><time>2026-04-29T10:27:59Z</time></trkpt><trkpt lat="43.711701360631785" lon="13.21929819888876"><ele>6.0</ele><time>2026-04-29T10:28:00Z</time></trkpt><trkpt lat="43.711772899734726" lon="13.21941676916236"><ele>6.0</ele><time>2026-04-29T10:28:01Z</time></trkpt><trkpt lat="43.71184497724528" lon="13.21952455986999"><ele>6.0</ele><time>2026-04-29T10:28:02Z</time></trkpt><trkpt lat="43.711912466970766" lon="13.219625619623864"><ele>6.0</ele><time>2026-04-29T10:28:03Z</time></trkpt><trkpt lat="43.71197657352674" lon="13.219714464035107"><ele>6.0</ele><time>2026-04-29T10:28:04Z</time></trkpt><trkpt lat="43.71202722479424" lon="13.219794175960754"><ele>6.0</ele><time>2026-04-29T10:28:05Z</time></trkpt><trkpt lat="43.71207123337314" lon="13.21986553187478"><ele>6.0</ele><time>2026-04-29T10:28:06Z</time></trkpt><trkpt lat="43.712114176075715" lon="13.219931365234123"><ele>6.0</ele><time>2026-04-29T10:28:07Z</time></trkpt><trkpt lat="43.712182396935134" lon="13.220053420054006"><ele>6.0</ele><time>2026-04-29T10:28:09Z</time></trkpt><trkpt lat="43.71224842686088" lon="13.220149489536011"><ele>6.0</ele><time>2026-04-29T10:28:11Z</time></trkpt><trkpt lat="43.71229663448902" lon="13.2202452631189"><ele>5.8</ele><time>2026-04-29T10:28:36Z</time></trkpt><trkpt lat="43.712363991282714" lon="13.220351606944611"><ele>5.6</ele><time>2026-04-29T10:28:38Z</time></trkpt><trkpt lat="43.712409090388554" lon="13.22042296096873"><ele>5.4</ele><time>2026-04-29T10:28:39Z</time></trkpt><trkpt lat="43.712437655195565" lon="13.220520810197655"><ele>5.2</ele><time>2026-04-29T10:28:40Z</time></trkpt><trkpt lat="43.71250463353343" lon="13.220627195132181"><ele>5.0</ele><time>2026-04-29T10:28:42Z</time></trkpt><trkpt lat="43.712658694328695" lon="13.22055276811583"><ele>5.0</ele><time>2026-04-29T10:28:45Z</time></trkpt><trkpt lat="43.71269936107089" lon="13.220478723053326"><ele>5.0</ele><time>2026-04-29T10:28:47Z</time></trkpt></trkseg></trk></gpx>